<?xml version="1.0" encoding="UTF-8" standalone="no" ?>
<gpx xmlns="http://www.topografix.com/GPX/1/1" xmlns:xsi="http://www.w3.org/2001/XMLSchema-instance" xsi:schemaLocation="http://www.topografix.com/GPX/1/1 http://www.topografix.com/GPX/1/1/gpx.xsd" version="1.1" creator="VisuGPX - https://www.visugpx.com">
  <metadata>
    <name>Entre Le Bessat et Le Col De La Republique</name>
    <desc><![CDATA[Promenade au milieu des bois pour se revivifier]]></desc>
  </metadata>
  <trk>
    <name><![CDATA[Entre Le Bessat et Le Col De La Republique_1]]></name>
    <trkseg>
      <trkpt lat="45.36761" lon="4.51869">
        <ele>1176.936035</ele>
        <time>2011-03-05 13:13:45Z</time>
      </trkpt>
      <trkpt lat="45.36761" lon="4.51869">
        <ele>1177.053833</ele>
        <time>2011-03-05 13:13:49Z</time>
      </trkpt>
      <trkpt lat="45.36761" lon="4.51869">
        <ele>1177.58374</ele>
        <time>2011-03-05 13:13:53Z</time>
      </trkpt>
      <trkpt lat="45.36767" lon="4.51865">
        <ele>1178.20752</ele>
        <time>2011-03-05 13:13:57Z</time>
      </trkpt>
      <trkpt lat="45.3677" lon="4.51861">
        <ele>1178.527588</ele>
        <time>2011-03-05 13:14:01Z</time>
      </trkpt>
      <trkpt lat="45.36774" lon="4.51856">
        <ele>1178.804688</ele>
        <time>2011-03-05 13:14:05Z</time>
      </trkpt>
      <trkpt lat="45.36777" lon="4.5185">
        <ele>1179.129272</ele>
        <time>2011-03-05 13:14:09Z</time>
      </trkpt>
      <trkpt lat="45.36778" lon="4.51844">
        <ele>1179.411743</ele>
        <time>2011-03-05 13:14:13Z</time>
      </trkpt>
      <trkpt lat="45.36779" lon="4.51837">
        <ele>1179.654663</ele>
        <time>2011-03-05 13:14:17Z</time>
      </trkpt>
      <trkpt lat="45.3678" lon="4.51831">
        <ele>1179.914795</ele>
        <time>2011-03-05 13:14:21Z</time>
      </trkpt>
      <trkpt lat="45.3678" lon="4.51825">
        <ele>1180.151245</ele>
        <time>2011-03-05 13:14:25Z</time>
      </trkpt>
      <trkpt lat="45.36777" lon="4.51823">
        <ele>1180.357788</ele>
        <time>2011-03-05 13:14:29Z</time>
      </trkpt>
      <trkpt lat="45.36773" lon="4.51822">
        <ele>1180.597046</ele>
        <time>2011-03-05 13:14:33Z</time>
      </trkpt>
      <trkpt lat="45.36768" lon="4.51822">
        <ele>1180.840576</ele>
        <time>2011-03-05 13:14:37Z</time>
      </trkpt>
      <trkpt lat="45.36763" lon="4.51822">
        <ele>1181.192627</ele>
        <time>2011-03-05 13:14:41Z</time>
      </trkpt>
      <trkpt lat="45.36757" lon="4.51822">
        <ele>1181.656006</ele>
        <time>2011-03-05 13:14:45Z</time>
      </trkpt>
      <trkpt lat="45.36753" lon="4.51823">
        <ele>1182.135986</ele>
        <time>2011-03-05 13:14:49Z</time>
      </trkpt>
      <trkpt lat="45.36747" lon="4.51825">
        <ele>1182.588867</ele>
        <time>2011-03-05 13:14:53Z</time>
      </trkpt>
      <trkpt lat="45.36742" lon="4.51827">
        <ele>1183.057495</ele>
        <time>2011-03-05 13:14:57Z</time>
      </trkpt>
      <trkpt lat="45.36737" lon="4.51829">
        <ele>1183.540894</ele>
        <time>2011-03-05 13:15:01Z</time>
      </trkpt>
      <trkpt lat="45.36733" lon="4.51828">
        <ele>1184.211914</ele>
        <time>2011-03-05 13:15:05Z</time>
      </trkpt>
      <trkpt lat="45.36728" lon="4.51829">
        <ele>1184.782715</ele>
        <time>2011-03-05 13:15:09Z</time>
      </trkpt>
      <trkpt lat="45.36722" lon="4.5183">
        <ele>1185.249756</ele>
        <time>2011-03-05 13:15:13Z</time>
      </trkpt>
      <trkpt lat="45.36717" lon="4.51832">
        <ele>1185.703247</ele>
        <time>2011-03-05 13:15:17Z</time>
      </trkpt>
      <trkpt lat="45.36712" lon="4.51834">
        <ele>1186.130371</ele>
        <time>2011-03-05 13:15:21Z</time>
      </trkpt>
      <trkpt lat="45.36707" lon="4.51836">
        <ele>1186.57666</ele>
        <time>2011-03-05 13:15:25Z</time>
      </trkpt>
      <trkpt lat="45.36703" lon="4.51837">
        <ele>1187.067871</ele>
        <time>2011-03-05 13:15:29Z</time>
      </trkpt>
      <trkpt lat="45.36699" lon="4.51839">
        <ele>1187.552612</ele>
        <time>2011-03-05 13:15:33Z</time>
      </trkpt>
      <trkpt lat="45.36694" lon="4.5184">
        <ele>1187.945801</ele>
        <time>2011-03-05 13:15:37Z</time>
      </trkpt>
      <trkpt lat="45.3669" lon="4.51842">
        <ele>1188.295532</ele>
        <time>2011-03-05 13:15:41Z</time>
      </trkpt>
      <trkpt lat="45.36686" lon="4.51843">
        <ele>1188.548828</ele>
        <time>2011-03-05 13:15:45Z</time>
      </trkpt>
      <trkpt lat="45.36681" lon="4.51846">
        <ele>1188.841919</ele>
        <time>2011-03-05 13:15:49Z</time>
      </trkpt>
      <trkpt lat="45.36676" lon="4.5185">
        <ele>1189.231201</ele>
        <time>2011-03-05 13:15:53Z</time>
      </trkpt>
      <trkpt lat="45.36671" lon="4.51852">
        <ele>1189.672241</ele>
        <time>2011-03-05 13:15:57Z</time>
      </trkpt>
      <trkpt lat="45.36667" lon="4.51857">
        <ele>1190.139893</ele>
        <time>2011-03-05 13:16:01Z</time>
      </trkpt>
      <trkpt lat="45.36663" lon="4.51861">
        <ele>1190.708374</ele>
        <time>2011-03-05 13:16:05Z</time>
      </trkpt>
      <trkpt lat="45.3666" lon="4.51866">
        <ele>1191.330444</ele>
        <time>2011-03-05 13:16:09Z</time>
      </trkpt>
      <trkpt lat="45.36657" lon="4.51871">
        <ele>1191.916382</ele>
        <time>2011-03-05 13:16:13Z</time>
      </trkpt>
      <trkpt lat="45.36653" lon="4.51877">
        <ele>1192.506958</ele>
        <time>2011-03-05 13:16:17Z</time>
      </trkpt>
      <trkpt lat="45.36648" lon="4.51881">
        <ele>1193.172485</ele>
        <time>2011-03-05 13:16:21Z</time>
      </trkpt>
      <trkpt lat="45.36644" lon="4.51885">
        <ele>1193.838501</ele>
        <time>2011-03-05 13:16:25Z</time>
      </trkpt>
      <trkpt lat="45.36639" lon="4.5189">
        <ele>1194.499634</ele>
        <time>2011-03-05 13:16:29Z</time>
      </trkpt>
      <trkpt lat="45.36634" lon="4.51895">
        <ele>1195.146362</ele>
        <time>2011-03-05 13:16:33Z</time>
      </trkpt>
      <trkpt lat="45.3663" lon="4.51899">
        <ele>1195.767578</ele>
        <time>2011-03-05 13:16:37Z</time>
      </trkpt>
      <trkpt lat="45.36626" lon="4.51903">
        <ele>1196.364746</ele>
        <time>2011-03-05 13:16:41Z</time>
      </trkpt>
      <trkpt lat="45.36622" lon="4.51908">
        <ele>1196.940186</ele>
        <time>2011-03-05 13:16:45Z</time>
      </trkpt>
      <trkpt lat="45.36618" lon="4.51912">
        <ele>1197.500854</ele>
        <time>2011-03-05 13:16:49Z</time>
      </trkpt>
      <trkpt lat="45.36614" lon="4.51916">
        <ele>1198.01001</ele>
        <time>2011-03-05 13:16:53Z</time>
      </trkpt>
      <trkpt lat="45.36609" lon="4.51921">
        <ele>1198.466797</ele>
        <time>2011-03-05 13:16:57Z</time>
      </trkpt>
      <trkpt lat="45.36604" lon="4.51926">
        <ele>1198.900269</ele>
        <time>2011-03-05 13:17:01Z</time>
      </trkpt>
      <trkpt lat="45.36599" lon="4.51931">
        <ele>1199.296997</ele>
        <time>2011-03-05 13:17:05Z</time>
      </trkpt>
      <trkpt lat="45.36595" lon="4.51936">
        <ele>1199.668823</ele>
        <time>2011-03-05 13:17:09Z</time>
      </trkpt>
      <trkpt lat="45.36591" lon="4.5194">
        <ele>1200.042603</ele>
        <time>2011-03-05 13:17:13Z</time>
      </trkpt>
      <trkpt lat="45.36587" lon="4.51945">
        <ele>1200.409058</ele>
        <time>2011-03-05 13:17:17Z</time>
      </trkpt>
      <trkpt lat="45.36584" lon="4.5195">
        <ele>1200.736328</ele>
        <time>2011-03-05 13:17:21Z</time>
      </trkpt>
      <trkpt lat="45.3658" lon="4.51956">
        <ele>1201.031982</ele>
        <time>2011-03-05 13:17:25Z</time>
      </trkpt>
      <trkpt lat="45.36577" lon="4.51962">
        <ele>1201.275513</ele>
        <time>2011-03-05 13:17:29Z</time>
      </trkpt>
      <trkpt lat="45.36574" lon="4.51967">
        <ele>1201.465698</ele>
        <time>2011-03-05 13:17:33Z</time>
      </trkpt>
      <trkpt lat="45.36571" lon="4.51973">
        <ele>1201.590576</ele>
        <time>2011-03-05 13:17:37Z</time>
      </trkpt>
      <trkpt lat="45.36567" lon="4.51978">
        <ele>1201.717041</ele>
        <time>2011-03-05 13:17:41Z</time>
      </trkpt>
      <trkpt lat="45.36563" lon="4.51984">
        <ele>1201.858154</ele>
        <time>2011-03-05 13:17:45Z</time>
      </trkpt>
      <trkpt lat="45.3656" lon="4.51989">
        <ele>1202.013184</ele>
        <time>2011-03-05 13:17:49Z</time>
      </trkpt>
      <trkpt lat="45.36557" lon="4.51994">
        <ele>1202.197632</ele>
        <time>2011-03-05 13:17:53Z</time>
      </trkpt>
      <trkpt lat="45.36555" lon="4.52">
        <ele>1202.377563</ele>
        <time>2011-03-05 13:17:57Z</time>
      </trkpt>
      <trkpt lat="45.36551" lon="4.52006">
        <ele>1202.55127</ele>
        <time>2011-03-05 13:18:01Z</time>
      </trkpt>
      <trkpt lat="45.36547" lon="4.52012">
        <ele>1202.725952</ele>
        <time>2011-03-05 13:18:05Z</time>
      </trkpt>
      <trkpt lat="45.36544" lon="4.52019">
        <ele>1202.914062</ele>
        <time>2011-03-05 13:18:09Z</time>
      </trkpt>
      <trkpt lat="45.36541" lon="4.52025">
        <ele>1203.094849</ele>
        <time>2011-03-05 13:18:13Z</time>
      </trkpt>
      <trkpt lat="45.36538" lon="4.52032">
        <ele>1203.300415</ele>
        <time>2011-03-05 13:18:17Z</time>
      </trkpt>
      <trkpt lat="45.36535" lon="4.52039">
        <ele>1203.504761</ele>
        <time>2011-03-05 13:18:21Z</time>
      </trkpt>
      <trkpt lat="45.36531" lon="4.52046">
        <ele>1203.74646</ele>
        <time>2011-03-05 13:18:25Z</time>
      </trkpt>
      <trkpt lat="45.36528" lon="4.52053">
        <ele>1203.977905</ele>
        <time>2011-03-05 13:18:29Z</time>
      </trkpt>
      <trkpt lat="45.36525" lon="4.52059">
        <ele>1204.185303</ele>
        <time>2011-03-05 13:18:33Z</time>
      </trkpt>
      <trkpt lat="45.36522" lon="4.52065">
        <ele>1204.388672</ele>
        <time>2011-03-05 13:18:37Z</time>
      </trkpt>
      <trkpt lat="45.3652" lon="4.52071">
        <ele>1204.616577</ele>
        <time>2011-03-05 13:18:41Z</time>
      </trkpt>
      <trkpt lat="45.36516" lon="4.52077">
        <ele>1204.765137</ele>
        <time>2011-03-05 13:18:45Z</time>
      </trkpt>
      <trkpt lat="45.36513" lon="4.52083">
        <ele>1204.87793</ele>
        <time>2011-03-05 13:18:49Z</time>
      </trkpt>
      <trkpt lat="45.36511" lon="4.52089">
        <ele>1205.025146</ele>
        <time>2011-03-05 13:18:53Z</time>
      </trkpt>
      <trkpt lat="45.36507" lon="4.52096">
        <ele>1205.324341</ele>
        <time>2011-03-05 13:18:57Z</time>
      </trkpt>
      <trkpt lat="45.36501" lon="4.52106">
        <ele>1205.786743</ele>
        <time>2011-03-05 13:19:01Z</time>
      </trkpt>
      <trkpt lat="45.36495" lon="4.52114">
        <ele>1206.332397</ele>
        <time>2011-03-05 13:19:05Z</time>
      </trkpt>
      <trkpt lat="45.36492" lon="4.52121">
        <ele>1206.866333</ele>
        <time>2011-03-05 13:19:09Z</time>
      </trkpt>
      <trkpt lat="45.36489" lon="4.52127">
        <ele>1207.381714</ele>
        <time>2011-03-05 13:19:13Z</time>
      </trkpt>
      <trkpt lat="45.36485" lon="4.52133">
        <ele>1207.92334</ele>
        <time>2011-03-05 13:19:17Z</time>
      </trkpt>
      <trkpt lat="45.36482" lon="4.52139">
        <ele>1208.488159</ele>
        <time>2011-03-05 13:19:21Z</time>
      </trkpt>
      <trkpt lat="45.36479" lon="4.52145">
        <ele>1209.011719</ele>
        <time>2011-03-05 13:19:25Z</time>
      </trkpt>
      <trkpt lat="45.36477" lon="4.52151">
        <ele>1209.478516</ele>
        <time>2011-03-05 13:19:29Z</time>
      </trkpt>
      <trkpt lat="45.36474" lon="4.52157">
        <ele>1209.912231</ele>
        <time>2011-03-05 13:19:33Z</time>
      </trkpt>
      <trkpt lat="45.36471" lon="4.52163">
        <ele>1210.29248</ele>
        <time>2011-03-05 13:19:37Z</time>
      </trkpt>
      <trkpt lat="45.36468" lon="4.52169">
        <ele>1210.623413</ele>
        <time>2011-03-05 13:19:41Z</time>
      </trkpt>
      <trkpt lat="45.36466" lon="4.52175">
        <ele>1210.901489</ele>
        <time>2011-03-05 13:19:45Z</time>
      </trkpt>
      <trkpt lat="45.36463" lon="4.52181">
        <ele>1211.113892</ele>
        <time>2011-03-05 13:19:49Z</time>
      </trkpt>
      <trkpt lat="45.3646" lon="4.52186">
        <ele>1211.293701</ele>
        <time>2011-03-05 13:19:53Z</time>
      </trkpt>
      <trkpt lat="45.36458" lon="4.52193">
        <ele>1211.456665</ele>
        <time>2011-03-05 13:19:57Z</time>
      </trkpt>
      <trkpt lat="45.36456" lon="4.52199">
        <ele>1211.618652</ele>
        <time>2011-03-05 13:20:01Z</time>
      </trkpt>
      <trkpt lat="45.36453" lon="4.52206">
        <ele>1211.799683</ele>
        <time>2011-03-05 13:20:05Z</time>
      </trkpt>
      <trkpt lat="45.36451" lon="4.52213">
        <ele>1211.952026</ele>
        <time>2011-03-05 13:20:09Z</time>
      </trkpt>
      <trkpt lat="45.36449" lon="4.5222">
        <ele>1212.054688</ele>
        <time>2011-03-05 13:20:13Z</time>
      </trkpt>
      <trkpt lat="45.36447" lon="4.52228">
        <ele>1212.109009</ele>
        <time>2011-03-05 13:20:17Z</time>
      </trkpt>
      <trkpt lat="45.36445" lon="4.52236">
        <ele>1212.144409</ele>
        <time>2011-03-05 13:20:21Z</time>
      </trkpt>
      <trkpt lat="45.36444" lon="4.52243">
        <ele>1212.169434</ele>
        <time>2011-03-05 13:20:25Z</time>
      </trkpt>
      <trkpt lat="45.36442" lon="4.5225">
        <ele>1212.196899</ele>
        <time>2011-03-05 13:20:29Z</time>
      </trkpt>
      <trkpt lat="45.3644" lon="4.52258">
        <ele>1212.24585</ele>
        <time>2011-03-05 13:20:33Z</time>
      </trkpt>
      <trkpt lat="45.36437" lon="4.52266">
        <ele>1212.356323</ele>
        <time>2011-03-05 13:20:37Z</time>
      </trkpt>
      <trkpt lat="45.36435" lon="4.52274">
        <ele>1212.521606</ele>
        <time>2011-03-05 13:20:41Z</time>
      </trkpt>
      <trkpt lat="45.36433" lon="4.52283">
        <ele>1212.715088</ele>
        <time>2011-03-05 13:20:45Z</time>
      </trkpt>
      <trkpt lat="45.36432" lon="4.5229">
        <ele>1212.884521</ele>
        <time>2011-03-05 13:20:49Z</time>
      </trkpt>
      <trkpt lat="45.36431" lon="4.52297">
        <ele>1213.037598</ele>
        <time>2011-03-05 13:20:53Z</time>
      </trkpt>
      <trkpt lat="45.3643" lon="4.52304">
        <ele>1213.171265</ele>
        <time>2011-03-05 13:20:57Z</time>
      </trkpt>
      <trkpt lat="45.36428" lon="4.52311">
        <ele>1213.290283</ele>
        <time>2011-03-05 13:21:01Z</time>
      </trkpt>
      <trkpt lat="45.36427" lon="4.52319">
        <ele>1213.400757</ele>
        <time>2011-03-05 13:21:05Z</time>
      </trkpt>
      <trkpt lat="45.36426" lon="4.52325">
        <ele>1213.496582</ele>
        <time>2011-03-05 13:21:09Z</time>
      </trkpt>
      <trkpt lat="45.36424" lon="4.52332">
        <ele>1213.573242</ele>
        <time>2011-03-05 13:21:13Z</time>
      </trkpt>
      <trkpt lat="45.36423" lon="4.52338">
        <ele>1213.619141</ele>
        <time>2011-03-05 13:21:17Z</time>
      </trkpt>
      <trkpt lat="45.36421" lon="4.52344">
        <ele>1213.649414</ele>
        <time>2011-03-05 13:21:21Z</time>
      </trkpt>
      <trkpt lat="45.36419" lon="4.5235">
        <ele>1213.681641</ele>
        <time>2011-03-05 13:21:25Z</time>
      </trkpt>
      <trkpt lat="45.36417" lon="4.52356">
        <ele>1213.664062</ele>
        <time>2011-03-05 13:21:29Z</time>
      </trkpt>
      <trkpt lat="45.36414" lon="4.52363">
        <ele>1213.612549</ele>
        <time>2011-03-05 13:21:33Z</time>
      </trkpt>
      <trkpt lat="45.36409" lon="4.52373">
        <ele>1213.682129</ele>
        <time>2011-03-05 13:21:37Z</time>
      </trkpt>
      <trkpt lat="45.36405" lon="4.5238">
        <ele>1213.825195</ele>
        <time>2011-03-05 13:21:41Z</time>
      </trkpt>
      <trkpt lat="45.36402" lon="4.52387">
        <ele>1213.966553</ele>
        <time>2011-03-05 13:21:45Z</time>
      </trkpt>
      <trkpt lat="45.36398" lon="4.52393">
        <ele>1214.107544</ele>
        <time>2011-03-05 13:21:49Z</time>
      </trkpt>
      <trkpt lat="45.36395" lon="4.52398">
        <ele>1214.263794</ele>
        <time>2011-03-05 13:21:53Z</time>
      </trkpt>
      <trkpt lat="45.3639" lon="4.52402">
        <ele>1214.444702</ele>
        <time>2011-03-05 13:21:57Z</time>
      </trkpt>
      <trkpt lat="45.36386" lon="4.52406">
        <ele>1214.677612</ele>
        <time>2011-03-05 13:22:01Z</time>
      </trkpt>
      <trkpt lat="45.36382" lon="4.5241">
        <ele>1214.94104</ele>
        <time>2011-03-05 13:22:05Z</time>
      </trkpt>
      <trkpt lat="45.36377" lon="4.52412">
        <ele>1215.163086</ele>
        <time>2011-03-05 13:22:09Z</time>
      </trkpt>
      <trkpt lat="45.36372" lon="4.52415">
        <ele>1215.333496</ele>
        <time>2011-03-05 13:22:13Z</time>
      </trkpt>
      <trkpt lat="45.36366" lon="4.52418">
        <ele>1215.401489</ele>
        <time>2011-03-05 13:22:17Z</time>
      </trkpt>
      <trkpt lat="45.36361" lon="4.52421">
        <ele>1215.434692</ele>
        <time>2011-03-05 13:22:21Z</time>
      </trkpt>
      <trkpt lat="45.36356" lon="4.52423">
        <ele>1215.452393</ele>
        <time>2011-03-05 13:22:25Z</time>
      </trkpt>
      <trkpt lat="45.3635" lon="4.52424">
        <ele>1215.514648</ele>
        <time>2011-03-05 13:22:29Z</time>
      </trkpt>
      <trkpt lat="45.36344" lon="4.52424">
        <ele>1215.605469</ele>
        <time>2011-03-05 13:22:33Z</time>
      </trkpt>
      <trkpt lat="45.36336" lon="4.52427">
        <ele>1215.846924</ele>
        <time>2011-03-05 13:22:37Z</time>
      </trkpt>
      <trkpt lat="45.36331" lon="4.52427">
        <ele>1216.132446</ele>
        <time>2011-03-05 13:22:41Z</time>
      </trkpt>
      <trkpt lat="45.36327" lon="4.52427">
        <ele>1216.331543</ele>
        <time>2011-03-05 13:22:45Z</time>
      </trkpt>
      <trkpt lat="45.36322" lon="4.52428">
        <ele>1216.47168</ele>
        <time>2011-03-05 13:22:49Z</time>
      </trkpt>
      <trkpt lat="45.36318" lon="4.52428">
        <ele>1216.606812</ele>
        <time>2011-03-05 13:22:53Z</time>
      </trkpt>
      <trkpt lat="45.36315" lon="4.52427">
        <ele>1216.723267</ele>
        <time>2011-03-05 13:22:57Z</time>
      </trkpt>
      <trkpt lat="45.36311" lon="4.52426">
        <ele>1216.845825</ele>
        <time>2011-03-05 13:23:01Z</time>
      </trkpt>
      <trkpt lat="45.36306" lon="4.52425">
        <ele>1216.986328</ele>
        <time>2011-03-05 13:23:05Z</time>
      </trkpt>
      <trkpt lat="45.36302" lon="4.52423">
        <ele>1217.124634</ele>
        <time>2011-03-05 13:23:09Z</time>
      </trkpt>
      <trkpt lat="45.36298" lon="4.52421">
        <ele>1217.224609</ele>
        <time>2011-03-05 13:23:13Z</time>
      </trkpt>
      <trkpt lat="45.36293" lon="4.5242">
        <ele>1217.275757</ele>
        <time>2011-03-05 13:23:17Z</time>
      </trkpt>
      <trkpt lat="45.36288" lon="4.52419">
        <ele>1217.25769</ele>
        <time>2011-03-05 13:23:21Z</time>
      </trkpt>
      <trkpt lat="45.36284" lon="4.52415">
        <ele>1217.400879</ele>
        <time>2011-03-05 13:23:25Z</time>
      </trkpt>
      <trkpt lat="45.36281" lon="4.52413">
        <ele>1217.687378</ele>
        <time>2011-03-05 13:23:29Z</time>
      </trkpt>
      <trkpt lat="45.36281" lon="4.52413">
        <ele>1218.205688</ele>
        <time>2011-03-05 13:23:33Z</time>
      </trkpt>
      <trkpt lat="45.36272" lon="4.52406">
        <ele>1218.638794</ele>
        <time>2011-03-05 13:23:37Z</time>
      </trkpt>
      <trkpt lat="45.36265" lon="4.52406">
        <ele>1218.860474</ele>
        <time>2011-03-05 13:23:41Z</time>
      </trkpt>
      <trkpt lat="45.3626" lon="4.52406">
        <ele>1219.019043</ele>
        <time>2011-03-05 13:23:45Z</time>
      </trkpt>
      <trkpt lat="45.36255" lon="4.52405">
        <ele>1219.170288</ele>
        <time>2011-03-05 13:23:49Z</time>
      </trkpt>
      <trkpt lat="45.36251" lon="4.52405">
        <ele>1219.307739</ele>
        <time>2011-03-05 13:23:53Z</time>
      </trkpt>
      <trkpt lat="45.36243" lon="4.52405">
        <ele>1219.655151</ele>
        <time>2011-03-05 13:23:57Z</time>
      </trkpt>
      <trkpt lat="45.36236" lon="4.52404">
        <ele>1220.084351</ele>
        <time>2011-03-05 13:24:01Z</time>
      </trkpt>
      <trkpt lat="45.36232" lon="4.52404">
        <ele>1220.467529</ele>
        <time>2011-03-05 13:24:05Z</time>
      </trkpt>
      <trkpt lat="45.36228" lon="4.52404">
        <ele>1220.792114</ele>
        <time>2011-03-05 13:24:09Z</time>
      </trkpt>
      <trkpt lat="45.36224" lon="4.52403">
        <ele>1221.05542</ele>
        <time>2011-03-05 13:24:13Z</time>
      </trkpt>
      <trkpt lat="45.36221" lon="4.52404">
        <ele>1221.223511</ele>
        <time>2011-03-05 13:24:17Z</time>
      </trkpt>
      <trkpt lat="45.36216" lon="4.52404">
        <ele>1221.334839</ele>
        <time>2011-03-05 13:24:21Z</time>
      </trkpt>
      <trkpt lat="45.36213" lon="4.52403">
        <ele>1221.405396</ele>
        <time>2011-03-05 13:24:25Z</time>
      </trkpt>
      <trkpt lat="45.36208" lon="4.52401">
        <ele>1221.42041</ele>
        <time>2011-03-05 13:24:29Z</time>
      </trkpt>
      <trkpt lat="45.36202" lon="4.524">
        <ele>1221.477295</ele>
        <time>2011-03-05 13:24:33Z</time>
      </trkpt>
      <trkpt lat="45.36196" lon="4.524">
        <ele>1221.54187</ele>
        <time>2011-03-05 13:24:37Z</time>
      </trkpt>
      <trkpt lat="45.36189" lon="4.52401">
        <ele>1221.564941</ele>
        <time>2011-03-05 13:24:41Z</time>
      </trkpt>
      <trkpt lat="45.36182" lon="4.52398">
        <ele>1221.565063</ele>
        <time>2011-03-05 13:24:45Z</time>
      </trkpt>
      <trkpt lat="45.36177" lon="4.52396">
        <ele>1221.573364</ele>
        <time>2011-03-05 13:24:49Z</time>
      </trkpt>
      <trkpt lat="45.36172" lon="4.52395">
        <ele>1221.577271</ele>
        <time>2011-03-05 13:24:53Z</time>
      </trkpt>
      <trkpt lat="45.36168" lon="4.52394">
        <ele>1221.556152</ele>
        <time>2011-03-05 13:24:57Z</time>
      </trkpt>
      <trkpt lat="45.36162" lon="4.52393">
        <ele>1221.523071</ele>
        <time>2011-03-05 13:25:01Z</time>
      </trkpt>
      <trkpt lat="45.36159" lon="4.52392">
        <ele>1221.459717</ele>
        <time>2011-03-05 13:25:05Z</time>
      </trkpt>
      <trkpt lat="45.36156" lon="4.52391">
        <ele>1221.400757</ele>
        <time>2011-03-05 13:25:09Z</time>
      </trkpt>
      <trkpt lat="45.36152" lon="4.52387">
        <ele>1221.516968</ele>
        <time>2011-03-05 13:25:13Z</time>
      </trkpt>
      <trkpt lat="45.36148" lon="4.52382">
        <ele>1221.629883</ele>
        <time>2011-03-05 13:25:17Z</time>
      </trkpt>
      <trkpt lat="45.36142" lon="4.52376">
        <ele>1221.719849</ele>
        <time>2011-03-05 13:25:21Z</time>
      </trkpt>
      <trkpt lat="45.36137" lon="4.52373">
        <ele>1221.822632</ele>
        <time>2011-03-05 13:25:25Z</time>
      </trkpt>
      <trkpt lat="45.36133" lon="4.5237">
        <ele>1221.907471</ele>
        <time>2011-03-05 13:25:29Z</time>
      </trkpt>
      <trkpt lat="45.36133" lon="4.5237">
        <ele>1221.916138</ele>
        <time>2011-03-05 13:25:33Z</time>
      </trkpt>
      <trkpt lat="45.36128" lon="4.5237">
        <ele>1221.942627</ele>
        <time>2011-03-05 13:25:37Z</time>
      </trkpt>
      <trkpt lat="45.36122" lon="4.52367">
        <ele>1222.057007</ele>
        <time>2011-03-05 13:25:41Z</time>
      </trkpt>
      <trkpt lat="45.36112" lon="4.52359">
        <ele>1222.261353</ele>
        <time>2011-03-05 13:25:45Z</time>
      </trkpt>
      <trkpt lat="45.36102" lon="4.52352">
        <ele>1222.448486</ele>
        <time>2011-03-05 13:25:49Z</time>
      </trkpt>
      <trkpt lat="45.36095" lon="4.52349">
        <ele>1222.593994</ele>
        <time>2011-03-05 13:25:53Z</time>
      </trkpt>
      <trkpt lat="45.36089" lon="4.52347">
        <ele>1222.720337</ele>
        <time>2011-03-05 13:25:57Z</time>
      </trkpt>
      <trkpt lat="45.36085" lon="4.52347">
        <ele>1222.84314</ele>
        <time>2011-03-05 13:26:01Z</time>
      </trkpt>
      <trkpt lat="45.36083" lon="4.52346">
        <ele>1222.888794</ele>
        <time>2011-03-05 13:26:05Z</time>
      </trkpt>
      <trkpt lat="45.36083" lon="4.52346">
        <ele>1222.927979</ele>
        <time>2011-03-05 13:26:09Z</time>
      </trkpt>
      <trkpt lat="45.36079" lon="4.52344">
        <ele>1222.960205</ele>
        <time>2011-03-05 13:26:13Z</time>
      </trkpt>
      <trkpt lat="45.36073" lon="4.52343">
        <ele>1222.99231</ele>
        <time>2011-03-05 13:26:17Z</time>
      </trkpt>
      <trkpt lat="45.36064" lon="4.5234">
        <ele>1223.073364</ele>
        <time>2011-03-05 13:26:21Z</time>
      </trkpt>
      <trkpt lat="45.36057" lon="4.52337">
        <ele>1223.200073</ele>
        <time>2011-03-05 13:26:25Z</time>
      </trkpt>
      <trkpt lat="45.36053" lon="4.52336">
        <ele>1223.329712</ele>
        <time>2011-03-05 13:26:29Z</time>
      </trkpt>
      <trkpt lat="45.36047" lon="4.52332">
        <ele>1223.567871</ele>
        <time>2011-03-05 13:26:33Z</time>
      </trkpt>
      <trkpt lat="45.3604" lon="4.52329">
        <ele>1223.880493</ele>
        <time>2011-03-05 13:26:37Z</time>
      </trkpt>
      <trkpt lat="45.36034" lon="4.52328">
        <ele>1224.130005</ele>
        <time>2011-03-05 13:26:41Z</time>
      </trkpt>
      <trkpt lat="45.36026" lon="4.52324">
        <ele>1224.280273</ele>
        <time>2011-03-05 13:26:45Z</time>
      </trkpt>
      <trkpt lat="45.36017" lon="4.52318">
        <ele>1224.395142</ele>
        <time>2011-03-05 13:26:49Z</time>
      </trkpt>
      <trkpt lat="45.3601" lon="4.52314">
        <ele>1224.533813</ele>
        <time>2011-03-05 13:26:53Z</time>
      </trkpt>
      <trkpt lat="45.36004" lon="4.52314">
        <ele>1224.667114</ele>
        <time>2011-03-05 13:26:57Z</time>
      </trkpt>
      <trkpt lat="45.36" lon="4.52314">
        <ele>1224.769897</ele>
        <time>2011-03-05 13:27:01Z</time>
      </trkpt>
      <trkpt lat="45.36" lon="4.52314">
        <ele>1224.783936</ele>
        <time>2011-03-05 13:27:05Z</time>
      </trkpt>
      <trkpt lat="45.35996" lon="4.52313">
        <ele>1224.880737</ele>
        <time>2011-03-05 13:27:09Z</time>
      </trkpt>
      <trkpt lat="45.35991" lon="4.5231">
        <ele>1225.109131</ele>
        <time>2011-03-05 13:27:13Z</time>
      </trkpt>
      <trkpt lat="45.35985" lon="4.52306">
        <ele>1225.370483</ele>
        <time>2011-03-05 13:27:17Z</time>
      </trkpt>
      <trkpt lat="45.35981" lon="4.52303">
        <ele>1225.618896</ele>
        <time>2011-03-05 13:27:21Z</time>
      </trkpt>
      <trkpt lat="45.35977" lon="4.52299">
        <ele>1225.952881</ele>
        <time>2011-03-05 13:27:25Z</time>
      </trkpt>
      <trkpt lat="45.35973" lon="4.52296">
        <ele>1226.248901</ele>
        <time>2011-03-05 13:27:29Z</time>
      </trkpt>
      <trkpt lat="45.3597" lon="4.52294">
        <ele>1226.390503</ele>
        <time>2011-03-05 13:27:33Z</time>
      </trkpt>
      <trkpt lat="45.35965" lon="4.52295">
        <ele>1226.408936</ele>
        <time>2011-03-05 13:27:37Z</time>
      </trkpt>
      <trkpt lat="45.3596" lon="4.52296">
        <ele>1226.422363</ele>
        <time>2011-03-05 13:27:41Z</time>
      </trkpt>
      <trkpt lat="45.35949" lon="4.52289">
        <ele>1226.44397</ele>
        <time>2011-03-05 13:27:45Z</time>
      </trkpt>
      <trkpt lat="45.35944" lon="4.52286">
        <ele>1226.490967</ele>
        <time>2011-03-05 13:27:49Z</time>
      </trkpt>
      <trkpt lat="45.35939" lon="4.52285">
        <ele>1226.511963</ele>
        <time>2011-03-05 13:27:53Z</time>
      </trkpt>
      <trkpt lat="45.35932" lon="4.52284">
        <ele>1226.568726</ele>
        <time>2011-03-05 13:27:57Z</time>
      </trkpt>
      <trkpt lat="45.35926" lon="4.52281">
        <ele>1226.567749</ele>
        <time>2011-03-05 13:28:01Z</time>
      </trkpt>
      <trkpt lat="45.35922" lon="4.52279">
        <ele>1226.561646</ele>
        <time>2011-03-05 13:28:05Z</time>
      </trkpt>
      <trkpt lat="45.3592" lon="4.52278">
        <ele>1226.558472</ele>
        <time>2011-03-05 13:28:09Z</time>
      </trkpt>
      <trkpt lat="45.3592" lon="4.52278">
        <ele>1226.552246</ele>
        <time>2011-03-05 13:28:13Z</time>
      </trkpt>
      <trkpt lat="45.35915" lon="4.52276">
        <ele>1226.547241</ele>
        <time>2011-03-05 13:28:17Z</time>
      </trkpt>
      <trkpt lat="45.35909" lon="4.52274">
        <ele>1226.488403</ele>
        <time>2011-03-05 13:28:21Z</time>
      </trkpt>
      <trkpt lat="45.35904" lon="4.52271">
        <ele>1226.442749</ele>
        <time>2011-03-05 13:28:25Z</time>
      </trkpt>
      <trkpt lat="45.35899" lon="4.52269">
        <ele>1226.40918</ele>
        <time>2011-03-05 13:28:29Z</time>
      </trkpt>
      <trkpt lat="45.35893" lon="4.52266">
        <ele>1226.377808</ele>
        <time>2011-03-05 13:28:33Z</time>
      </trkpt>
      <trkpt lat="45.35887" lon="4.52263">
        <ele>1226.29834</ele>
        <time>2011-03-05 13:28:37Z</time>
      </trkpt>
      <trkpt lat="45.35882" lon="4.52262">
        <ele>1226.213623</ele>
        <time>2011-03-05 13:28:41Z</time>
      </trkpt>
      <trkpt lat="45.35877" lon="4.52259">
        <ele>1226.142944</ele>
        <time>2011-03-05 13:28:45Z</time>
      </trkpt>
      <trkpt lat="45.3587" lon="4.52257">
        <ele>1226.053223</ele>
        <time>2011-03-05 13:28:49Z</time>
      </trkpt>
      <trkpt lat="45.35864" lon="4.52253">
        <ele>1225.995361</ele>
        <time>2011-03-05 13:28:53Z</time>
      </trkpt>
      <trkpt lat="45.3586" lon="4.52248">
        <ele>1225.928467</ele>
        <time>2011-03-05 13:28:57Z</time>
      </trkpt>
      <trkpt lat="45.35855" lon="4.52243">
        <ele>1225.884277</ele>
        <time>2011-03-05 13:29:01Z</time>
      </trkpt>
      <trkpt lat="45.3585" lon="4.52237">
        <ele>1225.863892</ele>
        <time>2011-03-05 13:29:05Z</time>
      </trkpt>
      <trkpt lat="45.35845" lon="4.52232">
        <ele>1225.865723</ele>
        <time>2011-03-05 13:29:09Z</time>
      </trkpt>
      <trkpt lat="45.35842" lon="4.52229">
        <ele>1225.90332</ele>
        <time>2011-03-05 13:29:13Z</time>
      </trkpt>
      <trkpt lat="45.35838" lon="4.52223">
        <ele>1225.996704</ele>
        <time>2011-03-05 13:29:17Z</time>
      </trkpt>
      <trkpt lat="45.35833" lon="4.52217">
        <ele>1226.137939</ele>
        <time>2011-03-05 13:29:21Z</time>
      </trkpt>
      <trkpt lat="45.35826" lon="4.52205">
        <ele>1226.245605</ele>
        <time>2011-03-05 13:29:25Z</time>
      </trkpt>
      <trkpt lat="45.35824" lon="4.52199">
        <ele>1226.270264</ele>
        <time>2011-03-05 13:29:29Z</time>
      </trkpt>
      <trkpt lat="45.35822" lon="4.52192">
        <ele>1226.578369</ele>
        <time>2011-03-05 13:29:33Z</time>
      </trkpt>
      <trkpt lat="45.35822" lon="4.52192">
        <ele>1226.83606</ele>
        <time>2011-03-05 13:29:37Z</time>
      </trkpt>
      <trkpt lat="45.3582" lon="4.52186">
        <ele>1227.093506</ele>
        <time>2011-03-05 13:29:41Z</time>
      </trkpt>
      <trkpt lat="45.35819" lon="4.52178">
        <ele>1227.354614</ele>
        <time>2011-03-05 13:29:45Z</time>
      </trkpt>
      <trkpt lat="45.35819" lon="4.52171">
        <ele>1227.614136</ele>
        <time>2011-03-05 13:29:49Z</time>
      </trkpt>
      <trkpt lat="45.35817" lon="4.52162">
        <ele>1227.859497</ele>
        <time>2011-03-05 13:29:53Z</time>
      </trkpt>
      <trkpt lat="45.35817" lon="4.52156">
        <ele>1228.09668</ele>
        <time>2011-03-05 13:29:57Z</time>
      </trkpt>
      <trkpt lat="45.35816" lon="4.52142">
        <ele>1228.370605</ele>
        <time>2011-03-05 13:30:01Z</time>
      </trkpt>
      <trkpt lat="45.35815" lon="4.52135">
        <ele>1228.611938</ele>
        <time>2011-03-05 13:30:05Z</time>
      </trkpt>
      <trkpt lat="45.35815" lon="4.52128">
        <ele>1228.800049</ele>
        <time>2011-03-05 13:30:09Z</time>
      </trkpt>
      <trkpt lat="45.35814" lon="4.52121">
        <ele>1228.950806</ele>
        <time>2011-03-05 13:30:13Z</time>
      </trkpt>
      <trkpt lat="45.35812" lon="4.52113">
        <ele>1229.065918</ele>
        <time>2011-03-05 13:30:17Z</time>
      </trkpt>
      <trkpt lat="45.35811" lon="4.52107">
        <ele>1229.166626</ele>
        <time>2011-03-05 13:30:21Z</time>
      </trkpt>
      <trkpt lat="45.35811" lon="4.52101">
        <ele>1229.240112</ele>
        <time>2011-03-05 13:30:25Z</time>
      </trkpt>
      <trkpt lat="45.35809" lon="4.52094">
        <ele>1229.176392</ele>
        <time>2011-03-05 13:30:29Z</time>
      </trkpt>
      <trkpt lat="45.35807" lon="4.52087">
        <ele>1229.117554</ele>
        <time>2011-03-05 13:30:33Z</time>
      </trkpt>
      <trkpt lat="45.35806" lon="4.52079">
        <ele>1229.091919</ele>
        <time>2011-03-05 13:30:37Z</time>
      </trkpt>
      <trkpt lat="45.35804" lon="4.52072">
        <ele>1229.125977</ele>
        <time>2011-03-05 13:30:41Z</time>
      </trkpt>
      <trkpt lat="45.35803" lon="4.5206">
        <ele>1229.132202</ele>
        <time>2011-03-05 13:30:45Z</time>
      </trkpt>
      <trkpt lat="45.35802" lon="4.52053">
        <ele>1229.131348</ele>
        <time>2011-03-05 13:30:49Z</time>
      </trkpt>
      <trkpt lat="45.35803" lon="4.52047">
        <ele>1229.252686</ele>
        <time>2011-03-05 13:30:53Z</time>
      </trkpt>
      <trkpt lat="45.35803" lon="4.52041">
        <ele>1229.360107</ele>
        <time>2011-03-05 13:30:57Z</time>
      </trkpt>
      <trkpt lat="45.35803" lon="4.52041">
        <ele>1229.337402</ele>
        <time>2011-03-05 13:31:01Z</time>
      </trkpt>
      <trkpt lat="45.35801" lon="4.52033">
        <ele>1229.279297</ele>
        <time>2011-03-05 13:31:05Z</time>
      </trkpt>
      <trkpt lat="45.35798" lon="4.52027">
        <ele>1229.300781</ele>
        <time>2011-03-05 13:31:09Z</time>
      </trkpt>
      <trkpt lat="45.35798" lon="4.52027">
        <ele>1229.344849</ele>
        <time>2011-03-05 13:31:13Z</time>
      </trkpt>
      <trkpt lat="45.35798" lon="4.52021">
        <ele>1229.387695</ele>
        <time>2011-03-05 13:31:17Z</time>
      </trkpt>
      <trkpt lat="45.35797" lon="4.52013">
        <ele>1229.435547</ele>
        <time>2011-03-05 13:31:21Z</time>
      </trkpt>
      <trkpt lat="45.35796" lon="4.52007">
        <ele>1229.520508</ele>
        <time>2011-03-05 13:31:25Z</time>
      </trkpt>
      <trkpt lat="45.35794" lon="4.51997">
        <ele>1229.561401</ele>
        <time>2011-03-05 13:31:29Z</time>
      </trkpt>
      <trkpt lat="45.35793" lon="4.51992">
        <ele>1229.573486</ele>
        <time>2011-03-05 13:31:33Z</time>
      </trkpt>
      <trkpt lat="45.35792" lon="4.51987">
        <ele>1229.597168</ele>
        <time>2011-03-05 13:31:37Z</time>
      </trkpt>
      <trkpt lat="45.3579" lon="4.51983">
        <ele>1229.592529</ele>
        <time>2011-03-05 13:31:41Z</time>
      </trkpt>
      <trkpt lat="45.3579" lon="4.5198">
        <ele>1229.57019</ele>
        <time>2011-03-05 13:31:45Z</time>
      </trkpt>
      <trkpt lat="45.35786" lon="4.51971">
        <ele>1229.489624</ele>
        <time>2011-03-05 13:31:49Z</time>
      </trkpt>
      <trkpt lat="45.35784" lon="4.51965">
        <ele>1229.446655</ele>
        <time>2011-03-05 13:31:53Z</time>
      </trkpt>
      <trkpt lat="45.35782" lon="4.5196">
        <ele>1229.296265</ele>
        <time>2011-03-05 13:31:57Z</time>
      </trkpt>
      <trkpt lat="45.35774" lon="4.51949">
        <ele>1229.038086</ele>
        <time>2011-03-05 13:32:01Z</time>
      </trkpt>
      <trkpt lat="45.35766" lon="4.5194">
        <ele>1228.657837</ele>
        <time>2011-03-05 13:32:05Z</time>
      </trkpt>
      <trkpt lat="45.35761" lon="4.51932">
        <ele>1228.276123</ele>
        <time>2011-03-05 13:32:09Z</time>
      </trkpt>
      <trkpt lat="45.35756" lon="4.51925">
        <ele>1227.923706</ele>
        <time>2011-03-05 13:32:13Z</time>
      </trkpt>
      <trkpt lat="45.35751" lon="4.51916">
        <ele>1227.752075</ele>
        <time>2011-03-05 13:32:17Z</time>
      </trkpt>
      <trkpt lat="45.35747" lon="4.51907">
        <ele>1227.634277</ele>
        <time>2011-03-05 13:32:21Z</time>
      </trkpt>
      <trkpt lat="45.35743" lon="4.51901">
        <ele>1227.539307</ele>
        <time>2011-03-05 13:32:25Z</time>
      </trkpt>
      <trkpt lat="45.35739" lon="4.51896">
        <ele>1227.504639</ele>
        <time>2011-03-05 13:32:29Z</time>
      </trkpt>
      <trkpt lat="45.35735" lon="4.51889">
        <ele>1227.570557</ele>
        <time>2011-03-05 13:32:33Z</time>
      </trkpt>
      <trkpt lat="45.35732" lon="4.51882">
        <ele>1227.63501</ele>
        <time>2011-03-05 13:32:37Z</time>
      </trkpt>
      <trkpt lat="45.35729" lon="4.51876">
        <ele>1227.775635</ele>
        <time>2011-03-05 13:32:41Z</time>
      </trkpt>
      <trkpt lat="45.35726" lon="4.51871">
        <ele>1227.882935</ele>
        <time>2011-03-05 13:32:45Z</time>
      </trkpt>
      <trkpt lat="45.35723" lon="4.51867">
        <ele>1227.952271</ele>
        <time>2011-03-05 13:32:49Z</time>
      </trkpt>
      <trkpt lat="45.3572" lon="4.51863">
        <ele>1228.024048</ele>
        <time>2011-03-05 13:32:53Z</time>
      </trkpt>
      <trkpt lat="45.35718" lon="4.51858">
        <ele>1228.182617</ele>
        <time>2011-03-05 13:32:57Z</time>
      </trkpt>
      <trkpt lat="45.35715" lon="4.51852">
        <ele>1228.378418</ele>
        <time>2011-03-05 13:33:01Z</time>
      </trkpt>
      <trkpt lat="45.35713" lon="4.51848">
        <ele>1228.507324</ele>
        <time>2011-03-05 13:33:05Z</time>
      </trkpt>
      <trkpt lat="45.3571" lon="4.51843">
        <ele>1228.728882</ele>
        <time>2011-03-05 13:33:09Z</time>
      </trkpt>
      <trkpt lat="45.35707" lon="4.51836">
        <ele>1229.091309</ele>
        <time>2011-03-05 13:33:13Z</time>
      </trkpt>
      <trkpt lat="45.35707" lon="4.51836">
        <ele>1229.448853</ele>
        <time>2011-03-05 13:33:17Z</time>
      </trkpt>
      <trkpt lat="45.35704" lon="4.51831">
        <ele>1229.789062</ele>
        <time>2011-03-05 13:33:21Z</time>
      </trkpt>
      <trkpt lat="45.357" lon="4.51827">
        <ele>1230.02417</ele>
        <time>2011-03-05 13:33:25Z</time>
      </trkpt>
      <trkpt lat="45.35695" lon="4.51823">
        <ele>1230.21814</ele>
        <time>2011-03-05 13:33:29Z</time>
      </trkpt>
      <trkpt lat="45.35687" lon="4.51816">
        <ele>1230.387817</ele>
        <time>2011-03-05 13:33:33Z</time>
      </trkpt>
      <trkpt lat="45.35682" lon="4.51812">
        <ele>1230.525635</ele>
        <time>2011-03-05 13:33:37Z</time>
      </trkpt>
      <trkpt lat="45.35677" lon="4.51809">
        <ele>1230.677979</ele>
        <time>2011-03-05 13:33:41Z</time>
      </trkpt>
      <trkpt lat="45.35673" lon="4.51805">
        <ele>1230.922119</ele>
        <time>2011-03-05 13:33:45Z</time>
      </trkpt>
      <trkpt lat="45.35673" lon="4.51805">
        <ele>1231.135132</ele>
        <time>2011-03-05 13:33:49Z</time>
      </trkpt>
      <trkpt lat="45.35669" lon="4.51801">
        <ele>1231.231567</ele>
        <time>2011-03-05 13:33:53Z</time>
      </trkpt>
      <trkpt lat="45.35664" lon="4.51799">
        <ele>1231.225708</ele>
        <time>2011-03-05 13:33:57Z</time>
      </trkpt>
      <trkpt lat="45.35654" lon="4.51796">
        <ele>1231.128296</ele>
        <time>2011-03-05 13:34:01Z</time>
      </trkpt>
      <trkpt lat="45.35649" lon="4.51796">
        <ele>1231.058228</ele>
        <time>2011-03-05 13:34:05Z</time>
      </trkpt>
      <trkpt lat="45.35643" lon="4.51793">
        <ele>1231.011597</ele>
        <time>2011-03-05 13:34:09Z</time>
      </trkpt>
      <trkpt lat="45.35637" lon="4.51792">
        <ele>1230.980469</ele>
        <time>2011-03-05 13:34:13Z</time>
      </trkpt>
      <trkpt lat="45.35632" lon="4.51792">
        <ele>1230.956787</ele>
        <time>2011-03-05 13:34:17Z</time>
      </trkpt>
      <trkpt lat="45.35625" lon="4.5179">
        <ele>1230.878906</ele>
        <time>2011-03-05 13:34:21Z</time>
      </trkpt>
      <trkpt lat="45.35618" lon="4.51789">
        <ele>1230.884033</ele>
        <time>2011-03-05 13:34:25Z</time>
      </trkpt>
      <trkpt lat="45.35611" lon="4.51788">
        <ele>1230.959229</ele>
        <time>2011-03-05 13:34:29Z</time>
      </trkpt>
      <trkpt lat="45.35605" lon="4.51789">
        <ele>1231.144775</ele>
        <time>2011-03-05 13:34:33Z</time>
      </trkpt>
      <trkpt lat="45.35599" lon="4.51792">
        <ele>1231.338623</ele>
        <time>2011-03-05 13:34:37Z</time>
      </trkpt>
      <trkpt lat="45.35594" lon="4.51794">
        <ele>1231.581177</ele>
        <time>2011-03-05 13:34:41Z</time>
      </trkpt>
      <trkpt lat="45.35588" lon="4.51797">
        <ele>1231.945557</ele>
        <time>2011-03-05 13:34:45Z</time>
      </trkpt>
      <trkpt lat="45.35582" lon="4.51798">
        <ele>1232.257324</ele>
        <time>2011-03-05 13:34:49Z</time>
      </trkpt>
      <trkpt lat="45.35577" lon="4.51798">
        <ele>1232.548096</ele>
        <time>2011-03-05 13:34:53Z</time>
      </trkpt>
      <trkpt lat="45.35571" lon="4.51801">
        <ele>1232.810669</ele>
        <time>2011-03-05 13:34:57Z</time>
      </trkpt>
      <trkpt lat="45.35566" lon="4.51806">
        <ele>1232.86499</ele>
        <time>2011-03-05 13:35:01Z</time>
      </trkpt>
      <trkpt lat="45.3556" lon="4.5181">
        <ele>1232.900757</ele>
        <time>2011-03-05 13:35:05Z</time>
      </trkpt>
      <trkpt lat="45.35555" lon="4.51814">
        <ele>1232.921387</ele>
        <time>2011-03-05 13:35:09Z</time>
      </trkpt>
      <trkpt lat="45.3555" lon="4.51817">
        <ele>1232.989868</ele>
        <time>2011-03-05 13:35:13Z</time>
      </trkpt>
      <trkpt lat="45.35545" lon="4.5182">
        <ele>1233.152832</ele>
        <time>2011-03-05 13:35:17Z</time>
      </trkpt>
      <trkpt lat="45.35541" lon="4.51822">
        <ele>1233.312012</ele>
        <time>2011-03-05 13:35:21Z</time>
      </trkpt>
      <trkpt lat="45.35537" lon="4.51824">
        <ele>1233.468872</ele>
        <time>2011-03-05 13:35:25Z</time>
      </trkpt>
      <trkpt lat="45.35533" lon="4.51826">
        <ele>1233.599609</ele>
        <time>2011-03-05 13:35:29Z</time>
      </trkpt>
      <trkpt lat="45.3553" lon="4.51829">
        <ele>1233.682495</ele>
        <time>2011-03-05 13:35:33Z</time>
      </trkpt>
      <trkpt lat="45.35527" lon="4.51833">
        <ele>1233.744873</ele>
        <time>2011-03-05 13:35:37Z</time>
      </trkpt>
      <trkpt lat="45.35524" lon="4.51837">
        <ele>1233.792847</ele>
        <time>2011-03-05 13:35:41Z</time>
      </trkpt>
      <trkpt lat="45.35521" lon="4.51841">
        <ele>1233.811035</ele>
        <time>2011-03-05 13:35:45Z</time>
      </trkpt>
      <trkpt lat="45.35518" lon="4.51844">
        <ele>1233.826782</ele>
        <time>2011-03-05 13:35:49Z</time>
      </trkpt>
      <trkpt lat="45.35514" lon="4.51848">
        <ele>1233.819092</ele>
        <time>2011-03-05 13:35:53Z</time>
      </trkpt>
      <trkpt lat="45.3551" lon="4.51852">
        <ele>1233.783447</ele>
        <time>2011-03-05 13:35:57Z</time>
      </trkpt>
      <trkpt lat="45.35506" lon="4.51857">
        <ele>1233.736694</ele>
        <time>2011-03-05 13:36:01Z</time>
      </trkpt>
      <trkpt lat="45.35504" lon="4.5186">
        <ele>1233.710938</ele>
        <time>2011-03-05 13:36:05Z</time>
      </trkpt>
      <trkpt lat="45.35496" lon="4.51869">
        <ele>1233.707275</ele>
        <time>2011-03-05 13:36:09Z</time>
      </trkpt>
      <trkpt lat="45.35492" lon="4.51873">
        <ele>1233.709595</ele>
        <time>2011-03-05 13:36:13Z</time>
      </trkpt>
      <trkpt lat="45.35489" lon="4.51877">
        <ele>1233.789795</ele>
        <time>2011-03-05 13:36:17Z</time>
      </trkpt>
      <trkpt lat="45.35485" lon="4.5188">
        <ele>1233.859131</ele>
        <time>2011-03-05 13:36:21Z</time>
      </trkpt>
      <trkpt lat="45.35481" lon="4.51884">
        <ele>1233.867554</ele>
        <time>2011-03-05 13:36:25Z</time>
      </trkpt>
      <trkpt lat="45.35477" lon="4.51889">
        <ele>1233.886963</ele>
        <time>2011-03-05 13:36:29Z</time>
      </trkpt>
      <trkpt lat="45.35473" lon="4.51894">
        <ele>1233.883667</ele>
        <time>2011-03-05 13:36:33Z</time>
      </trkpt>
      <trkpt lat="45.35469" lon="4.519">
        <ele>1233.882202</ele>
        <time>2011-03-05 13:36:37Z</time>
      </trkpt>
      <trkpt lat="45.35465" lon="4.51904">
        <ele>1233.862549</ele>
        <time>2011-03-05 13:36:41Z</time>
      </trkpt>
      <trkpt lat="45.35461" lon="4.51908">
        <ele>1233.914307</ele>
        <time>2011-03-05 13:36:45Z</time>
      </trkpt>
      <trkpt lat="45.35457" lon="4.51913">
        <ele>1234.032837</ele>
        <time>2011-03-05 13:36:49Z</time>
      </trkpt>
      <trkpt lat="45.35454" lon="4.5192">
        <ele>1234.142212</ele>
        <time>2011-03-05 13:36:53Z</time>
      </trkpt>
      <trkpt lat="45.3545" lon="4.51925">
        <ele>1234.209473</ele>
        <time>2011-03-05 13:36:57Z</time>
      </trkpt>
      <trkpt lat="45.35447" lon="4.51932">
        <ele>1234.237427</ele>
        <time>2011-03-05 13:37:01Z</time>
      </trkpt>
      <trkpt lat="45.35444" lon="4.51937">
        <ele>1234.233887</ele>
        <time>2011-03-05 13:37:05Z</time>
      </trkpt>
      <trkpt lat="45.35441" lon="4.51942">
        <ele>1234.250854</ele>
        <time>2011-03-05 13:37:09Z</time>
      </trkpt>
      <trkpt lat="45.35437" lon="4.51948">
        <ele>1234.312012</ele>
        <time>2011-03-05 13:37:13Z</time>
      </trkpt>
      <trkpt lat="45.35434" lon="4.51953">
        <ele>1234.398926</ele>
        <time>2011-03-05 13:37:17Z</time>
      </trkpt>
      <trkpt lat="45.35429" lon="4.51958">
        <ele>1234.403076</ele>
        <time>2011-03-05 13:37:21Z</time>
      </trkpt>
      <trkpt lat="45.35419" lon="4.51965">
        <ele>1234.40686</ele>
        <time>2011-03-05 13:37:25Z</time>
      </trkpt>
      <trkpt lat="45.35415" lon="4.5197">
        <ele>1234.407837</ele>
        <time>2011-03-05 13:37:29Z</time>
      </trkpt>
      <trkpt lat="45.35412" lon="4.51976">
        <ele>1234.424927</ele>
        <time>2011-03-05 13:37:33Z</time>
      </trkpt>
      <trkpt lat="45.35408" lon="4.51982">
        <ele>1234.458496</ele>
        <time>2011-03-05 13:37:37Z</time>
      </trkpt>
      <trkpt lat="45.35405" lon="4.51987">
        <ele>1234.561646</ele>
        <time>2011-03-05 13:37:41Z</time>
      </trkpt>
      <trkpt lat="45.35402" lon="4.51994">
        <ele>1234.758667</ele>
        <time>2011-03-05 13:37:45Z</time>
      </trkpt>
      <trkpt lat="45.354" lon="4.51999">
        <ele>1234.774536</ele>
        <time>2011-03-05 13:37:49Z</time>
      </trkpt>
      <trkpt lat="45.35397" lon="4.52005">
        <ele>1234.786377</ele>
        <time>2011-03-05 13:37:53Z</time>
      </trkpt>
      <trkpt lat="45.35395" lon="4.52011">
        <ele>1234.838623</ele>
        <time>2011-03-05 13:37:57Z</time>
      </trkpt>
      <trkpt lat="45.35392" lon="4.52016">
        <ele>1234.926025</ele>
        <time>2011-03-05 13:38:01Z</time>
      </trkpt>
      <trkpt lat="45.35392" lon="4.52016">
        <ele>1234.931152</ele>
        <time>2011-03-05 13:38:05Z</time>
      </trkpt>
      <trkpt lat="45.35388" lon="4.52021">
        <ele>1234.925171</ele>
        <time>2011-03-05 13:38:09Z</time>
      </trkpt>
      <trkpt lat="45.35384" lon="4.52024">
        <ele>1234.937622</ele>
        <time>2011-03-05 13:38:13Z</time>
      </trkpt>
      <trkpt lat="45.35381" lon="4.52029">
        <ele>1234.946411</ele>
        <time>2011-03-05 13:38:17Z</time>
      </trkpt>
      <trkpt lat="45.35378" lon="4.52035">
        <ele>1234.953613</ele>
        <time>2011-03-05 13:38:21Z</time>
      </trkpt>
      <trkpt lat="45.3537" lon="4.52045">
        <ele>1234.950806</ele>
        <time>2011-03-05 13:38:25Z</time>
      </trkpt>
      <trkpt lat="45.35366" lon="4.52049">
        <ele>1234.96167</ele>
        <time>2011-03-05 13:38:29Z</time>
      </trkpt>
      <trkpt lat="45.35356" lon="4.5206">
        <ele>1234.961182</ele>
        <time>2011-03-05 13:38:33Z</time>
      </trkpt>
      <trkpt lat="45.35352" lon="4.52065">
        <ele>1235.00769</ele>
        <time>2011-03-05 13:38:37Z</time>
      </trkpt>
      <trkpt lat="45.35348" lon="4.5207">
        <ele>1235.093384</ele>
        <time>2011-03-05 13:38:41Z</time>
      </trkpt>
      <trkpt lat="45.35344" lon="4.52075">
        <ele>1235.200806</ele>
        <time>2011-03-05 13:38:45Z</time>
      </trkpt>
      <trkpt lat="45.35341" lon="4.5208">
        <ele>1235.351074</ele>
        <time>2011-03-05 13:38:49Z</time>
      </trkpt>
      <trkpt lat="45.35337" lon="4.52084">
        <ele>1235.487305</ele>
        <time>2011-03-05 13:38:53Z</time>
      </trkpt>
      <trkpt lat="45.35333" lon="4.52088">
        <ele>1235.558105</ele>
        <time>2011-03-05 13:38:57Z</time>
      </trkpt>
      <trkpt lat="45.35333" lon="4.52088">
        <ele>1235.570312</ele>
        <time>2011-03-05 13:39:01Z</time>
      </trkpt>
      <trkpt lat="45.35328" lon="4.52088">
        <ele>1235.668335</ele>
        <time>2011-03-05 13:39:05Z</time>
      </trkpt>
      <trkpt lat="45.35323" lon="4.52089">
        <ele>1235.75415</ele>
        <time>2011-03-05 13:39:09Z</time>
      </trkpt>
      <trkpt lat="45.3532" lon="4.52092">
        <ele>1235.805176</ele>
        <time>2011-03-05 13:39:13Z</time>
      </trkpt>
      <trkpt lat="45.35315" lon="4.52096">
        <ele>1235.835083</ele>
        <time>2011-03-05 13:39:17Z</time>
      </trkpt>
      <trkpt lat="45.3531" lon="4.521">
        <ele>1235.965942</ele>
        <time>2011-03-05 13:39:21Z</time>
      </trkpt>
      <trkpt lat="45.353" lon="4.52112">
        <ele>1236.13623</ele>
        <time>2011-03-05 13:39:25Z</time>
      </trkpt>
      <trkpt lat="45.35292" lon="4.5212">
        <ele>1236.335449</ele>
        <time>2011-03-05 13:39:29Z</time>
      </trkpt>
      <trkpt lat="45.35285" lon="4.52126">
        <ele>1236.572876</ele>
        <time>2011-03-05 13:39:33Z</time>
      </trkpt>
      <trkpt lat="45.3528" lon="4.52131">
        <ele>1236.847046</ele>
        <time>2011-03-05 13:39:37Z</time>
      </trkpt>
      <trkpt lat="45.35275" lon="4.52133">
        <ele>1237.094727</ele>
        <time>2011-03-05 13:39:41Z</time>
      </trkpt>
      <trkpt lat="45.3527" lon="4.52134">
        <ele>1237.34082</ele>
        <time>2011-03-05 13:39:45Z</time>
      </trkpt>
      <trkpt lat="45.35264" lon="4.52131">
        <ele>1237.636108</ele>
        <time>2011-03-05 13:39:49Z</time>
      </trkpt>
      <trkpt lat="45.35259" lon="4.52129">
        <ele>1237.992188</ele>
        <time>2011-03-05 13:39:53Z</time>
      </trkpt>
      <trkpt lat="45.35255" lon="4.52128">
        <ele>1238.343506</ele>
        <time>2011-03-05 13:39:57Z</time>
      </trkpt>
      <trkpt lat="45.3525" lon="4.52128">
        <ele>1238.666626</ele>
        <time>2011-03-05 13:40:01Z</time>
      </trkpt>
      <trkpt lat="45.35245" lon="4.52128">
        <ele>1238.921387</ele>
        <time>2011-03-05 13:40:05Z</time>
      </trkpt>
      <trkpt lat="45.3524" lon="4.52126">
        <ele>1239.135498</ele>
        <time>2011-03-05 13:40:09Z</time>
      </trkpt>
      <trkpt lat="45.35238" lon="4.52125">
        <ele>1239.218262</ele>
        <time>2011-03-05 13:40:13Z</time>
      </trkpt>
      <trkpt lat="45.35234" lon="4.52121">
        <ele>1239.249023</ele>
        <time>2011-03-05 13:40:17Z</time>
      </trkpt>
      <trkpt lat="45.35234" lon="4.52121">
        <ele>1239.532959</ele>
        <time>2011-03-05 13:40:21Z</time>
      </trkpt>
      <trkpt lat="45.35229" lon="4.52119">
        <ele>1239.797607</ele>
        <time>2011-03-05 13:40:25Z</time>
      </trkpt>
      <trkpt lat="45.35229" lon="4.52119">
        <ele>1240.070923</ele>
        <time>2011-03-05 13:40:29Z</time>
      </trkpt>
      <trkpt lat="45.35224" lon="4.52116">
        <ele>1240.356079</ele>
        <time>2011-03-05 13:40:33Z</time>
      </trkpt>
      <trkpt lat="45.35219" lon="4.52114">
        <ele>1240.684814</ele>
        <time>2011-03-05 13:40:37Z</time>
      </trkpt>
      <trkpt lat="45.35214" lon="4.52112">
        <ele>1241.062134</ele>
        <time>2011-03-05 13:40:41Z</time>
      </trkpt>
      <trkpt lat="45.35209" lon="4.52112">
        <ele>1241.476929</ele>
        <time>2011-03-05 13:40:45Z</time>
      </trkpt>
      <trkpt lat="45.35209" lon="4.52112">
        <ele>1241.880737</ele>
        <time>2011-03-05 13:40:49Z</time>
      </trkpt>
      <trkpt lat="45.35204" lon="4.52113">
        <ele>1242.227661</ele>
        <time>2011-03-05 13:40:53Z</time>
      </trkpt>
      <trkpt lat="45.35198" lon="4.5211">
        <ele>1242.543213</ele>
        <time>2011-03-05 13:40:57Z</time>
      </trkpt>
      <trkpt lat="45.35194" lon="4.52108">
        <ele>1242.858887</ele>
        <time>2011-03-05 13:41:01Z</time>
      </trkpt>
      <trkpt lat="45.35189" lon="4.52104">
        <ele>1243.174927</ele>
        <time>2011-03-05 13:41:05Z</time>
      </trkpt>
      <trkpt lat="45.35185" lon="4.52101">
        <ele>1243.456787</ele>
        <time>2011-03-05 13:41:09Z</time>
      </trkpt>
      <trkpt lat="45.35181" lon="4.52099">
        <ele>1243.761597</ele>
        <time>2011-03-05 13:41:13Z</time>
      </trkpt>
      <trkpt lat="45.35181" lon="4.52099">
        <ele>1244.005615</ele>
        <time>2011-03-05 13:41:17Z</time>
      </trkpt>
      <trkpt lat="45.35177" lon="4.52097">
        <ele>1244.273193</ele>
        <time>2011-03-05 13:41:21Z</time>
      </trkpt>
      <trkpt lat="45.35166" lon="4.52092">
        <ele>1244.516846</ele>
        <time>2011-03-05 13:41:25Z</time>
      </trkpt>
      <trkpt lat="45.3516" lon="4.52088">
        <ele>1244.80481</ele>
        <time>2011-03-05 13:41:29Z</time>
      </trkpt>
      <trkpt lat="45.35153" lon="4.52078">
        <ele>1245.130005</ele>
        <time>2011-03-05 13:41:33Z</time>
      </trkpt>
      <trkpt lat="45.35148" lon="4.52074">
        <ele>1245.333496</ele>
        <time>2011-03-05 13:41:37Z</time>
      </trkpt>
      <trkpt lat="45.35143" lon="4.52071">
        <ele>1245.363647</ele>
        <time>2011-03-05 13:41:41Z</time>
      </trkpt>
      <trkpt lat="45.35139" lon="4.5207">
        <ele>1245.573486</ele>
        <time>2011-03-05 13:41:45Z</time>
      </trkpt>
      <trkpt lat="45.35133" lon="4.52071">
        <ele>1245.714111</ele>
        <time>2011-03-05 13:41:49Z</time>
      </trkpt>
      <trkpt lat="45.35128" lon="4.52072">
        <ele>1245.824829</ele>
        <time>2011-03-05 13:41:53Z</time>
      </trkpt>
      <trkpt lat="45.35123" lon="4.52073">
        <ele>1245.957275</ele>
        <time>2011-03-05 13:41:57Z</time>
      </trkpt>
      <trkpt lat="45.35117" lon="4.52069">
        <ele>1246.195435</ele>
        <time>2011-03-05 13:42:01Z</time>
      </trkpt>
      <trkpt lat="45.35112" lon="4.52067">
        <ele>1246.503906</ele>
        <time>2011-03-05 13:42:05Z</time>
      </trkpt>
      <trkpt lat="45.35101" lon="4.52067">
        <ele>1246.696045</ele>
        <time>2011-03-05 13:42:09Z</time>
      </trkpt>
      <trkpt lat="45.35096" lon="4.52067">
        <ele>1246.820923</ele>
        <time>2011-03-05 13:42:13Z</time>
      </trkpt>
      <trkpt lat="45.35088" lon="4.52069">
        <ele>1246.980103</ele>
        <time>2011-03-05 13:42:17Z</time>
      </trkpt>
      <trkpt lat="45.35078" lon="4.52068">
        <ele>1247.224365</ele>
        <time>2011-03-05 13:42:21Z</time>
      </trkpt>
      <trkpt lat="45.3507" lon="4.52066">
        <ele>1247.470093</ele>
        <time>2011-03-05 13:42:25Z</time>
      </trkpt>
      <trkpt lat="45.35064" lon="4.52066">
        <ele>1247.706787</ele>
        <time>2011-03-05 13:42:29Z</time>
      </trkpt>
      <trkpt lat="45.35058" lon="4.52067">
        <ele>1247.926025</ele>
        <time>2011-03-05 13:42:33Z</time>
      </trkpt>
      <trkpt lat="45.35054" lon="4.52067">
        <ele>1248.104248</ele>
        <time>2011-03-05 13:42:37Z</time>
      </trkpt>
      <trkpt lat="45.35051" lon="4.52069">
        <ele>1248.257812</ele>
        <time>2011-03-05 13:42:41Z</time>
      </trkpt>
      <trkpt lat="45.35046" lon="4.5207">
        <ele>1248.41394</ele>
        <time>2011-03-05 13:42:45Z</time>
      </trkpt>
      <trkpt lat="45.3504" lon="4.52072">
        <ele>1248.545654</ele>
        <time>2011-03-05 13:42:49Z</time>
      </trkpt>
      <trkpt lat="45.35035" lon="4.52074">
        <ele>1248.632568</ele>
        <time>2011-03-05 13:42:53Z</time>
      </trkpt>
      <trkpt lat="45.3503" lon="4.52076">
        <ele>1248.650391</ele>
        <time>2011-03-05 13:42:57Z</time>
      </trkpt>
      <trkpt lat="45.35026" lon="4.52077">
        <ele>1248.509155</ele>
        <time>2011-03-05 13:43:01Z</time>
      </trkpt>
      <trkpt lat="45.35022" lon="4.52078">
        <ele>1248.437012</ele>
        <time>2011-03-05 13:43:05Z</time>
      </trkpt>
      <trkpt lat="45.35016" lon="4.52078">
        <ele>1248.461792</ele>
        <time>2011-03-05 13:43:09Z</time>
      </trkpt>
      <trkpt lat="45.35011" lon="4.52079">
        <ele>1248.608032</ele>
        <time>2011-03-05 13:43:13Z</time>
      </trkpt>
      <trkpt lat="45.35006" lon="4.52079">
        <ele>1248.722778</ele>
        <time>2011-03-05 13:43:17Z</time>
      </trkpt>
      <trkpt lat="45.35003" lon="4.5208">
        <ele>1248.762695</ele>
        <time>2011-03-05 13:43:21Z</time>
      </trkpt>
      <trkpt lat="45.34999" lon="4.52082">
        <ele>1248.715698</ele>
        <time>2011-03-05 13:43:25Z</time>
      </trkpt>
      <trkpt lat="45.34995" lon="4.52085">
        <ele>1248.658203</ele>
        <time>2011-03-05 13:43:29Z</time>
      </trkpt>
      <trkpt lat="45.34989" lon="4.52088">
        <ele>1248.582397</ele>
        <time>2011-03-05 13:43:33Z</time>
      </trkpt>
      <trkpt lat="45.34983" lon="4.52092">
        <ele>1248.471069</ele>
        <time>2011-03-05 13:43:37Z</time>
      </trkpt>
      <trkpt lat="45.34977" lon="4.52097">
        <ele>1248.432983</ele>
        <time>2011-03-05 13:43:41Z</time>
      </trkpt>
      <trkpt lat="45.34971" lon="4.52101">
        <ele>1248.387085</ele>
        <time>2011-03-05 13:43:45Z</time>
      </trkpt>
      <trkpt lat="45.34965" lon="4.52104">
        <ele>1248.40979</ele>
        <time>2011-03-05 13:43:49Z</time>
      </trkpt>
      <trkpt lat="45.34959" lon="4.52107">
        <ele>1248.421265</ele>
        <time>2011-03-05 13:43:53Z</time>
      </trkpt>
      <trkpt lat="45.34955" lon="4.52109">
        <ele>1248.408936</ele>
        <time>2011-03-05 13:43:57Z</time>
      </trkpt>
      <trkpt lat="45.3495" lon="4.5211">
        <ele>1248.398315</ele>
        <time>2011-03-05 13:44:01Z</time>
      </trkpt>
      <trkpt lat="45.34944" lon="4.5211">
        <ele>1248.381226</ele>
        <time>2011-03-05 13:44:05Z</time>
      </trkpt>
      <trkpt lat="45.34939" lon="4.5211">
        <ele>1248.384644</ele>
        <time>2011-03-05 13:44:09Z</time>
      </trkpt>
      <trkpt lat="45.34934" lon="4.52113">
        <ele>1248.433594</ele>
        <time>2011-03-05 13:44:13Z</time>
      </trkpt>
      <trkpt lat="45.34928" lon="4.52117">
        <ele>1248.656738</ele>
        <time>2011-03-05 13:44:17Z</time>
      </trkpt>
      <trkpt lat="45.34923" lon="4.52121">
        <ele>1248.898071</ele>
        <time>2011-03-05 13:44:21Z</time>
      </trkpt>
      <trkpt lat="45.34918" lon="4.52123">
        <ele>1249.070923</ele>
        <time>2011-03-05 13:44:25Z</time>
      </trkpt>
      <trkpt lat="45.34914" lon="4.52123">
        <ele>1249.100586</ele>
        <time>2011-03-05 13:44:29Z</time>
      </trkpt>
      <trkpt lat="45.34909" lon="4.52124">
        <ele>1249.091064</ele>
        <time>2011-03-05 13:44:33Z</time>
      </trkpt>
      <trkpt lat="45.34904" lon="4.52126">
        <ele>1249.067383</ele>
        <time>2011-03-05 13:44:37Z</time>
      </trkpt>
      <trkpt lat="45.34899" lon="4.52128">
        <ele>1249.076416</ele>
        <time>2011-03-05 13:44:41Z</time>
      </trkpt>
      <trkpt lat="45.34893" lon="4.52129">
        <ele>1249.150391</ele>
        <time>2011-03-05 13:44:45Z</time>
      </trkpt>
      <trkpt lat="45.34889" lon="4.52131">
        <ele>1249.154663</ele>
        <time>2011-03-05 13:44:49Z</time>
      </trkpt>
      <trkpt lat="45.34883" lon="4.52132">
        <ele>1249.213501</ele>
        <time>2011-03-05 13:44:53Z</time>
      </trkpt>
      <trkpt lat="45.34877" lon="4.52135">
        <ele>1249.38623</ele>
        <time>2011-03-05 13:44:57Z</time>
      </trkpt>
      <trkpt lat="45.34872" lon="4.52137">
        <ele>1249.559814</ele>
        <time>2011-03-05 13:45:01Z</time>
      </trkpt>
      <trkpt lat="45.34866" lon="4.52137">
        <ele>1249.779541</ele>
        <time>2011-03-05 13:45:05Z</time>
      </trkpt>
      <trkpt lat="45.34861" lon="4.52138">
        <ele>1249.998291</ele>
        <time>2011-03-05 13:45:09Z</time>
      </trkpt>
      <trkpt lat="45.34857" lon="4.52139">
        <ele>1250.175293</ele>
        <time>2011-03-05 13:45:13Z</time>
      </trkpt>
      <trkpt lat="45.34853" lon="4.52139">
        <ele>1250.326172</ele>
        <time>2011-03-05 13:45:17Z</time>
      </trkpt>
      <trkpt lat="45.34849" lon="4.5214">
        <ele>1250.443115</ele>
        <time>2011-03-05 13:45:21Z</time>
      </trkpt>
      <trkpt lat="45.34844" lon="4.52138">
        <ele>1250.576538</ele>
        <time>2011-03-05 13:45:25Z</time>
      </trkpt>
      <trkpt lat="45.3484" lon="4.52138">
        <ele>1250.640869</ele>
        <time>2011-03-05 13:45:29Z</time>
      </trkpt>
      <trkpt lat="45.34837" lon="4.52137">
        <ele>1250.69873</ele>
        <time>2011-03-05 13:45:33Z</time>
      </trkpt>
      <trkpt lat="45.34833" lon="4.52136">
        <ele>1250.751587</ele>
        <time>2011-03-05 13:45:37Z</time>
      </trkpt>
      <trkpt lat="45.34829" lon="4.52133">
        <ele>1250.699463</ele>
        <time>2011-03-05 13:45:41Z</time>
      </trkpt>
      <trkpt lat="45.34829" lon="4.52133">
        <ele>1250.677246</ele>
        <time>2011-03-05 13:45:45Z</time>
      </trkpt>
      <trkpt lat="45.34825" lon="4.52127">
        <ele>1250.673462</ele>
        <time>2011-03-05 13:45:49Z</time>
      </trkpt>
      <trkpt lat="45.3482" lon="4.52123">
        <ele>1250.693359</ele>
        <time>2011-03-05 13:45:53Z</time>
      </trkpt>
      <trkpt lat="45.34816" lon="4.52119">
        <ele>1250.707764</ele>
        <time>2011-03-05 13:45:57Z</time>
      </trkpt>
      <trkpt lat="45.34811" lon="4.52117">
        <ele>1250.777344</ele>
        <time>2011-03-05 13:46:01Z</time>
      </trkpt>
      <trkpt lat="45.34806" lon="4.52115">
        <ele>1250.96521</ele>
        <time>2011-03-05 13:46:05Z</time>
      </trkpt>
      <trkpt lat="45.34806" lon="4.52115">
        <ele>1251.10376</ele>
        <time>2011-03-05 13:46:09Z</time>
      </trkpt>
      <trkpt lat="45.34801" lon="4.52113">
        <ele>1251.144653</ele>
        <time>2011-03-05 13:46:13Z</time>
      </trkpt>
      <trkpt lat="45.34797" lon="4.5211">
        <ele>1251.169434</ele>
        <time>2011-03-05 13:46:17Z</time>
      </trkpt>
      <trkpt lat="45.34792" lon="4.52107">
        <ele>1251.176758</ele>
        <time>2011-03-05 13:46:21Z</time>
      </trkpt>
      <trkpt lat="45.34792" lon="4.52107">
        <ele>1251.186035</ele>
        <time>2011-03-05 13:46:25Z</time>
      </trkpt>
      <trkpt lat="45.34787" lon="4.52106">
        <ele>1251.193359</ele>
        <time>2011-03-05 13:46:29Z</time>
      </trkpt>
      <trkpt lat="45.34782" lon="4.52104">
        <ele>1251.197754</ele>
        <time>2011-03-05 13:46:33Z</time>
      </trkpt>
      <trkpt lat="45.34773" lon="4.52102">
        <ele>1251.21936</ele>
        <time>2011-03-05 13:46:37Z</time>
      </trkpt>
      <trkpt lat="45.34768" lon="4.521">
        <ele>1251.213379</ele>
        <time>2011-03-05 13:46:41Z</time>
      </trkpt>
      <trkpt lat="45.34768" lon="4.521">
        <ele>1251.184692</ele>
        <time>2011-03-05 13:46:45Z</time>
      </trkpt>
      <trkpt lat="45.34763" lon="4.52099">
        <ele>1251.172974</ele>
        <time>2011-03-05 13:46:49Z</time>
      </trkpt>
      <trkpt lat="45.34758" lon="4.521">
        <ele>1251.14978</ele>
        <time>2011-03-05 13:46:53Z</time>
      </trkpt>
      <trkpt lat="45.34758" lon="4.521">
        <ele>1251.091675</ele>
        <time>2011-03-05 13:46:57Z</time>
      </trkpt>
      <trkpt lat="45.34753" lon="4.521">
        <ele>1251.097778</ele>
        <time>2011-03-05 13:47:01Z</time>
      </trkpt>
      <trkpt lat="45.34747" lon="4.52098">
        <ele>1251.147217</ele>
        <time>2011-03-05 13:47:05Z</time>
      </trkpt>
      <trkpt lat="45.3474" lon="4.52087">
        <ele>1251.181396</ele>
        <time>2011-03-05 13:47:09Z</time>
      </trkpt>
      <trkpt lat="45.34737" lon="4.52082">
        <ele>1251.192749</ele>
        <time>2011-03-05 13:47:13Z</time>
      </trkpt>
      <trkpt lat="45.34732" lon="4.52077">
        <ele>1251.206543</ele>
        <time>2011-03-05 13:47:17Z</time>
      </trkpt>
      <trkpt lat="45.34728" lon="4.52073">
        <ele>1251.224854</ele>
        <time>2011-03-05 13:47:21Z</time>
      </trkpt>
      <trkpt lat="45.34723" lon="4.5207">
        <ele>1251.244751</ele>
        <time>2011-03-05 13:47:25Z</time>
      </trkpt>
      <trkpt lat="45.34723" lon="4.5207">
        <ele>1251.26416</ele>
        <time>2011-03-05 13:47:29Z</time>
      </trkpt>
      <trkpt lat="45.34713" lon="4.52062">
        <ele>1251.283447</ele>
        <time>2011-03-05 13:47:33Z</time>
      </trkpt>
      <trkpt lat="45.34708" lon="4.52058">
        <ele>1251.439209</ele>
        <time>2011-03-05 13:47:37Z</time>
      </trkpt>
      <trkpt lat="45.34698" lon="4.5205">
        <ele>1251.579224</ele>
        <time>2011-03-05 13:47:41Z</time>
      </trkpt>
      <trkpt lat="45.34694" lon="4.52047">
        <ele>1251.66626</ele>
        <time>2011-03-05 13:47:45Z</time>
      </trkpt>
      <trkpt lat="45.34689" lon="4.52045">
        <ele>1251.685669</ele>
        <time>2011-03-05 13:47:49Z</time>
      </trkpt>
      <trkpt lat="45.34685" lon="4.52041">
        <ele>1251.705078</ele>
        <time>2011-03-05 13:47:53Z</time>
      </trkpt>
      <trkpt lat="45.34681" lon="4.52037">
        <ele>1251.724365</ele>
        <time>2011-03-05 13:47:57Z</time>
      </trkpt>
      <trkpt lat="45.34681" lon="4.52037">
        <ele>1251.743774</ele>
        <time>2011-03-05 13:48:01Z</time>
      </trkpt>
      <trkpt lat="45.34676" lon="4.52033">
        <ele>1251.858887</ele>
        <time>2011-03-05 13:48:05Z</time>
      </trkpt>
      <trkpt lat="45.34672" lon="4.52031">
        <ele>1251.882568</ele>
        <time>2011-03-05 13:48:09Z</time>
      </trkpt>
      <trkpt lat="45.34662" lon="4.52027">
        <ele>1251.910278</ele>
        <time>2011-03-05 13:48:13Z</time>
      </trkpt>
      <trkpt lat="45.34657" lon="4.52024">
        <ele>1252.177979</ele>
        <time>2011-03-05 13:48:17Z</time>
      </trkpt>
      <trkpt lat="45.34652" lon="4.52021">
        <ele>1252.47583</ele>
        <time>2011-03-05 13:48:21Z</time>
      </trkpt>
      <trkpt lat="45.34641" lon="4.52015">
        <ele>1252.800537</ele>
        <time>2011-03-05 13:48:25Z</time>
      </trkpt>
      <trkpt lat="45.34636" lon="4.52012">
        <ele>1253.178955</ele>
        <time>2011-03-05 13:48:29Z</time>
      </trkpt>
      <trkpt lat="45.3463" lon="4.52007">
        <ele>1253.551514</ele>
        <time>2011-03-05 13:48:33Z</time>
      </trkpt>
      <trkpt lat="45.3462" lon="4.51998">
        <ele>1253.896362</ele>
        <time>2011-03-05 13:48:37Z</time>
      </trkpt>
      <trkpt lat="45.34616" lon="4.51993">
        <ele>1254.26062</ele>
        <time>2011-03-05 13:48:41Z</time>
      </trkpt>
      <trkpt lat="45.34612" lon="4.51987">
        <ele>1254.611816</ele>
        <time>2011-03-05 13:48:45Z</time>
      </trkpt>
      <trkpt lat="45.34609" lon="4.51977">
        <ele>1254.953369</ele>
        <time>2011-03-05 13:48:49Z</time>
      </trkpt>
      <trkpt lat="45.34605" lon="4.51964">
        <ele>1255.283569</ele>
        <time>2011-03-05 13:48:53Z</time>
      </trkpt>
      <trkpt lat="45.34602" lon="4.51955">
        <ele>1255.62915</ele>
        <time>2011-03-05 13:48:57Z</time>
      </trkpt>
      <trkpt lat="45.34599" lon="4.51948">
        <ele>1256.004883</ele>
        <time>2011-03-05 13:49:01Z</time>
      </trkpt>
      <trkpt lat="45.34597" lon="4.51941">
        <ele>1256.365112</ele>
        <time>2011-03-05 13:49:05Z</time>
      </trkpt>
      <trkpt lat="45.34596" lon="4.51935">
        <ele>1256.707275</ele>
        <time>2011-03-05 13:49:09Z</time>
      </trkpt>
      <trkpt lat="45.34595" lon="4.5193">
        <ele>1257.103027</ele>
        <time>2011-03-05 13:49:13Z</time>
      </trkpt>
      <trkpt lat="45.34594" lon="4.51924">
        <ele>1257.5896</ele>
        <time>2011-03-05 13:49:17Z</time>
      </trkpt>
      <trkpt lat="45.34593" lon="4.51922">
        <ele>1257.856445</ele>
        <time>2011-03-05 13:49:21Z</time>
      </trkpt>
      <trkpt lat="45.34593" lon="4.51922">
        <ele>1258.107056</ele>
        <time>2011-03-05 13:49:25Z</time>
      </trkpt>
      <trkpt lat="45.34591" lon="4.51915">
        <ele>1258.542969</ele>
        <time>2011-03-05 13:49:29Z</time>
      </trkpt>
      <trkpt lat="45.34589" lon="4.51909">
        <ele>1258.659424</ele>
        <time>2011-03-05 13:49:33Z</time>
      </trkpt>
      <trkpt lat="45.34586" lon="4.51903">
        <ele>1258.9729</ele>
        <time>2011-03-05 13:49:37Z</time>
      </trkpt>
      <trkpt lat="45.34584" lon="4.51898">
        <ele>1259.006592</ele>
        <time>2011-03-05 13:49:41Z</time>
      </trkpt>
      <trkpt lat="45.34581" lon="4.51891">
        <ele>1259.040039</ele>
        <time>2011-03-05 13:49:45Z</time>
      </trkpt>
      <trkpt lat="45.34576" lon="4.5188">
        <ele>1259.320679</ele>
        <time>2011-03-05 13:49:49Z</time>
      </trkpt>
      <trkpt lat="45.34574" lon="4.51874">
        <ele>1259.69043</ele>
        <time>2011-03-05 13:49:53Z</time>
      </trkpt>
      <trkpt lat="45.34569" lon="4.51867">
        <ele>1259.987671</ele>
        <time>2011-03-05 13:49:57Z</time>
      </trkpt>
      <trkpt lat="45.34564" lon="4.51859">
        <ele>1260.221558</ele>
        <time>2011-03-05 13:50:01Z</time>
      </trkpt>
      <trkpt lat="45.34559" lon="4.51852">
        <ele>1260.420044</ele>
        <time>2011-03-05 13:50:05Z</time>
      </trkpt>
      <trkpt lat="45.34556" lon="4.51847">
        <ele>1260.615601</ele>
        <time>2011-03-05 13:50:09Z</time>
      </trkpt>
      <trkpt lat="45.34552" lon="4.51843">
        <ele>1260.807617</ele>
        <time>2011-03-05 13:50:13Z</time>
      </trkpt>
      <trkpt lat="45.34551" lon="4.51842">
        <ele>1260.996948</ele>
        <time>2011-03-05 13:50:17Z</time>
      </trkpt>
      <trkpt lat="45.34547" lon="4.51837">
        <ele>1261.192383</ele>
        <time>2011-03-05 13:50:21Z</time>
      </trkpt>
      <trkpt lat="45.34546" lon="4.51835">
        <ele>1261.555908</ele>
        <time>2011-03-05 13:50:25Z</time>
      </trkpt>
      <trkpt lat="45.34543" lon="4.51829">
        <ele>1261.965088</ele>
        <time>2011-03-05 13:50:29Z</time>
      </trkpt>
      <trkpt lat="45.34538" lon="4.51822">
        <ele>1262.470215</ele>
        <time>2011-03-05 13:50:33Z</time>
      </trkpt>
      <trkpt lat="45.34533" lon="4.51817">
        <ele>1262.933594</ele>
        <time>2011-03-05 13:50:37Z</time>
      </trkpt>
      <trkpt lat="45.34528" lon="4.51811">
        <ele>1263.241577</ele>
        <time>2011-03-05 13:50:41Z</time>
      </trkpt>
      <trkpt lat="45.34522" lon="4.51804">
        <ele>1263.406006</ele>
        <time>2011-03-05 13:50:45Z</time>
      </trkpt>
      <trkpt lat="45.34519" lon="4.518">
        <ele>1263.464722</ele>
        <time>2011-03-05 13:50:49Z</time>
      </trkpt>
      <trkpt lat="45.34516" lon="4.51796">
        <ele>1263.533813</ele>
        <time>2011-03-05 13:50:53Z</time>
      </trkpt>
      <trkpt lat="45.34512" lon="4.51792">
        <ele>1263.575439</ele>
        <time>2011-03-05 13:50:57Z</time>
      </trkpt>
      <trkpt lat="45.34507" lon="4.5179">
        <ele>1263.618042</ele>
        <time>2011-03-05 13:51:01Z</time>
      </trkpt>
      <trkpt lat="45.34502" lon="4.51788">
        <ele>1263.743652</ele>
        <time>2011-03-05 13:51:05Z</time>
      </trkpt>
      <trkpt lat="45.34498" lon="4.51785">
        <ele>1263.789185</ele>
        <time>2011-03-05 13:51:09Z</time>
      </trkpt>
      <trkpt lat="45.34498" lon="4.51785">
        <ele>1263.810059</ele>
        <time>2011-03-05 13:51:13Z</time>
      </trkpt>
      <trkpt lat="45.34493" lon="4.51782">
        <ele>1264.035645</ele>
        <time>2011-03-05 13:51:17Z</time>
      </trkpt>
      <trkpt lat="45.34488" lon="4.51778">
        <ele>1264.059448</ele>
        <time>2011-03-05 13:51:21Z</time>
      </trkpt>
      <trkpt lat="45.3448" lon="4.51769">
        <ele>1264.084717</ele>
        <time>2011-03-05 13:51:25Z</time>
      </trkpt>
      <trkpt lat="45.34476" lon="4.51765">
        <ele>1264.261597</ele>
        <time>2011-03-05 13:51:29Z</time>
      </trkpt>
      <trkpt lat="45.34471" lon="4.51761">
        <ele>1264.356812</ele>
        <time>2011-03-05 13:51:33Z</time>
      </trkpt>
      <trkpt lat="45.34466" lon="4.51759">
        <ele>1264.473267</ele>
        <time>2011-03-05 13:51:37Z</time>
      </trkpt>
      <trkpt lat="45.34461" lon="4.51758">
        <ele>1264.577271</ele>
        <time>2011-03-05 13:51:41Z</time>
      </trkpt>
      <trkpt lat="45.34456" lon="4.51756">
        <ele>1264.768066</ele>
        <time>2011-03-05 13:51:45Z</time>
      </trkpt>
      <trkpt lat="45.34452" lon="4.51753">
        <ele>1264.934326</ele>
        <time>2011-03-05 13:51:49Z</time>
      </trkpt>
      <trkpt lat="45.34448" lon="4.51747">
        <ele>1265.116333</ele>
        <time>2011-03-05 13:51:53Z</time>
      </trkpt>
      <trkpt lat="45.34443" lon="4.51745">
        <ele>1265.306274</ele>
        <time>2011-03-05 13:51:57Z</time>
      </trkpt>
      <trkpt lat="45.34443" lon="4.51745">
        <ele>1265.483276</ele>
        <time>2011-03-05 13:52:01Z</time>
      </trkpt>
      <trkpt lat="45.34438" lon="4.51743">
        <ele>1265.626465</ele>
        <time>2011-03-05 13:52:05Z</time>
      </trkpt>
      <trkpt lat="45.34438" lon="4.51743">
        <ele>1265.713257</ele>
        <time>2011-03-05 13:52:09Z</time>
      </trkpt>
      <trkpt lat="45.34434" lon="4.51743">
        <ele>1265.738647</ele>
        <time>2011-03-05 13:52:13Z</time>
      </trkpt>
      <trkpt lat="45.34429" lon="4.51741">
        <ele>1265.763184</ele>
        <time>2011-03-05 13:52:17Z</time>
      </trkpt>
      <trkpt lat="45.34424" lon="4.5174">
        <ele>1265.789062</ele>
        <time>2011-03-05 13:52:21Z</time>
      </trkpt>
      <trkpt lat="45.34419" lon="4.51738">
        <ele>1265.817627</ele>
        <time>2011-03-05 13:52:25Z</time>
      </trkpt>
      <trkpt lat="45.34414" lon="4.51733">
        <ele>1265.84436</ele>
        <time>2011-03-05 13:52:29Z</time>
      </trkpt>
      <trkpt lat="45.34409" lon="4.5173">
        <ele>1265.977661</ele>
        <time>2011-03-05 13:52:33Z</time>
      </trkpt>
      <trkpt lat="45.34401" lon="4.5172">
        <ele>1266.002197</ele>
        <time>2011-03-05 13:52:37Z</time>
      </trkpt>
      <trkpt lat="45.34398" lon="4.51716">
        <ele>1266.204834</ele>
        <time>2011-03-05 13:52:41Z</time>
      </trkpt>
      <trkpt lat="45.34393" lon="4.51711">
        <ele>1266.393066</ele>
        <time>2011-03-05 13:52:45Z</time>
      </trkpt>
      <trkpt lat="45.34388" lon="4.51708">
        <ele>1266.575317</ele>
        <time>2011-03-05 13:52:49Z</time>
      </trkpt>
      <trkpt lat="45.34384" lon="4.51702">
        <ele>1266.811035</ele>
        <time>2011-03-05 13:52:53Z</time>
      </trkpt>
      <trkpt lat="45.3438" lon="4.51698">
        <ele>1266.885254</ele>
        <time>2011-03-05 13:52:57Z</time>
      </trkpt>
      <trkpt lat="45.34377" lon="4.51694">
        <ele>1267.046021</ele>
        <time>2011-03-05 13:53:01Z</time>
      </trkpt>
      <trkpt lat="45.34373" lon="4.51689">
        <ele>1267.267334</ele>
        <time>2011-03-05 13:53:05Z</time>
      </trkpt>
      <trkpt lat="45.34369" lon="4.51684">
        <ele>1267.298462</ele>
        <time>2011-03-05 13:53:09Z</time>
      </trkpt>
      <trkpt lat="45.34366" lon="4.51679">
        <ele>1267.329102</ele>
        <time>2011-03-05 13:53:13Z</time>
      </trkpt>
      <trkpt lat="45.34363" lon="4.51674">
        <ele>1267.346313</ele>
        <time>2011-03-05 13:53:17Z</time>
      </trkpt>
      <trkpt lat="45.34356" lon="4.51661">
        <ele>1267.370483</ele>
        <time>2011-03-05 13:53:21Z</time>
      </trkpt>
      <trkpt lat="45.34348" lon="4.51649">
        <ele>1267.415771</ele>
        <time>2011-03-05 13:53:25Z</time>
      </trkpt>
      <trkpt lat="45.34342" lon="4.51642">
        <ele>1267.466431</ele>
        <time>2011-03-05 13:53:29Z</time>
      </trkpt>
      <trkpt lat="45.34338" lon="4.51635">
        <ele>1267.538818</ele>
        <time>2011-03-05 13:53:33Z</time>
      </trkpt>
      <trkpt lat="45.34333" lon="4.5163">
        <ele>1267.630859</ele>
        <time>2011-03-05 13:53:37Z</time>
      </trkpt>
      <trkpt lat="45.3433" lon="4.51625">
        <ele>1267.736206</ele>
        <time>2011-03-05 13:53:41Z</time>
      </trkpt>
      <trkpt lat="45.34327" lon="4.5162">
        <ele>1267.837646</ele>
        <time>2011-03-05 13:53:45Z</time>
      </trkpt>
      <trkpt lat="45.34325" lon="4.51615">
        <ele>1267.930908</ele>
        <time>2011-03-05 13:53:49Z</time>
      </trkpt>
      <trkpt lat="45.34322" lon="4.5161">
        <ele>1268.013062</ele>
        <time>2011-03-05 13:53:53Z</time>
      </trkpt>
      <trkpt lat="45.34319" lon="4.51605">
        <ele>1268.084229</ele>
        <time>2011-03-05 13:53:57Z</time>
      </trkpt>
      <trkpt lat="45.34317" lon="4.516">
        <ele>1268.175781</ele>
        <time>2011-03-05 13:54:01Z</time>
      </trkpt>
      <trkpt lat="45.34317" lon="4.51594">
        <ele>1268.246216</ele>
        <time>2011-03-05 13:54:05Z</time>
      </trkpt>
      <trkpt lat="45.34316" lon="4.51589">
        <ele>1268.299683</ele>
        <time>2011-03-05 13:54:09Z</time>
      </trkpt>
      <trkpt lat="45.34314" lon="4.51584">
        <ele>1268.349121</ele>
        <time>2011-03-05 13:54:13Z</time>
      </trkpt>
      <trkpt lat="45.34314" lon="4.51584">
        <ele>1268.351318</ele>
        <time>2011-03-05 13:54:17Z</time>
      </trkpt>
      <trkpt lat="45.34314" lon="4.51584">
        <ele>1268.352905</ele>
        <time>2011-03-05 13:54:21Z</time>
      </trkpt>
      <trkpt lat="45.34314" lon="4.51577">
        <ele>1268.353271</ele>
        <time>2011-03-05 13:54:25Z</time>
      </trkpt>
      <trkpt lat="45.34314" lon="4.51577">
        <ele>1268.354492</ele>
        <time>2011-03-05 13:54:29Z</time>
      </trkpt>
      <trkpt lat="45.34312" lon="4.51571">
        <ele>1268.348999</ele>
        <time>2011-03-05 13:54:33Z</time>
      </trkpt>
      <trkpt lat="45.34312" lon="4.51571">
        <ele>1268.321289</ele>
        <time>2011-03-05 13:54:37Z</time>
      </trkpt>
      <trkpt lat="45.34311" lon="4.51564">
        <ele>1268.29895</ele>
        <time>2011-03-05 13:54:41Z</time>
      </trkpt>
      <trkpt lat="45.34309" lon="4.51558">
        <ele>1268.223755</ele>
        <time>2011-03-05 13:54:45Z</time>
      </trkpt>
      <trkpt lat="45.34306" lon="4.51551">
        <ele>1268.195557</ele>
        <time>2011-03-05 13:54:49Z</time>
      </trkpt>
      <trkpt lat="45.34297" lon="4.51539">
        <ele>1268.210083</ele>
        <time>2011-03-05 13:54:53Z</time>
      </trkpt>
      <trkpt lat="45.34293" lon="4.51536">
        <ele>1268.248169</ele>
        <time>2011-03-05 13:54:57Z</time>
      </trkpt>
      <trkpt lat="45.34285" lon="4.51525">
        <ele>1268.310059</ele>
        <time>2011-03-05 13:55:01Z</time>
      </trkpt>
      <trkpt lat="45.34282" lon="4.51519">
        <ele>1268.393311</ele>
        <time>2011-03-05 13:55:05Z</time>
      </trkpt>
      <trkpt lat="45.34279" lon="4.51514">
        <ele>1268.46875</ele>
        <time>2011-03-05 13:55:09Z</time>
      </trkpt>
      <trkpt lat="45.34276" lon="4.51509">
        <ele>1268.497803</ele>
        <time>2011-03-05 13:55:13Z</time>
      </trkpt>
      <trkpt lat="45.34272" lon="4.51503">
        <ele>1268.542603</ele>
        <time>2011-03-05 13:55:17Z</time>
      </trkpt>
      <trkpt lat="45.34266" lon="4.51491">
        <ele>1268.557739</ele>
        <time>2011-03-05 13:55:21Z</time>
      </trkpt>
      <trkpt lat="45.34262" lon="4.51483">
        <ele>1268.574341</ele>
        <time>2011-03-05 13:55:25Z</time>
      </trkpt>
      <trkpt lat="45.34259" lon="4.51478">
        <ele>1268.639526</ele>
        <time>2011-03-05 13:55:29Z</time>
      </trkpt>
      <trkpt lat="45.34256" lon="4.51472">
        <ele>1268.689453</ele>
        <time>2011-03-05 13:55:33Z</time>
      </trkpt>
      <trkpt lat="45.34252" lon="4.51465">
        <ele>1268.746582</ele>
        <time>2011-03-05 13:55:37Z</time>
      </trkpt>
      <trkpt lat="45.3425" lon="4.5146">
        <ele>1268.722656</ele>
        <time>2011-03-05 13:55:41Z</time>
      </trkpt>
      <trkpt lat="45.34246" lon="4.51455">
        <ele>1268.681519</ele>
        <time>2011-03-05 13:55:45Z</time>
      </trkpt>
      <trkpt lat="45.34242" lon="4.51452">
        <ele>1268.657104</ele>
        <time>2011-03-05 13:55:49Z</time>
      </trkpt>
      <trkpt lat="45.34242" lon="4.51452">
        <ele>1268.557617</ele>
        <time>2011-03-05 13:55:53Z</time>
      </trkpt>
      <trkpt lat="45.34237" lon="4.51451">
        <ele>1268.214355</ele>
        <time>2011-03-05 13:55:57Z</time>
      </trkpt>
      <trkpt lat="45.34237" lon="4.51451">
        <ele>1268.162109</ele>
        <time>2011-03-05 13:56:01Z</time>
      </trkpt>
      <trkpt lat="45.34233" lon="4.51453">
        <ele>1268.099854</ele>
        <time>2011-03-05 13:56:05Z</time>
      </trkpt>
      <trkpt lat="45.34228" lon="4.51452">
        <ele>1267.637451</ele>
        <time>2011-03-05 13:56:09Z</time>
      </trkpt>
      <trkpt lat="45.34228" lon="4.51452">
        <ele>1267.110962</ele>
        <time>2011-03-05 13:56:13Z</time>
      </trkpt>
      <trkpt lat="45.34224" lon="4.51447">
        <ele>1266.692139</ele>
        <time>2011-03-05 13:56:17Z</time>
      </trkpt>
      <trkpt lat="45.34221" lon="4.51442">
        <ele>1266.331421</ele>
        <time>2011-03-05 13:56:21Z</time>
      </trkpt>
      <trkpt lat="45.34221" lon="4.51442">
        <ele>1265.977905</ele>
        <time>2011-03-05 13:56:25Z</time>
      </trkpt>
      <trkpt lat="45.34219" lon="4.51432">
        <ele>1265.622559</ele>
        <time>2011-03-05 13:56:29Z</time>
      </trkpt>
      <trkpt lat="45.34217" lon="4.51426">
        <ele>1265.313354</ele>
        <time>2011-03-05 13:56:33Z</time>
      </trkpt>
      <trkpt lat="45.34216" lon="4.51421">
        <ele>1265.061646</ele>
        <time>2011-03-05 13:56:37Z</time>
      </trkpt>
      <trkpt lat="45.34216" lon="4.51414">
        <ele>1264.795776</ele>
        <time>2011-03-05 13:56:41Z</time>
      </trkpt>
      <trkpt lat="45.34215" lon="4.51407">
        <ele>1264.594238</ele>
        <time>2011-03-05 13:56:45Z</time>
      </trkpt>
      <trkpt lat="45.34215" lon="4.51407">
        <ele>1264.501709</ele>
        <time>2011-03-05 13:56:49Z</time>
      </trkpt>
      <trkpt lat="45.34214" lon="4.51401">
        <ele>1264.246338</ele>
        <time>2011-03-05 13:56:53Z</time>
      </trkpt>
      <trkpt lat="45.34213" lon="4.51394">
        <ele>1264.017578</ele>
        <time>2011-03-05 13:56:57Z</time>
      </trkpt>
      <trkpt lat="45.34212" lon="4.51386">
        <ele>1263.831909</ele>
        <time>2011-03-05 13:57:01Z</time>
      </trkpt>
      <trkpt lat="45.3421" lon="4.51373">
        <ele>1263.701294</ele>
        <time>2011-03-05 13:57:05Z</time>
      </trkpt>
      <trkpt lat="45.34209" lon="4.51363">
        <ele>1263.598511</ele>
        <time>2011-03-05 13:57:09Z</time>
      </trkpt>
      <trkpt lat="45.34207" lon="4.51353">
        <ele>1263.508179</ele>
        <time>2011-03-05 13:57:13Z</time>
      </trkpt>
      <trkpt lat="45.34206" lon="4.51343">
        <ele>1263.424561</ele>
        <time>2011-03-05 13:57:17Z</time>
      </trkpt>
      <trkpt lat="45.34205" lon="4.51335">
        <ele>1263.364258</ele>
        <time>2011-03-05 13:57:21Z</time>
      </trkpt>
      <trkpt lat="45.34203" lon="4.51327">
        <ele>1263.309814</ele>
        <time>2011-03-05 13:57:25Z</time>
      </trkpt>
      <trkpt lat="45.34202" lon="4.51317">
        <ele>1263.280273</ele>
        <time>2011-03-05 13:57:29Z</time>
      </trkpt>
      <trkpt lat="45.34202" lon="4.51309">
        <ele>1263.277832</ele>
        <time>2011-03-05 13:57:33Z</time>
      </trkpt>
      <trkpt lat="45.34203" lon="4.51301">
        <ele>1263.272583</ele>
        <time>2011-03-05 13:57:37Z</time>
      </trkpt>
      <trkpt lat="45.34203" lon="4.51292">
        <ele>1263.29895</ele>
        <time>2011-03-05 13:57:41Z</time>
      </trkpt>
      <trkpt lat="45.34205" lon="4.51282">
        <ele>1263.353271</ele>
        <time>2011-03-05 13:57:45Z</time>
      </trkpt>
      <trkpt lat="45.34206" lon="4.51273">
        <ele>1263.46814</ele>
        <time>2011-03-05 13:57:49Z</time>
      </trkpt>
      <trkpt lat="45.34208" lon="4.51266">
        <ele>1263.571411</ele>
        <time>2011-03-05 13:57:53Z</time>
      </trkpt>
      <trkpt lat="45.34209" lon="4.51258">
        <ele>1263.718628</ele>
        <time>2011-03-05 13:57:57Z</time>
      </trkpt>
      <trkpt lat="45.34209" lon="4.51249">
        <ele>1263.821533</ele>
        <time>2011-03-05 13:58:01Z</time>
      </trkpt>
      <trkpt lat="45.34209" lon="4.51241">
        <ele>1263.906738</ele>
        <time>2011-03-05 13:58:05Z</time>
      </trkpt>
      <trkpt lat="45.34208" lon="4.51232">
        <ele>1263.987183</ele>
        <time>2011-03-05 13:58:09Z</time>
      </trkpt>
      <trkpt lat="45.34208" lon="4.51222">
        <ele>1264.01123</ele>
        <time>2011-03-05 13:58:13Z</time>
      </trkpt>
      <trkpt lat="45.34208" lon="4.51213">
        <ele>1264.039917</ele>
        <time>2011-03-05 13:58:17Z</time>
      </trkpt>
      <trkpt lat="45.34207" lon="4.51204">
        <ele>1264.077271</ele>
        <time>2011-03-05 13:58:21Z</time>
      </trkpt>
      <trkpt lat="45.34206" lon="4.51197">
        <ele>1264.109619</ele>
        <time>2011-03-05 13:58:25Z</time>
      </trkpt>
      <trkpt lat="45.34205" lon="4.51189">
        <ele>1264.140503</ele>
        <time>2011-03-05 13:58:29Z</time>
      </trkpt>
      <trkpt lat="45.34205" lon="4.51182">
        <ele>1264.126099</ele>
        <time>2011-03-05 13:58:33Z</time>
      </trkpt>
      <trkpt lat="45.34205" lon="4.51176">
        <ele>1264.091675</ele>
        <time>2011-03-05 13:58:37Z</time>
      </trkpt>
      <trkpt lat="45.34203" lon="4.51169">
        <ele>1264.018433</ele>
        <time>2011-03-05 13:58:41Z</time>
      </trkpt>
      <trkpt lat="45.34202" lon="4.51162">
        <ele>1263.928223</ele>
        <time>2011-03-05 13:58:45Z</time>
      </trkpt>
      <trkpt lat="45.34201" lon="4.51154">
        <ele>1263.834961</ele>
        <time>2011-03-05 13:58:49Z</time>
      </trkpt>
      <trkpt lat="45.34199" lon="4.51146">
        <ele>1263.722412</ele>
        <time>2011-03-05 13:58:53Z</time>
      </trkpt>
      <trkpt lat="45.34199" lon="4.5114">
        <ele>1263.647949</ele>
        <time>2011-03-05 13:58:57Z</time>
      </trkpt>
      <trkpt lat="45.342" lon="4.51134">
        <ele>1263.603149</ele>
        <time>2011-03-05 13:59:01Z</time>
      </trkpt>
      <trkpt lat="45.342" lon="4.51128">
        <ele>1263.556763</ele>
        <time>2011-03-05 13:59:05Z</time>
      </trkpt>
      <trkpt lat="45.34199" lon="4.5112">
        <ele>1263.498047</ele>
        <time>2011-03-05 13:59:09Z</time>
      </trkpt>
      <trkpt lat="45.34198" lon="4.5111">
        <ele>1263.419678</ele>
        <time>2011-03-05 13:59:13Z</time>
      </trkpt>
      <trkpt lat="45.34197" lon="4.51101">
        <ele>1263.339966</ele>
        <time>2011-03-05 13:59:17Z</time>
      </trkpt>
      <trkpt lat="45.34196" lon="4.51093">
        <ele>1263.263184</ele>
        <time>2011-03-05 13:59:21Z</time>
      </trkpt>
      <trkpt lat="45.34196" lon="4.51086">
        <ele>1263.182129</ele>
        <time>2011-03-05 13:59:25Z</time>
      </trkpt>
      <trkpt lat="45.34196" lon="4.51078">
        <ele>1263.091675</ele>
        <time>2011-03-05 13:59:29Z</time>
      </trkpt>
      <trkpt lat="45.34195" lon="4.5107">
        <ele>1262.985229</ele>
        <time>2011-03-05 13:59:33Z</time>
      </trkpt>
      <trkpt lat="45.34192" lon="4.51062">
        <ele>1262.876221</ele>
        <time>2011-03-05 13:59:37Z</time>
      </trkpt>
      <trkpt lat="45.34189" lon="4.51055">
        <ele>1262.7854</ele>
        <time>2011-03-05 13:59:41Z</time>
      </trkpt>
      <trkpt lat="45.34188" lon="4.51048">
        <ele>1262.730591</ele>
        <time>2011-03-05 13:59:45Z</time>
      </trkpt>
      <trkpt lat="45.34186" lon="4.5104">
        <ele>1262.694702</ele>
        <time>2011-03-05 13:59:49Z</time>
      </trkpt>
      <trkpt lat="45.34184" lon="4.51035">
        <ele>1262.681152</ele>
        <time>2011-03-05 13:59:53Z</time>
      </trkpt>
      <trkpt lat="45.34182" lon="4.51029">
        <ele>1262.664307</ele>
        <time>2011-03-05 13:59:57Z</time>
      </trkpt>
      <trkpt lat="45.34181" lon="4.51022">
        <ele>1262.658081</ele>
        <time>2011-03-05 14:00:01Z</time>
      </trkpt>
      <trkpt lat="45.34179" lon="4.51015">
        <ele>1262.697266</ele>
        <time>2011-03-05 14:00:05Z</time>
      </trkpt>
      <trkpt lat="45.34179" lon="4.51008">
        <ele>1262.758179</ele>
        <time>2011-03-05 14:00:09Z</time>
      </trkpt>
      <trkpt lat="45.34176" lon="4.50999">
        <ele>1262.817627</ele>
        <time>2011-03-05 14:00:13Z</time>
      </trkpt>
      <trkpt lat="45.34175" lon="4.50992">
        <ele>1262.899902</ele>
        <time>2011-03-05 14:00:17Z</time>
      </trkpt>
      <trkpt lat="45.34174" lon="4.50985">
        <ele>1262.985107</ele>
        <time>2011-03-05 14:00:21Z</time>
      </trkpt>
      <trkpt lat="45.34173" lon="4.50977">
        <ele>1263.046143</ele>
        <time>2011-03-05 14:00:25Z</time>
      </trkpt>
      <trkpt lat="45.34171" lon="4.50968">
        <ele>1263.110352</ele>
        <time>2011-03-05 14:00:29Z</time>
      </trkpt>
      <trkpt lat="45.34169" lon="4.50961">
        <ele>1263.177856</ele>
        <time>2011-03-05 14:00:33Z</time>
      </trkpt>
      <trkpt lat="45.34168" lon="4.50953">
        <ele>1263.192261</ele>
        <time>2011-03-05 14:00:37Z</time>
      </trkpt>
      <trkpt lat="45.34166" lon="4.50947">
        <ele>1263.148682</ele>
        <time>2011-03-05 14:00:41Z</time>
      </trkpt>
      <trkpt lat="45.34164" lon="4.50941">
        <ele>1263.119629</ele>
        <time>2011-03-05 14:00:45Z</time>
      </trkpt>
      <trkpt lat="45.34163" lon="4.50935">
        <ele>1263.098022</ele>
        <time>2011-03-05 14:00:49Z</time>
      </trkpt>
      <trkpt lat="45.34161" lon="4.50929">
        <ele>1263.072876</ele>
        <time>2011-03-05 14:00:53Z</time>
      </trkpt>
      <trkpt lat="45.34159" lon="4.50923">
        <ele>1263.052979</ele>
        <time>2011-03-05 14:00:57Z</time>
      </trkpt>
      <trkpt lat="45.34155" lon="4.50918">
        <ele>1262.930908</ele>
        <time>2011-03-05 14:01:01Z</time>
      </trkpt>
      <trkpt lat="45.34153" lon="4.50912">
        <ele>1262.834961</ele>
        <time>2011-03-05 14:01:05Z</time>
      </trkpt>
      <trkpt lat="45.34153" lon="4.50912">
        <ele>1262.832031</ele>
        <time>2011-03-05 14:01:09Z</time>
      </trkpt>
      <trkpt lat="45.34151" lon="4.50906">
        <ele>1262.831177</ele>
        <time>2011-03-05 14:01:13Z</time>
      </trkpt>
      <trkpt lat="45.34149" lon="4.509">
        <ele>1262.789795</ele>
        <time>2011-03-05 14:01:17Z</time>
      </trkpt>
      <trkpt lat="45.34147" lon="4.50894">
        <ele>1262.74231</ele>
        <time>2011-03-05 14:01:21Z</time>
      </trkpt>
      <trkpt lat="45.34144" lon="4.50887">
        <ele>1262.728149</ele>
        <time>2011-03-05 14:01:25Z</time>
      </trkpt>
      <trkpt lat="45.34142" lon="4.50881">
        <ele>1262.732666</ele>
        <time>2011-03-05 14:01:29Z</time>
      </trkpt>
      <trkpt lat="45.34139" lon="4.50875">
        <ele>1262.730957</ele>
        <time>2011-03-05 14:01:33Z</time>
      </trkpt>
      <trkpt lat="45.34136" lon="4.50868">
        <ele>1262.701782</ele>
        <time>2011-03-05 14:01:37Z</time>
      </trkpt>
      <trkpt lat="45.34132" lon="4.50853">
        <ele>1262.662109</ele>
        <time>2011-03-05 14:01:41Z</time>
      </trkpt>
      <trkpt lat="45.34129" lon="4.50846">
        <ele>1262.629272</ele>
        <time>2011-03-05 14:01:45Z</time>
      </trkpt>
      <trkpt lat="45.34126" lon="4.50838">
        <ele>1262.600464</ele>
        <time>2011-03-05 14:01:49Z</time>
      </trkpt>
      <trkpt lat="45.34121" lon="4.50826">
        <ele>1262.562012</ele>
        <time>2011-03-05 14:01:53Z</time>
      </trkpt>
      <trkpt lat="45.34118" lon="4.50819">
        <ele>1262.532471</ele>
        <time>2011-03-05 14:01:57Z</time>
      </trkpt>
      <trkpt lat="45.34115" lon="4.50812">
        <ele>1262.486816</ele>
        <time>2011-03-05 14:02:01Z</time>
      </trkpt>
      <trkpt lat="45.34111" lon="4.50805">
        <ele>1262.440918</ele>
        <time>2011-03-05 14:02:05Z</time>
      </trkpt>
      <trkpt lat="45.34109" lon="4.508">
        <ele>1262.408936</ele>
        <time>2011-03-05 14:02:09Z</time>
      </trkpt>
      <trkpt lat="45.34106" lon="4.50793">
        <ele>1262.35144</ele>
        <time>2011-03-05 14:02:13Z</time>
      </trkpt>
      <trkpt lat="45.34103" lon="4.50787">
        <ele>1262.27832</ele>
        <time>2011-03-05 14:02:17Z</time>
      </trkpt>
      <trkpt lat="45.341" lon="4.50781">
        <ele>1262.230347</ele>
        <time>2011-03-05 14:02:21Z</time>
      </trkpt>
      <trkpt lat="45.34095" lon="4.50773">
        <ele>1262.215576</ele>
        <time>2011-03-05 14:02:25Z</time>
      </trkpt>
      <trkpt lat="45.34092" lon="4.50766">
        <ele>1262.22998</ele>
        <time>2011-03-05 14:02:29Z</time>
      </trkpt>
      <trkpt lat="45.3409" lon="4.50762">
        <ele>1262.22522</ele>
        <time>2011-03-05 14:02:33Z</time>
      </trkpt>
      <trkpt lat="45.34088" lon="4.50756">
        <ele>1262.226562</ele>
        <time>2011-03-05 14:02:37Z</time>
      </trkpt>
      <trkpt lat="45.34086" lon="4.50748">
        <ele>1262.230225</ele>
        <time>2011-03-05 14:02:41Z</time>
      </trkpt>
      <trkpt lat="45.34084" lon="4.50743">
        <ele>1262.292725</ele>
        <time>2011-03-05 14:02:45Z</time>
      </trkpt>
      <trkpt lat="45.34084" lon="4.50743">
        <ele>1262.343018</ele>
        <time>2011-03-05 14:02:49Z</time>
      </trkpt>
      <trkpt lat="45.34081" lon="4.50735">
        <ele>1262.398682</ele>
        <time>2011-03-05 14:02:53Z</time>
      </trkpt>
      <trkpt lat="45.34077" lon="4.50721">
        <ele>1262.439819</ele>
        <time>2011-03-05 14:02:57Z</time>
      </trkpt>
      <trkpt lat="45.34075" lon="4.50714">
        <ele>1262.471802</ele>
        <time>2011-03-05 14:03:01Z</time>
      </trkpt>
      <trkpt lat="45.34072" lon="4.50707">
        <ele>1262.511597</ele>
        <time>2011-03-05 14:03:05Z</time>
      </trkpt>
      <trkpt lat="45.3407" lon="4.50701">
        <ele>1262.512573</ele>
        <time>2011-03-05 14:03:09Z</time>
      </trkpt>
      <trkpt lat="45.34068" lon="4.50695">
        <ele>1262.46521</ele>
        <time>2011-03-05 14:03:13Z</time>
      </trkpt>
      <trkpt lat="45.34065" lon="4.50688">
        <ele>1262.439087</ele>
        <time>2011-03-05 14:03:17Z</time>
      </trkpt>
      <trkpt lat="45.34064" lon="4.50681">
        <ele>1262.471313</ele>
        <time>2011-03-05 14:03:21Z</time>
      </trkpt>
      <trkpt lat="45.34063" lon="4.50674">
        <ele>1262.464722</ele>
        <time>2011-03-05 14:03:25Z</time>
      </trkpt>
      <trkpt lat="45.34062" lon="4.50667">
        <ele>1262.44043</ele>
        <time>2011-03-05 14:03:29Z</time>
      </trkpt>
      <trkpt lat="45.34061" lon="4.50659">
        <ele>1262.447754</ele>
        <time>2011-03-05 14:03:33Z</time>
      </trkpt>
      <trkpt lat="45.3406" lon="4.50652">
        <ele>1262.449097</ele>
        <time>2011-03-05 14:03:37Z</time>
      </trkpt>
      <trkpt lat="45.3406" lon="4.50644">
        <ele>1262.468018</ele>
        <time>2011-03-05 14:03:41Z</time>
      </trkpt>
      <trkpt lat="45.34059" lon="4.50632">
        <ele>1262.506348</ele>
        <time>2011-03-05 14:03:45Z</time>
      </trkpt>
      <trkpt lat="45.34057" lon="4.50624">
        <ele>1262.527466</ele>
        <time>2011-03-05 14:03:49Z</time>
      </trkpt>
      <trkpt lat="45.34055" lon="4.50614">
        <ele>1262.509888</ele>
        <time>2011-03-05 14:03:53Z</time>
      </trkpt>
      <trkpt lat="45.34054" lon="4.50606">
        <ele>1262.509155</ele>
        <time>2011-03-05 14:03:57Z</time>
      </trkpt>
      <trkpt lat="45.34053" lon="4.50597">
        <ele>1262.542847</ele>
        <time>2011-03-05 14:04:01Z</time>
      </trkpt>
      <trkpt lat="45.34052" lon="4.50589">
        <ele>1262.615601</ele>
        <time>2011-03-05 14:04:05Z</time>
      </trkpt>
      <trkpt lat="45.34052" lon="4.50582">
        <ele>1262.707397</ele>
        <time>2011-03-05 14:04:09Z</time>
      </trkpt>
      <trkpt lat="45.34052" lon="4.50575">
        <ele>1262.803467</ele>
        <time>2011-03-05 14:04:13Z</time>
      </trkpt>
      <trkpt lat="45.3405" lon="4.50566">
        <ele>1262.900146</ele>
        <time>2011-03-05 14:04:17Z</time>
      </trkpt>
      <trkpt lat="45.3405" lon="4.50557">
        <ele>1262.988281</ele>
        <time>2011-03-05 14:04:21Z</time>
      </trkpt>
      <trkpt lat="45.34049" lon="4.50548">
        <ele>1263.014038</ele>
        <time>2011-03-05 14:04:25Z</time>
      </trkpt>
      <trkpt lat="45.34048" lon="4.50538">
        <ele>1262.987671</ele>
        <time>2011-03-05 14:04:29Z</time>
      </trkpt>
      <trkpt lat="45.34048" lon="4.50529">
        <ele>1262.969727</ele>
        <time>2011-03-05 14:04:33Z</time>
      </trkpt>
      <trkpt lat="45.34049" lon="4.50521">
        <ele>1262.974731</ele>
        <time>2011-03-05 14:04:37Z</time>
      </trkpt>
      <trkpt lat="45.34049" lon="4.50514">
        <ele>1262.981934</ele>
        <time>2011-03-05 14:04:41Z</time>
      </trkpt>
      <trkpt lat="45.3405" lon="4.50507">
        <ele>1262.960449</ele>
        <time>2011-03-05 14:04:45Z</time>
      </trkpt>
      <trkpt lat="45.3405" lon="4.505">
        <ele>1262.942261</ele>
        <time>2011-03-05 14:04:49Z</time>
      </trkpt>
      <trkpt lat="45.3405" lon="4.50494">
        <ele>1262.933594</ele>
        <time>2011-03-05 14:04:53Z</time>
      </trkpt>
      <trkpt lat="45.34049" lon="4.50488">
        <ele>1262.89917</ele>
        <time>2011-03-05 14:04:57Z</time>
      </trkpt>
      <trkpt lat="45.34048" lon="4.50481">
        <ele>1262.848877</ele>
        <time>2011-03-05 14:05:01Z</time>
      </trkpt>
      <trkpt lat="45.34046" lon="4.50474">
        <ele>1262.808228</ele>
        <time>2011-03-05 14:05:05Z</time>
      </trkpt>
      <trkpt lat="45.34044" lon="4.50468">
        <ele>1262.718262</ele>
        <time>2011-03-05 14:05:09Z</time>
      </trkpt>
      <trkpt lat="45.34042" lon="4.50463">
        <ele>1262.532471</ele>
        <time>2011-03-05 14:05:13Z</time>
      </trkpt>
      <trkpt lat="45.34035" lon="4.50457">
        <ele>1262.143433</ele>
        <time>2011-03-05 14:05:17Z</time>
      </trkpt>
      <trkpt lat="45.3403" lon="4.5045">
        <ele>1261.688721</ele>
        <time>2011-03-05 14:05:21Z</time>
      </trkpt>
      <trkpt lat="45.34029" lon="4.50443">
        <ele>1261.317993</ele>
        <time>2011-03-05 14:05:25Z</time>
      </trkpt>
      <trkpt lat="45.3403" lon="4.50434">
        <ele>1260.894897</ele>
        <time>2011-03-05 14:05:29Z</time>
      </trkpt>
      <trkpt lat="45.34031" lon="4.50425">
        <ele>1260.388306</ele>
        <time>2011-03-05 14:05:33Z</time>
      </trkpt>
      <trkpt lat="45.34033" lon="4.50419">
        <ele>1259.960449</ele>
        <time>2011-03-05 14:05:37Z</time>
      </trkpt>
      <trkpt lat="45.34036" lon="4.50412">
        <ele>1259.566406</ele>
        <time>2011-03-05 14:05:41Z</time>
      </trkpt>
      <trkpt lat="45.34038" lon="4.50405">
        <ele>1259.225342</ele>
        <time>2011-03-05 14:05:45Z</time>
      </trkpt>
      <trkpt lat="45.3404" lon="4.50398">
        <ele>1258.859497</ele>
        <time>2011-03-05 14:05:49Z</time>
      </trkpt>
      <trkpt lat="45.3404" lon="4.50388">
        <ele>1258.511597</ele>
        <time>2011-03-05 14:05:53Z</time>
      </trkpt>
      <trkpt lat="45.34041" lon="4.50381">
        <ele>1258.158936</ele>
        <time>2011-03-05 14:05:57Z</time>
      </trkpt>
      <trkpt lat="45.34042" lon="4.50375">
        <ele>1257.80127</ele>
        <time>2011-03-05 14:06:01Z</time>
      </trkpt>
      <trkpt lat="45.34044" lon="4.5037">
        <ele>1257.446655</ele>
        <time>2011-03-05 14:06:05Z</time>
      </trkpt>
      <trkpt lat="45.34045" lon="4.50365">
        <ele>1257.108887</ele>
        <time>2011-03-05 14:06:09Z</time>
      </trkpt>
      <trkpt lat="45.34045" lon="4.50359">
        <ele>1256.821777</ele>
        <time>2011-03-05 14:06:13Z</time>
      </trkpt>
      <trkpt lat="45.34045" lon="4.50349">
        <ele>1256.558716</ele>
        <time>2011-03-05 14:06:17Z</time>
      </trkpt>
      <trkpt lat="45.34046" lon="4.50342">
        <ele>1256.347534</ele>
        <time>2011-03-05 14:06:21Z</time>
      </trkpt>
      <trkpt lat="45.34046" lon="4.50335">
        <ele>1256.181274</ele>
        <time>2011-03-05 14:06:25Z</time>
      </trkpt>
      <trkpt lat="45.34046" lon="4.50329">
        <ele>1256.002808</ele>
        <time>2011-03-05 14:06:29Z</time>
      </trkpt>
      <trkpt lat="45.34046" lon="4.50322">
        <ele>1255.822021</ele>
        <time>2011-03-05 14:06:33Z</time>
      </trkpt>
      <trkpt lat="45.34045" lon="4.50313">
        <ele>1255.612549</ele>
        <time>2011-03-05 14:06:37Z</time>
      </trkpt>
      <trkpt lat="45.34044" lon="4.50306">
        <ele>1255.434692</ele>
        <time>2011-03-05 14:06:41Z</time>
      </trkpt>
      <trkpt lat="45.34044" lon="4.50301">
        <ele>1255.277954</ele>
        <time>2011-03-05 14:06:45Z</time>
      </trkpt>
      <trkpt lat="45.34043" lon="4.50295">
        <ele>1255.096313</ele>
        <time>2011-03-05 14:06:49Z</time>
      </trkpt>
      <trkpt lat="45.34042" lon="4.50288">
        <ele>1254.83728</ele>
        <time>2011-03-05 14:06:53Z</time>
      </trkpt>
      <trkpt lat="45.34039" lon="4.50278">
        <ele>1254.458252</ele>
        <time>2011-03-05 14:06:57Z</time>
      </trkpt>
      <trkpt lat="45.34038" lon="4.50271">
        <ele>1254.088257</ele>
        <time>2011-03-05 14:07:01Z</time>
      </trkpt>
      <trkpt lat="45.34036" lon="4.50262">
        <ele>1253.71875</ele>
        <time>2011-03-05 14:07:05Z</time>
      </trkpt>
      <trkpt lat="45.34033" lon="4.50252">
        <ele>1253.369263</ele>
        <time>2011-03-05 14:07:09Z</time>
      </trkpt>
      <trkpt lat="45.34032" lon="4.50244">
        <ele>1253.053467</ele>
        <time>2011-03-05 14:07:13Z</time>
      </trkpt>
      <trkpt lat="45.3403" lon="4.50239">
        <ele>1252.734863</ele>
        <time>2011-03-05 14:07:17Z</time>
      </trkpt>
      <trkpt lat="45.34029" lon="4.50234">
        <ele>1252.485718</ele>
        <time>2011-03-05 14:07:21Z</time>
      </trkpt>
      <trkpt lat="45.34028" lon="4.50231">
        <ele>1252.404053</ele>
        <time>2011-03-05 14:07:25Z</time>
      </trkpt>
      <trkpt lat="45.34028" lon="4.50231">
        <ele>1252.37793</ele>
        <time>2011-03-05 14:07:29Z</time>
      </trkpt>
      <trkpt lat="45.34027" lon="4.50224">
        <ele>1252.355347</ele>
        <time>2011-03-05 14:07:33Z</time>
      </trkpt>
      <trkpt lat="45.34025" lon="4.50217">
        <ele>1252.274902</ele>
        <time>2011-03-05 14:07:37Z</time>
      </trkpt>
      <trkpt lat="45.34022" lon="4.50211">
        <ele>1252.252808</ele>
        <time>2011-03-05 14:07:41Z</time>
      </trkpt>
      <trkpt lat="45.3402" lon="4.50206">
        <ele>1252.236938</ele>
        <time>2011-03-05 14:07:45Z</time>
      </trkpt>
      <trkpt lat="45.34016" lon="4.50198">
        <ele>1252.224854</ele>
        <time>2011-03-05 14:07:49Z</time>
      </trkpt>
      <trkpt lat="45.34013" lon="4.50191">
        <ele>1252.212646</ele>
        <time>2011-03-05 14:07:53Z</time>
      </trkpt>
      <trkpt lat="45.3401" lon="4.50186">
        <ele>1252.19104</ele>
        <time>2011-03-05 14:07:57Z</time>
      </trkpt>
      <trkpt lat="45.34005" lon="4.50174">
        <ele>1252.167847</ele>
        <time>2011-03-05 14:08:01Z</time>
      </trkpt>
      <trkpt lat="45.34003" lon="4.50168">
        <ele>1252.074951</ele>
        <time>2011-03-05 14:08:05Z</time>
      </trkpt>
      <trkpt lat="45.33999" lon="4.50161">
        <ele>1252.045166</ele>
        <time>2011-03-05 14:08:09Z</time>
      </trkpt>
      <trkpt lat="45.33996" lon="4.50156">
        <ele>1252.010742</ele>
        <time>2011-03-05 14:08:13Z</time>
      </trkpt>
      <trkpt lat="45.33992" lon="4.50151">
        <ele>1251.796753</ele>
        <time>2011-03-05 14:08:17Z</time>
      </trkpt>
      <trkpt lat="45.33989" lon="4.50145">
        <ele>1251.453125</ele>
        <time>2011-03-05 14:08:21Z</time>
      </trkpt>
      <trkpt lat="45.33984" lon="4.50139">
        <ele>1251.145874</ele>
        <time>2011-03-05 14:08:25Z</time>
      </trkpt>
      <trkpt lat="45.33981" lon="4.50135">
        <ele>1251.059204</ele>
        <time>2011-03-05 14:08:29Z</time>
      </trkpt>
      <trkpt lat="45.33977" lon="4.5013">
        <ele>1250.924438</ele>
        <time>2011-03-05 14:08:33Z</time>
      </trkpt>
      <trkpt lat="45.33973" lon="4.50126">
        <ele>1250.691772</ele>
        <time>2011-03-05 14:08:37Z</time>
      </trkpt>
      <trkpt lat="45.33969" lon="4.50122">
        <ele>1250.44873</ele>
        <time>2011-03-05 14:08:41Z</time>
      </trkpt>
      <trkpt lat="45.33964" lon="4.5012">
        <ele>1250.186279</ele>
        <time>2011-03-05 14:08:45Z</time>
      </trkpt>
      <trkpt lat="45.33964" lon="4.5012">
        <ele>1249.916748</ele>
        <time>2011-03-05 14:08:49Z</time>
      </trkpt>
      <trkpt lat="45.33959" lon="4.50117">
        <ele>1249.623047</ele>
        <time>2011-03-05 14:08:53Z</time>
      </trkpt>
      <trkpt lat="45.33955" lon="4.50113">
        <ele>1249.314453</ele>
        <time>2011-03-05 14:08:57Z</time>
      </trkpt>
      <trkpt lat="45.3395" lon="4.50109">
        <ele>1249.059937</ele>
        <time>2011-03-05 14:09:01Z</time>
      </trkpt>
      <trkpt lat="45.33946" lon="4.50105">
        <ele>1248.840698</ele>
        <time>2011-03-05 14:09:05Z</time>
      </trkpt>
      <trkpt lat="45.33942" lon="4.50101">
        <ele>1248.572021</ele>
        <time>2011-03-05 14:09:09Z</time>
      </trkpt>
      <trkpt lat="45.33938" lon="4.50096">
        <ele>1248.453125</ele>
        <time>2011-03-05 14:09:13Z</time>
      </trkpt>
      <trkpt lat="45.33934" lon="4.5009">
        <ele>1248.259888</ele>
        <time>2011-03-05 14:09:17Z</time>
      </trkpt>
      <trkpt lat="45.33928" lon="4.50076">
        <ele>1247.81189</ele>
        <time>2011-03-05 14:09:21Z</time>
      </trkpt>
      <trkpt lat="45.33924" lon="4.50069">
        <ele>1247.315918</ele>
        <time>2011-03-05 14:09:25Z</time>
      </trkpt>
      <trkpt lat="45.3392" lon="4.50064">
        <ele>1246.79541</ele>
        <time>2011-03-05 14:09:29Z</time>
      </trkpt>
      <trkpt lat="45.33917" lon="4.5006">
        <ele>1246.37854</ele>
        <time>2011-03-05 14:09:33Z</time>
      </trkpt>
      <trkpt lat="45.33912" lon="4.50056">
        <ele>1246.006104</ele>
        <time>2011-03-05 14:09:37Z</time>
      </trkpt>
      <trkpt lat="45.33909" lon="4.50051">
        <ele>1245.751709</ele>
        <time>2011-03-05 14:09:41Z</time>
      </trkpt>
      <trkpt lat="45.33905" lon="4.50046">
        <ele>1245.619019</ele>
        <time>2011-03-05 14:09:45Z</time>
      </trkpt>
      <trkpt lat="45.33901" lon="4.50042">
        <ele>1245.604492</ele>
        <time>2011-03-05 14:09:49Z</time>
      </trkpt>
      <trkpt lat="45.33897" lon="4.50037">
        <ele>1245.590332</ele>
        <time>2011-03-05 14:09:53Z</time>
      </trkpt>
      <trkpt lat="45.33894" lon="4.50031">
        <ele>1245.457642</ele>
        <time>2011-03-05 14:09:57Z</time>
      </trkpt>
      <trkpt lat="45.33889" lon="4.50024">
        <ele>1245.326416</ele>
        <time>2011-03-05 14:10:01Z</time>
      </trkpt>
      <trkpt lat="45.33885" lon="4.50018">
        <ele>1245.127563</ele>
        <time>2011-03-05 14:10:05Z</time>
      </trkpt>
      <trkpt lat="45.33876" lon="4.50006">
        <ele>1244.973999</ele>
        <time>2011-03-05 14:10:09Z</time>
      </trkpt>
      <trkpt lat="45.33873" lon="4.50002">
        <ele>1244.933105</ele>
        <time>2011-03-05 14:10:13Z</time>
      </trkpt>
      <trkpt lat="45.33873" lon="4.50002">
        <ele>1244.924438</ele>
        <time>2011-03-05 14:10:17Z</time>
      </trkpt>
      <trkpt lat="45.3387" lon="4.49996">
        <ele>1244.868896</ele>
        <time>2011-03-05 14:10:21Z</time>
      </trkpt>
      <trkpt lat="45.33868" lon="4.49989">
        <ele>1244.902344</ele>
        <time>2011-03-05 14:10:25Z</time>
      </trkpt>
      <trkpt lat="45.33866" lon="4.49982">
        <ele>1244.911133</ele>
        <time>2011-03-05 14:10:29Z</time>
      </trkpt>
      <trkpt lat="45.33864" lon="4.49975">
        <ele>1244.94751</ele>
        <time>2011-03-05 14:10:33Z</time>
      </trkpt>
      <trkpt lat="45.33862" lon="4.49967">
        <ele>1245.008423</ele>
        <time>2011-03-05 14:10:37Z</time>
      </trkpt>
      <trkpt lat="45.3386" lon="4.49961">
        <ele>1245.013062</ele>
        <time>2011-03-05 14:10:41Z</time>
      </trkpt>
      <trkpt lat="45.33857" lon="4.49956">
        <ele>1245.019409</ele>
        <time>2011-03-05 14:10:45Z</time>
      </trkpt>
      <trkpt lat="45.33854" lon="4.49949">
        <ele>1245.023926</ele>
        <time>2011-03-05 14:10:49Z</time>
      </trkpt>
      <trkpt lat="45.33848" lon="4.49938">
        <ele>1245.030151</ele>
        <time>2011-03-05 14:10:53Z</time>
      </trkpt>
      <trkpt lat="45.33845" lon="4.49931">
        <ele>1245.036377</ele>
        <time>2011-03-05 14:10:57Z</time>
      </trkpt>
      <trkpt lat="45.33843" lon="4.49926">
        <ele>1245.041504</ele>
        <time>2011-03-05 14:11:01Z</time>
      </trkpt>
      <trkpt lat="45.33843" lon="4.49926">
        <ele>1245.068359</ele>
        <time>2011-03-05 14:11:05Z</time>
      </trkpt>
      <trkpt lat="45.33839" lon="4.49922">
        <ele>1245.171631</ele>
        <time>2011-03-05 14:11:09Z</time>
      </trkpt>
      <trkpt lat="45.33835" lon="4.49915">
        <ele>1245.290283</ele>
        <time>2011-03-05 14:11:13Z</time>
      </trkpt>
      <trkpt lat="45.33831" lon="4.49908">
        <ele>1245.410522</ele>
        <time>2011-03-05 14:11:17Z</time>
      </trkpt>
      <trkpt lat="45.33825" lon="4.49895">
        <ele>1245.576172</ele>
        <time>2011-03-05 14:11:21Z</time>
      </trkpt>
      <trkpt lat="45.33819" lon="4.49884">
        <ele>1245.750122</ele>
        <time>2011-03-05 14:11:25Z</time>
      </trkpt>
      <trkpt lat="45.33815" lon="4.49879">
        <ele>1245.892212</ele>
        <time>2011-03-05 14:11:29Z</time>
      </trkpt>
      <trkpt lat="45.33815" lon="4.49879">
        <ele>1245.903687</ele>
        <time>2011-03-05 14:11:33Z</time>
      </trkpt>
      <trkpt lat="45.33812" lon="4.49873">
        <ele>1245.912964</ele>
        <time>2011-03-05 14:11:37Z</time>
      </trkpt>
      <trkpt lat="45.33809" lon="4.49869">
        <ele>1245.929443</ele>
        <time>2011-03-05 14:11:41Z</time>
      </trkpt>
      <trkpt lat="45.33805" lon="4.49864">
        <ele>1245.941406</ele>
        <time>2011-03-05 14:11:45Z</time>
      </trkpt>
      <trkpt lat="45.33802" lon="4.49859">
        <ele>1245.930542</ele>
        <time>2011-03-05 14:11:49Z</time>
      </trkpt>
      <trkpt lat="45.33798" lon="4.49853">
        <ele>1245.900391</ele>
        <time>2011-03-05 14:11:53Z</time>
      </trkpt>
      <trkpt lat="45.33798" lon="4.49853">
        <ele>1245.923584</ele>
        <time>2011-03-05 14:11:57Z</time>
      </trkpt>
      <trkpt lat="45.33793" lon="4.49849">
        <ele>1246.026367</ele>
        <time>2011-03-05 14:12:01Z</time>
      </trkpt>
      <trkpt lat="45.33789" lon="4.49845">
        <ele>1246.138672</ele>
        <time>2011-03-05 14:12:05Z</time>
      </trkpt>
      <trkpt lat="45.33785" lon="4.49841">
        <ele>1246.274292</ele>
        <time>2011-03-05 14:12:09Z</time>
      </trkpt>
      <trkpt lat="45.33782" lon="4.49835">
        <ele>1246.467896</ele>
        <time>2011-03-05 14:12:13Z</time>
      </trkpt>
      <trkpt lat="45.33782" lon="4.49835">
        <ele>1246.72229</ele>
        <time>2011-03-05 14:12:17Z</time>
      </trkpt>
      <trkpt lat="45.33778" lon="4.4983">
        <ele>1246.971191</ele>
        <time>2011-03-05 14:12:21Z</time>
      </trkpt>
      <trkpt lat="45.33774" lon="4.49826">
        <ele>1247.196167</ele>
        <time>2011-03-05 14:12:25Z</time>
      </trkpt>
      <trkpt lat="45.3377" lon="4.49821">
        <ele>1247.363281</ele>
        <time>2011-03-05 14:12:29Z</time>
      </trkpt>
      <trkpt lat="45.33766" lon="4.49817">
        <ele>1247.383667</ele>
        <time>2011-03-05 14:12:33Z</time>
      </trkpt>
      <trkpt lat="45.33764" lon="4.49811">
        <ele>1247.50061</ele>
        <time>2011-03-05 14:12:37Z</time>
      </trkpt>
      <trkpt lat="45.33761" lon="4.49803">
        <ele>1247.699463</ele>
        <time>2011-03-05 14:12:41Z</time>
      </trkpt>
      <trkpt lat="45.33757" lon="4.49787">
        <ele>1247.890503</ele>
        <time>2011-03-05 14:12:45Z</time>
      </trkpt>
      <trkpt lat="45.33756" lon="4.49779">
        <ele>1248.036377</ele>
        <time>2011-03-05 14:12:49Z</time>
      </trkpt>
      <trkpt lat="45.33756" lon="4.49772">
        <ele>1248.171387</ele>
        <time>2011-03-05 14:12:53Z</time>
      </trkpt>
      <trkpt lat="45.33756" lon="4.49772">
        <ele>1248.340698</ele>
        <time>2011-03-05 14:12:57Z</time>
      </trkpt>
      <trkpt lat="45.33756" lon="4.49764">
        <ele>1248.677856</ele>
        <time>2011-03-05 14:13:01Z</time>
      </trkpt>
      <trkpt lat="45.33755" lon="4.49756">
        <ele>1248.998779</ele>
        <time>2011-03-05 14:13:05Z</time>
      </trkpt>
      <trkpt lat="45.33754" lon="4.49749">
        <ele>1249.221313</ele>
        <time>2011-03-05 14:13:09Z</time>
      </trkpt>
      <trkpt lat="45.33752" lon="4.49741">
        <ele>1249.243896</ele>
        <time>2011-03-05 14:13:13Z</time>
      </trkpt>
      <trkpt lat="45.3375" lon="4.49734">
        <ele>1249.265869</ele>
        <time>2011-03-05 14:13:17Z</time>
      </trkpt>
      <trkpt lat="45.3375" lon="4.49728">
        <ele>1249.53186</ele>
        <time>2011-03-05 14:13:21Z</time>
      </trkpt>
      <trkpt lat="45.33753" lon="4.49721">
        <ele>1250.676514</ele>
        <time>2011-03-05 14:13:25Z</time>
      </trkpt>
      <trkpt lat="45.33754" lon="4.49715">
        <ele>1251.246216</ele>
        <time>2011-03-05 14:13:29Z</time>
      </trkpt>
      <trkpt lat="45.3375" lon="4.49701">
        <ele>1251.659058</ele>
        <time>2011-03-05 14:13:33Z</time>
      </trkpt>
      <trkpt lat="45.33743" lon="4.49688">
        <ele>1252.266357</ele>
        <time>2011-03-05 14:13:37Z</time>
      </trkpt>
      <trkpt lat="45.3374" lon="4.49684">
        <ele>1252.787231</ele>
        <time>2011-03-05 14:13:41Z</time>
      </trkpt>
      <trkpt lat="45.3374" lon="4.49684">
        <ele>1253.216553</ele>
        <time>2011-03-05 14:13:45Z</time>
      </trkpt>
      <trkpt lat="45.33735" lon="4.4968">
        <ele>1253.5896</ele>
        <time>2011-03-05 14:13:49Z</time>
      </trkpt>
      <trkpt lat="45.33731" lon="4.49678">
        <ele>1253.944824</ele>
        <time>2011-03-05 14:13:53Z</time>
      </trkpt>
      <trkpt lat="45.33727" lon="4.49675">
        <ele>1254.237549</ele>
        <time>2011-03-05 14:13:57Z</time>
      </trkpt>
      <trkpt lat="45.33723" lon="4.49671">
        <ele>1254.360229</ele>
        <time>2011-03-05 14:14:01Z</time>
      </trkpt>
      <trkpt lat="45.33719" lon="4.49666">
        <ele>1254.35022</ele>
        <time>2011-03-05 14:14:05Z</time>
      </trkpt>
      <trkpt lat="45.33715" lon="4.49663">
        <ele>1254.336914</ele>
        <time>2011-03-05 14:14:09Z</time>
      </trkpt>
      <trkpt lat="45.33711" lon="4.4966">
        <ele>1254.350586</ele>
        <time>2011-03-05 14:14:13Z</time>
      </trkpt>
      <trkpt lat="45.33706" lon="4.49657">
        <ele>1254.490234</ele>
        <time>2011-03-05 14:14:17Z</time>
      </trkpt>
      <trkpt lat="45.33701" lon="4.49654">
        <ele>1254.593262</ele>
        <time>2011-03-05 14:14:21Z</time>
      </trkpt>
      <trkpt lat="45.33696" lon="4.4965">
        <ele>1254.665039</ele>
        <time>2011-03-05 14:14:25Z</time>
      </trkpt>
      <trkpt lat="45.3369" lon="4.49648">
        <ele>1254.590088</ele>
        <time>2011-03-05 14:14:29Z</time>
      </trkpt>
      <trkpt lat="45.33685" lon="4.49647">
        <ele>1254.35144</ele>
        <time>2011-03-05 14:14:33Z</time>
      </trkpt>
      <trkpt lat="45.33673" lon="4.49643">
        <ele>1254.035278</ele>
        <time>2011-03-05 14:14:37Z</time>
      </trkpt>
      <trkpt lat="45.33668" lon="4.49642">
        <ele>1253.787354</ele>
        <time>2011-03-05 14:14:41Z</time>
      </trkpt>
      <trkpt lat="45.33662" lon="4.49641">
        <ele>1253.651978</ele>
        <time>2011-03-05 14:14:45Z</time>
      </trkpt>
      <trkpt lat="45.33658" lon="4.49639">
        <ele>1253.574829</ele>
        <time>2011-03-05 14:14:49Z</time>
      </trkpt>
      <trkpt lat="45.33653" lon="4.49639">
        <ele>1253.453369</ele>
        <time>2011-03-05 14:14:53Z</time>
      </trkpt>
      <trkpt lat="45.33647" lon="4.4964">
        <ele>1253.365112</ele>
        <time>2011-03-05 14:14:57Z</time>
      </trkpt>
      <trkpt lat="45.33638" lon="4.49641">
        <ele>1253.319336</ele>
        <time>2011-03-05 14:15:01Z</time>
      </trkpt>
      <trkpt lat="45.33634" lon="4.49642">
        <ele>1253.322632</ele>
        <time>2011-03-05 14:15:05Z</time>
      </trkpt>
      <trkpt lat="45.33628" lon="4.49641">
        <ele>1253.399536</ele>
        <time>2011-03-05 14:15:09Z</time>
      </trkpt>
      <trkpt lat="45.33621" lon="4.49636">
        <ele>1253.609741</ele>
        <time>2011-03-05 14:15:13Z</time>
      </trkpt>
      <trkpt lat="45.33615" lon="4.49635">
        <ele>1253.832886</ele>
        <time>2011-03-05 14:15:17Z</time>
      </trkpt>
      <trkpt lat="45.33611" lon="4.49635">
        <ele>1254.035278</ele>
        <time>2011-03-05 14:15:21Z</time>
      </trkpt>
      <trkpt lat="45.33606" lon="4.49635">
        <ele>1254.235229</ele>
        <time>2011-03-05 14:15:25Z</time>
      </trkpt>
      <trkpt lat="45.336" lon="4.49635">
        <ele>1254.468628</ele>
        <time>2011-03-05 14:15:29Z</time>
      </trkpt>
      <trkpt lat="45.33595" lon="4.49633">
        <ele>1254.70459</ele>
        <time>2011-03-05 14:15:33Z</time>
      </trkpt>
      <trkpt lat="45.3359" lon="4.4963">
        <ele>1254.924683</ele>
        <time>2011-03-05 14:15:37Z</time>
      </trkpt>
      <trkpt lat="45.33585" lon="4.49629">
        <ele>1255.203857</ele>
        <time>2011-03-05 14:15:41Z</time>
      </trkpt>
      <trkpt lat="45.33584" lon="4.49628">
        <ele>1255.297241</ele>
        <time>2011-03-05 14:15:45Z</time>
      </trkpt>
      <trkpt lat="45.3358" lon="4.49624">
        <ele>1255.307861</ele>
        <time>2011-03-05 14:15:49Z</time>
      </trkpt>
      <trkpt lat="45.33572" lon="4.49612">
        <ele>1255.358154</ele>
        <time>2011-03-05 14:15:53Z</time>
      </trkpt>
      <trkpt lat="45.33567" lon="4.49607">
        <ele>1255.458252</ele>
        <time>2011-03-05 14:15:57Z</time>
      </trkpt>
      <trkpt lat="45.33563" lon="4.49603">
        <ele>1255.530151</ele>
        <time>2011-03-05 14:16:01Z</time>
      </trkpt>
      <trkpt lat="45.33563" lon="4.49603">
        <ele>1255.481079</ele>
        <time>2011-03-05 14:16:05Z</time>
      </trkpt>
      <trkpt lat="45.33559" lon="4.49601">
        <ele>1255.4823</ele>
        <time>2011-03-05 14:16:09Z</time>
      </trkpt>
      <trkpt lat="45.33559" lon="4.49601">
        <ele>1255.487915</ele>
        <time>2011-03-05 14:16:13Z</time>
      </trkpt>
      <trkpt lat="45.33554" lon="4.49599">
        <ele>1255.515137</ele>
        <time>2011-03-05 14:16:17Z</time>
      </trkpt>
      <trkpt lat="45.33548" lon="4.49597">
        <ele>1255.48645</ele>
        <time>2011-03-05 14:16:21Z</time>
      </trkpt>
      <trkpt lat="45.33544" lon="4.49593">
        <ele>1255.479126</ele>
        <time>2011-03-05 14:16:25Z</time>
      </trkpt>
      <trkpt lat="45.3354" lon="4.4959">
        <ele>1255.466675</ele>
        <time>2011-03-05 14:16:29Z</time>
      </trkpt>
      <trkpt lat="45.33535" lon="4.49589">
        <ele>1255.466187</ele>
        <time>2011-03-05 14:16:33Z</time>
      </trkpt>
      <trkpt lat="45.3353" lon="4.49586">
        <ele>1255.454102</ele>
        <time>2011-03-05 14:16:37Z</time>
      </trkpt>
      <trkpt lat="45.33525" lon="4.49583">
        <ele>1255.501099</ele>
        <time>2011-03-05 14:16:41Z</time>
      </trkpt>
      <trkpt lat="45.3352" lon="4.4958">
        <ele>1255.509644</ele>
        <time>2011-03-05 14:16:45Z</time>
      </trkpt>
      <trkpt lat="45.33515" lon="4.49576">
        <ele>1255.518677</ele>
        <time>2011-03-05 14:16:49Z</time>
      </trkpt>
      <trkpt lat="45.3351" lon="4.49572">
        <ele>1255.528809</ele>
        <time>2011-03-05 14:16:53Z</time>
      </trkpt>
      <trkpt lat="45.33506" lon="4.49568">
        <ele>1255.622925</ele>
        <time>2011-03-05 14:16:57Z</time>
      </trkpt>
      <trkpt lat="45.33497" lon="4.49556">
        <ele>1255.695435</ele>
        <time>2011-03-05 14:17:01Z</time>
      </trkpt>
      <trkpt lat="45.33494" lon="4.49551">
        <ele>1255.703003</ele>
        <time>2011-03-05 14:17:05Z</time>
      </trkpt>
      <trkpt lat="45.3349" lon="4.49545">
        <ele>1255.750244</ele>
        <time>2011-03-05 14:17:09Z</time>
      </trkpt>
      <trkpt lat="45.33487" lon="4.4954">
        <ele>1255.92334</ele>
        <time>2011-03-05 14:17:13Z</time>
      </trkpt>
      <trkpt lat="45.33484" lon="4.49536">
        <ele>1256.093384</ele>
        <time>2011-03-05 14:17:17Z</time>
      </trkpt>
      <trkpt lat="45.33484" lon="4.49536">
        <ele>1256.224609</ele>
        <time>2011-03-05 14:17:21Z</time>
      </trkpt>
      <trkpt lat="45.33479" lon="4.49531">
        <ele>1256.305786</ele>
        <time>2011-03-05 14:17:25Z</time>
      </trkpt>
      <trkpt lat="45.33476" lon="4.49526">
        <ele>1256.323242</ele>
        <time>2011-03-05 14:17:29Z</time>
      </trkpt>
      <trkpt lat="45.3347" lon="4.49512">
        <ele>1256.346313</ele>
        <time>2011-03-05 14:17:33Z</time>
      </trkpt>
      <trkpt lat="45.33465" lon="4.495">
        <ele>1256.284668</ele>
        <time>2011-03-05 14:17:37Z</time>
      </trkpt>
      <trkpt lat="45.33461" lon="4.49488">
        <ele>1256.12439</ele>
        <time>2011-03-05 14:17:41Z</time>
      </trkpt>
      <trkpt lat="45.33458" lon="4.49481">
        <ele>1256.002441</ele>
        <time>2011-03-05 14:17:45Z</time>
      </trkpt>
      <trkpt lat="45.33455" lon="4.49474">
        <ele>1255.926147</ele>
        <time>2011-03-05 14:17:49Z</time>
      </trkpt>
      <trkpt lat="45.33453" lon="4.49467">
        <ele>1255.874023</ele>
        <time>2011-03-05 14:17:53Z</time>
      </trkpt>
      <trkpt lat="45.33451" lon="4.49461">
        <ele>1255.870483</ele>
        <time>2011-03-05 14:17:57Z</time>
      </trkpt>
      <trkpt lat="45.33451" lon="4.49461">
        <ele>1255.867798</ele>
        <time>2011-03-05 14:18:01Z</time>
      </trkpt>
      <trkpt lat="45.33449" lon="4.49455">
        <ele>1255.881348</ele>
        <time>2011-03-05 14:18:05Z</time>
      </trkpt>
      <trkpt lat="45.33448" lon="4.49448">
        <ele>1255.880615</ele>
        <time>2011-03-05 14:18:09Z</time>
      </trkpt>
      <trkpt lat="45.33448" lon="4.49448">
        <ele>1255.881104</ele>
        <time>2011-03-05 14:18:13Z</time>
      </trkpt>
      <trkpt lat="45.33445" lon="4.49442">
        <ele>1255.878784</ele>
        <time>2011-03-05 14:18:17Z</time>
      </trkpt>
      <trkpt lat="45.33443" lon="4.49436">
        <ele>1255.866089</ele>
        <time>2011-03-05 14:18:21Z</time>
      </trkpt>
      <trkpt lat="45.33437" lon="4.49423">
        <ele>1255.814819</ele>
        <time>2011-03-05 14:18:25Z</time>
      </trkpt>
      <trkpt lat="45.33433" lon="4.49411">
        <ele>1255.879028</ele>
        <time>2011-03-05 14:18:29Z</time>
      </trkpt>
      <trkpt lat="45.3343" lon="4.49403">
        <ele>1256.036743</ele>
        <time>2011-03-05 14:18:33Z</time>
      </trkpt>
      <trkpt lat="45.33427" lon="4.49396">
        <ele>1256.170654</ele>
        <time>2011-03-05 14:18:37Z</time>
      </trkpt>
      <trkpt lat="45.33424" lon="4.4939">
        <ele>1256.295898</ele>
        <time>2011-03-05 14:18:41Z</time>
      </trkpt>
      <trkpt lat="45.33421" lon="4.49386">
        <ele>1256.423096</ele>
        <time>2011-03-05 14:18:45Z</time>
      </trkpt>
      <trkpt lat="45.33416" lon="4.4938">
        <ele>1256.554932</ele>
        <time>2011-03-05 14:18:49Z</time>
      </trkpt>
      <trkpt lat="45.33416" lon="4.4938">
        <ele>1256.567139</ele>
        <time>2011-03-05 14:18:53Z</time>
      </trkpt>
      <trkpt lat="45.33413" lon="4.49375">
        <ele>1256.580933</ele>
        <time>2011-03-05 14:18:57Z</time>
      </trkpt>
      <trkpt lat="45.33409" lon="4.4937">
        <ele>1256.693481</ele>
        <time>2011-03-05 14:19:01Z</time>
      </trkpt>
      <trkpt lat="45.33406" lon="4.49365">
        <ele>1256.839966</ele>
        <time>2011-03-05 14:19:05Z</time>
      </trkpt>
      <trkpt lat="45.33403" lon="4.4936">
        <ele>1256.961792</ele>
        <time>2011-03-05 14:19:09Z</time>
      </trkpt>
      <trkpt lat="45.33397" lon="4.49348">
        <ele>1257.062622</ele>
        <time>2011-03-05 14:19:13Z</time>
      </trkpt>
      <trkpt lat="45.33394" lon="4.49342">
        <ele>1257.13855</ele>
        <time>2011-03-05 14:19:17Z</time>
      </trkpt>
      <trkpt lat="45.33391" lon="4.49337">
        <ele>1257.14856</ele>
        <time>2011-03-05 14:19:21Z</time>
      </trkpt>
      <trkpt lat="45.33387" lon="4.49331">
        <ele>1257.145752</ele>
        <time>2011-03-05 14:19:25Z</time>
      </trkpt>
      <trkpt lat="45.33381" lon="4.49318">
        <ele>1257.147949</ele>
        <time>2011-03-05 14:19:29Z</time>
      </trkpt>
      <trkpt lat="45.33378" lon="4.49313">
        <ele>1257.190918</ele>
        <time>2011-03-05 14:19:33Z</time>
      </trkpt>
      <trkpt lat="45.33375" lon="4.49307">
        <ele>1257.278931</ele>
        <time>2011-03-05 14:19:37Z</time>
      </trkpt>
      <trkpt lat="45.33375" lon="4.49307">
        <ele>1257.380127</ele>
        <time>2011-03-05 14:19:41Z</time>
      </trkpt>
      <trkpt lat="45.33372" lon="4.49302">
        <ele>1257.433716</ele>
        <time>2011-03-05 14:19:45Z</time>
      </trkpt>
      <trkpt lat="45.33367" lon="4.49299">
        <ele>1257.495972</ele>
        <time>2011-03-05 14:19:49Z</time>
      </trkpt>
      <trkpt lat="45.33367" lon="4.49299">
        <ele>1257.57019</ele>
        <time>2011-03-05 14:19:53Z</time>
      </trkpt>
      <trkpt lat="45.33363" lon="4.49296">
        <ele>1257.580933</ele>
        <time>2011-03-05 14:19:57Z</time>
      </trkpt>
      <trkpt lat="45.33358" lon="4.49293">
        <ele>1257.518677</ele>
        <time>2011-03-05 14:20:01Z</time>
      </trkpt>
      <trkpt lat="45.33354" lon="4.49288">
        <ele>1257.503052</ele>
        <time>2011-03-05 14:20:05Z</time>
      </trkpt>
      <trkpt lat="45.33354" lon="4.49288">
        <ele>1257.491699</ele>
        <time>2011-03-05 14:20:09Z</time>
      </trkpt>
      <trkpt lat="45.33351" lon="4.49283">
        <ele>1257.487549</ele>
        <time>2011-03-05 14:20:13Z</time>
      </trkpt>
      <trkpt lat="45.33348" lon="4.49277">
        <ele>1257.497192</ele>
        <time>2011-03-05 14:20:17Z</time>
      </trkpt>
      <trkpt lat="45.33348" lon="4.49277">
        <ele>1257.503784</ele>
        <time>2011-03-05 14:20:21Z</time>
      </trkpt>
      <trkpt lat="45.33345" lon="4.4927">
        <ele>1257.519409</ele>
        <time>2011-03-05 14:20:25Z</time>
      </trkpt>
      <trkpt lat="45.33342" lon="4.49264">
        <ele>1257.529053</ele>
        <time>2011-03-05 14:20:29Z</time>
      </trkpt>
      <trkpt lat="45.33337" lon="4.49251">
        <ele>1257.515869</ele>
        <time>2011-03-05 14:20:33Z</time>
      </trkpt>
      <trkpt lat="45.33331" lon="4.49232">
        <ele>1257.490845</ele>
        <time>2011-03-05 14:20:37Z</time>
      </trkpt>
      <trkpt lat="45.33326" lon="4.49218">
        <ele>1257.472656</ele>
        <time>2011-03-05 14:20:41Z</time>
      </trkpt>
      <trkpt lat="45.33324" lon="4.49211">
        <ele>1257.468872</ele>
        <time>2011-03-05 14:20:45Z</time>
      </trkpt>
      <trkpt lat="45.33322" lon="4.49205">
        <ele>1257.455811</ele>
        <time>2011-03-05 14:20:49Z</time>
      </trkpt>
      <trkpt lat="45.3332" lon="4.49198">
        <ele>1257.435425</ele>
        <time>2011-03-05 14:20:53Z</time>
      </trkpt>
      <trkpt lat="45.3332" lon="4.49191">
        <ele>1257.441406</ele>
        <time>2011-03-05 14:20:57Z</time>
      </trkpt>
      <trkpt lat="45.33318" lon="4.49184">
        <ele>1257.440063</ele>
        <time>2011-03-05 14:21:01Z</time>
      </trkpt>
      <trkpt lat="45.33317" lon="4.49176">
        <ele>1257.405273</ele>
        <time>2011-03-05 14:21:05Z</time>
      </trkpt>
      <trkpt lat="45.33317" lon="4.4917">
        <ele>1257.449341</ele>
        <time>2011-03-05 14:21:09Z</time>
      </trkpt>
      <trkpt lat="45.33317" lon="4.49163">
        <ele>1257.470215</ele>
        <time>2011-03-05 14:21:13Z</time>
      </trkpt>
      <trkpt lat="45.33316" lon="4.49156">
        <ele>1257.559814</ele>
        <time>2011-03-05 14:21:17Z</time>
      </trkpt>
      <trkpt lat="45.33314" lon="4.49142">
        <ele>1257.652466</ele>
        <time>2011-03-05 14:21:21Z</time>
      </trkpt>
      <trkpt lat="45.33312" lon="4.49127">
        <ele>1257.707153</ele>
        <time>2011-03-05 14:21:25Z</time>
      </trkpt>
      <trkpt lat="45.33311" lon="4.49119">
        <ele>1257.687012</ele>
        <time>2011-03-05 14:21:29Z</time>
      </trkpt>
      <trkpt lat="45.33311" lon="4.49119">
        <ele>1257.620117</ele>
        <time>2011-03-05 14:21:33Z</time>
      </trkpt>
      <trkpt lat="45.33309" lon="4.49111">
        <ele>1257.548218</ele>
        <time>2011-03-05 14:21:37Z</time>
      </trkpt>
      <trkpt lat="45.33308" lon="4.49105">
        <ele>1257.488892</ele>
        <time>2011-03-05 14:21:41Z</time>
      </trkpt>
      <trkpt lat="45.33307" lon="4.49098">
        <ele>1257.468872</ele>
        <time>2011-03-05 14:21:45Z</time>
      </trkpt>
      <trkpt lat="45.33307" lon="4.49098">
        <ele>1257.467773</ele>
        <time>2011-03-05 14:21:49Z</time>
      </trkpt>
      <trkpt lat="45.33307" lon="4.49098">
        <ele>1257.456543</ele>
        <time>2011-03-05 14:21:53Z</time>
      </trkpt>
      <trkpt lat="45.33303" lon="4.49083">
        <ele>1257.389771</ele>
        <time>2011-03-05 14:21:57Z</time>
      </trkpt>
      <trkpt lat="45.33301" lon="4.49075">
        <ele>1257.286377</ele>
        <time>2011-03-05 14:22:01Z</time>
      </trkpt>
      <trkpt lat="45.33299" lon="4.49068">
        <ele>1257.199585</ele>
        <time>2011-03-05 14:22:05Z</time>
      </trkpt>
      <trkpt lat="45.33294" lon="4.49062">
        <ele>1257.028564</ele>
        <time>2011-03-05 14:22:09Z</time>
      </trkpt>
      <trkpt lat="45.3329" lon="4.49058">
        <ele>1256.738159</ele>
        <time>2011-03-05 14:22:13Z</time>
      </trkpt>
      <trkpt lat="45.33286" lon="4.49053">
        <ele>1256.507568</ele>
        <time>2011-03-05 14:22:17Z</time>
      </trkpt>
      <trkpt lat="45.33283" lon="4.49048">
        <ele>1256.296387</ele>
        <time>2011-03-05 14:22:21Z</time>
      </trkpt>
      <trkpt lat="45.33283" lon="4.49048">
        <ele>1256.143311</ele>
        <time>2011-03-05 14:22:25Z</time>
      </trkpt>
      <trkpt lat="45.3328" lon="4.49042">
        <ele>1256.103638</ele>
        <time>2011-03-05 14:22:29Z</time>
      </trkpt>
      <trkpt lat="45.33276" lon="4.49038">
        <ele>1256.100464</ele>
        <time>2011-03-05 14:22:33Z</time>
      </trkpt>
      <trkpt lat="45.33276" lon="4.49038">
        <ele>1256.060303</ele>
        <time>2011-03-05 14:22:37Z</time>
      </trkpt>
      <trkpt lat="45.33272" lon="4.49036">
        <ele>1256.057495</ele>
        <time>2011-03-05 14:22:41Z</time>
      </trkpt>
      <trkpt lat="45.33263" lon="4.4903">
        <ele>1256.027954</ele>
        <time>2011-03-05 14:22:45Z</time>
      </trkpt>
      <trkpt lat="45.33258" lon="4.49026">
        <ele>1256.038452</ele>
        <time>2011-03-05 14:22:49Z</time>
      </trkpt>
      <trkpt lat="45.33254" lon="4.49021">
        <ele>1256.035645</ele>
        <time>2011-03-05 14:22:53Z</time>
      </trkpt>
      <trkpt lat="45.33244" lon="4.4901">
        <ele>1256.067261</ele>
        <time>2011-03-05 14:22:57Z</time>
      </trkpt>
      <trkpt lat="45.33236" lon="4.49003">
        <ele>1256.185181</ele>
        <time>2011-03-05 14:23:01Z</time>
      </trkpt>
      <trkpt lat="45.33229" lon="4.48999">
        <ele>1256.247559</ele>
        <time>2011-03-05 14:23:05Z</time>
      </trkpt>
      <trkpt lat="45.33224" lon="4.48996">
        <ele>1256.280884</ele>
        <time>2011-03-05 14:23:09Z</time>
      </trkpt>
      <trkpt lat="45.3322" lon="4.48995">
        <ele>1256.328247</ele>
        <time>2011-03-05 14:23:13Z</time>
      </trkpt>
      <trkpt lat="45.33216" lon="4.48994">
        <ele>1256.389893</ele>
        <time>2011-03-05 14:23:17Z</time>
      </trkpt>
      <trkpt lat="45.33213" lon="4.48992">
        <ele>1256.401733</ele>
        <time>2011-03-05 14:23:21Z</time>
      </trkpt>
      <trkpt lat="45.33213" lon="4.48992">
        <ele>1256.400513</ele>
        <time>2011-03-05 14:23:25Z</time>
      </trkpt>
      <trkpt lat="45.33209" lon="4.48988">
        <ele>1256.390381</ele>
        <time>2011-03-05 14:23:29Z</time>
      </trkpt>
      <trkpt lat="45.33205" lon="4.48984">
        <ele>1256.267212</ele>
        <time>2011-03-05 14:23:33Z</time>
      </trkpt>
      <trkpt lat="45.33205" lon="4.48984">
        <ele>1256.144775</ele>
        <time>2011-03-05 14:23:37Z</time>
      </trkpt>
      <trkpt lat="45.33196" lon="4.48978">
        <ele>1256.004517</ele>
        <time>2011-03-05 14:23:41Z</time>
      </trkpt>
      <trkpt lat="45.33191" lon="4.48973">
        <ele>1255.830078</ele>
        <time>2011-03-05 14:23:45Z</time>
      </trkpt>
      <trkpt lat="45.33186" lon="4.48969">
        <ele>1255.670044</ele>
        <time>2011-03-05 14:23:49Z</time>
      </trkpt>
      <trkpt lat="45.33182" lon="4.48964">
        <ele>1255.536743</ele>
        <time>2011-03-05 14:23:53Z</time>
      </trkpt>
      <trkpt lat="45.33177" lon="4.48961">
        <ele>1255.484619</ele>
        <time>2011-03-05 14:23:57Z</time>
      </trkpt>
      <trkpt lat="45.33172" lon="4.48958">
        <ele>1255.42749</ele>
        <time>2011-03-05 14:24:01Z</time>
      </trkpt>
      <trkpt lat="45.33166" lon="4.48958">
        <ele>1255.340942</ele>
        <time>2011-03-05 14:24:05Z</time>
      </trkpt>
      <trkpt lat="45.3316" lon="4.48958">
        <ele>1255.254272</ele>
        <time>2011-03-05 14:24:09Z</time>
      </trkpt>
      <trkpt lat="45.33155" lon="4.48959">
        <ele>1255.129028</ele>
        <time>2011-03-05 14:24:13Z</time>
      </trkpt>
      <trkpt lat="45.33147" lon="4.48959">
        <ele>1254.994995</ele>
        <time>2011-03-05 14:24:17Z</time>
      </trkpt>
      <trkpt lat="45.33141" lon="4.48957">
        <ele>1254.829102</ele>
        <time>2011-03-05 14:24:21Z</time>
      </trkpt>
      <trkpt lat="45.33135" lon="4.48957">
        <ele>1254.619751</ele>
        <time>2011-03-05 14:24:25Z</time>
      </trkpt>
      <trkpt lat="45.3313" lon="4.48959">
        <ele>1254.441406</ele>
        <time>2011-03-05 14:24:29Z</time>
      </trkpt>
      <trkpt lat="45.33125" lon="4.48962">
        <ele>1254.293945</ele>
        <time>2011-03-05 14:24:33Z</time>
      </trkpt>
      <trkpt lat="45.33122" lon="4.48968">
        <ele>1254.089355</ele>
        <time>2011-03-05 14:24:37Z</time>
      </trkpt>
      <trkpt lat="45.33117" lon="4.48975">
        <ele>1253.975708</ele>
        <time>2011-03-05 14:24:41Z</time>
      </trkpt>
      <trkpt lat="45.33111" lon="4.48984">
        <ele>1253.85022</ele>
        <time>2011-03-05 14:24:45Z</time>
      </trkpt>
      <trkpt lat="45.33106" lon="4.48991">
        <ele>1253.691162</ele>
        <time>2011-03-05 14:24:49Z</time>
      </trkpt>
      <trkpt lat="45.331" lon="4.48998">
        <ele>1253.552856</ele>
        <time>2011-03-05 14:24:53Z</time>
      </trkpt>
      <trkpt lat="45.33094" lon="4.49003">
        <ele>1253.413208</ele>
        <time>2011-03-05 14:24:57Z</time>
      </trkpt>
      <trkpt lat="45.33088" lon="4.49005">
        <ele>1253.198486</ele>
        <time>2011-03-05 14:25:01Z</time>
      </trkpt>
      <trkpt lat="45.33082" lon="4.49005">
        <ele>1252.946533</ele>
        <time>2011-03-05 14:25:05Z</time>
      </trkpt>
      <trkpt lat="45.33076" lon="4.49005">
        <ele>1252.706299</ele>
        <time>2011-03-05 14:25:09Z</time>
      </trkpt>
      <trkpt lat="45.33072" lon="4.49006">
        <ele>1252.509888</ele>
        <time>2011-03-05 14:25:13Z</time>
      </trkpt>
      <trkpt lat="45.33068" lon="4.49009">
        <ele>1252.373169</ele>
        <time>2011-03-05 14:25:17Z</time>
      </trkpt>
      <trkpt lat="45.33063" lon="4.4901">
        <ele>1252.249268</ele>
        <time>2011-03-05 14:25:21Z</time>
      </trkpt>
      <trkpt lat="45.33058" lon="4.49011">
        <ele>1252.108276</ele>
        <time>2011-03-05 14:25:25Z</time>
      </trkpt>
      <trkpt lat="45.3305" lon="4.49011">
        <ele>1251.89563</ele>
        <time>2011-03-05 14:25:29Z</time>
      </trkpt>
      <trkpt lat="45.33043" lon="4.49009">
        <ele>1251.647339</ele>
        <time>2011-03-05 14:25:33Z</time>
      </trkpt>
      <trkpt lat="45.33037" lon="4.49009">
        <ele>1251.328735</ele>
        <time>2011-03-05 14:25:37Z</time>
      </trkpt>
      <trkpt lat="45.33033" lon="4.4901">
        <ele>1251.03186</ele>
        <time>2011-03-05 14:25:41Z</time>
      </trkpt>
      <trkpt lat="45.33029" lon="4.49011">
        <ele>1250.740112</ele>
        <time>2011-03-05 14:25:45Z</time>
      </trkpt>
      <trkpt lat="45.33025" lon="4.4901">
        <ele>1250.437012</ele>
        <time>2011-03-05 14:25:49Z</time>
      </trkpt>
      <trkpt lat="45.33021" lon="4.49009">
        <ele>1250.162964</ele>
        <time>2011-03-05 14:25:53Z</time>
      </trkpt>
      <trkpt lat="45.33016" lon="4.49007">
        <ele>1249.845703</ele>
        <time>2011-03-05 14:25:57Z</time>
      </trkpt>
      <trkpt lat="45.33012" lon="4.49004">
        <ele>1249.557739</ele>
        <time>2011-03-05 14:26:01Z</time>
      </trkpt>
      <trkpt lat="45.33006" lon="4.49001">
        <ele>1249.288696</ele>
        <time>2011-03-05 14:26:05Z</time>
      </trkpt>
      <trkpt lat="45.33001" lon="4.49">
        <ele>1249.017578</ele>
        <time>2011-03-05 14:26:09Z</time>
      </trkpt>
      <trkpt lat="45.32996" lon="4.49001">
        <ele>1248.762817</ele>
        <time>2011-03-05 14:26:13Z</time>
      </trkpt>
      <trkpt lat="45.3299" lon="4.49001">
        <ele>1248.487915</ele>
        <time>2011-03-05 14:26:17Z</time>
      </trkpt>
      <trkpt lat="45.32985" lon="4.49">
        <ele>1248.256714</ele>
        <time>2011-03-05 14:26:21Z</time>
      </trkpt>
      <trkpt lat="45.3298" lon="4.48998">
        <ele>1248.002197</ele>
        <time>2011-03-05 14:26:25Z</time>
      </trkpt>
      <trkpt lat="45.32974" lon="4.48995">
        <ele>1247.722046</ele>
        <time>2011-03-05 14:26:29Z</time>
      </trkpt>
      <trkpt lat="45.32968" lon="4.48991">
        <ele>1247.449707</ele>
        <time>2011-03-05 14:26:33Z</time>
      </trkpt>
      <trkpt lat="45.32961" lon="4.48986">
        <ele>1247.169678</ele>
        <time>2011-03-05 14:26:37Z</time>
      </trkpt>
      <trkpt lat="45.32956" lon="4.48982">
        <ele>1246.900146</ele>
        <time>2011-03-05 14:26:41Z</time>
      </trkpt>
      <trkpt lat="45.32951" lon="4.48981">
        <ele>1246.641113</ele>
        <time>2011-03-05 14:26:45Z</time>
      </trkpt>
      <trkpt lat="45.32948" lon="4.4898">
        <ele>1246.39978</ele>
        <time>2011-03-05 14:26:49Z</time>
      </trkpt>
      <trkpt lat="45.32942" lon="4.4898">
        <ele>1246.130859</ele>
        <time>2011-03-05 14:26:53Z</time>
      </trkpt>
      <trkpt lat="45.32936" lon="4.48979">
        <ele>1245.81958</ele>
        <time>2011-03-05 14:26:57Z</time>
      </trkpt>
      <trkpt lat="45.32929" lon="4.48976">
        <ele>1245.373291</ele>
        <time>2011-03-05 14:27:01Z</time>
      </trkpt>
      <trkpt lat="45.32922" lon="4.48974">
        <ele>1244.895142</ele>
        <time>2011-03-05 14:27:05Z</time>
      </trkpt>
      <trkpt lat="45.32916" lon="4.48973">
        <ele>1244.438843</ele>
        <time>2011-03-05 14:27:09Z</time>
      </trkpt>
      <trkpt lat="45.3291" lon="4.48973">
        <ele>1244.04126</ele>
        <time>2011-03-05 14:27:13Z</time>
      </trkpt>
      <trkpt lat="45.32904" lon="4.48972">
        <ele>1243.671631</ele>
        <time>2011-03-05 14:27:17Z</time>
      </trkpt>
      <trkpt lat="45.329" lon="4.48971">
        <ele>1243.360962</ele>
        <time>2011-03-05 14:27:21Z</time>
      </trkpt>
      <trkpt lat="45.32896" lon="4.48971">
        <ele>1243.107788</ele>
        <time>2011-03-05 14:27:25Z</time>
      </trkpt>
      <trkpt lat="45.32893" lon="4.48975">
        <ele>1242.922363</ele>
        <time>2011-03-05 14:27:29Z</time>
      </trkpt>
      <trkpt lat="45.32893" lon="4.48986">
        <ele>1242.834229</ele>
        <time>2011-03-05 14:27:33Z</time>
      </trkpt>
      <trkpt lat="45.32893" lon="4.48992">
        <ele>1242.748291</ele>
        <time>2011-03-05 14:27:37Z</time>
      </trkpt>
      <trkpt lat="45.32899" lon="4.48992">
        <ele>1242.549927</ele>
        <time>2011-03-05 14:27:41Z</time>
      </trkpt>
      <trkpt lat="45.32904" lon="4.48996">
        <ele>1242.297241</ele>
        <time>2011-03-05 14:27:45Z</time>
      </trkpt>
      <trkpt lat="45.3291" lon="4.49">
        <ele>1241.965942</ele>
        <time>2011-03-05 14:27:49Z</time>
      </trkpt>
      <trkpt lat="45.32914" lon="4.49003">
        <ele>1241.576294</ele>
        <time>2011-03-05 14:27:53Z</time>
      </trkpt>
      <trkpt lat="45.32917" lon="4.49007">
        <ele>1241.224365</ele>
        <time>2011-03-05 14:27:57Z</time>
      </trkpt>
      <trkpt lat="45.3292" lon="4.4901">
        <ele>1240.870972</ele>
        <time>2011-03-05 14:28:01Z</time>
      </trkpt>
      <trkpt lat="45.32922" lon="4.49015">
        <ele>1240.471069</ele>
        <time>2011-03-05 14:28:05Z</time>
      </trkpt>
      <trkpt lat="45.32924" lon="4.49022">
        <ele>1239.973755</ele>
        <time>2011-03-05 14:28:09Z</time>
      </trkpt>
      <trkpt lat="45.32924" lon="4.49028">
        <ele>1239.417847</ele>
        <time>2011-03-05 14:28:13Z</time>
      </trkpt>
      <trkpt lat="45.32925" lon="4.49037">
        <ele>1238.783813</ele>
        <time>2011-03-05 14:28:17Z</time>
      </trkpt>
      <trkpt lat="45.32927" lon="4.49044">
        <ele>1238.106079</ele>
        <time>2011-03-05 14:28:21Z</time>
      </trkpt>
      <trkpt lat="45.32927" lon="4.4905">
        <ele>1237.502563</ele>
        <time>2011-03-05 14:28:25Z</time>
      </trkpt>
      <trkpt lat="45.32927" lon="4.49056">
        <ele>1236.921509</ele>
        <time>2011-03-05 14:28:29Z</time>
      </trkpt>
      <trkpt lat="45.32926" lon="4.49062">
        <ele>1236.23645</ele>
        <time>2011-03-05 14:28:33Z</time>
      </trkpt>
      <trkpt lat="45.32925" lon="4.49068">
        <ele>1235.745361</ele>
        <time>2011-03-05 14:28:37Z</time>
      </trkpt>
      <trkpt lat="45.32925" lon="4.49075">
        <ele>1235.334839</ele>
        <time>2011-03-05 14:28:41Z</time>
      </trkpt>
      <trkpt lat="45.32925" lon="4.49075">
        <ele>1235.250366</ele>
        <time>2011-03-05 14:28:45Z</time>
      </trkpt>
      <trkpt lat="45.32924" lon="4.49089">
        <ele>1234.992554</ele>
        <time>2011-03-05 14:28:49Z</time>
      </trkpt>
      <trkpt lat="45.32923" lon="4.49096">
        <ele>1234.765381</ele>
        <time>2011-03-05 14:28:53Z</time>
      </trkpt>
      <trkpt lat="45.32923" lon="4.49102">
        <ele>1234.600952</ele>
        <time>2011-03-05 14:28:57Z</time>
      </trkpt>
      <trkpt lat="45.32923" lon="4.4911">
        <ele>1234.586792</ele>
        <time>2011-03-05 14:29:01Z</time>
      </trkpt>
      <trkpt lat="45.32923" lon="4.49116">
        <ele>1234.483276</ele>
        <time>2011-03-05 14:29:05Z</time>
      </trkpt>
      <trkpt lat="45.32921" lon="4.4913">
        <ele>1234.295044</ele>
        <time>2011-03-05 14:29:09Z</time>
      </trkpt>
      <trkpt lat="45.32921" lon="4.49137">
        <ele>1234.200195</ele>
        <time>2011-03-05 14:29:13Z</time>
      </trkpt>
      <trkpt lat="45.32921" lon="4.49144">
        <ele>1234.239624</ele>
        <time>2011-03-05 14:29:17Z</time>
      </trkpt>
      <trkpt lat="45.32921" lon="4.49151">
        <ele>1234.159668</ele>
        <time>2011-03-05 14:29:21Z</time>
      </trkpt>
      <trkpt lat="45.32923" lon="4.49159">
        <ele>1233.982544</ele>
        <time>2011-03-05 14:29:25Z</time>
      </trkpt>
      <trkpt lat="45.32925" lon="4.49166">
        <ele>1233.887207</ele>
        <time>2011-03-05 14:29:29Z</time>
      </trkpt>
      <trkpt lat="45.32925" lon="4.49166">
        <ele>1233.554688</ele>
        <time>2011-03-05 14:29:33Z</time>
      </trkpt>
      <trkpt lat="45.32928" lon="4.49172">
        <ele>1233.505859</ele>
        <time>2011-03-05 14:29:37Z</time>
      </trkpt>
      <trkpt lat="45.32928" lon="4.49172">
        <ele>1233.449951</ele>
        <time>2011-03-05 14:29:41Z</time>
      </trkpt>
      <trkpt lat="45.32929" lon="4.49179">
        <ele>1233.247314</ele>
        <time>2011-03-05 14:29:45Z</time>
      </trkpt>
      <trkpt lat="45.32928" lon="4.49188">
        <ele>1232.984863</ele>
        <time>2011-03-05 14:29:49Z</time>
      </trkpt>
      <trkpt lat="45.32927" lon="4.49201">
        <ele>1232.84729</ele>
        <time>2011-03-05 14:29:53Z</time>
      </trkpt>
      <trkpt lat="45.32928" lon="4.49208">
        <ele>1232.729614</ele>
        <time>2011-03-05 14:29:57Z</time>
      </trkpt>
      <trkpt lat="45.32929" lon="4.49215">
        <ele>1232.611206</ele>
        <time>2011-03-05 14:30:01Z</time>
      </trkpt>
      <trkpt lat="45.32931" lon="4.49221">
        <ele>1232.482666</ele>
        <time>2011-03-05 14:30:05Z</time>
      </trkpt>
      <trkpt lat="45.32933" lon="4.49228">
        <ele>1232.289062</ele>
        <time>2011-03-05 14:30:09Z</time>
      </trkpt>
      <trkpt lat="45.32934" lon="4.49235">
        <ele>1232.15686</ele>
        <time>2011-03-05 14:30:13Z</time>
      </trkpt>
      <trkpt lat="45.32935" lon="4.4925">
        <ele>1231.921021</ele>
        <time>2011-03-05 14:30:17Z</time>
      </trkpt>
      <trkpt lat="45.32933" lon="4.49264">
        <ele>1231.752808</ele>
        <time>2011-03-05 14:30:21Z</time>
      </trkpt>
      <trkpt lat="45.32933" lon="4.49273">
        <ele>1231.458862</ele>
        <time>2011-03-05 14:30:25Z</time>
      </trkpt>
      <trkpt lat="45.32935" lon="4.49279">
        <ele>1231.129517</ele>
        <time>2011-03-05 14:30:29Z</time>
      </trkpt>
      <trkpt lat="45.32936" lon="4.49285">
        <ele>1230.762695</ele>
        <time>2011-03-05 14:30:33Z</time>
      </trkpt>
      <trkpt lat="45.32937" lon="4.49292">
        <ele>1230.307007</ele>
        <time>2011-03-05 14:30:37Z</time>
      </trkpt>
      <trkpt lat="45.3294" lon="4.49298">
        <ele>1229.724854</ele>
        <time>2011-03-05 14:30:41Z</time>
      </trkpt>
      <trkpt lat="45.32943" lon="4.49304">
        <ele>1229.20813</ele>
        <time>2011-03-05 14:30:45Z</time>
      </trkpt>
      <trkpt lat="45.32943" lon="4.49304">
        <ele>1228.762939</ele>
        <time>2011-03-05 14:30:49Z</time>
      </trkpt>
      <trkpt lat="45.32947" lon="4.49318">
        <ele>1228.120972</ele>
        <time>2011-03-05 14:30:53Z</time>
      </trkpt>
      <trkpt lat="45.32948" lon="4.49326">
        <ele>1227.582397</ele>
        <time>2011-03-05 14:30:57Z</time>
      </trkpt>
      <trkpt lat="45.32948" lon="4.49333">
        <ele>1227.186768</ele>
        <time>2011-03-05 14:31:01Z</time>
      </trkpt>
      <trkpt lat="45.32949" lon="4.49339">
        <ele>1227.058472</ele>
        <time>2011-03-05 14:31:05Z</time>
      </trkpt>
      <trkpt lat="45.32949" lon="4.49339">
        <ele>1227.096436</ele>
        <time>2011-03-05 14:31:09Z</time>
      </trkpt>
      <trkpt lat="45.3295" lon="4.49346">
        <ele>1227.296143</ele>
        <time>2011-03-05 14:31:13Z</time>
      </trkpt>
      <trkpt lat="45.32952" lon="4.49354">
        <ele>1227.436646</ele>
        <time>2011-03-05 14:31:17Z</time>
      </trkpt>
      <trkpt lat="45.32953" lon="4.4936">
        <ele>1227.491089</ele>
        <time>2011-03-05 14:31:21Z</time>
      </trkpt>
      <trkpt lat="45.32953" lon="4.4936">
        <ele>1227.709106</ele>
        <time>2011-03-05 14:31:25Z</time>
      </trkpt>
      <trkpt lat="45.32953" lon="4.49368">
        <ele>1227.813721</ele>
        <time>2011-03-05 14:31:29Z</time>
      </trkpt>
      <trkpt lat="45.32951" lon="4.49376">
        <ele>1227.946655</ele>
        <time>2011-03-05 14:31:33Z</time>
      </trkpt>
      <trkpt lat="45.32949" lon="4.49384">
        <ele>1228.456787</ele>
        <time>2011-03-05 14:31:37Z</time>
      </trkpt>
      <trkpt lat="45.32945" lon="4.49391">
        <ele>1228.912109</ele>
        <time>2011-03-05 14:31:41Z</time>
      </trkpt>
      <trkpt lat="45.32942" lon="4.49397">
        <ele>1229.244141</ele>
        <time>2011-03-05 14:31:45Z</time>
      </trkpt>
      <trkpt lat="45.32939" lon="4.49404">
        <ele>1229.480103</ele>
        <time>2011-03-05 14:31:49Z</time>
      </trkpt>
      <trkpt lat="45.32937" lon="4.49411">
        <ele>1229.588379</ele>
        <time>2011-03-05 14:31:53Z</time>
      </trkpt>
      <trkpt lat="45.32935" lon="4.49419">
        <ele>1229.730225</ele>
        <time>2011-03-05 14:31:57Z</time>
      </trkpt>
      <trkpt lat="45.32934" lon="4.49427">
        <ele>1230.003052</ele>
        <time>2011-03-05 14:32:01Z</time>
      </trkpt>
      <trkpt lat="45.32932" lon="4.49434">
        <ele>1230.248047</ele>
        <time>2011-03-05 14:32:05Z</time>
      </trkpt>
      <trkpt lat="45.32931" lon="4.4944">
        <ele>1230.377319</ele>
        <time>2011-03-05 14:32:09Z</time>
      </trkpt>
      <trkpt lat="45.32929" lon="4.49446">
        <ele>1230.441284</ele>
        <time>2011-03-05 14:32:13Z</time>
      </trkpt>
      <trkpt lat="45.32929" lon="4.49446">
        <ele>1230.447388</ele>
        <time>2011-03-05 14:32:17Z</time>
      </trkpt>
      <trkpt lat="45.32926" lon="4.49452">
        <ele>1230.496216</ele>
        <time>2011-03-05 14:32:21Z</time>
      </trkpt>
      <trkpt lat="45.32926" lon="4.49452">
        <ele>1230.647217</ele>
        <time>2011-03-05 14:32:25Z</time>
      </trkpt>
      <trkpt lat="45.32919" lon="4.49465">
        <ele>1230.648071</ele>
        <time>2011-03-05 14:32:29Z</time>
      </trkpt>
      <trkpt lat="45.32916" lon="4.49471">
        <ele>1230.551636</ele>
        <time>2011-03-05 14:32:33Z</time>
      </trkpt>
      <trkpt lat="45.32913" lon="4.49478">
        <ele>1230.345581</ele>
        <time>2011-03-05 14:32:37Z</time>
      </trkpt>
      <trkpt lat="45.3291" lon="4.49485">
        <ele>1230.137329</ele>
        <time>2011-03-05 14:32:41Z</time>
      </trkpt>
      <trkpt lat="45.32906" lon="4.49491">
        <ele>1230.050537</ele>
        <time>2011-03-05 14:32:45Z</time>
      </trkpt>
      <trkpt lat="45.32902" lon="4.49496">
        <ele>1230.011475</ele>
        <time>2011-03-05 14:32:49Z</time>
      </trkpt>
      <trkpt lat="45.32899" lon="4.49501">
        <ele>1229.911377</ele>
        <time>2011-03-05 14:32:53Z</time>
      </trkpt>
      <trkpt lat="45.32899" lon="4.49501">
        <ele>1229.880127</ele>
        <time>2011-03-05 14:32:57Z</time>
      </trkpt>
      <trkpt lat="45.32895" lon="4.49505">
        <ele>1229.90271</ele>
        <time>2011-03-05 14:33:01Z</time>
      </trkpt>
      <trkpt lat="45.32891" lon="4.4951">
        <ele>1229.890991</ele>
        <time>2011-03-05 14:33:05Z</time>
      </trkpt>
      <trkpt lat="45.32886" lon="4.49521">
        <ele>1229.834229</ele>
        <time>2011-03-05 14:33:09Z</time>
      </trkpt>
      <trkpt lat="45.32883" lon="4.49527">
        <ele>1229.782715</ele>
        <time>2011-03-05 14:33:13Z</time>
      </trkpt>
      <trkpt lat="45.3288" lon="4.49533">
        <ele>1229.718506</ele>
        <time>2011-03-05 14:33:17Z</time>
      </trkpt>
      <trkpt lat="45.32877" lon="4.49539">
        <ele>1229.664795</ele>
        <time>2011-03-05 14:33:21Z</time>
      </trkpt>
      <trkpt lat="45.32874" lon="4.49548">
        <ele>1229.626587</ele>
        <time>2011-03-05 14:33:25Z</time>
      </trkpt>
      <trkpt lat="45.32871" lon="4.49556">
        <ele>1229.594849</ele>
        <time>2011-03-05 14:33:29Z</time>
      </trkpt>
      <trkpt lat="45.32867" lon="4.49565">
        <ele>1229.578003</ele>
        <time>2011-03-05 14:33:33Z</time>
      </trkpt>
      <trkpt lat="45.32864" lon="4.49572">
        <ele>1229.617798</ele>
        <time>2011-03-05 14:33:37Z</time>
      </trkpt>
      <trkpt lat="45.32861" lon="4.49577">
        <ele>1229.624634</ele>
        <time>2011-03-05 14:33:41Z</time>
      </trkpt>
      <trkpt lat="45.32859" lon="4.4958">
        <ele>1229.577881</ele>
        <time>2011-03-05 14:33:45Z</time>
      </trkpt>
      <trkpt lat="45.32855" lon="4.49584">
        <ele>1229.513672</ele>
        <time>2011-03-05 14:33:49Z</time>
      </trkpt>
      <trkpt lat="45.32852" lon="4.4959">
        <ele>1229.443237</ele>
        <time>2011-03-05 14:33:53Z</time>
      </trkpt>
      <trkpt lat="45.3285" lon="4.49598">
        <ele>1229.36853</ele>
        <time>2011-03-05 14:33:57Z</time>
      </trkpt>
      <trkpt lat="45.32847" lon="4.49609">
        <ele>1229.249268</ele>
        <time>2011-03-05 14:34:01Z</time>
      </trkpt>
      <trkpt lat="45.32845" lon="4.49621">
        <ele>1229.095825</ele>
        <time>2011-03-05 14:34:05Z</time>
      </trkpt>
      <trkpt lat="45.32843" lon="4.4963">
        <ele>1228.939697</ele>
        <time>2011-03-05 14:34:09Z</time>
      </trkpt>
      <trkpt lat="45.32841" lon="4.49638">
        <ele>1228.788696</ele>
        <time>2011-03-05 14:34:13Z</time>
      </trkpt>
      <trkpt lat="45.32838" lon="4.49645">
        <ele>1228.665649</ele>
        <time>2011-03-05 14:34:17Z</time>
      </trkpt>
      <trkpt lat="45.32837" lon="4.49652">
        <ele>1228.523682</ele>
        <time>2011-03-05 14:34:21Z</time>
      </trkpt>
      <trkpt lat="45.32836" lon="4.49658">
        <ele>1228.350098</ele>
        <time>2011-03-05 14:34:25Z</time>
      </trkpt>
      <trkpt lat="45.32835" lon="4.49663">
        <ele>1228.155273</ele>
        <time>2011-03-05 14:34:29Z</time>
      </trkpt>
      <trkpt lat="45.32833" lon="4.49667">
        <ele>1227.99646</ele>
        <time>2011-03-05 14:34:33Z</time>
      </trkpt>
      <trkpt lat="45.32831" lon="4.49673">
        <ele>1227.932861</ele>
        <time>2011-03-05 14:34:37Z</time>
      </trkpt>
      <trkpt lat="45.32828" lon="4.49679">
        <ele>1228.01001</ele>
        <time>2011-03-05 14:34:41Z</time>
      </trkpt>
      <trkpt lat="45.32826" lon="4.49685">
        <ele>1228.119629</ele>
        <time>2011-03-05 14:34:45Z</time>
      </trkpt>
      <trkpt lat="45.32824" lon="4.49691">
        <ele>1228.255737</ele>
        <time>2011-03-05 14:34:49Z</time>
      </trkpt>
      <trkpt lat="45.32821" lon="4.49699">
        <ele>1228.552979</ele>
        <time>2011-03-05 14:34:53Z</time>
      </trkpt>
      <trkpt lat="45.32819" lon="4.49709">
        <ele>1228.86499</ele>
        <time>2011-03-05 14:34:57Z</time>
      </trkpt>
      <trkpt lat="45.32818" lon="4.49717">
        <ele>1229.19458</ele>
        <time>2011-03-05 14:35:01Z</time>
      </trkpt>
      <trkpt lat="45.32817" lon="4.49723">
        <ele>1229.522095</ele>
        <time>2011-03-05 14:35:05Z</time>
      </trkpt>
      <trkpt lat="45.32817" lon="4.49725">
        <ele>1229.804443</ele>
        <time>2011-03-05 14:35:09Z</time>
      </trkpt>
      <trkpt lat="45.32816" lon="4.49732">
        <ele>1230.020386</ele>
        <time>2011-03-05 14:35:13Z</time>
      </trkpt>
      <trkpt lat="45.32816" lon="4.4974">
        <ele>1230.114502</ele>
        <time>2011-03-05 14:35:17Z</time>
      </trkpt>
      <trkpt lat="45.32816" lon="4.49748">
        <ele>1230.081055</ele>
        <time>2011-03-05 14:35:21Z</time>
      </trkpt>
      <trkpt lat="45.32818" lon="4.49755">
        <ele>1229.920776</ele>
        <time>2011-03-05 14:35:25Z</time>
      </trkpt>
      <trkpt lat="45.32818" lon="4.49755">
        <ele>1229.728394</ele>
        <time>2011-03-05 14:35:29Z</time>
      </trkpt>
      <trkpt lat="45.32819" lon="4.49762">
        <ele>1229.707153</ele>
        <time>2011-03-05 14:35:33Z</time>
      </trkpt>
      <trkpt lat="45.32819" lon="4.49762">
        <ele>1229.686035</ele>
        <time>2011-03-05 14:35:37Z</time>
      </trkpt>
      <trkpt lat="45.3282" lon="4.49769">
        <ele>1229.661865</ele>
        <time>2011-03-05 14:35:41Z</time>
      </trkpt>
      <trkpt lat="45.3282" lon="4.49769">
        <ele>1229.63147</ele>
        <time>2011-03-05 14:35:45Z</time>
      </trkpt>
      <trkpt lat="45.3282" lon="4.49769">
        <ele>1229.596069</ele>
        <time>2011-03-05 14:35:49Z</time>
      </trkpt>
      <trkpt lat="45.3282" lon="4.49769">
        <ele>1229.55603</ele>
        <time>2011-03-05 14:35:53Z</time>
      </trkpt>
      <trkpt lat="45.32818" lon="4.49775">
        <ele>1229.34436</ele>
        <time>2011-03-05 14:35:57Z</time>
      </trkpt>
      <trkpt lat="45.32818" lon="4.49775">
        <ele>1229.310303</ele>
        <time>2011-03-05 14:36:01Z</time>
      </trkpt>
      <trkpt lat="45.32818" lon="4.49775">
        <ele>1229.142944</ele>
        <time>2011-03-05 14:36:05Z</time>
      </trkpt>
      <trkpt lat="45.32818" lon="4.49782">
        <ele>1228.859863</ele>
        <time>2011-03-05 14:36:09Z</time>
      </trkpt>
      <trkpt lat="45.32819" lon="4.49789">
        <ele>1228.511108</ele>
        <time>2011-03-05 14:36:13Z</time>
      </trkpt>
      <trkpt lat="45.32821" lon="4.49799">
        <ele>1228.118652</ele>
        <time>2011-03-05 14:36:17Z</time>
      </trkpt>
      <trkpt lat="45.32822" lon="4.49808">
        <ele>1227.731445</ele>
        <time>2011-03-05 14:36:21Z</time>
      </trkpt>
      <trkpt lat="45.32825" lon="4.49814">
        <ele>1227.256226</ele>
        <time>2011-03-05 14:36:25Z</time>
      </trkpt>
      <trkpt lat="45.32828" lon="4.4982">
        <ele>1226.775879</ele>
        <time>2011-03-05 14:36:29Z</time>
      </trkpt>
      <trkpt lat="45.3283" lon="4.49825">
        <ele>1226.420166</ele>
        <time>2011-03-05 14:36:33Z</time>
      </trkpt>
      <trkpt lat="45.32832" lon="4.49831">
        <ele>1226.160645</ele>
        <time>2011-03-05 14:36:37Z</time>
      </trkpt>
      <trkpt lat="45.32835" lon="4.49837">
        <ele>1225.945923</ele>
        <time>2011-03-05 14:36:41Z</time>
      </trkpt>
      <trkpt lat="45.32838" lon="4.49844">
        <ele>1225.743042</ele>
        <time>2011-03-05 14:36:45Z</time>
      </trkpt>
      <trkpt lat="45.32841" lon="4.49851">
        <ele>1225.54541</ele>
        <time>2011-03-05 14:36:49Z</time>
      </trkpt>
      <trkpt lat="45.32844" lon="4.49857">
        <ele>1225.380859</ele>
        <time>2011-03-05 14:36:53Z</time>
      </trkpt>
      <trkpt lat="45.32848" lon="4.49864">
        <ele>1225.213623</ele>
        <time>2011-03-05 14:36:57Z</time>
      </trkpt>
      <trkpt lat="45.32852" lon="4.4987">
        <ele>1225.043457</ele>
        <time>2011-03-05 14:37:01Z</time>
      </trkpt>
      <trkpt lat="45.32856" lon="4.49876">
        <ele>1224.917603</ele>
        <time>2011-03-05 14:37:05Z</time>
      </trkpt>
      <trkpt lat="45.32861" lon="4.49883">
        <ele>1224.920532</ele>
        <time>2011-03-05 14:37:09Z</time>
      </trkpt>
      <trkpt lat="45.32864" lon="4.49889">
        <ele>1224.924438</ele>
        <time>2011-03-05 14:37:13Z</time>
      </trkpt>
      <trkpt lat="45.32869" lon="4.49894">
        <ele>1224.94812</ele>
        <time>2011-03-05 14:37:17Z</time>
      </trkpt>
      <trkpt lat="45.32873" lon="4.49902">
        <ele>1225.115112</ele>
        <time>2011-03-05 14:37:21Z</time>
      </trkpt>
      <trkpt lat="45.32877" lon="4.49909">
        <ele>1225.420288</ele>
        <time>2011-03-05 14:37:25Z</time>
      </trkpt>
      <trkpt lat="45.3288" lon="4.49915">
        <ele>1225.729004</ele>
        <time>2011-03-05 14:37:29Z</time>
      </trkpt>
      <trkpt lat="45.32883" lon="4.4992">
        <ele>1226.007935</ele>
        <time>2011-03-05 14:37:33Z</time>
      </trkpt>
      <trkpt lat="45.32887" lon="4.49923">
        <ele>1226.230835</ele>
        <time>2011-03-05 14:37:37Z</time>
      </trkpt>
      <trkpt lat="45.32891" lon="4.49927">
        <ele>1226.380737</ele>
        <time>2011-03-05 14:37:41Z</time>
      </trkpt>
      <trkpt lat="45.32896" lon="4.49931">
        <ele>1226.459717</ele>
        <time>2011-03-05 14:37:45Z</time>
      </trkpt>
      <trkpt lat="45.32901" lon="4.49935">
        <ele>1226.546875</ele>
        <time>2011-03-05 14:37:49Z</time>
      </trkpt>
      <trkpt lat="45.32905" lon="4.4994">
        <ele>1226.608032</ele>
        <time>2011-03-05 14:37:53Z</time>
      </trkpt>
      <trkpt lat="45.3291" lon="4.49945">
        <ele>1226.688965</ele>
        <time>2011-03-05 14:37:57Z</time>
      </trkpt>
      <trkpt lat="45.32914" lon="4.4995">
        <ele>1226.789307</ele>
        <time>2011-03-05 14:38:01Z</time>
      </trkpt>
      <trkpt lat="45.32917" lon="4.49955">
        <ele>1226.898438</ele>
        <time>2011-03-05 14:38:05Z</time>
      </trkpt>
      <trkpt lat="45.3292" lon="4.4996">
        <ele>1226.943604</ele>
        <time>2011-03-05 14:38:09Z</time>
      </trkpt>
      <trkpt lat="45.32923" lon="4.49964">
        <ele>1226.884033</ele>
        <time>2011-03-05 14:38:13Z</time>
      </trkpt>
      <trkpt lat="45.32927" lon="4.49969">
        <ele>1226.830811</ele>
        <time>2011-03-05 14:38:17Z</time>
      </trkpt>
      <trkpt lat="45.32929" lon="4.49976">
        <ele>1226.989014</ele>
        <time>2011-03-05 14:38:21Z</time>
      </trkpt>
      <trkpt lat="45.32933" lon="4.49984">
        <ele>1227.171631</ele>
        <time>2011-03-05 14:38:25Z</time>
      </trkpt>
      <trkpt lat="45.32935" lon="4.4999">
        <ele>1227.382324</ele>
        <time>2011-03-05 14:38:29Z</time>
      </trkpt>
      <trkpt lat="45.32938" lon="4.49996">
        <ele>1227.59436</ele>
        <time>2011-03-05 14:38:33Z</time>
      </trkpt>
      <trkpt lat="45.32941" lon="4.50002">
        <ele>1227.785278</ele>
        <time>2011-03-05 14:38:37Z</time>
      </trkpt>
      <trkpt lat="45.32945" lon="4.50007">
        <ele>1227.92688</ele>
        <time>2011-03-05 14:38:41Z</time>
      </trkpt>
      <trkpt lat="45.32948" lon="4.50012">
        <ele>1228.102417</ele>
        <time>2011-03-05 14:38:45Z</time>
      </trkpt>
      <trkpt lat="45.32953" lon="4.50018">
        <ele>1228.365479</ele>
        <time>2011-03-05 14:38:49Z</time>
      </trkpt>
      <trkpt lat="45.32957" lon="4.50025">
        <ele>1228.576294</ele>
        <time>2011-03-05 14:38:53Z</time>
      </trkpt>
      <trkpt lat="45.32961" lon="4.5003">
        <ele>1228.783447</ele>
        <time>2011-03-05 14:38:57Z</time>
      </trkpt>
      <trkpt lat="45.32965" lon="4.50035">
        <ele>1228.942627</ele>
        <time>2011-03-05 14:39:01Z</time>
      </trkpt>
      <trkpt lat="45.32969" lon="4.50039">
        <ele>1229.06897</ele>
        <time>2011-03-05 14:39:05Z</time>
      </trkpt>
      <trkpt lat="45.32974" lon="4.50043">
        <ele>1229.246948</ele>
        <time>2011-03-05 14:39:09Z</time>
      </trkpt>
      <trkpt lat="45.32978" lon="4.50047">
        <ele>1229.462891</ele>
        <time>2011-03-05 14:39:13Z</time>
      </trkpt>
      <trkpt lat="45.32981" lon="4.50053">
        <ele>1229.696167</ele>
        <time>2011-03-05 14:39:17Z</time>
      </trkpt>
      <trkpt lat="45.32984" lon="4.50058">
        <ele>1229.957275</ele>
        <time>2011-03-05 14:39:21Z</time>
      </trkpt>
      <trkpt lat="45.32987" lon="4.50064">
        <ele>1230.305054</ele>
        <time>2011-03-05 14:39:25Z</time>
      </trkpt>
      <trkpt lat="45.3299" lon="4.50069">
        <ele>1230.558716</ele>
        <time>2011-03-05 14:39:29Z</time>
      </trkpt>
      <trkpt lat="45.32993" lon="4.50075">
        <ele>1230.700684</ele>
        <time>2011-03-05 14:39:33Z</time>
      </trkpt>
      <trkpt lat="45.32996" lon="4.5008">
        <ele>1230.724609</ele>
        <time>2011-03-05 14:39:37Z</time>
      </trkpt>
      <trkpt lat="45.32999" lon="4.50087">
        <ele>1230.907349</ele>
        <time>2011-03-05 14:39:41Z</time>
      </trkpt>
      <trkpt lat="45.33002" lon="4.50093">
        <ele>1231.023193</ele>
        <time>2011-03-05 14:39:45Z</time>
      </trkpt>
      <trkpt lat="45.33005" lon="4.501">
        <ele>1231.121216</ele>
        <time>2011-03-05 14:39:49Z</time>
      </trkpt>
      <trkpt lat="45.33007" lon="4.50105">
        <ele>1231.176147</ele>
        <time>2011-03-05 14:39:53Z</time>
      </trkpt>
      <trkpt lat="45.33011" lon="4.5011">
        <ele>1231.202393</ele>
        <time>2011-03-05 14:39:57Z</time>
      </trkpt>
      <trkpt lat="45.33014" lon="4.50117">
        <ele>1231.321655</ele>
        <time>2011-03-05 14:40:01Z</time>
      </trkpt>
      <trkpt lat="45.33017" lon="4.50124">
        <ele>1231.486206</ele>
        <time>2011-03-05 14:40:05Z</time>
      </trkpt>
      <trkpt lat="45.3302" lon="4.5013">
        <ele>1231.662598</ele>
        <time>2011-03-05 14:40:09Z</time>
      </trkpt>
      <trkpt lat="45.33024" lon="4.50135">
        <ele>1231.822632</ele>
        <time>2011-03-05 14:40:13Z</time>
      </trkpt>
      <trkpt lat="45.33027" lon="4.50139">
        <ele>1231.972168</ele>
        <time>2011-03-05 14:40:17Z</time>
      </trkpt>
      <trkpt lat="45.3303" lon="4.50145">
        <ele>1232.14563</ele>
        <time>2011-03-05 14:40:21Z</time>
      </trkpt>
      <trkpt lat="45.33033" lon="4.50151">
        <ele>1232.338135</ele>
        <time>2011-03-05 14:40:25Z</time>
      </trkpt>
      <trkpt lat="45.33036" lon="4.50159">
        <ele>1232.498901</ele>
        <time>2011-03-05 14:40:29Z</time>
      </trkpt>
      <trkpt lat="45.33039" lon="4.50169">
        <ele>1232.714233</ele>
        <time>2011-03-05 14:40:33Z</time>
      </trkpt>
      <trkpt lat="45.33041" lon="4.50175">
        <ele>1232.835693</ele>
        <time>2011-03-05 14:40:37Z</time>
      </trkpt>
      <trkpt lat="45.33044" lon="4.5018">
        <ele>1232.973511</ele>
        <time>2011-03-05 14:40:41Z</time>
      </trkpt>
      <trkpt lat="45.33046" lon="4.50186">
        <ele>1233.072754</ele>
        <time>2011-03-05 14:40:45Z</time>
      </trkpt>
      <trkpt lat="45.33048" lon="4.50193">
        <ele>1233.137939</ele>
        <time>2011-03-05 14:40:49Z</time>
      </trkpt>
      <trkpt lat="45.3305" lon="4.502">
        <ele>1233.334473</ele>
        <time>2011-03-05 14:40:53Z</time>
      </trkpt>
      <trkpt lat="45.33052" lon="4.50206">
        <ele>1233.572021</ele>
        <time>2011-03-05 14:40:57Z</time>
      </trkpt>
      <trkpt lat="45.33054" lon="4.50211">
        <ele>1233.750122</ele>
        <time>2011-03-05 14:41:01Z</time>
      </trkpt>
      <trkpt lat="45.33055" lon="4.50217">
        <ele>1234.055298</ele>
        <time>2011-03-05 14:41:05Z</time>
      </trkpt>
      <trkpt lat="45.33056" lon="4.50223">
        <ele>1234.300903</ele>
        <time>2011-03-05 14:41:09Z</time>
      </trkpt>
      <trkpt lat="45.33057" lon="4.50228">
        <ele>1234.51123</ele>
        <time>2011-03-05 14:41:13Z</time>
      </trkpt>
      <trkpt lat="45.33058" lon="4.50232">
        <ele>1234.66394</ele>
        <time>2011-03-05 14:41:17Z</time>
      </trkpt>
      <trkpt lat="45.33059" lon="4.50237">
        <ele>1234.696655</ele>
        <time>2011-03-05 14:41:21Z</time>
      </trkpt>
      <trkpt lat="45.3306" lon="4.50242">
        <ele>1234.660645</ele>
        <time>2011-03-05 14:41:25Z</time>
      </trkpt>
      <trkpt lat="45.33062" lon="4.50245">
        <ele>1234.597412</ele>
        <time>2011-03-05 14:41:29Z</time>
      </trkpt>
      <trkpt lat="45.33062" lon="4.50248">
        <ele>1234.559814</ele>
        <time>2011-03-05 14:41:33Z</time>
      </trkpt>
      <trkpt lat="45.33064" lon="4.50254">
        <ele>1234.740356</ele>
        <time>2011-03-05 14:41:37Z</time>
      </trkpt>
      <trkpt lat="45.33064" lon="4.50262">
        <ele>1234.972534</ele>
        <time>2011-03-05 14:41:41Z</time>
      </trkpt>
      <trkpt lat="45.33065" lon="4.5027">
        <ele>1235.162842</ele>
        <time>2011-03-05 14:41:45Z</time>
      </trkpt>
      <trkpt lat="45.33064" lon="4.50278">
        <ele>1235.219604</ele>
        <time>2011-03-05 14:41:49Z</time>
      </trkpt>
      <trkpt lat="45.33063" lon="4.50284">
        <ele>1235.344482</ele>
        <time>2011-03-05 14:41:53Z</time>
      </trkpt>
      <trkpt lat="45.33063" lon="4.50291">
        <ele>1235.535278</ele>
        <time>2011-03-05 14:41:57Z</time>
      </trkpt>
      <trkpt lat="45.33062" lon="4.50311">
        <ele>1235.708862</ele>
        <time>2011-03-05 14:42:01Z</time>
      </trkpt>
      <trkpt lat="45.33062" lon="4.50324">
        <ele>1235.761475</ele>
        <time>2011-03-05 14:42:05Z</time>
      </trkpt>
      <trkpt lat="45.33062" lon="4.50334">
        <ele>1235.776001</ele>
        <time>2011-03-05 14:42:09Z</time>
      </trkpt>
      <trkpt lat="45.33064" lon="4.50341">
        <ele>1235.78125</ele>
        <time>2011-03-05 14:42:13Z</time>
      </trkpt>
      <trkpt lat="45.33067" lon="4.50346">
        <ele>1235.831177</ele>
        <time>2011-03-05 14:42:17Z</time>
      </trkpt>
      <trkpt lat="45.33069" lon="4.50351">
        <ele>1235.836548</ele>
        <time>2011-03-05 14:42:21Z</time>
      </trkpt>
      <trkpt lat="45.33069" lon="4.50356">
        <ele>1235.817017</ele>
        <time>2011-03-05 14:42:25Z</time>
      </trkpt>
      <trkpt lat="45.33069" lon="4.50363">
        <ele>1235.798096</ele>
        <time>2011-03-05 14:42:29Z</time>
      </trkpt>
      <trkpt lat="45.33069" lon="4.50368">
        <ele>1235.80127</ele>
        <time>2011-03-05 14:42:33Z</time>
      </trkpt>
      <trkpt lat="45.33069" lon="4.50368">
        <ele>1235.809448</ele>
        <time>2011-03-05 14:42:37Z</time>
      </trkpt>
      <trkpt lat="45.33068" lon="4.50371">
        <ele>1235.805542</ele>
        <time>2011-03-05 14:42:41Z</time>
      </trkpt>
      <trkpt lat="45.33064" lon="4.50372">
        <ele>1235.803711</ele>
        <time>2011-03-05 14:42:45Z</time>
      </trkpt>
      <trkpt lat="45.3306" lon="4.50375">
        <ele>1235.796875</ele>
        <time>2011-03-05 14:42:49Z</time>
      </trkpt>
      <trkpt lat="45.33055" lon="4.50377">
        <ele>1235.794922</ele>
        <time>2011-03-05 14:42:53Z</time>
      </trkpt>
      <trkpt lat="45.3305" lon="4.50379">
        <ele>1235.784668</ele>
        <time>2011-03-05 14:42:57Z</time>
      </trkpt>
      <trkpt lat="45.33044" lon="4.50379">
        <ele>1235.773926</ele>
        <time>2011-03-05 14:43:01Z</time>
      </trkpt>
      <trkpt lat="45.33039" lon="4.50379">
        <ele>1235.775635</ele>
        <time>2011-03-05 14:43:05Z</time>
      </trkpt>
      <trkpt lat="45.33034" lon="4.50379">
        <ele>1235.790894</ele>
        <time>2011-03-05 14:43:09Z</time>
      </trkpt>
      <trkpt lat="45.3303" lon="4.50381">
        <ele>1235.738281</ele>
        <time>2011-03-05 14:43:13Z</time>
      </trkpt>
      <trkpt lat="45.33025" lon="4.50383">
        <ele>1235.657227</ele>
        <time>2011-03-05 14:43:17Z</time>
      </trkpt>
      <trkpt lat="45.3302" lon="4.50384">
        <ele>1235.597778</ele>
        <time>2011-03-05 14:43:21Z</time>
      </trkpt>
      <trkpt lat="45.33015" lon="4.50384">
        <ele>1235.535156</ele>
        <time>2011-03-05 14:43:25Z</time>
      </trkpt>
      <trkpt lat="45.3301" lon="4.50385">
        <ele>1235.447266</ele>
        <time>2011-03-05 14:43:29Z</time>
      </trkpt>
      <trkpt lat="45.33005" lon="4.50388">
        <ele>1235.382935</ele>
        <time>2011-03-05 14:43:33Z</time>
      </trkpt>
      <trkpt lat="45.33001" lon="4.5039">
        <ele>1235.239136</ele>
        <time>2011-03-05 14:43:37Z</time>
      </trkpt>
      <trkpt lat="45.32996" lon="4.50391">
        <ele>1234.973633</ele>
        <time>2011-03-05 14:43:41Z</time>
      </trkpt>
      <trkpt lat="45.3299" lon="4.50393">
        <ele>1234.645874</ele>
        <time>2011-03-05 14:43:45Z</time>
      </trkpt>
      <trkpt lat="45.32985" lon="4.50395">
        <ele>1234.348389</ele>
        <time>2011-03-05 14:43:49Z</time>
      </trkpt>
      <trkpt lat="45.32978" lon="4.50396">
        <ele>1234.007324</ele>
        <time>2011-03-05 14:43:53Z</time>
      </trkpt>
      <trkpt lat="45.3297" lon="4.50398">
        <ele>1233.696045</ele>
        <time>2011-03-05 14:43:57Z</time>
      </trkpt>
      <trkpt lat="45.32965" lon="4.504">
        <ele>1233.400757</ele>
        <time>2011-03-05 14:44:01Z</time>
      </trkpt>
      <trkpt lat="45.3296" lon="4.50402">
        <ele>1233.089478</ele>
        <time>2011-03-05 14:44:05Z</time>
      </trkpt>
      <trkpt lat="45.32954" lon="4.50404">
        <ele>1232.741577</ele>
        <time>2011-03-05 14:44:09Z</time>
      </trkpt>
      <trkpt lat="45.32949" lon="4.50405">
        <ele>1232.469482</ele>
        <time>2011-03-05 14:44:13Z</time>
      </trkpt>
      <trkpt lat="45.32944" lon="4.50406">
        <ele>1232.241333</ele>
        <time>2011-03-05 14:44:17Z</time>
      </trkpt>
      <trkpt lat="45.32939" lon="4.50408">
        <ele>1232.008423</ele>
        <time>2011-03-05 14:44:21Z</time>
      </trkpt>
      <trkpt lat="45.32933" lon="4.50409">
        <ele>1231.79126</ele>
        <time>2011-03-05 14:44:25Z</time>
      </trkpt>
      <trkpt lat="45.32928" lon="4.50408">
        <ele>1231.575806</ele>
        <time>2011-03-05 14:44:29Z</time>
      </trkpt>
      <trkpt lat="45.32922" lon="4.5041">
        <ele>1231.352905</ele>
        <time>2011-03-05 14:44:33Z</time>
      </trkpt>
      <trkpt lat="45.32916" lon="4.50413">
        <ele>1231.16687</ele>
        <time>2011-03-05 14:44:37Z</time>
      </trkpt>
      <trkpt lat="45.32912" lon="4.50416">
        <ele>1230.973877</ele>
        <time>2011-03-05 14:44:41Z</time>
      </trkpt>
      <trkpt lat="45.32907" lon="4.50419">
        <ele>1230.784424</ele>
        <time>2011-03-05 14:44:45Z</time>
      </trkpt>
      <trkpt lat="45.32903" lon="4.50422">
        <ele>1230.517578</ele>
        <time>2011-03-05 14:44:49Z</time>
      </trkpt>
      <trkpt lat="45.32898" lon="4.50425">
        <ele>1230.23645</ele>
        <time>2011-03-05 14:44:53Z</time>
      </trkpt>
      <trkpt lat="45.32893" lon="4.50428">
        <ele>1230.006348</ele>
        <time>2011-03-05 14:44:57Z</time>
      </trkpt>
      <trkpt lat="45.32888" lon="4.50432">
        <ele>1229.758789</ele>
        <time>2011-03-05 14:45:01Z</time>
      </trkpt>
      <trkpt lat="45.32885" lon="4.50436">
        <ele>1229.536133</ele>
        <time>2011-03-05 14:45:05Z</time>
      </trkpt>
      <trkpt lat="45.32882" lon="4.50441">
        <ele>1229.319824</ele>
        <time>2011-03-05 14:45:09Z</time>
      </trkpt>
      <trkpt lat="45.32881" lon="4.50447">
        <ele>1228.93811</ele>
        <time>2011-03-05 14:45:13Z</time>
      </trkpt>
      <trkpt lat="45.32879" lon="4.50453">
        <ele>1228.538208</ele>
        <time>2011-03-05 14:45:17Z</time>
      </trkpt>
      <trkpt lat="45.32877" lon="4.5046">
        <ele>1228.180054</ele>
        <time>2011-03-05 14:45:21Z</time>
      </trkpt>
      <trkpt lat="45.32874" lon="4.50466">
        <ele>1227.878662</ele>
        <time>2011-03-05 14:45:25Z</time>
      </trkpt>
      <trkpt lat="45.32872" lon="4.50472">
        <ele>1227.570923</ele>
        <time>2011-03-05 14:45:29Z</time>
      </trkpt>
      <trkpt lat="45.3287" lon="4.50478">
        <ele>1227.18335</ele>
        <time>2011-03-05 14:45:33Z</time>
      </trkpt>
      <trkpt lat="45.32869" lon="4.50485">
        <ele>1226.634033</ele>
        <time>2011-03-05 14:45:37Z</time>
      </trkpt>
      <trkpt lat="45.32867" lon="4.50491">
        <ele>1225.934082</ele>
        <time>2011-03-05 14:45:41Z</time>
      </trkpt>
      <trkpt lat="45.32864" lon="4.50495">
        <ele>1225.298584</ele>
        <time>2011-03-05 14:45:45Z</time>
      </trkpt>
      <trkpt lat="45.3286" lon="4.50502">
        <ele>1224.805664</ele>
        <time>2011-03-05 14:45:49Z</time>
      </trkpt>
      <trkpt lat="45.32856" lon="4.50511">
        <ele>1224.360718</ele>
        <time>2011-03-05 14:45:53Z</time>
      </trkpt>
      <trkpt lat="45.32853" lon="4.50519">
        <ele>1223.893921</ele>
        <time>2011-03-05 14:45:57Z</time>
      </trkpt>
      <trkpt lat="45.32852" lon="4.50525">
        <ele>1223.448242</ele>
        <time>2011-03-05 14:46:01Z</time>
      </trkpt>
      <trkpt lat="45.3285" lon="4.50531">
        <ele>1223.016724</ele>
        <time>2011-03-05 14:46:05Z</time>
      </trkpt>
      <trkpt lat="45.3285" lon="4.50537">
        <ele>1222.556274</ele>
        <time>2011-03-05 14:46:09Z</time>
      </trkpt>
      <trkpt lat="45.32848" lon="4.50543">
        <ele>1222.105957</ele>
        <time>2011-03-05 14:46:13Z</time>
      </trkpt>
      <trkpt lat="45.32849" lon="4.50548">
        <ele>1221.573242</ele>
        <time>2011-03-05 14:46:17Z</time>
      </trkpt>
      <trkpt lat="45.32851" lon="4.50556">
        <ele>1220.985596</ele>
        <time>2011-03-05 14:46:21Z</time>
      </trkpt>
      <trkpt lat="45.32852" lon="4.50563">
        <ele>1220.335327</ele>
        <time>2011-03-05 14:46:25Z</time>
      </trkpt>
      <trkpt lat="45.32853" lon="4.5057">
        <ele>1219.896851</ele>
        <time>2011-03-05 14:46:29Z</time>
      </trkpt>
      <trkpt lat="45.32855" lon="4.50576">
        <ele>1219.640259</ele>
        <time>2011-03-05 14:46:33Z</time>
      </trkpt>
      <trkpt lat="45.32854" lon="4.50583">
        <ele>1219.575195</ele>
        <time>2011-03-05 14:46:37Z</time>
      </trkpt>
      <trkpt lat="45.32854" lon="4.50591">
        <ele>1219.40332</ele>
        <time>2011-03-05 14:46:41Z</time>
      </trkpt>
      <trkpt lat="45.32854" lon="4.50601">
        <ele>1219.256714</ele>
        <time>2011-03-05 14:46:45Z</time>
      </trkpt>
      <trkpt lat="45.32855" lon="4.50606">
        <ele>1219.035889</ele>
        <time>2011-03-05 14:46:49Z</time>
      </trkpt>
      <trkpt lat="45.32854" lon="4.5061">
        <ele>1218.776733</ele>
        <time>2011-03-05 14:46:53Z</time>
      </trkpt>
      <trkpt lat="45.32853" lon="4.50614">
        <ele>1218.621338</ele>
        <time>2011-03-05 14:46:57Z</time>
      </trkpt>
      <trkpt lat="45.3285" lon="4.50629">
        <ele>1218.555664</ele>
        <time>2011-03-05 14:47:01Z</time>
      </trkpt>
      <trkpt lat="45.32848" lon="4.50641">
        <ele>1218.41394</ele>
        <time>2011-03-05 14:47:05Z</time>
      </trkpt>
      <trkpt lat="45.32847" lon="4.50651">
        <ele>1218.247803</ele>
        <time>2011-03-05 14:47:09Z</time>
      </trkpt>
      <trkpt lat="45.32847" lon="4.50659">
        <ele>1218.111694</ele>
        <time>2011-03-05 14:47:13Z</time>
      </trkpt>
      <trkpt lat="45.32846" lon="4.50668">
        <ele>1218.067993</ele>
        <time>2011-03-05 14:47:17Z</time>
      </trkpt>
      <trkpt lat="45.32845" lon="4.50675">
        <ele>1218.016235</ele>
        <time>2011-03-05 14:47:21Z</time>
      </trkpt>
      <trkpt lat="45.32845" lon="4.50681">
        <ele>1217.963257</ele>
        <time>2011-03-05 14:47:25Z</time>
      </trkpt>
      <trkpt lat="45.32846" lon="4.50685">
        <ele>1217.869873</ele>
        <time>2011-03-05 14:47:29Z</time>
      </trkpt>
      <trkpt lat="45.32847" lon="4.5069">
        <ele>1217.720093</ele>
        <time>2011-03-05 14:47:33Z</time>
      </trkpt>
      <trkpt lat="45.32847" lon="4.50691">
        <ele>1217.601562</ele>
        <time>2011-03-05 14:47:37Z</time>
      </trkpt>
      <trkpt lat="45.32847" lon="4.50691">
        <ele>1217.582642</ele>
        <time>2011-03-05 14:47:41Z</time>
      </trkpt>
      <trkpt lat="45.32846" lon="4.50705">
        <ele>1217.351807</ele>
        <time>2011-03-05 14:47:45Z</time>
      </trkpt>
      <trkpt lat="45.32843" lon="4.50722">
        <ele>1217.284302</ele>
        <time>2011-03-05 14:47:49Z</time>
      </trkpt>
      <trkpt lat="45.32842" lon="4.50729">
        <ele>1217.208618</ele>
        <time>2011-03-05 14:47:53Z</time>
      </trkpt>
      <trkpt lat="45.32842" lon="4.50729">
        <ele>1217.186157</ele>
        <time>2011-03-05 14:47:57Z</time>
      </trkpt>
      <trkpt lat="45.32841" lon="4.50735">
        <ele>1217.077637</ele>
        <time>2011-03-05 14:48:01Z</time>
      </trkpt>
      <trkpt lat="45.32841" lon="4.50743">
        <ele>1216.893311</ele>
        <time>2011-03-05 14:48:05Z</time>
      </trkpt>
      <trkpt lat="45.3284" lon="4.50749">
        <ele>1216.863281</ele>
        <time>2011-03-05 14:48:09Z</time>
      </trkpt>
      <trkpt lat="45.32838" lon="4.50756">
        <ele>1216.834717</ele>
        <time>2011-03-05 14:48:13Z</time>
      </trkpt>
      <trkpt lat="45.32837" lon="4.50763">
        <ele>1216.609131</ele>
        <time>2011-03-05 14:48:17Z</time>
      </trkpt>
      <trkpt lat="45.32836" lon="4.5077">
        <ele>1216.578979</ele>
        <time>2011-03-05 14:48:21Z</time>
      </trkpt>
      <trkpt lat="45.32835" lon="4.50777">
        <ele>1216.548828</ele>
        <time>2011-03-05 14:48:25Z</time>
      </trkpt>
      <trkpt lat="45.32834" lon="4.50785">
        <ele>1216.521484</ele>
        <time>2011-03-05 14:48:29Z</time>
      </trkpt>
      <trkpt lat="45.32834" lon="4.50785">
        <ele>1216.444092</ele>
        <time>2011-03-05 14:48:33Z</time>
      </trkpt>
      <trkpt lat="45.32834" lon="4.50797">
        <ele>1216.192383</ele>
        <time>2011-03-05 14:48:37Z</time>
      </trkpt>
      <trkpt lat="45.32834" lon="4.50806">
        <ele>1215.876465</ele>
        <time>2011-03-05 14:48:41Z</time>
      </trkpt>
      <trkpt lat="45.32832" lon="4.50822">
        <ele>1215.427979</ele>
        <time>2011-03-05 14:48:45Z</time>
      </trkpt>
      <trkpt lat="45.32829" lon="4.50834">
        <ele>1214.947144</ele>
        <time>2011-03-05 14:48:49Z</time>
      </trkpt>
      <trkpt lat="45.32827" lon="4.50843">
        <ele>1214.422241</ele>
        <time>2011-03-05 14:48:53Z</time>
      </trkpt>
      <trkpt lat="45.32825" lon="4.5085">
        <ele>1213.827393</ele>
        <time>2011-03-05 14:48:57Z</time>
      </trkpt>
      <trkpt lat="45.32824" lon="4.50857">
        <ele>1213.225464</ele>
        <time>2011-03-05 14:49:01Z</time>
      </trkpt>
      <trkpt lat="45.32824" lon="4.50864">
        <ele>1212.663818</ele>
        <time>2011-03-05 14:49:05Z</time>
      </trkpt>
      <trkpt lat="45.32825" lon="4.50873">
        <ele>1212.227417</ele>
        <time>2011-03-05 14:49:09Z</time>
      </trkpt>
      <trkpt lat="45.32826" lon="4.50881">
        <ele>1211.969238</ele>
        <time>2011-03-05 14:49:13Z</time>
      </trkpt>
      <trkpt lat="45.32828" lon="4.50886">
        <ele>1211.772217</ele>
        <time>2011-03-05 14:49:17Z</time>
      </trkpt>
      <trkpt lat="45.32832" lon="4.50891">
        <ele>1211.454834</ele>
        <time>2011-03-05 14:49:21Z</time>
      </trkpt>
      <trkpt lat="45.32836" lon="4.50895">
        <ele>1211.188599</ele>
        <time>2011-03-05 14:49:25Z</time>
      </trkpt>
      <trkpt lat="45.3284" lon="4.50897">
        <ele>1210.996094</ele>
        <time>2011-03-05 14:49:29Z</time>
      </trkpt>
      <trkpt lat="45.32844" lon="4.50899">
        <ele>1210.698364</ele>
        <time>2011-03-05 14:49:33Z</time>
      </trkpt>
      <trkpt lat="45.32848" lon="4.50902">
        <ele>1210.4104</ele>
        <time>2011-03-05 14:49:37Z</time>
      </trkpt>
      <trkpt lat="45.32851" lon="4.50904">
        <ele>1210.152588</ele>
        <time>2011-03-05 14:49:41Z</time>
      </trkpt>
      <trkpt lat="45.32852" lon="4.50904">
        <ele>1210.084229</ele>
        <time>2011-03-05 14:49:45Z</time>
      </trkpt>
      <trkpt lat="45.32852" lon="4.50904">
        <ele>1209.94519</ele>
        <time>2011-03-05 14:49:49Z</time>
      </trkpt>
      <trkpt lat="45.32858" lon="4.50907">
        <ele>1209.757324</ele>
        <time>2011-03-05 14:49:53Z</time>
      </trkpt>
      <trkpt lat="45.32868" lon="4.50908">
        <ele>1209.602661</ele>
        <time>2011-03-05 14:49:57Z</time>
      </trkpt>
      <trkpt lat="45.32874" lon="4.50907">
        <ele>1209.542236</ele>
        <time>2011-03-05 14:50:01Z</time>
      </trkpt>
      <trkpt lat="45.32879" lon="4.50907">
        <ele>1209.40918</ele>
        <time>2011-03-05 14:50:05Z</time>
      </trkpt>
      <trkpt lat="45.32885" lon="4.50906">
        <ele>1209.318115</ele>
        <time>2011-03-05 14:50:09Z</time>
      </trkpt>
      <trkpt lat="45.32891" lon="4.50906">
        <ele>1209.185913</ele>
        <time>2011-03-05 14:50:13Z</time>
      </trkpt>
      <trkpt lat="45.32896" lon="4.50905">
        <ele>1209.09729</ele>
        <time>2011-03-05 14:50:17Z</time>
      </trkpt>
      <trkpt lat="45.32901" lon="4.50905">
        <ele>1209.094971</ele>
        <time>2011-03-05 14:50:21Z</time>
      </trkpt>
      <trkpt lat="45.32901" lon="4.50905">
        <ele>1209.092651</ele>
        <time>2011-03-05 14:50:25Z</time>
      </trkpt>
      <trkpt lat="45.32906" lon="4.50905">
        <ele>1209.03894</ele>
        <time>2011-03-05 14:50:29Z</time>
      </trkpt>
      <trkpt lat="45.32916" lon="4.50903">
        <ele>1208.795898</ele>
        <time>2011-03-05 14:50:33Z</time>
      </trkpt>
      <trkpt lat="45.32916" lon="4.50903">
        <ele>1208.65332</ele>
        <time>2011-03-05 14:50:37Z</time>
      </trkpt>
      <trkpt lat="45.32921" lon="4.50902">
        <ele>1208.471191</ele>
        <time>2011-03-05 14:50:41Z</time>
      </trkpt>
      <trkpt lat="45.32927" lon="4.50904">
        <ele>1208.444092</ele>
        <time>2011-03-05 14:50:45Z</time>
      </trkpt>
      <trkpt lat="45.32932" lon="4.50905">
        <ele>1208.452026</ele>
        <time>2011-03-05 14:50:49Z</time>
      </trkpt>
      <trkpt lat="45.32938" lon="4.50904">
        <ele>1208.57251</ele>
        <time>2011-03-05 14:50:53Z</time>
      </trkpt>
      <trkpt lat="45.32943" lon="4.50903">
        <ele>1208.772583</ele>
        <time>2011-03-05 14:50:57Z</time>
      </trkpt>
      <trkpt lat="45.32948" lon="4.50902">
        <ele>1208.980225</ele>
        <time>2011-03-05 14:51:01Z</time>
      </trkpt>
      <trkpt lat="45.32959" lon="4.509">
        <ele>1209.182251</ele>
        <time>2011-03-05 14:51:05Z</time>
      </trkpt>
      <trkpt lat="45.32964" lon="4.509">
        <ele>1209.301514</ele>
        <time>2011-03-05 14:51:09Z</time>
      </trkpt>
      <trkpt lat="45.32975" lon="4.50897">
        <ele>1209.642456</ele>
        <time>2011-03-05 14:51:13Z</time>
      </trkpt>
      <trkpt lat="45.3298" lon="4.50895">
        <ele>1209.872559</ele>
        <time>2011-03-05 14:51:17Z</time>
      </trkpt>
      <trkpt lat="45.32986" lon="4.50893">
        <ele>1210.184692</ele>
        <time>2011-03-05 14:51:21Z</time>
      </trkpt>
      <trkpt lat="45.3299" lon="4.5089">
        <ele>1210.465088</ele>
        <time>2011-03-05 14:51:25Z</time>
      </trkpt>
      <trkpt lat="45.32995" lon="4.50887">
        <ele>1210.670532</ele>
        <time>2011-03-05 14:51:29Z</time>
      </trkpt>
      <trkpt lat="45.33" lon="4.50884">
        <ele>1210.869629</ele>
        <time>2011-03-05 14:51:33Z</time>
      </trkpt>
      <trkpt lat="45.33005" lon="4.5088">
        <ele>1211.040527</ele>
        <time>2011-03-05 14:51:37Z</time>
      </trkpt>
      <trkpt lat="45.3301" lon="4.50876">
        <ele>1211.194458</ele>
        <time>2011-03-05 14:51:41Z</time>
      </trkpt>
      <trkpt lat="45.33014" lon="4.50873">
        <ele>1211.368896</ele>
        <time>2011-03-05 14:51:45Z</time>
      </trkpt>
      <trkpt lat="45.33018" lon="4.50869">
        <ele>1211.594727</ele>
        <time>2011-03-05 14:51:49Z</time>
      </trkpt>
      <trkpt lat="45.33022" lon="4.50865">
        <ele>1211.77771</ele>
        <time>2011-03-05 14:51:53Z</time>
      </trkpt>
      <trkpt lat="45.33027" lon="4.50861">
        <ele>1211.964233</ele>
        <time>2011-03-05 14:51:57Z</time>
      </trkpt>
      <trkpt lat="45.33032" lon="4.50857">
        <ele>1212.154297</ele>
        <time>2011-03-05 14:52:01Z</time>
      </trkpt>
      <trkpt lat="45.33036" lon="4.50853">
        <ele>1212.314575</ele>
        <time>2011-03-05 14:52:05Z</time>
      </trkpt>
      <trkpt lat="45.33043" lon="4.50848">
        <ele>1212.438843</ele>
        <time>2011-03-05 14:52:09Z</time>
      </trkpt>
      <trkpt lat="45.33047" lon="4.50844">
        <ele>1212.538818</ele>
        <time>2011-03-05 14:52:13Z</time>
      </trkpt>
      <trkpt lat="45.33051" lon="4.50839">
        <ele>1212.631958</ele>
        <time>2011-03-05 14:52:17Z</time>
      </trkpt>
      <trkpt lat="45.33054" lon="4.50835">
        <ele>1212.721436</ele>
        <time>2011-03-05 14:52:21Z</time>
      </trkpt>
      <trkpt lat="45.33057" lon="4.5083">
        <ele>1212.84021</ele>
        <time>2011-03-05 14:52:25Z</time>
      </trkpt>
      <trkpt lat="45.3306" lon="4.50825">
        <ele>1212.971069</ele>
        <time>2011-03-05 14:52:29Z</time>
      </trkpt>
      <trkpt lat="45.33064" lon="4.50819">
        <ele>1213.019043</ele>
        <time>2011-03-05 14:52:33Z</time>
      </trkpt>
      <trkpt lat="45.33067" lon="4.50814">
        <ele>1213.080444</ele>
        <time>2011-03-05 14:52:37Z</time>
      </trkpt>
      <trkpt lat="45.3307" lon="4.5081">
        <ele>1213.127319</ele>
        <time>2011-03-05 14:52:41Z</time>
      </trkpt>
      <trkpt lat="45.33074" lon="4.50805">
        <ele>1213.153931</ele>
        <time>2011-03-05 14:52:45Z</time>
      </trkpt>
      <trkpt lat="45.33077" lon="4.50799">
        <ele>1213.17627</ele>
        <time>2011-03-05 14:52:49Z</time>
      </trkpt>
      <trkpt lat="45.33079" lon="4.50795">
        <ele>1213.174805</ele>
        <time>2011-03-05 14:52:53Z</time>
      </trkpt>
      <trkpt lat="45.33081" lon="4.5079">
        <ele>1213.162476</ele>
        <time>2011-03-05 14:52:57Z</time>
      </trkpt>
      <trkpt lat="45.33083" lon="4.50785">
        <ele>1213.140869</ele>
        <time>2011-03-05 14:53:01Z</time>
      </trkpt>
      <trkpt lat="45.33084" lon="4.50779">
        <ele>1213.08728</ele>
        <time>2011-03-05 14:53:05Z</time>
      </trkpt>
      <trkpt lat="45.33089" lon="4.50772">
        <ele>1213.011963</ele>
        <time>2011-03-05 14:53:09Z</time>
      </trkpt>
      <trkpt lat="45.33093" lon="4.50766">
        <ele>1212.979126</ele>
        <time>2011-03-05 14:53:13Z</time>
      </trkpt>
      <trkpt lat="45.33097" lon="4.50759">
        <ele>1212.961792</ele>
        <time>2011-03-05 14:53:17Z</time>
      </trkpt>
      <trkpt lat="45.33101" lon="4.50751">
        <ele>1212.936646</ele>
        <time>2011-03-05 14:53:21Z</time>
      </trkpt>
      <trkpt lat="45.33104" lon="4.50744">
        <ele>1212.925537</ele>
        <time>2011-03-05 14:53:25Z</time>
      </trkpt>
      <trkpt lat="45.33106" lon="4.50738">
        <ele>1212.989014</ele>
        <time>2011-03-05 14:53:29Z</time>
      </trkpt>
      <trkpt lat="45.33109" lon="4.50731">
        <ele>1213.058594</ele>
        <time>2011-03-05 14:53:33Z</time>
      </trkpt>
      <trkpt lat="45.33113" lon="4.50724">
        <ele>1213.223022</ele>
        <time>2011-03-05 14:53:37Z</time>
      </trkpt>
      <trkpt lat="45.33115" lon="4.50713">
        <ele>1213.71521</ele>
        <time>2011-03-05 14:53:41Z</time>
      </trkpt>
      <trkpt lat="45.33117" lon="4.50704">
        <ele>1214.23584</ele>
        <time>2011-03-05 14:53:45Z</time>
      </trkpt>
      <trkpt lat="45.33118" lon="4.50697">
        <ele>1214.699951</ele>
        <time>2011-03-05 14:53:49Z</time>
      </trkpt>
      <trkpt lat="45.33119" lon="4.5069">
        <ele>1215.170044</ele>
        <time>2011-03-05 14:53:53Z</time>
      </trkpt>
      <trkpt lat="45.33122" lon="4.50684">
        <ele>1215.574829</ele>
        <time>2011-03-05 14:53:57Z</time>
      </trkpt>
      <trkpt lat="45.33126" lon="4.50676">
        <ele>1215.895142</ele>
        <time>2011-03-05 14:54:01Z</time>
      </trkpt>
      <trkpt lat="45.3313" lon="4.50669">
        <ele>1216.148071</ele>
        <time>2011-03-05 14:54:05Z</time>
      </trkpt>
      <trkpt lat="45.33132" lon="4.50662">
        <ele>1216.391602</ele>
        <time>2011-03-05 14:54:09Z</time>
      </trkpt>
      <trkpt lat="45.33133" lon="4.50656">
        <ele>1216.662842</ele>
        <time>2011-03-05 14:54:13Z</time>
      </trkpt>
      <trkpt lat="45.33133" lon="4.5065">
        <ele>1217.020142</ele>
        <time>2011-03-05 14:54:17Z</time>
      </trkpt>
      <trkpt lat="45.33133" lon="4.50643">
        <ele>1217.371582</ele>
        <time>2011-03-05 14:54:21Z</time>
      </trkpt>
      <trkpt lat="45.33132" lon="4.50636">
        <ele>1217.731201</ele>
        <time>2011-03-05 14:54:25Z</time>
      </trkpt>
      <trkpt lat="45.3313" lon="4.50629">
        <ele>1218.176025</ele>
        <time>2011-03-05 14:54:29Z</time>
      </trkpt>
      <trkpt lat="45.33128" lon="4.50621">
        <ele>1218.679688</ele>
        <time>2011-03-05 14:54:33Z</time>
      </trkpt>
      <trkpt lat="45.33127" lon="4.50612">
        <ele>1219.1604</ele>
        <time>2011-03-05 14:54:37Z</time>
      </trkpt>
      <trkpt lat="45.33126" lon="4.50603">
        <ele>1219.801636</ele>
        <time>2011-03-05 14:54:41Z</time>
      </trkpt>
      <trkpt lat="45.33126" lon="4.50597">
        <ele>1220.408691</ele>
        <time>2011-03-05 14:54:45Z</time>
      </trkpt>
      <trkpt lat="45.33127" lon="4.50591">
        <ele>1221.055176</ele>
        <time>2011-03-05 14:54:49Z</time>
      </trkpt>
      <trkpt lat="45.33128" lon="4.50585">
        <ele>1221.731079</ele>
        <time>2011-03-05 14:54:53Z</time>
      </trkpt>
      <trkpt lat="45.33129" lon="4.50578">
        <ele>1222.459595</ele>
        <time>2011-03-05 14:54:57Z</time>
      </trkpt>
      <trkpt lat="45.33129" lon="4.50571">
        <ele>1223.175659</ele>
        <time>2011-03-05 14:55:01Z</time>
      </trkpt>
      <trkpt lat="45.3313" lon="4.50564">
        <ele>1223.806519</ele>
        <time>2011-03-05 14:55:05Z</time>
      </trkpt>
      <trkpt lat="45.33132" lon="4.50557">
        <ele>1224.292114</ele>
        <time>2011-03-05 14:55:09Z</time>
      </trkpt>
      <trkpt lat="45.33133" lon="4.5055">
        <ele>1224.733643</ele>
        <time>2011-03-05 14:55:13Z</time>
      </trkpt>
      <trkpt lat="45.33136" lon="4.50543">
        <ele>1225.099487</ele>
        <time>2011-03-05 14:55:17Z</time>
      </trkpt>
      <trkpt lat="45.33138" lon="4.50535">
        <ele>1225.338989</ele>
        <time>2011-03-05 14:55:21Z</time>
      </trkpt>
      <trkpt lat="45.3314" lon="4.50527">
        <ele>1225.588379</ele>
        <time>2011-03-05 14:55:25Z</time>
      </trkpt>
      <trkpt lat="45.33142" lon="4.5052">
        <ele>1225.84436</ele>
        <time>2011-03-05 14:55:29Z</time>
      </trkpt>
      <trkpt lat="45.33143" lon="4.50513">
        <ele>1226.081787</ele>
        <time>2011-03-05 14:55:33Z</time>
      </trkpt>
      <trkpt lat="45.33145" lon="4.50507">
        <ele>1226.34021</ele>
        <time>2011-03-05 14:55:37Z</time>
      </trkpt>
      <trkpt lat="45.33148" lon="4.505">
        <ele>1226.736938</ele>
        <time>2011-03-05 14:55:41Z</time>
      </trkpt>
      <trkpt lat="45.33152" lon="4.50493">
        <ele>1227.123413</ele>
        <time>2011-03-05 14:55:45Z</time>
      </trkpt>
      <trkpt lat="45.33155" lon="4.50487">
        <ele>1227.519287</ele>
        <time>2011-03-05 14:55:49Z</time>
      </trkpt>
      <trkpt lat="45.33157" lon="4.50482">
        <ele>1227.900391</ele>
        <time>2011-03-05 14:55:53Z</time>
      </trkpt>
      <trkpt lat="45.3316" lon="4.50477">
        <ele>1228.278809</ele>
        <time>2011-03-05 14:55:57Z</time>
      </trkpt>
      <trkpt lat="45.33164" lon="4.50473">
        <ele>1228.619873</ele>
        <time>2011-03-05 14:56:01Z</time>
      </trkpt>
      <trkpt lat="45.33167" lon="4.50468">
        <ele>1228.979004</ele>
        <time>2011-03-05 14:56:05Z</time>
      </trkpt>
      <trkpt lat="45.3317" lon="4.50464">
        <ele>1229.370361</ele>
        <time>2011-03-05 14:56:09Z</time>
      </trkpt>
      <trkpt lat="45.33175" lon="4.50459">
        <ele>1229.823853</ele>
        <time>2011-03-05 14:56:13Z</time>
      </trkpt>
      <trkpt lat="45.3318" lon="4.50455">
        <ele>1230.217651</ele>
        <time>2011-03-05 14:56:17Z</time>
      </trkpt>
      <trkpt lat="45.33186" lon="4.50451">
        <ele>1230.709473</ele>
        <time>2011-03-05 14:56:21Z</time>
      </trkpt>
      <trkpt lat="45.3319" lon="4.50446">
        <ele>1231.314941</ele>
        <time>2011-03-05 14:56:25Z</time>
      </trkpt>
      <trkpt lat="45.33194" lon="4.50442">
        <ele>1231.9021</ele>
        <time>2011-03-05 14:56:29Z</time>
      </trkpt>
      <trkpt lat="45.33199" lon="4.50439">
        <ele>1232.384155</ele>
        <time>2011-03-05 14:56:33Z</time>
      </trkpt>
      <trkpt lat="45.33202" lon="4.50435">
        <ele>1232.822144</ele>
        <time>2011-03-05 14:56:37Z</time>
      </trkpt>
      <trkpt lat="45.33207" lon="4.50431">
        <ele>1233.154053</ele>
        <time>2011-03-05 14:56:41Z</time>
      </trkpt>
      <trkpt lat="45.33212" lon="4.50426">
        <ele>1233.349731</ele>
        <time>2011-03-05 14:56:45Z</time>
      </trkpt>
      <trkpt lat="45.33215" lon="4.50423">
        <ele>1233.569946</ele>
        <time>2011-03-05 14:56:49Z</time>
      </trkpt>
      <trkpt lat="45.33218" lon="4.5042">
        <ele>1233.790039</ele>
        <time>2011-03-05 14:56:53Z</time>
      </trkpt>
      <trkpt lat="45.33221" lon="4.50417">
        <ele>1234.06311</ele>
        <time>2011-03-05 14:56:57Z</time>
      </trkpt>
      <trkpt lat="45.33222" lon="4.50415">
        <ele>1234.294067</ele>
        <time>2011-03-05 14:57:01Z</time>
      </trkpt>
      <trkpt lat="45.33222" lon="4.50415">
        <ele>1234.486084</ele>
        <time>2011-03-05 14:57:05Z</time>
      </trkpt>
      <trkpt lat="45.33226" lon="4.50417">
        <ele>1234.768066</ele>
        <time>2011-03-05 14:57:09Z</time>
      </trkpt>
      <trkpt lat="45.33226" lon="4.50417">
        <ele>1234.887939</ele>
        <time>2011-03-05 14:57:13Z</time>
      </trkpt>
      <trkpt lat="45.33226" lon="4.50421">
        <ele>1235.266357</ele>
        <time>2011-03-05 14:57:17Z</time>
      </trkpt>
      <trkpt lat="45.33225" lon="4.50425">
        <ele>1235.582031</ele>
        <time>2011-03-05 14:57:21Z</time>
      </trkpt>
      <trkpt lat="45.33223" lon="4.5043">
        <ele>1235.832153</ele>
        <time>2011-03-05 14:57:25Z</time>
      </trkpt>
      <trkpt lat="45.33221" lon="4.50435">
        <ele>1236.009277</ele>
        <time>2011-03-05 14:57:29Z</time>
      </trkpt>
      <trkpt lat="45.33218" lon="4.50443">
        <ele>1236.153442</ele>
        <time>2011-03-05 14:57:33Z</time>
      </trkpt>
      <trkpt lat="45.33216" lon="4.50451">
        <ele>1236.31958</ele>
        <time>2011-03-05 14:57:37Z</time>
      </trkpt>
      <trkpt lat="45.33214" lon="4.50458">
        <ele>1236.444824</ele>
        <time>2011-03-05 14:57:41Z</time>
      </trkpt>
      <trkpt lat="45.33213" lon="4.50464">
        <ele>1236.424561</ele>
        <time>2011-03-05 14:57:45Z</time>
      </trkpt>
      <trkpt lat="45.33211" lon="4.5047">
        <ele>1236.408447</ele>
        <time>2011-03-05 14:57:49Z</time>
      </trkpt>
      <trkpt lat="45.33207" lon="4.50475">
        <ele>1236.560059</ele>
        <time>2011-03-05 14:57:53Z</time>
      </trkpt>
      <trkpt lat="45.33203" lon="4.50483">
        <ele>1236.635498</ele>
        <time>2011-03-05 14:57:57Z</time>
      </trkpt>
      <trkpt lat="45.33201" lon="4.50489">
        <ele>1236.691406</ele>
        <time>2011-03-05 14:58:01Z</time>
      </trkpt>
      <trkpt lat="45.33201" lon="4.50495">
        <ele>1236.701416</ele>
        <time>2011-03-05 14:58:05Z</time>
      </trkpt>
      <trkpt lat="45.33199" lon="4.50502">
        <ele>1236.673096</ele>
        <time>2011-03-05 14:58:09Z</time>
      </trkpt>
      <trkpt lat="45.33198" lon="4.50508">
        <ele>1236.636475</ele>
        <time>2011-03-05 14:58:13Z</time>
      </trkpt>
      <trkpt lat="45.33196" lon="4.50514">
        <ele>1236.641846</ele>
        <time>2011-03-05 14:58:17Z</time>
      </trkpt>
      <trkpt lat="45.33196" lon="4.50518">
        <ele>1236.649658</ele>
        <time>2011-03-05 14:58:21Z</time>
      </trkpt>
      <trkpt lat="45.33196" lon="4.50525">
        <ele>1236.680298</ele>
        <time>2011-03-05 14:58:25Z</time>
      </trkpt>
      <trkpt lat="45.33193" lon="4.50533">
        <ele>1236.681519</ele>
        <time>2011-03-05 14:58:29Z</time>
      </trkpt>
      <trkpt lat="45.33191" lon="4.50542">
        <ele>1236.653564</ele>
        <time>2011-03-05 14:58:33Z</time>
      </trkpt>
      <trkpt lat="45.3319" lon="4.50549">
        <ele>1236.591553</ele>
        <time>2011-03-05 14:58:37Z</time>
      </trkpt>
      <trkpt lat="45.33189" lon="4.50556">
        <ele>1236.470215</ele>
        <time>2011-03-05 14:58:41Z</time>
      </trkpt>
      <trkpt lat="45.3319" lon="4.50564">
        <ele>1236.200439</ele>
        <time>2011-03-05 14:58:45Z</time>
      </trkpt>
      <trkpt lat="45.33192" lon="4.50573">
        <ele>1235.7229</ele>
        <time>2011-03-05 14:58:49Z</time>
      </trkpt>
      <trkpt lat="45.33195" lon="4.50582">
        <ele>1235.120361</ele>
        <time>2011-03-05 14:58:53Z</time>
      </trkpt>
      <trkpt lat="45.33195" lon="4.50594">
        <ele>1234.518066</ele>
        <time>2011-03-05 14:58:57Z</time>
      </trkpt>
      <trkpt lat="45.33196" lon="4.50602">
        <ele>1233.952393</ele>
        <time>2011-03-05 14:59:01Z</time>
      </trkpt>
      <trkpt lat="45.33199" lon="4.50608">
        <ele>1233.393921</ele>
        <time>2011-03-05 14:59:05Z</time>
      </trkpt>
      <trkpt lat="45.33202" lon="4.50613">
        <ele>1232.899292</ele>
        <time>2011-03-05 14:59:09Z</time>
      </trkpt>
      <trkpt lat="45.33205" lon="4.50617">
        <ele>1232.400879</ele>
        <time>2011-03-05 14:59:13Z</time>
      </trkpt>
      <trkpt lat="45.33209" lon="4.5062">
        <ele>1231.890991</ele>
        <time>2011-03-05 14:59:17Z</time>
      </trkpt>
      <trkpt lat="45.33212" lon="4.50625">
        <ele>1231.358887</ele>
        <time>2011-03-05 14:59:21Z</time>
      </trkpt>
      <trkpt lat="45.33215" lon="4.50631">
        <ele>1230.916016</ele>
        <time>2011-03-05 14:59:25Z</time>
      </trkpt>
      <trkpt lat="45.33219" lon="4.50637">
        <ele>1230.515747</ele>
        <time>2011-03-05 14:59:29Z</time>
      </trkpt>
      <trkpt lat="45.33223" lon="4.50642">
        <ele>1230.172729</ele>
        <time>2011-03-05 14:59:33Z</time>
      </trkpt>
      <trkpt lat="45.33228" lon="4.50645">
        <ele>1229.731812</ele>
        <time>2011-03-05 14:59:37Z</time>
      </trkpt>
      <trkpt lat="45.33232" lon="4.50645">
        <ele>1229.177734</ele>
        <time>2011-03-05 14:59:41Z</time>
      </trkpt>
      <trkpt lat="45.33237" lon="4.50645">
        <ele>1228.5896</ele>
        <time>2011-03-05 14:59:45Z</time>
      </trkpt>
      <trkpt lat="45.33243" lon="4.50645">
        <ele>1227.97229</ele>
        <time>2011-03-05 14:59:49Z</time>
      </trkpt>
      <trkpt lat="45.3325" lon="4.50644">
        <ele>1227.386475</ele>
        <time>2011-03-05 14:59:53Z</time>
      </trkpt>
      <trkpt lat="45.33257" lon="4.50643">
        <ele>1226.975464</ele>
        <time>2011-03-05 14:59:57Z</time>
      </trkpt>
      <trkpt lat="45.33266" lon="4.50641">
        <ele>1226.191406</ele>
        <time>2011-03-05 15:00:01Z</time>
      </trkpt>
      <trkpt lat="45.33272" lon="4.5064">
        <ele>1225.620972</ele>
        <time>2011-03-05 15:00:05Z</time>
      </trkpt>
      <trkpt lat="45.33277" lon="4.50638">
        <ele>1225.05188</ele>
        <time>2011-03-05 15:00:09Z</time>
      </trkpt>
      <trkpt lat="45.33284" lon="4.50635">
        <ele>1224.388916</ele>
        <time>2011-03-05 15:00:13Z</time>
      </trkpt>
      <trkpt lat="45.33287" lon="4.50632">
        <ele>1223.758911</ele>
        <time>2011-03-05 15:00:17Z</time>
      </trkpt>
      <trkpt lat="45.3329" lon="4.50629">
        <ele>1223.151855</ele>
        <time>2011-03-05 15:00:21Z</time>
      </trkpt>
      <trkpt lat="45.33295" lon="4.50626">
        <ele>1222.56897</ele>
        <time>2011-03-05 15:00:25Z</time>
      </trkpt>
      <trkpt lat="45.333" lon="4.50621">
        <ele>1221.761475</ele>
        <time>2011-03-05 15:00:29Z</time>
      </trkpt>
      <trkpt lat="45.33302" lon="4.5062">
        <ele>1221.276978</ele>
        <time>2011-03-05 15:00:33Z</time>
      </trkpt>
      <trkpt lat="45.33307" lon="4.50619">
        <ele>1220.393433</ele>
        <time>2011-03-05 15:00:37Z</time>
      </trkpt>
      <trkpt lat="45.33314" lon="4.50618">
        <ele>1219.640381</ele>
        <time>2011-03-05 15:00:41Z</time>
      </trkpt>
      <trkpt lat="45.3332" lon="4.50618">
        <ele>1218.952271</ele>
        <time>2011-03-05 15:00:45Z</time>
      </trkpt>
      <trkpt lat="45.33324" lon="4.50617">
        <ele>1218.258667</ele>
        <time>2011-03-05 15:00:49Z</time>
      </trkpt>
      <trkpt lat="45.33329" lon="4.50616">
        <ele>1217.623413</ele>
        <time>2011-03-05 15:00:53Z</time>
      </trkpt>
      <trkpt lat="45.33335" lon="4.50613">
        <ele>1216.894043</ele>
        <time>2011-03-05 15:00:57Z</time>
      </trkpt>
      <trkpt lat="45.33342" lon="4.50611">
        <ele>1216.179565</ele>
        <time>2011-03-05 15:01:01Z</time>
      </trkpt>
      <trkpt lat="45.33346" lon="4.5061">
        <ele>1215.484253</ele>
        <time>2011-03-05 15:01:05Z</time>
      </trkpt>
      <trkpt lat="45.33352" lon="4.50609">
        <ele>1214.81543</ele>
        <time>2011-03-05 15:01:09Z</time>
      </trkpt>
      <trkpt lat="45.33354" lon="4.50608">
        <ele>1214.462158</ele>
        <time>2011-03-05 15:01:13Z</time>
      </trkpt>
      <trkpt lat="45.33354" lon="4.50608">
        <ele>1213.982422</ele>
        <time>2011-03-05 15:01:17Z</time>
      </trkpt>
      <trkpt lat="45.3336" lon="4.50607">
        <ele>1213.413208</ele>
        <time>2011-03-05 15:01:21Z</time>
      </trkpt>
      <trkpt lat="45.33365" lon="4.50605">
        <ele>1212.889893</ele>
        <time>2011-03-05 15:01:25Z</time>
      </trkpt>
      <trkpt lat="45.3337" lon="4.50603">
        <ele>1212.420776</ele>
        <time>2011-03-05 15:01:29Z</time>
      </trkpt>
      <trkpt lat="45.33374" lon="4.50601">
        <ele>1212.057251</ele>
        <time>2011-03-05 15:01:33Z</time>
      </trkpt>
      <trkpt lat="45.33379" lon="4.50599">
        <ele>1211.772949</ele>
        <time>2011-03-05 15:01:37Z</time>
      </trkpt>
      <trkpt lat="45.33379" lon="4.50599">
        <ele>1211.506958</ele>
        <time>2011-03-05 15:01:41Z</time>
      </trkpt>
      <trkpt lat="45.33384" lon="4.50598">
        <ele>1211.229248</ele>
        <time>2011-03-05 15:01:45Z</time>
      </trkpt>
      <trkpt lat="45.33389" lon="4.50598">
        <ele>1210.940918</ele>
        <time>2011-03-05 15:01:49Z</time>
      </trkpt>
      <trkpt lat="45.33394" lon="4.50596">
        <ele>1210.782715</ele>
        <time>2011-03-05 15:01:53Z</time>
      </trkpt>
      <trkpt lat="45.33398" lon="4.50595">
        <ele>1210.665405</ele>
        <time>2011-03-05 15:01:57Z</time>
      </trkpt>
      <trkpt lat="45.33398" lon="4.50595">
        <ele>1210.302612</ele>
        <time>2011-03-05 15:02:01Z</time>
      </trkpt>
      <trkpt lat="45.33403" lon="4.50595">
        <ele>1210.18457</ele>
        <time>2011-03-05 15:02:05Z</time>
      </trkpt>
      <trkpt lat="45.33403" lon="4.50595">
        <ele>1209.989746</ele>
        <time>2011-03-05 15:02:09Z</time>
      </trkpt>
      <trkpt lat="45.33408" lon="4.50593">
        <ele>1209.76416</ele>
        <time>2011-03-05 15:02:13Z</time>
      </trkpt>
      <trkpt lat="45.33419" lon="4.50591">
        <ele>1209.421387</ele>
        <time>2011-03-05 15:02:17Z</time>
      </trkpt>
      <trkpt lat="45.33425" lon="4.5059">
        <ele>1209.25</ele>
        <time>2011-03-05 15:02:21Z</time>
      </trkpt>
      <trkpt lat="45.3343" lon="4.50588">
        <ele>1208.959473</ele>
        <time>2011-03-05 15:02:25Z</time>
      </trkpt>
      <trkpt lat="45.33434" lon="4.50588">
        <ele>1208.654297</ele>
        <time>2011-03-05 15:02:29Z</time>
      </trkpt>
      <trkpt lat="45.3344" lon="4.50588">
        <ele>1208.407349</ele>
        <time>2011-03-05 15:02:33Z</time>
      </trkpt>
      <trkpt lat="45.33444" lon="4.50587">
        <ele>1208.130981</ele>
        <time>2011-03-05 15:02:37Z</time>
      </trkpt>
      <trkpt lat="45.33455" lon="4.50586">
        <ele>1207.824951</ele>
        <time>2011-03-05 15:02:41Z</time>
      </trkpt>
      <trkpt lat="45.33466" lon="4.50584">
        <ele>1207.386353</ele>
        <time>2011-03-05 15:02:45Z</time>
      </trkpt>
      <trkpt lat="45.33471" lon="4.50582">
        <ele>1206.968872</ele>
        <time>2011-03-05 15:02:49Z</time>
      </trkpt>
      <trkpt lat="45.33476" lon="4.5058">
        <ele>1206.600342</ele>
        <time>2011-03-05 15:02:53Z</time>
      </trkpt>
      <trkpt lat="45.33481" lon="4.50578">
        <ele>1206.569824</ele>
        <time>2011-03-05 15:02:57Z</time>
      </trkpt>
      <trkpt lat="45.33481" lon="4.50578">
        <ele>1206.548584</ele>
        <time>2011-03-05 15:03:01Z</time>
      </trkpt>
      <trkpt lat="45.33486" lon="4.50578">
        <ele>1206.424316</ele>
        <time>2011-03-05 15:03:05Z</time>
      </trkpt>
      <trkpt lat="45.33493" lon="4.50577">
        <ele>1206.238037</ele>
        <time>2011-03-05 15:03:09Z</time>
      </trkpt>
      <trkpt lat="45.33503" lon="4.50576">
        <ele>1206.197021</ele>
        <time>2011-03-05 15:03:13Z</time>
      </trkpt>
      <trkpt lat="45.33508" lon="4.50575">
        <ele>1206.187256</ele>
        <time>2011-03-05 15:03:17Z</time>
      </trkpt>
      <trkpt lat="45.33508" lon="4.50575">
        <ele>1206.311279</ele>
        <time>2011-03-05 15:03:21Z</time>
      </trkpt>
      <trkpt lat="45.33518" lon="4.50575">
        <ele>1206.562134</ele>
        <time>2011-03-05 15:03:25Z</time>
      </trkpt>
      <trkpt lat="45.33524" lon="4.50573">
        <ele>1206.807373</ele>
        <time>2011-03-05 15:03:29Z</time>
      </trkpt>
      <trkpt lat="45.33529" lon="4.50571">
        <ele>1207.075439</ele>
        <time>2011-03-05 15:03:33Z</time>
      </trkpt>
      <trkpt lat="45.33533" lon="4.5057">
        <ele>1207.215576</ele>
        <time>2011-03-05 15:03:37Z</time>
      </trkpt>
      <trkpt lat="45.33538" lon="4.50568">
        <ele>1207.239624</ele>
        <time>2011-03-05 15:03:41Z</time>
      </trkpt>
      <trkpt lat="45.33543" lon="4.50565">
        <ele>1207.264038</ele>
        <time>2011-03-05 15:03:45Z</time>
      </trkpt>
      <trkpt lat="45.33548" lon="4.50562">
        <ele>1207.406738</ele>
        <time>2011-03-05 15:03:49Z</time>
      </trkpt>
      <trkpt lat="45.33551" lon="4.50556">
        <ele>1207.336548</ele>
        <time>2011-03-05 15:03:53Z</time>
      </trkpt>
      <trkpt lat="45.33556" lon="4.50553">
        <ele>1207.330933</ele>
        <time>2011-03-05 15:03:57Z</time>
      </trkpt>
      <trkpt lat="45.3356" lon="4.5055">
        <ele>1207.337402</ele>
        <time>2011-03-05 15:04:01Z</time>
      </trkpt>
      <trkpt lat="45.33564" lon="4.50546">
        <ele>1207.34021</ele>
        <time>2011-03-05 15:04:05Z</time>
      </trkpt>
      <trkpt lat="45.33564" lon="4.50546">
        <ele>1207.370361</ele>
        <time>2011-03-05 15:04:09Z</time>
      </trkpt>
      <trkpt lat="45.33569" lon="4.50544">
        <ele>1207.393311</ele>
        <time>2011-03-05 15:04:13Z</time>
      </trkpt>
      <trkpt lat="45.33575" lon="4.50543">
        <ele>1207.42627</ele>
        <time>2011-03-05 15:04:17Z</time>
      </trkpt>
      <trkpt lat="45.3358" lon="4.50543">
        <ele>1207.450562</ele>
        <time>2011-03-05 15:04:21Z</time>
      </trkpt>
      <trkpt lat="45.33585" lon="4.50542">
        <ele>1207.48645</ele>
        <time>2011-03-05 15:04:25Z</time>
      </trkpt>
      <trkpt lat="45.33595" lon="4.50542">
        <ele>1207.523193</ele>
        <time>2011-03-05 15:04:29Z</time>
      </trkpt>
      <trkpt lat="45.336" lon="4.50542">
        <ele>1207.541748</ele>
        <time>2011-03-05 15:04:33Z</time>
      </trkpt>
      <trkpt lat="45.33605" lon="4.50542">
        <ele>1207.55542</ele>
        <time>2011-03-05 15:04:37Z</time>
      </trkpt>
      <trkpt lat="45.33605" lon="4.50542">
        <ele>1207.575439</ele>
        <time>2011-03-05 15:04:41Z</time>
      </trkpt>
      <trkpt lat="45.3361" lon="4.50542">
        <ele>1207.588013</ele>
        <time>2011-03-05 15:04:45Z</time>
      </trkpt>
      <trkpt lat="45.33615" lon="4.50543">
        <ele>1207.605469</ele>
        <time>2011-03-05 15:04:49Z</time>
      </trkpt>
      <trkpt lat="45.33615" lon="4.50543">
        <ele>1207.62793</ele>
        <time>2011-03-05 15:04:53Z</time>
      </trkpt>
      <trkpt lat="45.33615" lon="4.50543">
        <ele>1207.649658</ele>
        <time>2011-03-05 15:04:57Z</time>
      </trkpt>
      <trkpt lat="45.33619" lon="4.50544">
        <ele>1207.668213</ele>
        <time>2011-03-05 15:05:01Z</time>
      </trkpt>
      <trkpt lat="45.33619" lon="4.50544">
        <ele>1207.683716</ele>
        <time>2011-03-05 15:05:05Z</time>
      </trkpt>
      <trkpt lat="45.33624" lon="4.50546">
        <ele>1207.769775</ele>
        <time>2011-03-05 15:05:09Z</time>
      </trkpt>
      <trkpt lat="45.33629" lon="4.50548">
        <ele>1207.913818</ele>
        <time>2011-03-05 15:05:13Z</time>
      </trkpt>
      <trkpt lat="45.33633" lon="4.50551">
        <ele>1208.042236</ele>
        <time>2011-03-05 15:05:17Z</time>
      </trkpt>
      <trkpt lat="45.33638" lon="4.50553">
        <ele>1208.139282</ele>
        <time>2011-03-05 15:05:21Z</time>
      </trkpt>
      <trkpt lat="45.33643" lon="4.50554">
        <ele>1208.24646</ele>
        <time>2011-03-05 15:05:25Z</time>
      </trkpt>
      <trkpt lat="45.33648" lon="4.50555">
        <ele>1208.37854</ele>
        <time>2011-03-05 15:05:29Z</time>
      </trkpt>
      <trkpt lat="45.33654" lon="4.50554">
        <ele>1208.620605</ele>
        <time>2011-03-05 15:05:33Z</time>
      </trkpt>
      <trkpt lat="45.33659" lon="4.50554">
        <ele>1208.929688</ele>
        <time>2011-03-05 15:05:37Z</time>
      </trkpt>
      <trkpt lat="45.33664" lon="4.50553">
        <ele>1209.20459</ele>
        <time>2011-03-05 15:05:41Z</time>
      </trkpt>
      <trkpt lat="45.33669" lon="4.50552">
        <ele>1209.457153</ele>
        <time>2011-03-05 15:05:45Z</time>
      </trkpt>
      <trkpt lat="45.33674" lon="4.5055">
        <ele>1209.648438</ele>
        <time>2011-03-05 15:05:49Z</time>
      </trkpt>
      <trkpt lat="45.33679" lon="4.50548">
        <ele>1209.773071</ele>
        <time>2011-03-05 15:05:53Z</time>
      </trkpt>
      <trkpt lat="45.33683" lon="4.50546">
        <ele>1209.968384</ele>
        <time>2011-03-05 15:05:57Z</time>
      </trkpt>
      <trkpt lat="45.33687" lon="4.50544">
        <ele>1210.109375</ele>
        <time>2011-03-05 15:06:01Z</time>
      </trkpt>
      <trkpt lat="45.33687" lon="4.50544">
        <ele>1210.160034</ele>
        <time>2011-03-05 15:06:05Z</time>
      </trkpt>
      <trkpt lat="45.33693" lon="4.50542">
        <ele>1210.214966</ele>
        <time>2011-03-05 15:06:09Z</time>
      </trkpt>
      <trkpt lat="45.33698" lon="4.5054">
        <ele>1210.246948</ele>
        <time>2011-03-05 15:06:13Z</time>
      </trkpt>
      <trkpt lat="45.33702" lon="4.50538">
        <ele>1210.295898</ele>
        <time>2011-03-05 15:06:17Z</time>
      </trkpt>
      <trkpt lat="45.33706" lon="4.50536">
        <ele>1210.342896</ele>
        <time>2011-03-05 15:06:21Z</time>
      </trkpt>
      <trkpt lat="45.33711" lon="4.50532">
        <ele>1210.458618</ele>
        <time>2011-03-05 15:06:25Z</time>
      </trkpt>
      <trkpt lat="45.33715" lon="4.50529">
        <ele>1210.65918</ele>
        <time>2011-03-05 15:06:29Z</time>
      </trkpt>
      <trkpt lat="45.33719" lon="4.50525">
        <ele>1210.821777</ele>
        <time>2011-03-05 15:06:33Z</time>
      </trkpt>
      <trkpt lat="45.33723" lon="4.50519">
        <ele>1211.022583</ele>
        <time>2011-03-05 15:06:37Z</time>
      </trkpt>
      <trkpt lat="45.33726" lon="4.50516">
        <ele>1211.223022</ele>
        <time>2011-03-05 15:06:41Z</time>
      </trkpt>
      <trkpt lat="45.3373" lon="4.50512">
        <ele>1211.449707</ele>
        <time>2011-03-05 15:06:45Z</time>
      </trkpt>
      <trkpt lat="45.33735" lon="4.50508">
        <ele>1211.742676</ele>
        <time>2011-03-05 15:06:49Z</time>
      </trkpt>
      <trkpt lat="45.3374" lon="4.50506">
        <ele>1212.036011</ele>
        <time>2011-03-05 15:06:53Z</time>
      </trkpt>
      <trkpt lat="45.33744" lon="4.50505">
        <ele>1212.289429</ele>
        <time>2011-03-05 15:06:57Z</time>
      </trkpt>
      <trkpt lat="45.33748" lon="4.50505">
        <ele>1212.530029</ele>
        <time>2011-03-05 15:07:01Z</time>
      </trkpt>
      <trkpt lat="45.33753" lon="4.50507">
        <ele>1212.816284</ele>
        <time>2011-03-05 15:07:05Z</time>
      </trkpt>
      <trkpt lat="45.33758" lon="4.50508">
        <ele>1213.220947</ele>
        <time>2011-03-05 15:07:09Z</time>
      </trkpt>
      <trkpt lat="45.33762" lon="4.5051">
        <ele>1213.690308</ele>
        <time>2011-03-05 15:07:13Z</time>
      </trkpt>
      <trkpt lat="45.33765" lon="4.50513">
        <ele>1214.189209</ele>
        <time>2011-03-05 15:07:17Z</time>
      </trkpt>
      <trkpt lat="45.33768" lon="4.50516">
        <ele>1214.706299</ele>
        <time>2011-03-05 15:07:21Z</time>
      </trkpt>
      <trkpt lat="45.3377" lon="4.50522">
        <ele>1215.277588</ele>
        <time>2011-03-05 15:07:25Z</time>
      </trkpt>
      <trkpt lat="45.33773" lon="4.50526">
        <ele>1215.880615</ele>
        <time>2011-03-05 15:07:29Z</time>
      </trkpt>
      <trkpt lat="45.33776" lon="4.5053">
        <ele>1216.494507</ele>
        <time>2011-03-05 15:07:33Z</time>
      </trkpt>
      <trkpt lat="45.33778" lon="4.50535">
        <ele>1217.085693</ele>
        <time>2011-03-05 15:07:37Z</time>
      </trkpt>
      <trkpt lat="45.3378" lon="4.50541">
        <ele>1217.674072</ele>
        <time>2011-03-05 15:07:41Z</time>
      </trkpt>
      <trkpt lat="45.33781" lon="4.50546">
        <ele>1218.244141</ele>
        <time>2011-03-05 15:07:45Z</time>
      </trkpt>
      <trkpt lat="45.33782" lon="4.50552">
        <ele>1218.809692</ele>
        <time>2011-03-05 15:07:49Z</time>
      </trkpt>
      <trkpt lat="45.33783" lon="4.50558">
        <ele>1219.404785</ele>
        <time>2011-03-05 15:07:53Z</time>
      </trkpt>
      <trkpt lat="45.33785" lon="4.50563">
        <ele>1219.942749</ele>
        <time>2011-03-05 15:07:57Z</time>
      </trkpt>
      <trkpt lat="45.33786" lon="4.50567">
        <ele>1220.388916</ele>
        <time>2011-03-05 15:08:01Z</time>
      </trkpt>
      <trkpt lat="45.33788" lon="4.50571">
        <ele>1220.779785</ele>
        <time>2011-03-05 15:08:05Z</time>
      </trkpt>
      <trkpt lat="45.33792" lon="4.50572">
        <ele>1221.123901</ele>
        <time>2011-03-05 15:08:09Z</time>
      </trkpt>
      <trkpt lat="45.33792" lon="4.50573">
        <ele>1221.312622</ele>
        <time>2011-03-05 15:08:13Z</time>
      </trkpt>
      <trkpt lat="45.33793" lon="4.50578">
        <ele>1221.616577</ele>
        <time>2011-03-05 15:08:17Z</time>
      </trkpt>
      <trkpt lat="45.33796" lon="4.50583">
        <ele>1221.884888</ele>
        <time>2011-03-05 15:08:21Z</time>
      </trkpt>
      <trkpt lat="45.33798" lon="4.50588">
        <ele>1222.040039</ele>
        <time>2011-03-05 15:08:25Z</time>
      </trkpt>
      <trkpt lat="45.33799" lon="4.50594">
        <ele>1222.191772</ele>
        <time>2011-03-05 15:08:29Z</time>
      </trkpt>
      <trkpt lat="45.33799" lon="4.50594">
        <ele>1222.355591</ele>
        <time>2011-03-05 15:08:33Z</time>
      </trkpt>
      <trkpt lat="45.33801" lon="4.50601">
        <ele>1222.669556</ele>
        <time>2011-03-05 15:08:37Z</time>
      </trkpt>
      <trkpt lat="45.338" lon="4.50616">
        <ele>1223.095947</ele>
        <time>2011-03-05 15:08:41Z</time>
      </trkpt>
      <trkpt lat="45.338" lon="4.50616">
        <ele>1223.210938</ele>
        <time>2011-03-05 15:08:45Z</time>
      </trkpt>
      <trkpt lat="45.33799" lon="4.50623">
        <ele>1223.241943</ele>
        <time>2011-03-05 15:08:49Z</time>
      </trkpt>
      <trkpt lat="45.33799" lon="4.50623">
        <ele>1223.528809</ele>
        <time>2011-03-05 15:08:53Z</time>
      </trkpt>
      <trkpt lat="45.338" lon="4.5063">
        <ele>1223.563477</ele>
        <time>2011-03-05 15:08:57Z</time>
      </trkpt>
      <trkpt lat="45.338" lon="4.50637">
        <ele>1223.599487</ele>
        <time>2011-03-05 15:09:01Z</time>
      </trkpt>
      <trkpt lat="45.33799" lon="4.50645">
        <ele>1223.638916</ele>
        <time>2011-03-05 15:09:05Z</time>
      </trkpt>
      <trkpt lat="45.33796" lon="4.5066">
        <ele>1223.865967</ele>
        <time>2011-03-05 15:09:09Z</time>
      </trkpt>
      <trkpt lat="45.33795" lon="4.50668">
        <ele>1224.128662</ele>
        <time>2011-03-05 15:09:13Z</time>
      </trkpt>
      <trkpt lat="45.33795" lon="4.50668">
        <ele>1224.16394</ele>
        <time>2011-03-05 15:09:17Z</time>
      </trkpt>
      <trkpt lat="45.33796" lon="4.50675">
        <ele>1224.202271</ele>
        <time>2011-03-05 15:09:21Z</time>
      </trkpt>
      <trkpt lat="45.33798" lon="4.50682">
        <ele>1224.235596</ele>
        <time>2011-03-05 15:09:25Z</time>
      </trkpt>
      <trkpt lat="45.338" lon="4.50689">
        <ele>1224.561768</ele>
        <time>2011-03-05 15:09:29Z</time>
      </trkpt>
      <trkpt lat="45.33802" lon="4.50696">
        <ele>1224.865723</ele>
        <time>2011-03-05 15:09:33Z</time>
      </trkpt>
      <trkpt lat="45.33802" lon="4.50696">
        <ele>1225.137085</ele>
        <time>2011-03-05 15:09:37Z</time>
      </trkpt>
      <trkpt lat="45.33803" lon="4.50704">
        <ele>1225.379883</ele>
        <time>2011-03-05 15:09:41Z</time>
      </trkpt>
      <trkpt lat="45.33805" lon="4.5072">
        <ele>1225.836426</ele>
        <time>2011-03-05 15:09:45Z</time>
      </trkpt>
      <trkpt lat="45.33804" lon="4.50728">
        <ele>1226.515137</ele>
        <time>2011-03-05 15:09:49Z</time>
      </trkpt>
      <trkpt lat="45.33804" lon="4.50735">
        <ele>1227.293091</ele>
        <time>2011-03-05 15:09:53Z</time>
      </trkpt>
      <trkpt lat="45.33804" lon="4.5075">
        <ele>1228.273804</ele>
        <time>2011-03-05 15:09:57Z</time>
      </trkpt>
      <trkpt lat="45.33804" lon="4.50757">
        <ele>1229.166992</ele>
        <time>2011-03-05 15:10:01Z</time>
      </trkpt>
      <trkpt lat="45.33805" lon="4.50764">
        <ele>1230.183594</ele>
        <time>2011-03-05 15:10:05Z</time>
      </trkpt>
      <trkpt lat="45.33806" lon="4.50771">
        <ele>1231.277222</ele>
        <time>2011-03-05 15:10:09Z</time>
      </trkpt>
      <trkpt lat="45.33806" lon="4.50778">
        <ele>1232.619873</ele>
        <time>2011-03-05 15:10:13Z</time>
      </trkpt>
      <trkpt lat="45.33806" lon="4.50786">
        <ele>1234.038818</ele>
        <time>2011-03-05 15:10:17Z</time>
      </trkpt>
      <trkpt lat="45.33806" lon="4.50794">
        <ele>1235.380371</ele>
        <time>2011-03-05 15:10:21Z</time>
      </trkpt>
      <trkpt lat="45.33808" lon="4.50803">
        <ele>1236.641357</ele>
        <time>2011-03-05 15:10:25Z</time>
      </trkpt>
      <trkpt lat="45.33809" lon="4.50808">
        <ele>1237.878052</ele>
        <time>2011-03-05 15:10:29Z</time>
      </trkpt>
      <trkpt lat="45.33809" lon="4.50814">
        <ele>1239.118286</ele>
        <time>2011-03-05 15:10:33Z</time>
      </trkpt>
      <trkpt lat="45.33809" lon="4.50819">
        <ele>1240.261108</ele>
        <time>2011-03-05 15:10:37Z</time>
      </trkpt>
      <trkpt lat="45.3381" lon="4.50823">
        <ele>1241.213867</ele>
        <time>2011-03-05 15:10:41Z</time>
      </trkpt>
      <trkpt lat="45.33811" lon="4.50828">
        <ele>1242.061157</ele>
        <time>2011-03-05 15:10:45Z</time>
      </trkpt>
      <trkpt lat="45.33812" lon="4.50832">
        <ele>1242.82373</ele>
        <time>2011-03-05 15:10:49Z</time>
      </trkpt>
      <trkpt lat="45.33812" lon="4.50837">
        <ele>1243.42041</ele>
        <time>2011-03-05 15:10:53Z</time>
      </trkpt>
      <trkpt lat="45.33812" lon="4.50843">
        <ele>1243.932007</ele>
        <time>2011-03-05 15:10:57Z</time>
      </trkpt>
      <trkpt lat="45.33812" lon="4.50849">
        <ele>1244.418579</ele>
        <time>2011-03-05 15:11:01Z</time>
      </trkpt>
      <trkpt lat="45.33811" lon="4.50858">
        <ele>1244.865723</ele>
        <time>2011-03-05 15:11:05Z</time>
      </trkpt>
      <trkpt lat="45.3381" lon="4.50869">
        <ele>1245.223755</ele>
        <time>2011-03-05 15:11:09Z</time>
      </trkpt>
      <trkpt lat="45.33809" lon="4.50877">
        <ele>1245.550171</ele>
        <time>2011-03-05 15:11:13Z</time>
      </trkpt>
      <trkpt lat="45.33808" lon="4.50883">
        <ele>1245.862183</ele>
        <time>2011-03-05 15:11:17Z</time>
      </trkpt>
      <trkpt lat="45.33807" lon="4.50889">
        <ele>1246.1604</ele>
        <time>2011-03-05 15:11:21Z</time>
      </trkpt>
      <trkpt lat="45.33807" lon="4.50895">
        <ele>1246.494995</ele>
        <time>2011-03-05 15:11:25Z</time>
      </trkpt>
      <trkpt lat="45.33806" lon="4.50901">
        <ele>1246.876953</ele>
        <time>2011-03-05 15:11:29Z</time>
      </trkpt>
      <trkpt lat="45.33806" lon="4.50907">
        <ele>1247.186768</ele>
        <time>2011-03-05 15:11:33Z</time>
      </trkpt>
      <trkpt lat="45.33806" lon="4.50914">
        <ele>1247.437378</ele>
        <time>2011-03-05 15:11:37Z</time>
      </trkpt>
      <trkpt lat="45.33806" lon="4.50922">
        <ele>1247.611084</ele>
        <time>2011-03-05 15:11:41Z</time>
      </trkpt>
      <trkpt lat="45.33806" lon="4.50932">
        <ele>1247.688965</ele>
        <time>2011-03-05 15:11:45Z</time>
      </trkpt>
      <trkpt lat="45.33807" lon="4.50941">
        <ele>1247.565186</ele>
        <time>2011-03-05 15:11:49Z</time>
      </trkpt>
      <trkpt lat="45.33809" lon="4.5095">
        <ele>1247.29834</ele>
        <time>2011-03-05 15:11:53Z</time>
      </trkpt>
      <trkpt lat="45.3381" lon="4.50957">
        <ele>1247.028198</ele>
        <time>2011-03-05 15:11:57Z</time>
      </trkpt>
      <trkpt lat="45.33812" lon="4.50965">
        <ele>1246.742065</ele>
        <time>2011-03-05 15:12:01Z</time>
      </trkpt>
      <trkpt lat="45.33814" lon="4.50973">
        <ele>1246.340454</ele>
        <time>2011-03-05 15:12:05Z</time>
      </trkpt>
      <trkpt lat="45.33817" lon="4.50981">
        <ele>1245.955688</ele>
        <time>2011-03-05 15:12:09Z</time>
      </trkpt>
      <trkpt lat="45.3382" lon="4.50988">
        <ele>1245.675415</ele>
        <time>2011-03-05 15:12:13Z</time>
      </trkpt>
      <trkpt lat="45.33824" lon="4.50992">
        <ele>1245.45874</ele>
        <time>2011-03-05 15:12:17Z</time>
      </trkpt>
      <trkpt lat="45.33828" lon="4.50994">
        <ele>1245.28125</ele>
        <time>2011-03-05 15:12:21Z</time>
      </trkpt>
      <trkpt lat="45.33833" lon="4.50994">
        <ele>1245.130005</ele>
        <time>2011-03-05 15:12:25Z</time>
      </trkpt>
      <trkpt lat="45.33838" lon="4.50994">
        <ele>1245.125366</ele>
        <time>2011-03-05 15:12:29Z</time>
      </trkpt>
      <trkpt lat="45.33843" lon="4.50995">
        <ele>1245.21936</ele>
        <time>2011-03-05 15:12:33Z</time>
      </trkpt>
      <trkpt lat="45.33848" lon="4.50997">
        <ele>1245.509766</ele>
        <time>2011-03-05 15:12:37Z</time>
      </trkpt>
      <trkpt lat="45.33852" lon="4.51">
        <ele>1245.923462</ele>
        <time>2011-03-05 15:12:41Z</time>
      </trkpt>
      <trkpt lat="45.33857" lon="4.51003">
        <ele>1246.273682</ele>
        <time>2011-03-05 15:12:45Z</time>
      </trkpt>
      <trkpt lat="45.33862" lon="4.51005">
        <ele>1246.577515</ele>
        <time>2011-03-05 15:12:49Z</time>
      </trkpt>
      <trkpt lat="45.33866" lon="4.51007">
        <ele>1246.851929</ele>
        <time>2011-03-05 15:12:53Z</time>
      </trkpt>
      <trkpt lat="45.3387" lon="4.51009">
        <ele>1247.091919</ele>
        <time>2011-03-05 15:12:57Z</time>
      </trkpt>
      <trkpt lat="45.33875" lon="4.51012">
        <ele>1247.41333</ele>
        <time>2011-03-05 15:13:01Z</time>
      </trkpt>
      <trkpt lat="45.3388" lon="4.51015">
        <ele>1247.728271</ele>
        <time>2011-03-05 15:13:05Z</time>
      </trkpt>
      <trkpt lat="45.33884" lon="4.5102">
        <ele>1248.148926</ele>
        <time>2011-03-05 15:13:09Z</time>
      </trkpt>
      <trkpt lat="45.33887" lon="4.51023">
        <ele>1248.509155</ele>
        <time>2011-03-05 15:13:13Z</time>
      </trkpt>
      <trkpt lat="45.33889" lon="4.51025">
        <ele>1248.855225</ele>
        <time>2011-03-05 15:13:17Z</time>
      </trkpt>
      <trkpt lat="45.33892" lon="4.51027">
        <ele>1249.243042</ele>
        <time>2011-03-05 15:13:21Z</time>
      </trkpt>
      <trkpt lat="45.33892" lon="4.51027">
        <ele>1249.475342</ele>
        <time>2011-03-05 15:13:25Z</time>
      </trkpt>
      <trkpt lat="45.33896" lon="4.5103">
        <ele>1249.814453</ele>
        <time>2011-03-05 15:13:29Z</time>
      </trkpt>
      <trkpt lat="45.339" lon="4.51034">
        <ele>1250.381958</ele>
        <time>2011-03-05 15:13:33Z</time>
      </trkpt>
      <trkpt lat="45.33904" lon="4.51038">
        <ele>1250.966675</ele>
        <time>2011-03-05 15:13:37Z</time>
      </trkpt>
      <trkpt lat="45.33908" lon="4.51041">
        <ele>1251.469482</ele>
        <time>2011-03-05 15:13:41Z</time>
      </trkpt>
      <trkpt lat="45.33908" lon="4.51041">
        <ele>1251.792969</ele>
        <time>2011-03-05 15:13:45Z</time>
      </trkpt>
      <trkpt lat="45.33913" lon="4.51043">
        <ele>1251.907837</ele>
        <time>2011-03-05 15:13:49Z</time>
      </trkpt>
      <trkpt lat="45.33917" lon="4.51046">
        <ele>1252.110229</ele>
        <time>2011-03-05 15:13:53Z</time>
      </trkpt>
      <trkpt lat="45.33921" lon="4.51051">
        <ele>1252.160156</ele>
        <time>2011-03-05 15:13:57Z</time>
      </trkpt>
      <trkpt lat="45.33924" lon="4.51056">
        <ele>1252.354126</ele>
        <time>2011-03-05 15:14:01Z</time>
      </trkpt>
      <trkpt lat="45.33928" lon="4.51062">
        <ele>1252.92041</ele>
        <time>2011-03-05 15:14:05Z</time>
      </trkpt>
      <trkpt lat="45.33928" lon="4.51062">
        <ele>1253.499878</ele>
        <time>2011-03-05 15:14:09Z</time>
      </trkpt>
      <trkpt lat="45.3393" lon="4.51069">
        <ele>1254.024414</ele>
        <time>2011-03-05 15:14:13Z</time>
      </trkpt>
      <trkpt lat="45.33933" lon="4.51075">
        <ele>1254.579224</ele>
        <time>2011-03-05 15:14:17Z</time>
      </trkpt>
      <trkpt lat="45.33933" lon="4.51075">
        <ele>1254.763306</ele>
        <time>2011-03-05 15:14:21Z</time>
      </trkpt>
      <trkpt lat="45.33938" lon="4.51076">
        <ele>1255.080688</ele>
        <time>2011-03-05 15:14:25Z</time>
      </trkpt>
      <trkpt lat="45.33947" lon="4.51069">
        <ele>1255.501709</ele>
        <time>2011-03-05 15:14:29Z</time>
      </trkpt>
      <trkpt lat="45.33952" lon="4.51065">
        <ele>1255.826538</ele>
        <time>2011-03-05 15:14:33Z</time>
      </trkpt>
      <trkpt lat="45.33957" lon="4.51062">
        <ele>1256.051636</ele>
        <time>2011-03-05 15:14:37Z</time>
      </trkpt>
      <trkpt lat="45.33961" lon="4.51059">
        <ele>1256.068604</ele>
        <time>2011-03-05 15:14:41Z</time>
      </trkpt>
      <trkpt lat="45.33961" lon="4.51059">
        <ele>1256.137085</ele>
        <time>2011-03-05 15:14:45Z</time>
      </trkpt>
      <trkpt lat="45.33966" lon="4.51057">
        <ele>1256.421875</ele>
        <time>2011-03-05 15:14:49Z</time>
      </trkpt>
      <trkpt lat="45.33976" lon="4.51055">
        <ele>1256.74231</ele>
        <time>2011-03-05 15:14:53Z</time>
      </trkpt>
      <trkpt lat="45.33981" lon="4.51055">
        <ele>1257.043579</ele>
        <time>2011-03-05 15:14:57Z</time>
      </trkpt>
      <trkpt lat="45.33981" lon="4.51055">
        <ele>1257.323242</ele>
        <time>2011-03-05 15:15:01Z</time>
      </trkpt>
      <trkpt lat="45.33987" lon="4.51055">
        <ele>1257.64502</ele>
        <time>2011-03-05 15:15:05Z</time>
      </trkpt>
      <trkpt lat="45.33991" lon="4.51057">
        <ele>1258.015503</ele>
        <time>2011-03-05 15:15:09Z</time>
      </trkpt>
      <trkpt lat="45.33997" lon="4.5106">
        <ele>1258.359985</ele>
        <time>2011-03-05 15:15:13Z</time>
      </trkpt>
      <trkpt lat="45.34001" lon="4.51063">
        <ele>1258.732666</ele>
        <time>2011-03-05 15:15:17Z</time>
      </trkpt>
      <trkpt lat="45.34005" lon="4.51066">
        <ele>1259.065918</ele>
        <time>2011-03-05 15:15:21Z</time>
      </trkpt>
      <trkpt lat="45.3401" lon="4.51067">
        <ele>1259.371582</ele>
        <time>2011-03-05 15:15:25Z</time>
      </trkpt>
      <trkpt lat="45.34013" lon="4.5107">
        <ele>1259.652344</ele>
        <time>2011-03-05 15:15:29Z</time>
      </trkpt>
      <trkpt lat="45.34015" lon="4.51073">
        <ele>1259.898682</ele>
        <time>2011-03-05 15:15:33Z</time>
      </trkpt>
      <trkpt lat="45.34017" lon="4.5108">
        <ele>1260.222778</ele>
        <time>2011-03-05 15:15:37Z</time>
      </trkpt>
      <trkpt lat="45.34019" lon="4.51086">
        <ele>1260.531616</ele>
        <time>2011-03-05 15:15:41Z</time>
      </trkpt>
      <trkpt lat="45.34021" lon="4.51092">
        <ele>1260.813599</ele>
        <time>2011-03-05 15:15:45Z</time>
      </trkpt>
      <trkpt lat="45.34022" lon="4.51097">
        <ele>1261.00354</ele>
        <time>2011-03-05 15:15:49Z</time>
      </trkpt>
      <trkpt lat="45.34022" lon="4.51097">
        <ele>1261.024658</ele>
        <time>2011-03-05 15:15:53Z</time>
      </trkpt>
      <trkpt lat="45.34024" lon="4.51103">
        <ele>1261.236816</ele>
        <time>2011-03-05 15:15:57Z</time>
      </trkpt>
      <trkpt lat="45.34026" lon="4.51109">
        <ele>1261.376221</ele>
        <time>2011-03-05 15:16:01Z</time>
      </trkpt>
      <trkpt lat="45.34028" lon="4.51115">
        <ele>1261.477539</ele>
        <time>2011-03-05 15:16:05Z</time>
      </trkpt>
      <trkpt lat="45.34029" lon="4.51121">
        <ele>1261.557495</ele>
        <time>2011-03-05 15:16:09Z</time>
      </trkpt>
      <trkpt lat="45.34031" lon="4.51129">
        <ele>1261.622803</ele>
        <time>2011-03-05 15:16:13Z</time>
      </trkpt>
      <trkpt lat="45.34031" lon="4.51129">
        <ele>1261.739014</ele>
        <time>2011-03-05 15:16:17Z</time>
      </trkpt>
      <trkpt lat="45.34034" lon="4.5114">
        <ele>1261.897217</ele>
        <time>2011-03-05 15:16:21Z</time>
      </trkpt>
      <trkpt lat="45.34036" lon="4.51148">
        <ele>1261.988892</ele>
        <time>2011-03-05 15:16:25Z</time>
      </trkpt>
      <trkpt lat="45.34037" lon="4.51156">
        <ele>1262.161621</ele>
        <time>2011-03-05 15:16:29Z</time>
      </trkpt>
      <trkpt lat="45.34039" lon="4.51162">
        <ele>1262.370605</ele>
        <time>2011-03-05 15:16:33Z</time>
      </trkpt>
      <trkpt lat="45.34041" lon="4.51169">
        <ele>1262.616211</ele>
        <time>2011-03-05 15:16:37Z</time>
      </trkpt>
      <trkpt lat="45.34044" lon="4.51177">
        <ele>1262.863647</ele>
        <time>2011-03-05 15:16:41Z</time>
      </trkpt>
      <trkpt lat="45.34045" lon="4.51184">
        <ele>1263.076904</ele>
        <time>2011-03-05 15:16:45Z</time>
      </trkpt>
      <trkpt lat="45.34048" lon="4.51189">
        <ele>1263.249268</ele>
        <time>2011-03-05 15:16:49Z</time>
      </trkpt>
      <trkpt lat="45.3405" lon="4.51195">
        <ele>1263.408447</ele>
        <time>2011-03-05 15:16:53Z</time>
      </trkpt>
      <trkpt lat="45.34052" lon="4.512">
        <ele>1263.515503</ele>
        <time>2011-03-05 15:16:57Z</time>
      </trkpt>
      <trkpt lat="45.34055" lon="4.51205">
        <ele>1263.560303</ele>
        <time>2011-03-05 15:17:01Z</time>
      </trkpt>
      <trkpt lat="45.34057" lon="4.5121">
        <ele>1263.621094</ele>
        <time>2011-03-05 15:17:05Z</time>
      </trkpt>
      <trkpt lat="45.34058" lon="4.51218">
        <ele>1263.692505</ele>
        <time>2011-03-05 15:17:09Z</time>
      </trkpt>
      <trkpt lat="45.3406" lon="4.51227">
        <ele>1263.809937</ele>
        <time>2011-03-05 15:17:13Z</time>
      </trkpt>
      <trkpt lat="45.34061" lon="4.51235">
        <ele>1263.976196</ele>
        <time>2011-03-05 15:17:17Z</time>
      </trkpt>
      <trkpt lat="45.34063" lon="4.51241">
        <ele>1264.132812</ele>
        <time>2011-03-05 15:17:21Z</time>
      </trkpt>
      <trkpt lat="45.34064" lon="4.51245">
        <ele>1264.246582</ele>
        <time>2011-03-05 15:17:25Z</time>
      </trkpt>
      <trkpt lat="45.34066" lon="4.51249">
        <ele>1264.309082</ele>
        <time>2011-03-05 15:17:29Z</time>
      </trkpt>
      <trkpt lat="45.34069" lon="4.51252">
        <ele>1264.386108</ele>
        <time>2011-03-05 15:17:33Z</time>
      </trkpt>
      <trkpt lat="45.34072" lon="4.51256">
        <ele>1264.453003</ele>
        <time>2011-03-05 15:17:37Z</time>
      </trkpt>
      <trkpt lat="45.34076" lon="4.51264">
        <ele>1264.405518</ele>
        <time>2011-03-05 15:17:41Z</time>
      </trkpt>
      <trkpt lat="45.34082" lon="4.51273">
        <ele>1264.523804</ele>
        <time>2011-03-05 15:17:45Z</time>
      </trkpt>
      <trkpt lat="45.34086" lon="4.5128">
        <ele>1264.79187</ele>
        <time>2011-03-05 15:17:49Z</time>
      </trkpt>
      <trkpt lat="45.34089" lon="4.51287">
        <ele>1265.06189</ele>
        <time>2011-03-05 15:17:53Z</time>
      </trkpt>
      <trkpt lat="45.34093" lon="4.51292">
        <ele>1265.334106</ele>
        <time>2011-03-05 15:17:57Z</time>
      </trkpt>
      <trkpt lat="45.34097" lon="4.51298">
        <ele>1265.702881</ele>
        <time>2011-03-05 15:18:01Z</time>
      </trkpt>
      <trkpt lat="45.341" lon="4.51304">
        <ele>1266.100708</ele>
        <time>2011-03-05 15:18:05Z</time>
      </trkpt>
      <trkpt lat="45.34103" lon="4.51309">
        <ele>1266.446289</ele>
        <time>2011-03-05 15:18:09Z</time>
      </trkpt>
      <trkpt lat="45.34105" lon="4.5132">
        <ele>1266.939331</ele>
        <time>2011-03-05 15:18:13Z</time>
      </trkpt>
      <trkpt lat="45.34107" lon="4.51331">
        <ele>1267.281616</ele>
        <time>2011-03-05 15:18:17Z</time>
      </trkpt>
      <trkpt lat="45.3411" lon="4.5134">
        <ele>1267.50293</ele>
        <time>2011-03-05 15:18:21Z</time>
      </trkpt>
      <trkpt lat="45.34113" lon="4.51348">
        <ele>1267.724243</ele>
        <time>2011-03-05 15:18:25Z</time>
      </trkpt>
      <trkpt lat="45.34116" lon="4.51356">
        <ele>1267.883179</ele>
        <time>2011-03-05 15:18:29Z</time>
      </trkpt>
      <trkpt lat="45.34118" lon="4.51361">
        <ele>1267.97644</ele>
        <time>2011-03-05 15:18:33Z</time>
      </trkpt>
      <trkpt lat="45.34121" lon="4.51367">
        <ele>1267.983398</ele>
        <time>2011-03-05 15:18:37Z</time>
      </trkpt>
      <trkpt lat="45.34125" lon="4.51372">
        <ele>1267.930176</ele>
        <time>2011-03-05 15:18:41Z</time>
      </trkpt>
      <trkpt lat="45.34127" lon="4.51378">
        <ele>1267.871948</ele>
        <time>2011-03-05 15:18:45Z</time>
      </trkpt>
      <trkpt lat="45.3413" lon="4.51384">
        <ele>1267.849487</ele>
        <time>2011-03-05 15:18:49Z</time>
      </trkpt>
      <trkpt lat="45.34132" lon="4.51391">
        <ele>1267.962402</ele>
        <time>2011-03-05 15:18:53Z</time>
      </trkpt>
      <trkpt lat="45.34135" lon="4.51396">
        <ele>1268.104492</ele>
        <time>2011-03-05 15:18:57Z</time>
      </trkpt>
      <trkpt lat="45.34137" lon="4.51405">
        <ele>1268.483643</ele>
        <time>2011-03-05 15:19:01Z</time>
      </trkpt>
      <trkpt lat="45.3414" lon="4.51413">
        <ele>1268.820801</ele>
        <time>2011-03-05 15:19:05Z</time>
      </trkpt>
      <trkpt lat="45.34142" lon="4.51418">
        <ele>1269.051392</ele>
        <time>2011-03-05 15:19:09Z</time>
      </trkpt>
      <trkpt lat="45.34145" lon="4.51423">
        <ele>1269.270996</ele>
        <time>2011-03-05 15:19:13Z</time>
      </trkpt>
      <trkpt lat="45.34149" lon="4.51428">
        <ele>1269.568604</ele>
        <time>2011-03-05 15:19:17Z</time>
      </trkpt>
      <trkpt lat="45.34152" lon="4.51436">
        <ele>1270.195557</ele>
        <time>2011-03-05 15:19:21Z</time>
      </trkpt>
      <trkpt lat="45.34153" lon="4.51444">
        <ele>1270.806152</ele>
        <time>2011-03-05 15:19:25Z</time>
      </trkpt>
      <trkpt lat="45.34155" lon="4.51448">
        <ele>1271.404663</ele>
        <time>2011-03-05 15:19:29Z</time>
      </trkpt>
      <trkpt lat="45.34157" lon="4.51454">
        <ele>1271.961304</ele>
        <time>2011-03-05 15:19:33Z</time>
      </trkpt>
      <trkpt lat="45.34157" lon="4.51454">
        <ele>1272.341797</ele>
        <time>2011-03-05 15:19:37Z</time>
      </trkpt>
      <trkpt lat="45.34159" lon="4.5146">
        <ele>1272.589478</ele>
        <time>2011-03-05 15:19:41Z</time>
      </trkpt>
      <trkpt lat="45.3416" lon="4.51467">
        <ele>1272.846436</ele>
        <time>2011-03-05 15:19:45Z</time>
      </trkpt>
      <trkpt lat="45.3416" lon="4.51467">
        <ele>1273.10791</ele>
        <time>2011-03-05 15:19:49Z</time>
      </trkpt>
      <trkpt lat="45.34163" lon="4.51473">
        <ele>1273.320801</ele>
        <time>2011-03-05 15:19:53Z</time>
      </trkpt>
      <trkpt lat="45.34163" lon="4.51489">
        <ele>1273.682617</ele>
        <time>2011-03-05 15:19:57Z</time>
      </trkpt>
      <trkpt lat="45.34162" lon="4.51497">
        <ele>1273.958496</ele>
        <time>2011-03-05 15:20:01Z</time>
      </trkpt>
      <trkpt lat="45.34162" lon="4.51504">
        <ele>1274.325806</ele>
        <time>2011-03-05 15:20:05Z</time>
      </trkpt>
      <trkpt lat="45.34165" lon="4.51518">
        <ele>1274.729614</ele>
        <time>2011-03-05 15:20:09Z</time>
      </trkpt>
      <trkpt lat="45.34167" lon="4.51525">
        <ele>1275.130493</ele>
        <time>2011-03-05 15:20:13Z</time>
      </trkpt>
      <trkpt lat="45.34169" lon="4.51532">
        <ele>1275.482178</ele>
        <time>2011-03-05 15:20:17Z</time>
      </trkpt>
      <trkpt lat="45.34173" lon="4.51537">
        <ele>1275.761963</ele>
        <time>2011-03-05 15:20:21Z</time>
      </trkpt>
      <trkpt lat="45.34177" lon="4.51543">
        <ele>1276.030884</ele>
        <time>2011-03-05 15:20:25Z</time>
      </trkpt>
      <trkpt lat="45.3418" lon="4.51548">
        <ele>1275.985718</ele>
        <time>2011-03-05 15:20:29Z</time>
      </trkpt>
      <trkpt lat="45.34184" lon="4.51554">
        <ele>1275.829468</ele>
        <time>2011-03-05 15:20:33Z</time>
      </trkpt>
      <trkpt lat="45.34187" lon="4.5156">
        <ele>1275.682495</ele>
        <time>2011-03-05 15:20:37Z</time>
      </trkpt>
      <trkpt lat="45.34189" lon="4.51566">
        <ele>1275.550537</ele>
        <time>2011-03-05 15:20:41Z</time>
      </trkpt>
      <trkpt lat="45.34192" lon="4.51573">
        <ele>1275.461914</ele>
        <time>2011-03-05 15:20:45Z</time>
      </trkpt>
      <trkpt lat="45.34195" lon="4.51579">
        <ele>1275.262817</ele>
        <time>2011-03-05 15:20:49Z</time>
      </trkpt>
      <trkpt lat="45.34198" lon="4.51583">
        <ele>1274.991333</ele>
        <time>2011-03-05 15:20:53Z</time>
      </trkpt>
      <trkpt lat="45.34201" lon="4.5159">
        <ele>1274.502441</ele>
        <time>2011-03-05 15:20:57Z</time>
      </trkpt>
      <trkpt lat="45.34203" lon="4.51595">
        <ele>1273.936768</ele>
        <time>2011-03-05 15:21:01Z</time>
      </trkpt>
      <trkpt lat="45.34206" lon="4.51601">
        <ele>1273.381958</ele>
        <time>2011-03-05 15:21:05Z</time>
      </trkpt>
      <trkpt lat="45.34208" lon="4.51606">
        <ele>1272.866333</ele>
        <time>2011-03-05 15:21:09Z</time>
      </trkpt>
      <trkpt lat="45.34211" lon="4.51615">
        <ele>1272.753784</ele>
        <time>2011-03-05 15:21:13Z</time>
      </trkpt>
      <trkpt lat="45.34213" lon="4.51626">
        <ele>1272.736816</ele>
        <time>2011-03-05 15:21:17Z</time>
      </trkpt>
      <trkpt lat="45.34214" lon="4.51636">
        <ele>1272.804688</ele>
        <time>2011-03-05 15:21:21Z</time>
      </trkpt>
      <trkpt lat="45.34217" lon="4.51643">
        <ele>1272.879883</ele>
        <time>2011-03-05 15:21:25Z</time>
      </trkpt>
      <trkpt lat="45.34219" lon="4.51648">
        <ele>1273.014893</ele>
        <time>2011-03-05 15:21:29Z</time>
      </trkpt>
      <trkpt lat="45.34221" lon="4.51656">
        <ele>1273.407593</ele>
        <time>2011-03-05 15:21:33Z</time>
      </trkpt>
      <trkpt lat="45.34221" lon="4.51656">
        <ele>1273.796997</ele>
        <time>2011-03-05 15:21:37Z</time>
      </trkpt>
      <trkpt lat="45.34221" lon="4.51663">
        <ele>1274.091187</ele>
        <time>2011-03-05 15:21:41Z</time>
      </trkpt>
      <trkpt lat="45.34223" lon="4.51671">
        <ele>1274.206665</ele>
        <time>2011-03-05 15:21:45Z</time>
      </trkpt>
      <trkpt lat="45.34223" lon="4.51671">
        <ele>1274.348877</ele>
        <time>2011-03-05 15:21:49Z</time>
      </trkpt>
      <trkpt lat="45.34225" lon="4.51677">
        <ele>1274.39209</ele>
        <time>2011-03-05 15:21:53Z</time>
      </trkpt>
      <trkpt lat="45.34226" lon="4.51683">
        <ele>1274.495728</ele>
        <time>2011-03-05 15:21:57Z</time>
      </trkpt>
      <trkpt lat="45.34227" lon="4.51691">
        <ele>1274.641479</ele>
        <time>2011-03-05 15:22:01Z</time>
      </trkpt>
      <trkpt lat="45.34229" lon="4.51697">
        <ele>1274.696655</ele>
        <time>2011-03-05 15:22:05Z</time>
      </trkpt>
      <trkpt lat="45.34229" lon="4.51697">
        <ele>1274.710938</ele>
        <time>2011-03-05 15:22:09Z</time>
      </trkpt>
      <trkpt lat="45.34229" lon="4.51706">
        <ele>1274.808838</ele>
        <time>2011-03-05 15:22:13Z</time>
      </trkpt>
      <trkpt lat="45.34227" lon="4.5172">
        <ele>1274.849487</ele>
        <time>2011-03-05 15:22:17Z</time>
      </trkpt>
      <trkpt lat="45.34228" lon="4.51727">
        <ele>1275.283936</ele>
        <time>2011-03-05 15:22:21Z</time>
      </trkpt>
      <trkpt lat="45.3423" lon="4.51734">
        <ele>1275.283691</ele>
        <time>2011-03-05 15:22:25Z</time>
      </trkpt>
      <trkpt lat="45.34232" lon="4.5174">
        <ele>1275.246582</ele>
        <time>2011-03-05 15:22:29Z</time>
      </trkpt>
      <trkpt lat="45.34234" lon="4.51746">
        <ele>1275.281982</ele>
        <time>2011-03-05 15:22:33Z</time>
      </trkpt>
      <trkpt lat="45.34236" lon="4.51752">
        <ele>1275.376587</ele>
        <time>2011-03-05 15:22:37Z</time>
      </trkpt>
      <trkpt lat="45.34239" lon="4.51759">
        <ele>1275.552979</ele>
        <time>2011-03-05 15:22:41Z</time>
      </trkpt>
      <trkpt lat="45.34242" lon="4.51766">
        <ele>1275.743896</ele>
        <time>2011-03-05 15:22:45Z</time>
      </trkpt>
      <trkpt lat="45.34243" lon="4.51774">
        <ele>1275.953369</ele>
        <time>2011-03-05 15:22:49Z</time>
      </trkpt>
      <trkpt lat="45.34243" lon="4.51774">
        <ele>1275.969116</ele>
        <time>2011-03-05 15:22:53Z</time>
      </trkpt>
      <trkpt lat="45.34245" lon="4.5178">
        <ele>1275.92688</ele>
        <time>2011-03-05 15:22:57Z</time>
      </trkpt>
      <trkpt lat="45.34245" lon="4.5178">
        <ele>1275.884521</ele>
        <time>2011-03-05 15:23:01Z</time>
      </trkpt>
      <trkpt lat="45.34246" lon="4.51787">
        <ele>1275.807861</ele>
        <time>2011-03-05 15:23:05Z</time>
      </trkpt>
      <trkpt lat="45.34248" lon="4.51793">
        <ele>1275.768799</ele>
        <time>2011-03-05 15:23:09Z</time>
      </trkpt>
      <trkpt lat="45.34248" lon="4.51793">
        <ele>1275.750488</ele>
        <time>2011-03-05 15:23:13Z</time>
      </trkpt>
      <trkpt lat="45.34255" lon="4.51802">
        <ele>1275.662109</ele>
        <time>2011-03-05 15:23:17Z</time>
      </trkpt>
      <trkpt lat="45.34258" lon="4.51806">
        <ele>1275.606445</ele>
        <time>2011-03-05 15:23:21Z</time>
      </trkpt>
      <trkpt lat="45.34258" lon="4.51806">
        <ele>1275.61084</ele>
        <time>2011-03-05 15:23:25Z</time>
      </trkpt>
      <trkpt lat="45.34261" lon="4.51812">
        <ele>1275.61792</ele>
        <time>2011-03-05 15:23:29Z</time>
      </trkpt>
      <trkpt lat="45.3427" lon="4.5182">
        <ele>1275.68042</ele>
        <time>2011-03-05 15:23:33Z</time>
      </trkpt>
      <trkpt lat="45.34273" lon="4.51824">
        <ele>1275.750366</ele>
        <time>2011-03-05 15:23:37Z</time>
      </trkpt>
      <trkpt lat="45.34276" lon="4.51829">
        <ele>1275.811646</ele>
        <time>2011-03-05 15:23:41Z</time>
      </trkpt>
      <trkpt lat="45.34279" lon="4.51835">
        <ele>1275.861816</ele>
        <time>2011-03-05 15:23:45Z</time>
      </trkpt>
      <trkpt lat="45.34279" lon="4.51835">
        <ele>1275.781738</ele>
        <time>2011-03-05 15:23:49Z</time>
      </trkpt>
      <trkpt lat="45.34288" lon="4.51843">
        <ele>1275.74939</ele>
        <time>2011-03-05 15:23:53Z</time>
      </trkpt>
      <trkpt lat="45.34292" lon="4.51845">
        <ele>1275.75647</ele>
        <time>2011-03-05 15:23:57Z</time>
      </trkpt>
      <trkpt lat="45.34297" lon="4.51849">
        <ele>1275.819214</ele>
        <time>2011-03-05 15:24:01Z</time>
      </trkpt>
      <trkpt lat="45.343" lon="4.51854">
        <ele>1275.948975</ele>
        <time>2011-03-05 15:24:05Z</time>
      </trkpt>
      <trkpt lat="45.34304" lon="4.51858">
        <ele>1276.031738</ele>
        <time>2011-03-05 15:24:09Z</time>
      </trkpt>
      <trkpt lat="45.34308" lon="4.51863">
        <ele>1276.093506</ele>
        <time>2011-03-05 15:24:13Z</time>
      </trkpt>
      <trkpt lat="45.34308" lon="4.51863">
        <ele>1276.16333</ele>
        <time>2011-03-05 15:24:17Z</time>
      </trkpt>
      <trkpt lat="45.34312" lon="4.51868">
        <ele>1276.277222</ele>
        <time>2011-03-05 15:24:21Z</time>
      </trkpt>
      <trkpt lat="45.34313" lon="4.51875">
        <ele>1276.603271</ele>
        <time>2011-03-05 15:24:25Z</time>
      </trkpt>
      <trkpt lat="45.34321" lon="4.51885">
        <ele>1276.831055</ele>
        <time>2011-03-05 15:24:29Z</time>
      </trkpt>
      <trkpt lat="45.34327" lon="4.51889">
        <ele>1276.851318</ele>
        <time>2011-03-05 15:24:33Z</time>
      </trkpt>
      <trkpt lat="45.34332" lon="4.51893">
        <ele>1276.836914</ele>
        <time>2011-03-05 15:24:37Z</time>
      </trkpt>
      <trkpt lat="45.34336" lon="4.51896">
        <ele>1276.915771</ele>
        <time>2011-03-05 15:24:41Z</time>
      </trkpt>
      <trkpt lat="45.3434" lon="4.51902">
        <ele>1277.126953</ele>
        <time>2011-03-05 15:24:45Z</time>
      </trkpt>
      <trkpt lat="45.34344" lon="4.51907">
        <ele>1277.495483</ele>
        <time>2011-03-05 15:24:49Z</time>
      </trkpt>
      <trkpt lat="45.34347" lon="4.51914">
        <ele>1278.067261</ele>
        <time>2011-03-05 15:24:53Z</time>
      </trkpt>
      <trkpt lat="45.34347" lon="4.51921">
        <ele>1278.121338</ele>
        <time>2011-03-05 15:24:57Z</time>
      </trkpt>
      <trkpt lat="45.34348" lon="4.51927">
        <ele>1278.344604</ele>
        <time>2011-03-05 15:25:01Z</time>
      </trkpt>
      <trkpt lat="45.34348" lon="4.51927">
        <ele>1278.792725</ele>
        <time>2011-03-05 15:25:05Z</time>
      </trkpt>
      <trkpt lat="45.3435" lon="4.51933">
        <ele>1279.25708</ele>
        <time>2011-03-05 15:25:09Z</time>
      </trkpt>
      <trkpt lat="45.34353" lon="4.51939">
        <ele>1279.56311</ele>
        <time>2011-03-05 15:25:13Z</time>
      </trkpt>
      <trkpt lat="45.34355" lon="4.51945">
        <ele>1279.858887</ele>
        <time>2011-03-05 15:25:17Z</time>
      </trkpt>
      <trkpt lat="45.34356" lon="4.51952">
        <ele>1280.073975</ele>
        <time>2011-03-05 15:25:21Z</time>
      </trkpt>
      <trkpt lat="45.34358" lon="4.51959">
        <ele>1280.312866</ele>
        <time>2011-03-05 15:25:25Z</time>
      </trkpt>
      <trkpt lat="45.3436" lon="4.51967">
        <ele>1280.610962</ele>
        <time>2011-03-05 15:25:29Z</time>
      </trkpt>
      <trkpt lat="45.34361" lon="4.51973">
        <ele>1280.998535</ele>
        <time>2011-03-05 15:25:33Z</time>
      </trkpt>
      <trkpt lat="45.34362" lon="4.5198">
        <ele>1281.535278</ele>
        <time>2011-03-05 15:25:37Z</time>
      </trkpt>
      <trkpt lat="45.34362" lon="4.51987">
        <ele>1282.017212</ele>
        <time>2011-03-05 15:25:41Z</time>
      </trkpt>
      <trkpt lat="45.34363" lon="4.51994">
        <ele>1282.433228</ele>
        <time>2011-03-05 15:25:45Z</time>
      </trkpt>
      <trkpt lat="45.34363" lon="4.51994">
        <ele>1282.800049</ele>
        <time>2011-03-05 15:25:49Z</time>
      </trkpt>
      <trkpt lat="45.34364" lon="4.52002">
        <ele>1283.04834</ele>
        <time>2011-03-05 15:25:53Z</time>
      </trkpt>
      <trkpt lat="45.34364" lon="4.52009">
        <ele>1283.256104</ele>
        <time>2011-03-05 15:25:57Z</time>
      </trkpt>
      <trkpt lat="45.34364" lon="4.52017">
        <ele>1283.477783</ele>
        <time>2011-03-05 15:26:01Z</time>
      </trkpt>
      <trkpt lat="45.34365" lon="4.52024">
        <ele>1283.738403</ele>
        <time>2011-03-05 15:26:05Z</time>
      </trkpt>
      <trkpt lat="45.34364" lon="4.52034">
        <ele>1284.197021</ele>
        <time>2011-03-05 15:26:09Z</time>
      </trkpt>
      <trkpt lat="45.34364" lon="4.52041">
        <ele>1284.588013</ele>
        <time>2011-03-05 15:26:13Z</time>
      </trkpt>
      <trkpt lat="45.34366" lon="4.52047">
        <ele>1284.942627</ele>
        <time>2011-03-05 15:26:17Z</time>
      </trkpt>
      <trkpt lat="45.34368" lon="4.52054">
        <ele>1285.450195</ele>
        <time>2011-03-05 15:26:21Z</time>
      </trkpt>
      <trkpt lat="45.34371" lon="4.52059">
        <ele>1285.850342</ele>
        <time>2011-03-05 15:26:25Z</time>
      </trkpt>
      <trkpt lat="45.34371" lon="4.52059">
        <ele>1285.90271</ele>
        <time>2011-03-05 15:26:29Z</time>
      </trkpt>
      <trkpt lat="45.34374" lon="4.52065">
        <ele>1286.254761</ele>
        <time>2011-03-05 15:26:33Z</time>
      </trkpt>
      <trkpt lat="45.34376" lon="4.52071">
        <ele>1286.816284</ele>
        <time>2011-03-05 15:26:37Z</time>
      </trkpt>
      <trkpt lat="45.34376" lon="4.52078">
        <ele>1287.345459</ele>
        <time>2011-03-05 15:26:41Z</time>
      </trkpt>
      <trkpt lat="45.34379" lon="4.52083">
        <ele>1287.387695</ele>
        <time>2011-03-05 15:26:45Z</time>
      </trkpt>
      <trkpt lat="45.34384" lon="4.52087">
        <ele>1287.411621</ele>
        <time>2011-03-05 15:26:49Z</time>
      </trkpt>
      <trkpt lat="45.34384" lon="4.52087">
        <ele>1287.418579</ele>
        <time>2011-03-05 15:26:53Z</time>
      </trkpt>
      <trkpt lat="45.34389" lon="4.52101">
        <ele>1287.427246</ele>
        <time>2011-03-05 15:26:57Z</time>
      </trkpt>
      <trkpt lat="45.34392" lon="4.52107">
        <ele>1287.627808</ele>
        <time>2011-03-05 15:27:01Z</time>
      </trkpt>
      <trkpt lat="45.34395" lon="4.52113">
        <ele>1287.852783</ele>
        <time>2011-03-05 15:27:05Z</time>
      </trkpt>
      <trkpt lat="45.34399" lon="4.52118">
        <ele>1288.039673</ele>
        <time>2011-03-05 15:27:09Z</time>
      </trkpt>
      <trkpt lat="45.34403" lon="4.52123">
        <ele>1288.232788</ele>
        <time>2011-03-05 15:27:13Z</time>
      </trkpt>
      <trkpt lat="45.34406" lon="4.52128">
        <ele>1288.395996</ele>
        <time>2011-03-05 15:27:17Z</time>
      </trkpt>
      <trkpt lat="45.34409" lon="4.52133">
        <ele>1288.495605</ele>
        <time>2011-03-05 15:27:21Z</time>
      </trkpt>
      <trkpt lat="45.3441" lon="4.52142">
        <ele>1288.719849</ele>
        <time>2011-03-05 15:27:25Z</time>
      </trkpt>
      <trkpt lat="45.34409" lon="4.52149">
        <ele>1289.158325</ele>
        <time>2011-03-05 15:27:29Z</time>
      </trkpt>
      <trkpt lat="45.34409" lon="4.52165">
        <ele>1289.601807</ele>
        <time>2011-03-05 15:27:33Z</time>
      </trkpt>
      <trkpt lat="45.34412" lon="4.52171">
        <ele>1289.822144</ele>
        <time>2011-03-05 15:27:37Z</time>
      </trkpt>
      <trkpt lat="45.34416" lon="4.52176">
        <ele>1289.843872</ele>
        <time>2011-03-05 15:27:41Z</time>
      </trkpt>
      <trkpt lat="45.34416" lon="4.52176">
        <ele>1290.049927</ele>
        <time>2011-03-05 15:27:45Z</time>
      </trkpt>
      <trkpt lat="45.3442" lon="4.52181">
        <ele>1290.294678</ele>
        <time>2011-03-05 15:27:49Z</time>
      </trkpt>
      <trkpt lat="45.34428" lon="4.52191">
        <ele>1290.510376</ele>
        <time>2011-03-05 15:27:53Z</time>
      </trkpt>
      <trkpt lat="45.34433" lon="4.52195">
        <ele>1290.693237</ele>
        <time>2011-03-05 15:27:57Z</time>
      </trkpt>
      <trkpt lat="45.34438" lon="4.52198">
        <ele>1290.836304</ele>
        <time>2011-03-05 15:28:01Z</time>
      </trkpt>
      <trkpt lat="45.34444" lon="4.522">
        <ele>1291.063232</ele>
        <time>2011-03-05 15:28:05Z</time>
      </trkpt>
      <trkpt lat="45.34454" lon="4.52202">
        <ele>1291.283936</ele>
        <time>2011-03-05 15:28:09Z</time>
      </trkpt>
      <trkpt lat="45.34459" lon="4.52204">
        <ele>1291.490723</ele>
        <time>2011-03-05 15:28:13Z</time>
      </trkpt>
      <trkpt lat="45.34459" lon="4.52204">
        <ele>1291.629761</ele>
        <time>2011-03-05 15:28:17Z</time>
      </trkpt>
      <trkpt lat="45.34465" lon="4.52206">
        <ele>1291.680664</ele>
        <time>2011-03-05 15:28:21Z</time>
      </trkpt>
      <trkpt lat="45.3447" lon="4.52209">
        <ele>1291.689453</ele>
        <time>2011-03-05 15:28:25Z</time>
      </trkpt>
      <trkpt lat="45.34473" lon="4.52214">
        <ele>1291.555298</ele>
        <time>2011-03-05 15:28:29Z</time>
      </trkpt>
      <trkpt lat="45.34475" lon="4.52222">
        <ele>1291.422119</ele>
        <time>2011-03-05 15:28:33Z</time>
      </trkpt>
      <trkpt lat="45.34477" lon="4.52229">
        <ele>1291.325195</ele>
        <time>2011-03-05 15:28:37Z</time>
      </trkpt>
      <trkpt lat="45.3448" lon="4.52234">
        <ele>1291.344971</ele>
        <time>2011-03-05 15:28:41Z</time>
      </trkpt>
      <trkpt lat="45.34482" lon="4.5224">
        <ele>1291.589111</ele>
        <time>2011-03-05 15:28:45Z</time>
      </trkpt>
      <trkpt lat="45.34482" lon="4.52248">
        <ele>1291.836182</ele>
        <time>2011-03-05 15:28:49Z</time>
      </trkpt>
      <trkpt lat="45.34482" lon="4.52256">
        <ele>1292.054443</ele>
        <time>2011-03-05 15:28:53Z</time>
      </trkpt>
      <trkpt lat="45.34482" lon="4.52264">
        <ele>1292.286743</ele>
        <time>2011-03-05 15:28:57Z</time>
      </trkpt>
      <trkpt lat="45.34483" lon="4.52271">
        <ele>1292.520508</ele>
        <time>2011-03-05 15:29:01Z</time>
      </trkpt>
      <trkpt lat="45.34485" lon="4.52278">
        <ele>1292.696533</ele>
        <time>2011-03-05 15:29:05Z</time>
      </trkpt>
      <trkpt lat="45.34486" lon="4.52285">
        <ele>1292.926514</ele>
        <time>2011-03-05 15:29:09Z</time>
      </trkpt>
      <trkpt lat="45.34487" lon="4.52298">
        <ele>1293.063477</ele>
        <time>2011-03-05 15:29:13Z</time>
      </trkpt>
      <trkpt lat="45.34487" lon="4.52305">
        <ele>1293.132568</ele>
        <time>2011-03-05 15:29:17Z</time>
      </trkpt>
      <trkpt lat="45.34489" lon="4.52316">
        <ele>1293.179077</ele>
        <time>2011-03-05 15:29:21Z</time>
      </trkpt>
      <trkpt lat="45.34489" lon="4.52328">
        <ele>1293.302246</ele>
        <time>2011-03-05 15:29:25Z</time>
      </trkpt>
      <trkpt lat="45.34489" lon="4.52339">
        <ele>1293.571411</ele>
        <time>2011-03-05 15:29:29Z</time>
      </trkpt>
      <trkpt lat="45.34488" lon="4.52343">
        <ele>1293.877441</ele>
        <time>2011-03-05 15:29:33Z</time>
      </trkpt>
      <trkpt lat="45.34487" lon="4.5235">
        <ele>1294.185913</ele>
        <time>2011-03-05 15:29:37Z</time>
      </trkpt>
      <trkpt lat="45.34487" lon="4.5235">
        <ele>1294.540527</ele>
        <time>2011-03-05 15:29:41Z</time>
      </trkpt>
      <trkpt lat="45.34491" lon="4.52358">
        <ele>1294.906616</ele>
        <time>2011-03-05 15:29:45Z</time>
      </trkpt>
      <trkpt lat="45.34491" lon="4.52358">
        <ele>1295.155762</ele>
        <time>2011-03-05 15:29:49Z</time>
      </trkpt>
      <trkpt lat="45.34491" lon="4.52358">
        <ele>1295.182861</ele>
        <time>2011-03-05 15:29:53Z</time>
      </trkpt>
      <trkpt lat="45.34493" lon="4.52364">
        <ele>1295.211548</ele>
        <time>2011-03-05 15:29:57Z</time>
      </trkpt>
      <trkpt lat="45.34494" lon="4.5237">
        <ele>1295.235229</ele>
        <time>2011-03-05 15:30:01Z</time>
      </trkpt>
      <trkpt lat="45.34494" lon="4.5237">
        <ele>1295.25769</ele>
        <time>2011-03-05 15:30:05Z</time>
      </trkpt>
      <trkpt lat="45.34494" lon="4.5237">
        <ele>1295.270874</ele>
        <time>2011-03-05 15:30:09Z</time>
      </trkpt>
      <trkpt lat="45.34494" lon="4.5237">
        <ele>1295.282227</ele>
        <time>2011-03-05 15:30:13Z</time>
      </trkpt>
      <trkpt lat="45.34494" lon="4.5237">
        <ele>1295.29248</ele>
        <time>2011-03-05 15:30:17Z</time>
      </trkpt>
      <trkpt lat="45.34494" lon="4.5237">
        <ele>1295.30188</ele>
        <time>2011-03-05 15:30:21Z</time>
      </trkpt>
      <trkpt lat="45.34494" lon="4.5237">
        <ele>1295.309326</ele>
        <time>2011-03-05 15:30:25Z</time>
      </trkpt>
      <trkpt lat="45.34494" lon="4.5237">
        <ele>1295.315063</ele>
        <time>2011-03-05 15:30:29Z</time>
      </trkpt>
      <trkpt lat="45.34494" lon="4.5237">
        <ele>1295.316406</ele>
        <time>2011-03-05 15:30:33Z</time>
      </trkpt>
      <trkpt lat="45.34494" lon="4.5237">
        <ele>1295.311035</ele>
        <time>2011-03-05 15:30:37Z</time>
      </trkpt>
      <trkpt lat="45.34496" lon="4.52376">
        <ele>1295.260132</ele>
        <time>2011-03-05 15:30:41Z</time>
      </trkpt>
      <trkpt lat="45.345" lon="4.52381">
        <ele>1295.265137</ele>
        <time>2011-03-05 15:30:45Z</time>
      </trkpt>
      <trkpt lat="45.34501" lon="4.52387">
        <ele>1295.355103</ele>
        <time>2011-03-05 15:30:49Z</time>
      </trkpt>
      <trkpt lat="45.34504" lon="4.52393">
        <ele>1295.368774</ele>
        <time>2011-03-05 15:30:53Z</time>
      </trkpt>
      <trkpt lat="45.34507" lon="4.524">
        <ele>1295.352539</ele>
        <time>2011-03-05 15:30:57Z</time>
      </trkpt>
      <trkpt lat="45.34507" lon="4.524">
        <ele>1295.338013</ele>
        <time>2011-03-05 15:31:01Z</time>
      </trkpt>
      <trkpt lat="45.34508" lon="4.52407">
        <ele>1295.331909</ele>
        <time>2011-03-05 15:31:05Z</time>
      </trkpt>
      <trkpt lat="45.34509" lon="4.52415">
        <ele>1295.521851</ele>
        <time>2011-03-05 15:31:09Z</time>
      </trkpt>
      <trkpt lat="45.3451" lon="4.52422">
        <ele>1296.017212</ele>
        <time>2011-03-05 15:31:13Z</time>
      </trkpt>
      <trkpt lat="45.34513" lon="4.52428">
        <ele>1296.478516</ele>
        <time>2011-03-05 15:31:17Z</time>
      </trkpt>
      <trkpt lat="45.34513" lon="4.52428">
        <ele>1296.86377</ele>
        <time>2011-03-05 15:31:21Z</time>
      </trkpt>
      <trkpt lat="45.34519" lon="4.52439">
        <ele>1297.353271</ele>
        <time>2011-03-05 15:31:25Z</time>
      </trkpt>
      <trkpt lat="45.34522" lon="4.52447">
        <ele>1297.994873</ele>
        <time>2011-03-05 15:31:29Z</time>
      </trkpt>
      <trkpt lat="45.34525" lon="4.52453">
        <ele>1298.613281</ele>
        <time>2011-03-05 15:31:33Z</time>
      </trkpt>
      <trkpt lat="45.34528" lon="4.52458">
        <ele>1299.100952</ele>
        <time>2011-03-05 15:31:37Z</time>
      </trkpt>
      <trkpt lat="45.34532" lon="4.52462">
        <ele>1299.145996</ele>
        <time>2011-03-05 15:31:41Z</time>
      </trkpt>
      <trkpt lat="45.34535" lon="4.52467">
        <ele>1299.449585</ele>
        <time>2011-03-05 15:31:45Z</time>
      </trkpt>
      <trkpt lat="45.34538" lon="4.52475">
        <ele>1299.720703</ele>
        <time>2011-03-05 15:31:49Z</time>
      </trkpt>
      <trkpt lat="45.34545" lon="4.52485">
        <ele>1300.115601</ele>
        <time>2011-03-05 15:31:53Z</time>
      </trkpt>
      <trkpt lat="45.34548" lon="4.5249">
        <ele>1300.502075</ele>
        <time>2011-03-05 15:31:57Z</time>
      </trkpt>
      <trkpt lat="45.34548" lon="4.5249">
        <ele>1300.608154</ele>
        <time>2011-03-05 15:32:01Z</time>
      </trkpt>
      <trkpt lat="45.34552" lon="4.52495">
        <ele>1300.496338</ele>
        <time>2011-03-05 15:32:05Z</time>
      </trkpt>
      <trkpt lat="45.34557" lon="4.52507">
        <ele>1300.37793</ele>
        <time>2011-03-05 15:32:09Z</time>
      </trkpt>
      <trkpt lat="45.3456" lon="4.52515">
        <ele>1300.271118</ele>
        <time>2011-03-05 15:32:13Z</time>
      </trkpt>
      <trkpt lat="45.34563" lon="4.5252">
        <ele>1300.153442</ele>
        <time>2011-03-05 15:32:17Z</time>
      </trkpt>
      <trkpt lat="45.34567" lon="4.52525">
        <ele>1300.039429</ele>
        <time>2011-03-05 15:32:21Z</time>
      </trkpt>
      <trkpt lat="45.34571" lon="4.52529">
        <ele>1299.929688</ele>
        <time>2011-03-05 15:32:25Z</time>
      </trkpt>
      <trkpt lat="45.34574" lon="4.52532">
        <ele>1299.811035</ele>
        <time>2011-03-05 15:32:29Z</time>
      </trkpt>
      <trkpt lat="45.34578" lon="4.52534">
        <ele>1299.703735</ele>
        <time>2011-03-05 15:32:33Z</time>
      </trkpt>
      <trkpt lat="45.34581" lon="4.52538">
        <ele>1299.613159</ele>
        <time>2011-03-05 15:32:37Z</time>
      </trkpt>
      <trkpt lat="45.34584" lon="4.52543">
        <ele>1299.442627</ele>
        <time>2011-03-05 15:32:41Z</time>
      </trkpt>
      <trkpt lat="45.34588" lon="4.52548">
        <ele>1299.190063</ele>
        <time>2011-03-05 15:32:45Z</time>
      </trkpt>
      <trkpt lat="45.34591" lon="4.52551">
        <ele>1298.872803</ele>
        <time>2011-03-05 15:32:49Z</time>
      </trkpt>
      <trkpt lat="45.34596" lon="4.52552">
        <ele>1298.469971</ele>
        <time>2011-03-05 15:32:53Z</time>
      </trkpt>
      <trkpt lat="45.34599" lon="4.52553">
        <ele>1298.061646</ele>
        <time>2011-03-05 15:32:57Z</time>
      </trkpt>
      <trkpt lat="45.34603" lon="4.52554">
        <ele>1297.717773</ele>
        <time>2011-03-05 15:33:01Z</time>
      </trkpt>
      <trkpt lat="45.34609" lon="4.52557">
        <ele>1297.466064</ele>
        <time>2011-03-05 15:33:05Z</time>
      </trkpt>
      <trkpt lat="45.34612" lon="4.52558">
        <ele>1297.268188</ele>
        <time>2011-03-05 15:33:09Z</time>
      </trkpt>
      <trkpt lat="45.34616" lon="4.52561">
        <ele>1297.064575</ele>
        <time>2011-03-05 15:33:13Z</time>
      </trkpt>
      <trkpt lat="45.34621" lon="4.52562">
        <ele>1296.845581</ele>
        <time>2011-03-05 15:33:17Z</time>
      </trkpt>
      <trkpt lat="45.3463" lon="4.52563">
        <ele>1296.5979</ele>
        <time>2011-03-05 15:33:21Z</time>
      </trkpt>
      <trkpt lat="45.34636" lon="4.52563">
        <ele>1296.395386</ele>
        <time>2011-03-05 15:33:25Z</time>
      </trkpt>
      <trkpt lat="45.34639" lon="4.52564">
        <ele>1296.339844</ele>
        <time>2011-03-05 15:33:29Z</time>
      </trkpt>
      <trkpt lat="45.34639" lon="4.52564">
        <ele>1296.34314</ele>
        <time>2011-03-05 15:33:33Z</time>
      </trkpt>
      <trkpt lat="45.34644" lon="4.52566">
        <ele>1296.339478</ele>
        <time>2011-03-05 15:33:37Z</time>
      </trkpt>
      <trkpt lat="45.34649" lon="4.52567">
        <ele>1296.322754</ele>
        <time>2011-03-05 15:33:41Z</time>
      </trkpt>
      <trkpt lat="45.34654" lon="4.52568">
        <ele>1296.143188</ele>
        <time>2011-03-05 15:33:45Z</time>
      </trkpt>
      <trkpt lat="45.34661" lon="4.52571">
        <ele>1295.913452</ele>
        <time>2011-03-05 15:33:49Z</time>
      </trkpt>
      <trkpt lat="45.34665" lon="4.52572">
        <ele>1295.783447</ele>
        <time>2011-03-05 15:33:53Z</time>
      </trkpt>
      <trkpt lat="45.34665" lon="4.52572">
        <ele>1295.755859</ele>
        <time>2011-03-05 15:33:57Z</time>
      </trkpt>
      <trkpt lat="45.3467" lon="4.52574">
        <ele>1295.624146</ele>
        <time>2011-03-05 15:34:01Z</time>
      </trkpt>
      <trkpt lat="45.34674" lon="4.52576">
        <ele>1295.444458</ele>
        <time>2011-03-05 15:34:05Z</time>
      </trkpt>
      <trkpt lat="45.34678" lon="4.52579">
        <ele>1295.342896</ele>
        <time>2011-03-05 15:34:09Z</time>
      </trkpt>
      <trkpt lat="45.34683" lon="4.52581">
        <ele>1295.238647</ele>
        <time>2011-03-05 15:34:13Z</time>
      </trkpt>
      <trkpt lat="45.34693" lon="4.52582">
        <ele>1295.24585</ele>
        <time>2011-03-05 15:34:17Z</time>
      </trkpt>
      <trkpt lat="45.34698" lon="4.52583">
        <ele>1295.197266</ele>
        <time>2011-03-05 15:34:21Z</time>
      </trkpt>
      <trkpt lat="45.34702" lon="4.52584">
        <ele>1295.076416</ele>
        <time>2011-03-05 15:34:25Z</time>
      </trkpt>
      <trkpt lat="45.34708" lon="4.52587">
        <ele>1294.859985</ele>
        <time>2011-03-05 15:34:29Z</time>
      </trkpt>
      <trkpt lat="45.34713" lon="4.5259">
        <ele>1294.574585</ele>
        <time>2011-03-05 15:34:33Z</time>
      </trkpt>
      <trkpt lat="45.34716" lon="4.52595">
        <ele>1294.153687</ele>
        <time>2011-03-05 15:34:37Z</time>
      </trkpt>
      <trkpt lat="45.34718" lon="4.52601">
        <ele>1293.679688</ele>
        <time>2011-03-05 15:34:41Z</time>
      </trkpt>
      <trkpt lat="45.34721" lon="4.52606">
        <ele>1293.191406</ele>
        <time>2011-03-05 15:34:45Z</time>
      </trkpt>
      <trkpt lat="45.34724" lon="4.52612">
        <ele>1292.624512</ele>
        <time>2011-03-05 15:34:49Z</time>
      </trkpt>
      <trkpt lat="45.34728" lon="4.52617">
        <ele>1292.454346</ele>
        <time>2011-03-05 15:34:53Z</time>
      </trkpt>
      <trkpt lat="45.34731" lon="4.52622">
        <ele>1291.959717</ele>
        <time>2011-03-05 15:34:57Z</time>
      </trkpt>
      <trkpt lat="45.34735" lon="4.52627">
        <ele>1291.557495</ele>
        <time>2011-03-05 15:35:01Z</time>
      </trkpt>
      <trkpt lat="45.34739" lon="4.52633">
        <ele>1291.239258</ele>
        <time>2011-03-05 15:35:05Z</time>
      </trkpt>
      <trkpt lat="45.34739" lon="4.52633">
        <ele>1291.186646</ele>
        <time>2011-03-05 15:35:09Z</time>
      </trkpt>
      <trkpt lat="45.3474" lon="4.52639">
        <ele>1291.097046</ele>
        <time>2011-03-05 15:35:13Z</time>
      </trkpt>
      <trkpt lat="45.34742" lon="4.52642">
        <ele>1290.998047</ele>
        <time>2011-03-05 15:35:17Z</time>
      </trkpt>
      <trkpt lat="45.34745" lon="4.52637">
        <ele>1290.775635</ele>
        <time>2011-03-05 15:35:21Z</time>
      </trkpt>
      <trkpt lat="45.34749" lon="4.5263">
        <ele>1290.393188</ele>
        <time>2011-03-05 15:35:25Z</time>
      </trkpt>
      <trkpt lat="45.34751" lon="4.52628">
        <ele>1290.076782</ele>
        <time>2011-03-05 15:35:29Z</time>
      </trkpt>
      <trkpt lat="45.34756" lon="4.52625">
        <ele>1289.757324</ele>
        <time>2011-03-05 15:35:33Z</time>
      </trkpt>
      <trkpt lat="45.34761" lon="4.52625">
        <ele>1289.470825</ele>
        <time>2011-03-05 15:35:37Z</time>
      </trkpt>
      <trkpt lat="45.34766" lon="4.52626">
        <ele>1289.18042</ele>
        <time>2011-03-05 15:35:41Z</time>
      </trkpt>
      <trkpt lat="45.34766" lon="4.52626">
        <ele>1288.707886</ele>
        <time>2011-03-05 15:35:45Z</time>
      </trkpt>
      <trkpt lat="45.34771" lon="4.52627">
        <ele>1288.245361</ele>
        <time>2011-03-05 15:35:49Z</time>
      </trkpt>
      <trkpt lat="45.34776" lon="4.52628">
        <ele>1287.824097</ele>
        <time>2011-03-05 15:35:53Z</time>
      </trkpt>
      <trkpt lat="45.34781" lon="4.52628">
        <ele>1287.471436</ele>
        <time>2011-03-05 15:35:57Z</time>
      </trkpt>
      <trkpt lat="45.34781" lon="4.52628">
        <ele>1287.312256</ele>
        <time>2011-03-05 15:36:01Z</time>
      </trkpt>
      <trkpt lat="45.34786" lon="4.52629">
        <ele>1287.057007</ele>
        <time>2011-03-05 15:36:05Z</time>
      </trkpt>
      <trkpt lat="45.3479" lon="4.52629">
        <ele>1286.823364</ele>
        <time>2011-03-05 15:36:09Z</time>
      </trkpt>
      <trkpt lat="45.3479" lon="4.52629">
        <ele>1286.654663</ele>
        <time>2011-03-05 15:36:13Z</time>
      </trkpt>
      <trkpt lat="45.34796" lon="4.52629">
        <ele>1286.598145</ele>
        <time>2011-03-05 15:36:17Z</time>
      </trkpt>
      <trkpt lat="45.34801" lon="4.52629">
        <ele>1286.47876</ele>
        <time>2011-03-05 15:36:21Z</time>
      </trkpt>
      <trkpt lat="45.34801" lon="4.52629">
        <ele>1286.453247</ele>
        <time>2011-03-05 15:36:25Z</time>
      </trkpt>
      <trkpt lat="45.34806" lon="4.5263">
        <ele>1286.372437</ele>
        <time>2011-03-05 15:36:29Z</time>
      </trkpt>
      <trkpt lat="45.34811" lon="4.52631">
        <ele>1286.362915</ele>
        <time>2011-03-05 15:36:33Z</time>
      </trkpt>
      <trkpt lat="45.34817" lon="4.52631">
        <ele>1286.356079</ele>
        <time>2011-03-05 15:36:37Z</time>
      </trkpt>
      <trkpt lat="45.34822" lon="4.52631">
        <ele>1286.386597</ele>
        <time>2011-03-05 15:36:41Z</time>
      </trkpt>
      <trkpt lat="45.34827" lon="4.52629">
        <ele>1286.401733</ele>
        <time>2011-03-05 15:36:45Z</time>
      </trkpt>
      <trkpt lat="45.34833" lon="4.52627">
        <ele>1286.433228</ele>
        <time>2011-03-05 15:36:49Z</time>
      </trkpt>
      <trkpt lat="45.34839" lon="4.52626">
        <ele>1286.416626</ele>
        <time>2011-03-05 15:36:53Z</time>
      </trkpt>
      <trkpt lat="45.34845" lon="4.52626">
        <ele>1286.36145</ele>
        <time>2011-03-05 15:36:57Z</time>
      </trkpt>
      <trkpt lat="45.3485" lon="4.52626">
        <ele>1286.306519</ele>
        <time>2011-03-05 15:37:01Z</time>
      </trkpt>
      <trkpt lat="45.3486" lon="4.52621">
        <ele>1286.120972</ele>
        <time>2011-03-05 15:37:05Z</time>
      </trkpt>
      <trkpt lat="45.34865" lon="4.5262">
        <ele>1286.105835</ele>
        <time>2011-03-05 15:37:09Z</time>
      </trkpt>
      <trkpt lat="45.34876" lon="4.52616">
        <ele>1286.01062</ele>
        <time>2011-03-05 15:37:13Z</time>
      </trkpt>
      <trkpt lat="45.34881" lon="4.52615">
        <ele>1286.005005</ele>
        <time>2011-03-05 15:37:17Z</time>
      </trkpt>
      <trkpt lat="45.34886" lon="4.52614">
        <ele>1286.003296</ele>
        <time>2011-03-05 15:37:21Z</time>
      </trkpt>
      <trkpt lat="45.34886" lon="4.52614">
        <ele>1286.003418</ele>
        <time>2011-03-05 15:37:25Z</time>
      </trkpt>
      <trkpt lat="45.34891" lon="4.52612">
        <ele>1286.010742</ele>
        <time>2011-03-05 15:37:29Z</time>
      </trkpt>
      <trkpt lat="45.34897" lon="4.52611">
        <ele>1286.079468</ele>
        <time>2011-03-05 15:37:33Z</time>
      </trkpt>
      <trkpt lat="45.34901" lon="4.52609">
        <ele>1286.152832</ele>
        <time>2011-03-05 15:37:37Z</time>
      </trkpt>
      <trkpt lat="45.34901" lon="4.52609">
        <ele>1286.194214</ele>
        <time>2011-03-05 15:37:41Z</time>
      </trkpt>
      <trkpt lat="45.34906" lon="4.52608">
        <ele>1286.129883</ele>
        <time>2011-03-05 15:37:45Z</time>
      </trkpt>
      <trkpt lat="45.34911" lon="4.52606">
        <ele>1286.116455</ele>
        <time>2011-03-05 15:37:49Z</time>
      </trkpt>
      <trkpt lat="45.34911" lon="4.52606">
        <ele>1286.130737</ele>
        <time>2011-03-05 15:37:53Z</time>
      </trkpt>
      <trkpt lat="45.34916" lon="4.52606">
        <ele>1286.140747</ele>
        <time>2011-03-05 15:37:57Z</time>
      </trkpt>
      <trkpt lat="45.34921" lon="4.52604">
        <ele>1286.255371</ele>
        <time>2011-03-05 15:38:01Z</time>
      </trkpt>
      <trkpt lat="45.34921" lon="4.52604">
        <ele>1286.384277</ele>
        <time>2011-03-05 15:38:05Z</time>
      </trkpt>
      <trkpt lat="45.34926" lon="4.52601">
        <ele>1286.479492</ele>
        <time>2011-03-05 15:38:09Z</time>
      </trkpt>
      <trkpt lat="45.34931" lon="4.526">
        <ele>1286.49707</ele>
        <time>2011-03-05 15:38:13Z</time>
      </trkpt>
      <trkpt lat="45.34935" lon="4.52598">
        <ele>1286.509644</ele>
        <time>2011-03-05 15:38:17Z</time>
      </trkpt>
      <trkpt lat="45.34941" lon="4.52597">
        <ele>1286.527344</ele>
        <time>2011-03-05 15:38:21Z</time>
      </trkpt>
      <trkpt lat="45.34952" lon="4.52595">
        <ele>1286.664795</ele>
        <time>2011-03-05 15:38:25Z</time>
      </trkpt>
      <trkpt lat="45.34952" lon="4.52595">
        <ele>1286.68042</ele>
        <time>2011-03-05 15:38:29Z</time>
      </trkpt>
      <trkpt lat="45.34957" lon="4.52595">
        <ele>1286.698486</ele>
        <time>2011-03-05 15:38:33Z</time>
      </trkpt>
      <trkpt lat="45.34963" lon="4.52596">
        <ele>1286.717651</ele>
        <time>2011-03-05 15:38:37Z</time>
      </trkpt>
      <trkpt lat="45.34967" lon="4.52595">
        <ele>1286.734619</ele>
        <time>2011-03-05 15:38:41Z</time>
      </trkpt>
      <trkpt lat="45.34972" lon="4.52593">
        <ele>1286.750732</ele>
        <time>2011-03-05 15:38:45Z</time>
      </trkpt>
      <trkpt lat="45.34978" lon="4.52591">
        <ele>1286.765259</ele>
        <time>2011-03-05 15:38:49Z</time>
      </trkpt>
      <trkpt lat="45.34983" lon="4.5259">
        <ele>1286.829468</ele>
        <time>2011-03-05 15:38:53Z</time>
      </trkpt>
      <trkpt lat="45.34987" lon="4.52589">
        <ele>1286.840942</ele>
        <time>2011-03-05 15:38:57Z</time>
      </trkpt>
      <trkpt lat="45.34992" lon="4.52588">
        <ele>1286.853638</ele>
        <time>2011-03-05 15:39:01Z</time>
      </trkpt>
      <trkpt lat="45.34997" lon="4.52585">
        <ele>1286.866821</ele>
        <time>2011-03-05 15:39:05Z</time>
      </trkpt>
      <trkpt lat="45.35002" lon="4.52583">
        <ele>1286.88147</ele>
        <time>2011-03-05 15:39:09Z</time>
      </trkpt>
      <trkpt lat="45.35006" lon="4.52582">
        <ele>1286.963379</ele>
        <time>2011-03-05 15:39:13Z</time>
      </trkpt>
      <trkpt lat="45.35011" lon="4.52579">
        <ele>1286.973999</ele>
        <time>2011-03-05 15:39:17Z</time>
      </trkpt>
      <trkpt lat="45.35017" lon="4.52579">
        <ele>1287.043945</ele>
        <time>2011-03-05 15:39:21Z</time>
      </trkpt>
      <trkpt lat="45.35026" lon="4.5258">
        <ele>1287.134277</ele>
        <time>2011-03-05 15:39:25Z</time>
      </trkpt>
      <trkpt lat="45.35036" lon="4.52581">
        <ele>1287.426758</ele>
        <time>2011-03-05 15:39:29Z</time>
      </trkpt>
      <trkpt lat="45.35042" lon="4.52581">
        <ele>1287.589478</ele>
        <time>2011-03-05 15:39:33Z</time>
      </trkpt>
      <trkpt lat="45.35047" lon="4.52581">
        <ele>1287.602417</ele>
        <time>2011-03-05 15:39:37Z</time>
      </trkpt>
      <trkpt lat="45.35047" lon="4.52581">
        <ele>1287.609375</ele>
        <time>2011-03-05 15:39:41Z</time>
      </trkpt>
      <trkpt lat="45.35052" lon="4.52583">
        <ele>1287.61499</ele>
        <time>2011-03-05 15:39:45Z</time>
      </trkpt>
      <trkpt lat="45.35052" lon="4.52583">
        <ele>1287.618164</ele>
        <time>2011-03-05 15:39:49Z</time>
      </trkpt>
      <trkpt lat="45.35057" lon="4.52583">
        <ele>1287.598267</ele>
        <time>2011-03-05 15:39:53Z</time>
      </trkpt>
      <trkpt lat="45.35057" lon="4.52583">
        <ele>1287.589355</ele>
        <time>2011-03-05 15:39:57Z</time>
      </trkpt>
      <trkpt lat="45.35067" lon="4.52589">
        <ele>1287.594727</ele>
        <time>2011-03-05 15:40:01Z</time>
      </trkpt>
      <trkpt lat="45.35071" lon="4.52589">
        <ele>1287.599731</ele>
        <time>2011-03-05 15:40:05Z</time>
      </trkpt>
      <trkpt lat="45.35076" lon="4.52588">
        <ele>1287.604248</ele>
        <time>2011-03-05 15:40:09Z</time>
      </trkpt>
      <trkpt lat="45.35076" lon="4.52588">
        <ele>1287.609131</ele>
        <time>2011-03-05 15:40:13Z</time>
      </trkpt>
      <trkpt lat="45.35081" lon="4.52587">
        <ele>1287.618164</ele>
        <time>2011-03-05 15:40:17Z</time>
      </trkpt>
      <trkpt lat="45.35086" lon="4.52587">
        <ele>1287.624756</ele>
        <time>2011-03-05 15:40:21Z</time>
      </trkpt>
      <trkpt lat="45.35096" lon="4.5259">
        <ele>1287.728516</ele>
        <time>2011-03-05 15:40:25Z</time>
      </trkpt>
      <trkpt lat="45.35106" lon="4.52593">
        <ele>1287.74353</ele>
        <time>2011-03-05 15:40:29Z</time>
      </trkpt>
      <trkpt lat="45.35112" lon="4.52592">
        <ele>1287.855835</ele>
        <time>2011-03-05 15:40:33Z</time>
      </trkpt>
      <trkpt lat="45.35118" lon="4.52591">
        <ele>1287.96167</ele>
        <time>2011-03-05 15:40:37Z</time>
      </trkpt>
      <trkpt lat="45.35123" lon="4.5259">
        <ele>1288.096069</ele>
        <time>2011-03-05 15:40:41Z</time>
      </trkpt>
      <trkpt lat="45.35128" lon="4.5259">
        <ele>1288.26062</ele>
        <time>2011-03-05 15:40:45Z</time>
      </trkpt>
      <trkpt lat="45.35139" lon="4.52588">
        <ele>1288.50061</ele>
        <time>2011-03-05 15:40:49Z</time>
      </trkpt>
      <trkpt lat="45.35146" lon="4.52588">
        <ele>1288.724365</ele>
        <time>2011-03-05 15:40:53Z</time>
      </trkpt>
      <trkpt lat="45.3515" lon="4.52587">
        <ele>1288.876831</ele>
        <time>2011-03-05 15:40:57Z</time>
      </trkpt>
      <trkpt lat="45.35155" lon="4.52587">
        <ele>1288.891968</ele>
        <time>2011-03-05 15:41:01Z</time>
      </trkpt>
      <trkpt lat="45.35155" lon="4.52587">
        <ele>1288.900635</ele>
        <time>2011-03-05 15:41:05Z</time>
      </trkpt>
      <trkpt lat="45.3516" lon="4.52587">
        <ele>1288.907715</ele>
        <time>2011-03-05 15:41:09Z</time>
      </trkpt>
      <trkpt lat="45.3516" lon="4.52587">
        <ele>1288.914062</ele>
        <time>2011-03-05 15:41:13Z</time>
      </trkpt>
      <trkpt lat="45.35165" lon="4.52586">
        <ele>1288.928467</ele>
        <time>2011-03-05 15:41:17Z</time>
      </trkpt>
      <trkpt lat="45.35165" lon="4.52586">
        <ele>1288.944214</ele>
        <time>2011-03-05 15:41:21Z</time>
      </trkpt>
      <trkpt lat="45.3517" lon="4.52587">
        <ele>1288.939209</ele>
        <time>2011-03-05 15:41:25Z</time>
      </trkpt>
      <trkpt lat="45.35176" lon="4.52589">
        <ele>1288.956177</ele>
        <time>2011-03-05 15:41:29Z</time>
      </trkpt>
      <trkpt lat="45.35181" lon="4.52591">
        <ele>1288.957764</ele>
        <time>2011-03-05 15:41:33Z</time>
      </trkpt>
      <trkpt lat="45.35185" lon="4.52593">
        <ele>1288.955078</ele>
        <time>2011-03-05 15:41:37Z</time>
      </trkpt>
      <trkpt lat="45.35197" lon="4.52595">
        <ele>1288.915039</ele>
        <time>2011-03-05 15:41:41Z</time>
      </trkpt>
      <trkpt lat="45.35203" lon="4.52597">
        <ele>1288.877197</ele>
        <time>2011-03-05 15:41:45Z</time>
      </trkpt>
      <trkpt lat="45.35208" lon="4.52598">
        <ele>1288.905762</ele>
        <time>2011-03-05 15:41:49Z</time>
      </trkpt>
      <trkpt lat="45.35219" lon="4.526">
        <ele>1288.976318</ele>
        <time>2011-03-05 15:41:53Z</time>
      </trkpt>
      <trkpt lat="45.35223" lon="4.52602">
        <ele>1288.984497</ele>
        <time>2011-03-05 15:41:57Z</time>
      </trkpt>
      <trkpt lat="45.35223" lon="4.52602">
        <ele>1288.985107</ele>
        <time>2011-03-05 15:42:01Z</time>
      </trkpt>
      <trkpt lat="45.35228" lon="4.52607">
        <ele>1288.988525</ele>
        <time>2011-03-05 15:42:05Z</time>
      </trkpt>
      <trkpt lat="45.35231" lon="4.52611">
        <ele>1288.991577</ele>
        <time>2011-03-05 15:42:09Z</time>
      </trkpt>
      <trkpt lat="45.35231" lon="4.52611">
        <ele>1288.954224</ele>
        <time>2011-03-05 15:42:13Z</time>
      </trkpt>
      <trkpt lat="45.35235" lon="4.52615">
        <ele>1288.950073</ele>
        <time>2011-03-05 15:42:17Z</time>
      </trkpt>
      <trkpt lat="45.35239" lon="4.52618">
        <ele>1288.95166</ele>
        <time>2011-03-05 15:42:21Z</time>
      </trkpt>
      <trkpt lat="45.35243" lon="4.52622">
        <ele>1288.955078</ele>
        <time>2011-03-05 15:42:25Z</time>
      </trkpt>
      <trkpt lat="45.35247" lon="4.52625">
        <ele>1288.957886</ele>
        <time>2011-03-05 15:42:29Z</time>
      </trkpt>
      <trkpt lat="45.35252" lon="4.52627">
        <ele>1288.963867</ele>
        <time>2011-03-05 15:42:33Z</time>
      </trkpt>
      <trkpt lat="45.35262" lon="4.52628">
        <ele>1288.971802</ele>
        <time>2011-03-05 15:42:37Z</time>
      </trkpt>
      <trkpt lat="45.35267" lon="4.5263">
        <ele>1288.983643</ele>
        <time>2011-03-05 15:42:41Z</time>
      </trkpt>
      <trkpt lat="45.35267" lon="4.5263">
        <ele>1289.024414</ele>
        <time>2011-03-05 15:42:45Z</time>
      </trkpt>
      <trkpt lat="45.35272" lon="4.52632">
        <ele>1289.194824</ele>
        <time>2011-03-05 15:42:49Z</time>
      </trkpt>
      <trkpt lat="45.35283" lon="4.52638">
        <ele>1289.373901</ele>
        <time>2011-03-05 15:42:53Z</time>
      </trkpt>
      <trkpt lat="45.35289" lon="4.52642">
        <ele>1289.541504</ele>
        <time>2011-03-05 15:42:57Z</time>
      </trkpt>
      <trkpt lat="45.35294" lon="4.52646">
        <ele>1289.717529</ele>
        <time>2011-03-05 15:43:01Z</time>
      </trkpt>
      <trkpt lat="45.35303" lon="4.52653">
        <ele>1289.973145</ele>
        <time>2011-03-05 15:43:05Z</time>
      </trkpt>
      <trkpt lat="45.35311" lon="4.52658">
        <ele>1290.23645</ele>
        <time>2011-03-05 15:43:09Z</time>
      </trkpt>
      <trkpt lat="45.35318" lon="4.52663">
        <ele>1290.360962</ele>
        <time>2011-03-05 15:43:13Z</time>
      </trkpt>
      <trkpt lat="45.35328" lon="4.52667">
        <ele>1290.591431</ele>
        <time>2011-03-05 15:43:17Z</time>
      </trkpt>
      <trkpt lat="45.35334" lon="4.5267">
        <ele>1290.821533</ele>
        <time>2011-03-05 15:43:21Z</time>
      </trkpt>
      <trkpt lat="45.35339" lon="4.52672">
        <ele>1290.917603</ele>
        <time>2011-03-05 15:43:25Z</time>
      </trkpt>
      <trkpt lat="45.35339" lon="4.52672">
        <ele>1291.163452</ele>
        <time>2011-03-05 15:43:29Z</time>
      </trkpt>
      <trkpt lat="45.35339" lon="4.52672">
        <ele>1291.246826</ele>
        <time>2011-03-05 15:43:33Z</time>
      </trkpt>
      <trkpt lat="45.35343" lon="4.52676">
        <ele>1291.089233</ele>
        <time>2011-03-05 15:43:37Z</time>
      </trkpt>
      <trkpt lat="45.35346" lon="4.52682">
        <ele>1290.914795</ele>
        <time>2011-03-05 15:43:41Z</time>
      </trkpt>
      <trkpt lat="45.35348" lon="4.52688">
        <ele>1290.874756</ele>
        <time>2011-03-05 15:43:45Z</time>
      </trkpt>
      <trkpt lat="45.3535" lon="4.52705">
        <ele>1290.865479</ele>
        <time>2011-03-05 15:43:49Z</time>
      </trkpt>
      <trkpt lat="45.35354" lon="4.52713">
        <ele>1290.817749</ele>
        <time>2011-03-05 15:43:53Z</time>
      </trkpt>
      <trkpt lat="45.35355" lon="4.52716">
        <ele>1290.813354</ele>
        <time>2011-03-05 15:43:57Z</time>
      </trkpt>
      <trkpt lat="45.35362" lon="4.52724">
        <ele>1290.818237</ele>
        <time>2011-03-05 15:44:01Z</time>
      </trkpt>
      <trkpt lat="45.3537" lon="4.52728">
        <ele>1290.891968</ele>
        <time>2011-03-05 15:44:05Z</time>
      </trkpt>
      <trkpt lat="45.35376" lon="4.5273">
        <ele>1290.976807</ele>
        <time>2011-03-05 15:44:09Z</time>
      </trkpt>
      <trkpt lat="45.35381" lon="4.52732">
        <ele>1291.025024</ele>
        <time>2011-03-05 15:44:13Z</time>
      </trkpt>
      <trkpt lat="45.35385" lon="4.52736">
        <ele>1290.998169</ele>
        <time>2011-03-05 15:44:17Z</time>
      </trkpt>
      <trkpt lat="45.35389" lon="4.5274">
        <ele>1290.897339</ele>
        <time>2011-03-05 15:44:21Z</time>
      </trkpt>
      <trkpt lat="45.35394" lon="4.52742">
        <ele>1290.7771</ele>
        <time>2011-03-05 15:44:25Z</time>
      </trkpt>
      <trkpt lat="45.35399" lon="4.52744">
        <ele>1290.689819</ele>
        <time>2011-03-05 15:44:29Z</time>
      </trkpt>
      <trkpt lat="45.35403" lon="4.52744">
        <ele>1290.596558</ele>
        <time>2011-03-05 15:44:33Z</time>
      </trkpt>
      <trkpt lat="45.3541" lon="4.52745">
        <ele>1290.454468</ele>
        <time>2011-03-05 15:44:37Z</time>
      </trkpt>
      <trkpt lat="45.35411" lon="4.52745">
        <ele>1290.418335</ele>
        <time>2011-03-05 15:44:41Z</time>
      </trkpt>
      <trkpt lat="45.35416" lon="4.52747">
        <ele>1290.412842</ele>
        <time>2011-03-05 15:44:45Z</time>
      </trkpt>
      <trkpt lat="45.3542" lon="4.5275">
        <ele>1290.407349</ele>
        <time>2011-03-05 15:44:49Z</time>
      </trkpt>
      <trkpt lat="45.3542" lon="4.5275">
        <ele>1290.377197</ele>
        <time>2011-03-05 15:44:53Z</time>
      </trkpt>
      <trkpt lat="45.35429" lon="4.52756">
        <ele>1290.251587</ele>
        <time>2011-03-05 15:44:57Z</time>
      </trkpt>
      <trkpt lat="45.35434" lon="4.52759">
        <ele>1290.180054</ele>
        <time>2011-03-05 15:45:01Z</time>
      </trkpt>
      <trkpt lat="45.35439" lon="4.52762">
        <ele>1290.125977</ele>
        <time>2011-03-05 15:45:05Z</time>
      </trkpt>
      <trkpt lat="45.35444" lon="4.52765">
        <ele>1290.079224</ele>
        <time>2011-03-05 15:45:09Z</time>
      </trkpt>
      <trkpt lat="45.35449" lon="4.52769">
        <ele>1289.99292</ele>
        <time>2011-03-05 15:45:13Z</time>
      </trkpt>
      <trkpt lat="45.35454" lon="4.52771">
        <ele>1289.934448</ele>
        <time>2011-03-05 15:45:17Z</time>
      </trkpt>
      <trkpt lat="45.3546" lon="4.52772">
        <ele>1289.931274</ele>
        <time>2011-03-05 15:45:21Z</time>
      </trkpt>
      <trkpt lat="45.35466" lon="4.52774">
        <ele>1289.933716</ele>
        <time>2011-03-05 15:45:25Z</time>
      </trkpt>
      <trkpt lat="45.3547" lon="4.52775">
        <ele>1289.935303</ele>
        <time>2011-03-05 15:45:29Z</time>
      </trkpt>
      <trkpt lat="45.35475" lon="4.52777">
        <ele>1289.935547</ele>
        <time>2011-03-05 15:45:33Z</time>
      </trkpt>
      <trkpt lat="45.35475" lon="4.52777">
        <ele>1289.932617</ele>
        <time>2011-03-05 15:45:37Z</time>
      </trkpt>
      <trkpt lat="45.3548" lon="4.52781">
        <ele>1289.927856</ele>
        <time>2011-03-05 15:45:41Z</time>
      </trkpt>
      <trkpt lat="45.35485" lon="4.52783">
        <ele>1289.803833</ele>
        <time>2011-03-05 15:45:45Z</time>
      </trkpt>
      <trkpt lat="45.3549" lon="4.52782">
        <ele>1289.664429</ele>
        <time>2011-03-05 15:45:49Z</time>
      </trkpt>
      <trkpt lat="45.35495" lon="4.52782">
        <ele>1289.53064</ele>
        <time>2011-03-05 15:45:53Z</time>
      </trkpt>
      <trkpt lat="45.35501" lon="4.52781">
        <ele>1289.411255</ele>
        <time>2011-03-05 15:45:57Z</time>
      </trkpt>
      <trkpt lat="45.35511" lon="4.52775">
        <ele>1289.305908</ele>
        <time>2011-03-05 15:46:01Z</time>
      </trkpt>
      <trkpt lat="45.35521" lon="4.52771">
        <ele>1289.231934</ele>
        <time>2011-03-05 15:46:05Z</time>
      </trkpt>
      <trkpt lat="45.35527" lon="4.52768">
        <ele>1289.179077</ele>
        <time>2011-03-05 15:46:09Z</time>
      </trkpt>
      <trkpt lat="45.3553" lon="4.52763">
        <ele>1289.119385</ele>
        <time>2011-03-05 15:46:13Z</time>
      </trkpt>
      <trkpt lat="45.35533" lon="4.52757">
        <ele>1289.049438</ele>
        <time>2011-03-05 15:46:17Z</time>
      </trkpt>
      <trkpt lat="45.35536" lon="4.52752">
        <ele>1288.973633</ele>
        <time>2011-03-05 15:46:21Z</time>
      </trkpt>
      <trkpt lat="45.35536" lon="4.52752">
        <ele>1288.966309</ele>
        <time>2011-03-05 15:46:25Z</time>
      </trkpt>
      <trkpt lat="45.3554" lon="4.52749">
        <ele>1288.948486</ele>
        <time>2011-03-05 15:46:29Z</time>
      </trkpt>
      <trkpt lat="45.3554" lon="4.52749">
        <ele>1288.927979</ele>
        <time>2011-03-05 15:46:33Z</time>
      </trkpt>
      <trkpt lat="45.35545" lon="4.52745">
        <ele>1288.911255</ele>
        <time>2011-03-05 15:46:37Z</time>
      </trkpt>
      <trkpt lat="45.3555" lon="4.52743">
        <ele>1288.894531</ele>
        <time>2011-03-05 15:46:41Z</time>
      </trkpt>
      <trkpt lat="45.3555" lon="4.52743">
        <ele>1288.748413</ele>
        <time>2011-03-05 15:46:45Z</time>
      </trkpt>
      <trkpt lat="45.35555" lon="4.52744">
        <ele>1288.724854</ele>
        <time>2011-03-05 15:46:49Z</time>
      </trkpt>
      <trkpt lat="45.35566" lon="4.52746">
        <ele>1288.656982</ele>
        <time>2011-03-05 15:46:53Z</time>
      </trkpt>
      <trkpt lat="45.35572" lon="4.52747">
        <ele>1288.643188</ele>
        <time>2011-03-05 15:46:57Z</time>
      </trkpt>
      <trkpt lat="45.35577" lon="4.52747">
        <ele>1288.527954</ele>
        <time>2011-03-05 15:47:01Z</time>
      </trkpt>
      <trkpt lat="45.35582" lon="4.52747">
        <ele>1288.418457</ele>
        <time>2011-03-05 15:47:05Z</time>
      </trkpt>
      <trkpt lat="45.35582" lon="4.52747">
        <ele>1288.343262</ele>
        <time>2011-03-05 15:47:09Z</time>
      </trkpt>
      <trkpt lat="45.3559" lon="4.52748">
        <ele>1288.315063</ele>
        <time>2011-03-05 15:47:13Z</time>
      </trkpt>
      <trkpt lat="45.35595" lon="4.52747">
        <ele>1288.272461</ele>
        <time>2011-03-05 15:47:17Z</time>
      </trkpt>
      <trkpt lat="45.356" lon="4.52744">
        <ele>1288.216553</ele>
        <time>2011-03-05 15:47:21Z</time>
      </trkpt>
      <trkpt lat="45.35606" lon="4.5274">
        <ele>1288.127319</ele>
        <time>2011-03-05 15:47:25Z</time>
      </trkpt>
      <trkpt lat="45.35612" lon="4.52733">
        <ele>1287.970947</ele>
        <time>2011-03-05 15:47:29Z</time>
      </trkpt>
      <trkpt lat="45.35617" lon="4.52725">
        <ele>1287.814209</ele>
        <time>2011-03-05 15:47:33Z</time>
      </trkpt>
      <trkpt lat="45.35621" lon="4.52719">
        <ele>1287.60376</ele>
        <time>2011-03-05 15:47:37Z</time>
      </trkpt>
      <trkpt lat="45.35625" lon="4.52713">
        <ele>1287.283569</ele>
        <time>2011-03-05 15:47:41Z</time>
      </trkpt>
      <trkpt lat="45.3563" lon="4.52709">
        <ele>1286.904297</ele>
        <time>2011-03-05 15:47:45Z</time>
      </trkpt>
      <trkpt lat="45.35634" lon="4.52701">
        <ele>1286.521118</ele>
        <time>2011-03-05 15:47:49Z</time>
      </trkpt>
      <trkpt lat="45.35637" lon="4.52695">
        <ele>1286.186768</ele>
        <time>2011-03-05 15:47:53Z</time>
      </trkpt>
      <trkpt lat="45.3564" lon="4.52691">
        <ele>1285.903564</ele>
        <time>2011-03-05 15:47:57Z</time>
      </trkpt>
      <trkpt lat="45.35643" lon="4.52685">
        <ele>1285.655396</ele>
        <time>2011-03-05 15:48:01Z</time>
      </trkpt>
      <trkpt lat="45.35645" lon="4.52678">
        <ele>1285.418213</ele>
        <time>2011-03-05 15:48:05Z</time>
      </trkpt>
      <trkpt lat="45.35647" lon="4.5267">
        <ele>1285.128296</ele>
        <time>2011-03-05 15:48:09Z</time>
      </trkpt>
      <trkpt lat="45.3565" lon="4.52664">
        <ele>1284.864014</ele>
        <time>2011-03-05 15:48:13Z</time>
      </trkpt>
      <trkpt lat="45.35652" lon="4.52658">
        <ele>1284.603638</ele>
        <time>2011-03-05 15:48:17Z</time>
      </trkpt>
      <trkpt lat="45.35653" lon="4.52652">
        <ele>1284.321289</ele>
        <time>2011-03-05 15:48:21Z</time>
      </trkpt>
      <trkpt lat="45.35655" lon="4.52648">
        <ele>1284.11438</ele>
        <time>2011-03-05 15:48:25Z</time>
      </trkpt>
      <trkpt lat="45.35656" lon="4.52644">
        <ele>1283.949097</ele>
        <time>2011-03-05 15:48:29Z</time>
      </trkpt>
      <trkpt lat="45.35659" lon="4.52639">
        <ele>1283.696289</ele>
        <time>2011-03-05 15:48:33Z</time>
      </trkpt>
      <trkpt lat="45.35662" lon="4.52634">
        <ele>1283.432373</ele>
        <time>2011-03-05 15:48:37Z</time>
      </trkpt>
      <trkpt lat="45.35666" lon="4.5263">
        <ele>1283.235596</ele>
        <time>2011-03-05 15:48:41Z</time>
      </trkpt>
      <trkpt lat="45.35673" lon="4.52622">
        <ele>1283.041504</ele>
        <time>2011-03-05 15:48:45Z</time>
      </trkpt>
      <trkpt lat="45.35679" lon="4.52615">
        <ele>1282.88501</ele>
        <time>2011-03-05 15:48:49Z</time>
      </trkpt>
      <trkpt lat="45.35682" lon="4.52609">
        <ele>1282.697144</ele>
        <time>2011-03-05 15:48:53Z</time>
      </trkpt>
      <trkpt lat="45.35686" lon="4.52603">
        <ele>1282.554565</ele>
        <time>2011-03-05 15:48:57Z</time>
      </trkpt>
      <trkpt lat="45.3569" lon="4.526">
        <ele>1282.423828</ele>
        <time>2011-03-05 15:49:01Z</time>
      </trkpt>
      <trkpt lat="45.35694" lon="4.52595">
        <ele>1282.244141</ele>
        <time>2011-03-05 15:49:05Z</time>
      </trkpt>
      <trkpt lat="45.35698" lon="4.52588">
        <ele>1282.081787</ele>
        <time>2011-03-05 15:49:09Z</time>
      </trkpt>
      <trkpt lat="45.35701" lon="4.52583">
        <ele>1281.963135</ele>
        <time>2011-03-05 15:49:13Z</time>
      </trkpt>
      <trkpt lat="45.35702" lon="4.52581">
        <ele>1281.893066</ele>
        <time>2011-03-05 15:49:17Z</time>
      </trkpt>
      <trkpt lat="45.35702" lon="4.52581">
        <ele>1281.882202</ele>
        <time>2011-03-05 15:49:21Z</time>
      </trkpt>
      <trkpt lat="45.35706" lon="4.52577">
        <ele>1281.873535</ele>
        <time>2011-03-05 15:49:25Z</time>
      </trkpt>
      <trkpt lat="45.35709" lon="4.52572">
        <ele>1281.86499</ele>
        <time>2011-03-05 15:49:29Z</time>
      </trkpt>
      <trkpt lat="45.35709" lon="4.52572">
        <ele>1281.855713</ele>
        <time>2011-03-05 15:49:33Z</time>
      </trkpt>
      <trkpt lat="45.35712" lon="4.52568">
        <ele>1281.842407</ele>
        <time>2011-03-05 15:49:37Z</time>
      </trkpt>
      <trkpt lat="45.35717" lon="4.52563">
        <ele>1281.828491</ele>
        <time>2011-03-05 15:49:41Z</time>
      </trkpt>
      <trkpt lat="45.35725" lon="4.52556">
        <ele>1281.815063</ele>
        <time>2011-03-05 15:49:45Z</time>
      </trkpt>
      <trkpt lat="45.35729" lon="4.52551">
        <ele>1281.709717</ele>
        <time>2011-03-05 15:49:49Z</time>
      </trkpt>
      <trkpt lat="45.35733" lon="4.52547">
        <ele>1281.609009</ele>
        <time>2011-03-05 15:49:53Z</time>
      </trkpt>
      <trkpt lat="45.35737" lon="4.52545">
        <ele>1281.556519</ele>
        <time>2011-03-05 15:49:57Z</time>
      </trkpt>
      <trkpt lat="45.35741" lon="4.52542">
        <ele>1281.551025</ele>
        <time>2011-03-05 15:50:01Z</time>
      </trkpt>
      <trkpt lat="45.35741" lon="4.52542">
        <ele>1281.547729</ele>
        <time>2011-03-05 15:50:05Z</time>
      </trkpt>
      <trkpt lat="45.35745" lon="4.52538">
        <ele>1281.54541</ele>
        <time>2011-03-05 15:50:09Z</time>
      </trkpt>
      <trkpt lat="45.35748" lon="4.52533">
        <ele>1281.484985</ele>
        <time>2011-03-05 15:50:13Z</time>
      </trkpt>
      <trkpt lat="45.35752" lon="4.52527">
        <ele>1281.315674</ele>
        <time>2011-03-05 15:50:17Z</time>
      </trkpt>
      <trkpt lat="45.35761" lon="4.52515">
        <ele>1281.007446</ele>
        <time>2011-03-05 15:50:21Z</time>
      </trkpt>
      <trkpt lat="45.35768" lon="4.52506">
        <ele>1280.762085</ele>
        <time>2011-03-05 15:50:25Z</time>
      </trkpt>
      <trkpt lat="45.35776" lon="4.52497">
        <ele>1280.515747</ele>
        <time>2011-03-05 15:50:29Z</time>
      </trkpt>
      <trkpt lat="45.35782" lon="4.5249">
        <ele>1280.248779</ele>
        <time>2011-03-05 15:50:33Z</time>
      </trkpt>
      <trkpt lat="45.35787" lon="4.52485">
        <ele>1279.982056</ele>
        <time>2011-03-05 15:50:37Z</time>
      </trkpt>
      <trkpt lat="45.35792" lon="4.5248">
        <ele>1279.761841</ele>
        <time>2011-03-05 15:50:41Z</time>
      </trkpt>
      <trkpt lat="45.35796" lon="4.52476">
        <ele>1279.559082</ele>
        <time>2011-03-05 15:50:45Z</time>
      </trkpt>
      <trkpt lat="45.35799" lon="4.52472">
        <ele>1279.334961</ele>
        <time>2011-03-05 15:50:49Z</time>
      </trkpt>
      <trkpt lat="45.35805" lon="4.52468">
        <ele>1279.101685</ele>
        <time>2011-03-05 15:50:53Z</time>
      </trkpt>
      <trkpt lat="45.35809" lon="4.52464">
        <ele>1278.909058</ele>
        <time>2011-03-05 15:50:57Z</time>
      </trkpt>
      <trkpt lat="45.35809" lon="4.52464">
        <ele>1278.890015</ele>
        <time>2011-03-05 15:51:01Z</time>
      </trkpt>
      <trkpt lat="45.35814" lon="4.52461">
        <ele>1278.86731</ele>
        <time>2011-03-05 15:51:05Z</time>
      </trkpt>
      <trkpt lat="45.35817" lon="4.52456">
        <ele>1278.757202</ele>
        <time>2011-03-05 15:51:09Z</time>
      </trkpt>
      <trkpt lat="45.35822" lon="4.52451">
        <ele>1278.694824</ele>
        <time>2011-03-05 15:51:13Z</time>
      </trkpt>
      <trkpt lat="45.35825" lon="4.52446">
        <ele>1278.433594</ele>
        <time>2011-03-05 15:51:17Z</time>
      </trkpt>
      <trkpt lat="45.35828" lon="4.52441">
        <ele>1278.118286</ele>
        <time>2011-03-05 15:51:21Z</time>
      </trkpt>
      <trkpt lat="45.35832" lon="4.52439">
        <ele>1277.848511</ele>
        <time>2011-03-05 15:51:25Z</time>
      </trkpt>
      <trkpt lat="45.35838" lon="4.52438">
        <ele>1277.57959</ele>
        <time>2011-03-05 15:51:29Z</time>
      </trkpt>
      <trkpt lat="45.35843" lon="4.52437">
        <ele>1277.334106</ele>
        <time>2011-03-05 15:51:33Z</time>
      </trkpt>
      <trkpt lat="45.35846" lon="4.52436">
        <ele>1277.148193</ele>
        <time>2011-03-05 15:51:37Z</time>
      </trkpt>
      <trkpt lat="45.35846" lon="4.52436">
        <ele>1277.130005</ele>
        <time>2011-03-05 15:51:41Z</time>
      </trkpt>
      <trkpt lat="45.35852" lon="4.52437">
        <ele>1277.109497</ele>
        <time>2011-03-05 15:51:45Z</time>
      </trkpt>
      <trkpt lat="45.35857" lon="4.52439">
        <ele>1277.094971</ele>
        <time>2011-03-05 15:51:49Z</time>
      </trkpt>
      <trkpt lat="45.35862" lon="4.52439">
        <ele>1277.082397</ele>
        <time>2011-03-05 15:51:53Z</time>
      </trkpt>
      <trkpt lat="45.35871" lon="4.52432">
        <ele>1277.012329</ele>
        <time>2011-03-05 15:51:57Z</time>
      </trkpt>
      <trkpt lat="45.35876" lon="4.5243">
        <ele>1276.949219</ele>
        <time>2011-03-05 15:52:01Z</time>
      </trkpt>
      <trkpt lat="45.3588" lon="4.52428">
        <ele>1276.888184</ele>
        <time>2011-03-05 15:52:05Z</time>
      </trkpt>
      <trkpt lat="45.35884" lon="4.52427">
        <ele>1276.862427</ele>
        <time>2011-03-05 15:52:09Z</time>
      </trkpt>
      <trkpt lat="45.35889" lon="4.52425">
        <ele>1276.860596</ele>
        <time>2011-03-05 15:52:13Z</time>
      </trkpt>
      <trkpt lat="45.35894" lon="4.52423">
        <ele>1276.818359</ele>
        <time>2011-03-05 15:52:17Z</time>
      </trkpt>
      <trkpt lat="45.359" lon="4.5242">
        <ele>1276.752563</ele>
        <time>2011-03-05 15:52:21Z</time>
      </trkpt>
      <trkpt lat="45.35906" lon="4.52418">
        <ele>1276.731079</ele>
        <time>2011-03-05 15:52:25Z</time>
      </trkpt>
      <trkpt lat="45.3591" lon="4.52416">
        <ele>1276.707153</ele>
        <time>2011-03-05 15:52:29Z</time>
      </trkpt>
      <trkpt lat="45.35915" lon="4.52415">
        <ele>1276.496826</ele>
        <time>2011-03-05 15:52:33Z</time>
      </trkpt>
      <trkpt lat="45.3592" lon="4.52413">
        <ele>1276.102661</ele>
        <time>2011-03-05 15:52:37Z</time>
      </trkpt>
      <trkpt lat="45.35931" lon="4.52405">
        <ele>1275.705444</ele>
        <time>2011-03-05 15:52:41Z</time>
      </trkpt>
      <trkpt lat="45.35941" lon="4.52394">
        <ele>1275.345703</ele>
        <time>2011-03-05 15:52:45Z</time>
      </trkpt>
      <trkpt lat="45.35947" lon="4.52387">
        <ele>1275.029541</ele>
        <time>2011-03-05 15:52:49Z</time>
      </trkpt>
      <trkpt lat="45.35951" lon="4.52381">
        <ele>1274.725464</ele>
        <time>2011-03-05 15:52:53Z</time>
      </trkpt>
      <trkpt lat="45.35954" lon="4.52376">
        <ele>1274.446655</ele>
        <time>2011-03-05 15:52:57Z</time>
      </trkpt>
      <trkpt lat="45.35958" lon="4.52373">
        <ele>1274.168945</ele>
        <time>2011-03-05 15:53:01Z</time>
      </trkpt>
      <trkpt lat="45.35961" lon="4.52369">
        <ele>1273.818848</ele>
        <time>2011-03-05 15:53:05Z</time>
      </trkpt>
      <trkpt lat="45.35963" lon="4.52367">
        <ele>1273.569946</ele>
        <time>2011-03-05 15:53:09Z</time>
      </trkpt>
      <trkpt lat="45.35966" lon="4.52361">
        <ele>1273.035034</ele>
        <time>2011-03-05 15:53:13Z</time>
      </trkpt>
      <trkpt lat="45.3597" lon="4.52354">
        <ele>1272.384766</ele>
        <time>2011-03-05 15:53:17Z</time>
      </trkpt>
      <trkpt lat="45.35973" lon="4.52349">
        <ele>1271.783203</ele>
        <time>2011-03-05 15:53:21Z</time>
      </trkpt>
      <trkpt lat="45.35976" lon="4.52345">
        <ele>1271.270142</ele>
        <time>2011-03-05 15:53:25Z</time>
      </trkpt>
      <trkpt lat="45.35979" lon="4.5234">
        <ele>1270.835571</ele>
        <time>2011-03-05 15:53:29Z</time>
      </trkpt>
      <trkpt lat="45.35981" lon="4.52336">
        <ele>1270.455933</ele>
        <time>2011-03-05 15:53:33Z</time>
      </trkpt>
      <trkpt lat="45.35984" lon="4.52332">
        <ele>1270.144897</ele>
        <time>2011-03-05 15:53:37Z</time>
      </trkpt>
      <trkpt lat="45.35988" lon="4.52329">
        <ele>1269.857788</ele>
        <time>2011-03-05 15:53:41Z</time>
      </trkpt>
      <trkpt lat="45.35996" lon="4.52322">
        <ele>1269.614136</ele>
        <time>2011-03-05 15:53:45Z</time>
      </trkpt>
      <trkpt lat="45.36004" lon="4.52316">
        <ele>1269.376221</ele>
        <time>2011-03-05 15:53:49Z</time>
      </trkpt>
      <trkpt lat="45.3601" lon="4.52312">
        <ele>1269.099609</ele>
        <time>2011-03-05 15:53:53Z</time>
      </trkpt>
      <trkpt lat="45.36017" lon="4.52311">
        <ele>1268.660645</ele>
        <time>2011-03-05 15:53:57Z</time>
      </trkpt>
      <trkpt lat="45.36024" lon="4.52308">
        <ele>1268.083008</ele>
        <time>2011-03-05 15:54:01Z</time>
      </trkpt>
      <trkpt lat="45.36026" lon="4.52304">
        <ele>1267.471313</ele>
        <time>2011-03-05 15:54:05Z</time>
      </trkpt>
      <trkpt lat="45.36029" lon="4.523">
        <ele>1266.945068</ele>
        <time>2011-03-05 15:54:09Z</time>
      </trkpt>
      <trkpt lat="45.36032" lon="4.52296">
        <ele>1266.484619</ele>
        <time>2011-03-05 15:54:13Z</time>
      </trkpt>
      <trkpt lat="45.36035" lon="4.52292">
        <ele>1266.120483</ele>
        <time>2011-03-05 15:54:17Z</time>
      </trkpt>
      <trkpt lat="45.36038" lon="4.52289">
        <ele>1265.8302</ele>
        <time>2011-03-05 15:54:21Z</time>
      </trkpt>
      <trkpt lat="45.36041" lon="4.52285">
        <ele>1265.53186</ele>
        <time>2011-03-05 15:54:25Z</time>
      </trkpt>
      <trkpt lat="45.36044" lon="4.52281">
        <ele>1265.18396</ele>
        <time>2011-03-05 15:54:29Z</time>
      </trkpt>
      <trkpt lat="45.36048" lon="4.52277">
        <ele>1264.873657</ele>
        <time>2011-03-05 15:54:33Z</time>
      </trkpt>
      <trkpt lat="45.36052" lon="4.52273">
        <ele>1264.599121</ele>
        <time>2011-03-05 15:54:37Z</time>
      </trkpt>
      <trkpt lat="45.36055" lon="4.52269">
        <ele>1264.365112</ele>
        <time>2011-03-05 15:54:41Z</time>
      </trkpt>
      <trkpt lat="45.36059" lon="4.52264">
        <ele>1264.128296</ele>
        <time>2011-03-05 15:54:45Z</time>
      </trkpt>
      <trkpt lat="45.36062" lon="4.52261">
        <ele>1263.922974</ele>
        <time>2011-03-05 15:54:49Z</time>
      </trkpt>
      <trkpt lat="45.36065" lon="4.52258">
        <ele>1263.770142</ele>
        <time>2011-03-05 15:54:53Z</time>
      </trkpt>
      <trkpt lat="45.36065" lon="4.52258">
        <ele>1263.748047</ele>
        <time>2011-03-05 15:54:57Z</time>
      </trkpt>
      <trkpt lat="45.36069" lon="4.52253">
        <ele>1263.721191</ele>
        <time>2011-03-05 15:55:01Z</time>
      </trkpt>
      <trkpt lat="45.36074" lon="4.52249">
        <ele>1263.47876</ele>
        <time>2011-03-05 15:55:05Z</time>
      </trkpt>
      <trkpt lat="45.36078" lon="4.52246">
        <ele>1263.288452</ele>
        <time>2011-03-05 15:55:09Z</time>
      </trkpt>
      <trkpt lat="45.36082" lon="4.52242">
        <ele>1263.108521</ele>
        <time>2011-03-05 15:55:13Z</time>
      </trkpt>
      <trkpt lat="45.36087" lon="4.52241">
        <ele>1262.787231</ele>
        <time>2011-03-05 15:55:17Z</time>
      </trkpt>
      <trkpt lat="45.36096" lon="4.52238">
        <ele>1262.328003</ele>
        <time>2011-03-05 15:55:21Z</time>
      </trkpt>
      <trkpt lat="45.361" lon="4.52237">
        <ele>1261.870605</ele>
        <time>2011-03-05 15:55:25Z</time>
      </trkpt>
      <trkpt lat="45.36104" lon="4.52236">
        <ele>1261.428223</ele>
        <time>2011-03-05 15:55:29Z</time>
      </trkpt>
      <trkpt lat="45.36108" lon="4.52233">
        <ele>1260.996216</ele>
        <time>2011-03-05 15:55:33Z</time>
      </trkpt>
      <trkpt lat="45.36111" lon="4.52231">
        <ele>1260.621826</ele>
        <time>2011-03-05 15:55:37Z</time>
      </trkpt>
      <trkpt lat="45.36114" lon="4.52228">
        <ele>1260.244141</ele>
        <time>2011-03-05 15:55:41Z</time>
      </trkpt>
      <trkpt lat="45.36114" lon="4.52228">
        <ele>1260.196655</ele>
        <time>2011-03-05 15:55:45Z</time>
      </trkpt>
      <trkpt lat="45.36123" lon="4.52221">
        <ele>1259.82666</ele>
        <time>2011-03-05 15:55:49Z</time>
      </trkpt>
      <trkpt lat="45.36134" lon="4.5221">
        <ele>1259.203003</ele>
        <time>2011-03-05 15:55:53Z</time>
      </trkpt>
      <trkpt lat="45.36138" lon="4.52205">
        <ele>1258.88855</ele>
        <time>2011-03-05 15:55:57Z</time>
      </trkpt>
      <trkpt lat="45.36144" lon="4.52194">
        <ele>1258.308472</ele>
        <time>2011-03-05 15:56:01Z</time>
      </trkpt>
      <trkpt lat="45.36147" lon="4.52178">
        <ele>1257.575684</ele>
        <time>2011-03-05 15:56:05Z</time>
      </trkpt>
      <trkpt lat="45.36148" lon="4.5217">
        <ele>1256.758301</ele>
        <time>2011-03-05 15:56:09Z</time>
      </trkpt>
      <trkpt lat="45.36149" lon="4.52164">
        <ele>1255.806396</ele>
        <time>2011-03-05 15:56:13Z</time>
      </trkpt>
      <trkpt lat="45.36146" lon="4.52157">
        <ele>1254.613647</ele>
        <time>2011-03-05 15:56:17Z</time>
      </trkpt>
      <trkpt lat="45.3614" lon="4.52153">
        <ele>1253.042236</ele>
        <time>2011-03-05 15:56:21Z</time>
      </trkpt>
      <trkpt lat="45.36139" lon="4.52151">
        <ele>1252.061279</ele>
        <time>2011-03-05 15:56:25Z</time>
      </trkpt>
      <trkpt lat="45.36139" lon="4.52151">
        <ele>1251.036743</ele>
        <time>2011-03-05 15:56:29Z</time>
      </trkpt>
      <trkpt lat="45.36142" lon="4.5215">
        <ele>1249.641479</ele>
        <time>2011-03-05 15:56:33Z</time>
      </trkpt>
      <trkpt lat="45.36144" lon="4.52153">
        <ele>1248.75354</ele>
        <time>2011-03-05 15:56:37Z</time>
      </trkpt>
      <trkpt lat="45.36145" lon="4.52154">
        <ele>1248.023682</ele>
        <time>2011-03-05 15:56:41Z</time>
      </trkpt>
      <trkpt lat="45.36151" lon="4.52154">
        <ele>1247.176636</ele>
        <time>2011-03-05 15:56:45Z</time>
      </trkpt>
      <trkpt lat="45.36157" lon="4.52155">
        <ele>1245.71582</ele>
        <time>2011-03-05 15:56:49Z</time>
      </trkpt>
      <trkpt lat="45.36162" lon="4.52154">
        <ele>1243.821289</ele>
        <time>2011-03-05 15:56:53Z</time>
      </trkpt>
      <trkpt lat="45.36167" lon="4.5215">
        <ele>1241.84021</ele>
        <time>2011-03-05 15:56:57Z</time>
      </trkpt>
      <trkpt lat="45.36171" lon="4.52146">
        <ele>1239.988281</ele>
        <time>2011-03-05 15:57:01Z</time>
      </trkpt>
      <trkpt lat="45.36176" lon="4.52142">
        <ele>1238.562134</ele>
        <time>2011-03-05 15:57:05Z</time>
      </trkpt>
      <trkpt lat="45.36181" lon="4.52138">
        <ele>1237.552368</ele>
        <time>2011-03-05 15:57:09Z</time>
      </trkpt>
      <trkpt lat="45.36185" lon="4.52132">
        <ele>1236.908691</ele>
        <time>2011-03-05 15:57:13Z</time>
      </trkpt>
      <trkpt lat="45.3619" lon="4.52127">
        <ele>1236.49353</ele>
        <time>2011-03-05 15:57:17Z</time>
      </trkpt>
      <trkpt lat="45.36196" lon="4.52122">
        <ele>1236.304443</ele>
        <time>2011-03-05 15:57:21Z</time>
      </trkpt>
      <trkpt lat="45.36201" lon="4.52118">
        <ele>1236.270386</ele>
        <time>2011-03-05 15:57:25Z</time>
      </trkpt>
      <trkpt lat="45.36206" lon="4.52114">
        <ele>1236.337524</ele>
        <time>2011-03-05 15:57:29Z</time>
      </trkpt>
      <trkpt lat="45.36211" lon="4.52111">
        <ele>1236.543945</ele>
        <time>2011-03-05 15:57:33Z</time>
      </trkpt>
      <trkpt lat="45.36217" lon="4.52109">
        <ele>1236.786377</ele>
        <time>2011-03-05 15:57:37Z</time>
      </trkpt>
      <trkpt lat="45.36224" lon="4.52113">
        <ele>1236.935181</ele>
        <time>2011-03-05 15:57:41Z</time>
      </trkpt>
      <trkpt lat="45.36231" lon="4.52115">
        <ele>1236.87146</ele>
        <time>2011-03-05 15:57:45Z</time>
      </trkpt>
      <trkpt lat="45.36238" lon="4.52115">
        <ele>1236.587524</ele>
        <time>2011-03-05 15:57:49Z</time>
      </trkpt>
      <trkpt lat="45.36245" lon="4.52112">
        <ele>1236.239136</ele>
        <time>2011-03-05 15:57:53Z</time>
      </trkpt>
      <trkpt lat="45.36251" lon="4.52109">
        <ele>1235.8125</ele>
        <time>2011-03-05 15:57:57Z</time>
      </trkpt>
      <trkpt lat="45.36256" lon="4.52106">
        <ele>1235.427246</ele>
        <time>2011-03-05 15:58:01Z</time>
      </trkpt>
      <trkpt lat="45.3626" lon="4.52102">
        <ele>1234.983887</ele>
        <time>2011-03-05 15:58:05Z</time>
      </trkpt>
      <trkpt lat="45.36264" lon="4.52099">
        <ele>1234.397339</ele>
        <time>2011-03-05 15:58:09Z</time>
      </trkpt>
      <trkpt lat="45.36269" lon="4.52095">
        <ele>1233.873169</ele>
        <time>2011-03-05 15:58:13Z</time>
      </trkpt>
      <trkpt lat="45.36272" lon="4.52091">
        <ele>1233.399292</ele>
        <time>2011-03-05 15:58:17Z</time>
      </trkpt>
      <trkpt lat="45.36276" lon="4.52087">
        <ele>1232.929932</ele>
        <time>2011-03-05 15:58:21Z</time>
      </trkpt>
      <trkpt lat="45.3628" lon="4.52083">
        <ele>1232.491577</ele>
        <time>2011-03-05 15:58:25Z</time>
      </trkpt>
      <trkpt lat="45.36284" lon="4.52079">
        <ele>1232.082764</ele>
        <time>2011-03-05 15:58:29Z</time>
      </trkpt>
      <trkpt lat="45.36289" lon="4.52074">
        <ele>1231.630005</ele>
        <time>2011-03-05 15:58:33Z</time>
      </trkpt>
      <trkpt lat="45.36294" lon="4.5207">
        <ele>1231.086548</ele>
        <time>2011-03-05 15:58:37Z</time>
      </trkpt>
      <trkpt lat="45.363" lon="4.52067">
        <ele>1230.44458</ele>
        <time>2011-03-05 15:58:41Z</time>
      </trkpt>
      <trkpt lat="45.36306" lon="4.52063">
        <ele>1229.730225</ele>
        <time>2011-03-05 15:58:45Z</time>
      </trkpt>
      <trkpt lat="45.36312" lon="4.52059">
        <ele>1228.990112</ele>
        <time>2011-03-05 15:58:49Z</time>
      </trkpt>
      <trkpt lat="45.36316" lon="4.52055">
        <ele>1228.275391</ele>
        <time>2011-03-05 15:58:53Z</time>
      </trkpt>
      <trkpt lat="45.3632" lon="4.5205">
        <ele>1227.613892</ele>
        <time>2011-03-05 15:58:57Z</time>
      </trkpt>
      <trkpt lat="45.36323" lon="4.52046">
        <ele>1227.009521</ele>
        <time>2011-03-05 15:59:01Z</time>
      </trkpt>
      <trkpt lat="45.36326" lon="4.52042">
        <ele>1226.453125</ele>
        <time>2011-03-05 15:59:05Z</time>
      </trkpt>
      <trkpt lat="45.3633" lon="4.52037">
        <ele>1225.845459</ele>
        <time>2011-03-05 15:59:09Z</time>
      </trkpt>
      <trkpt lat="45.36335" lon="4.52033">
        <ele>1225.261353</ele>
        <time>2011-03-05 15:59:13Z</time>
      </trkpt>
      <trkpt lat="45.36342" lon="4.52028">
        <ele>1224.505371</ele>
        <time>2011-03-05 15:59:17Z</time>
      </trkpt>
      <trkpt lat="45.36347" lon="4.52024">
        <ele>1223.734375</ele>
        <time>2011-03-05 15:59:21Z</time>
      </trkpt>
      <trkpt lat="45.36351" lon="4.5202">
        <ele>1223.067017</ele>
        <time>2011-03-05 15:59:25Z</time>
      </trkpt>
      <trkpt lat="45.36354" lon="4.52016">
        <ele>1222.476318</ele>
        <time>2011-03-05 15:59:29Z</time>
      </trkpt>
      <trkpt lat="45.36359" lon="4.52012">
        <ele>1221.866577</ele>
        <time>2011-03-05 15:59:33Z</time>
      </trkpt>
      <trkpt lat="45.36363" lon="4.52008">
        <ele>1221.258301</ele>
        <time>2011-03-05 15:59:37Z</time>
      </trkpt>
      <trkpt lat="45.36366" lon="4.52004">
        <ele>1220.637451</ele>
        <time>2011-03-05 15:59:41Z</time>
      </trkpt>
      <trkpt lat="45.3637" lon="4.52">
        <ele>1220.040039</ele>
        <time>2011-03-05 15:59:45Z</time>
      </trkpt>
      <trkpt lat="45.36374" lon="4.51995">
        <ele>1219.429077</ele>
        <time>2011-03-05 15:59:49Z</time>
      </trkpt>
      <trkpt lat="45.36378" lon="4.5199">
        <ele>1218.885132</ele>
        <time>2011-03-05 15:59:53Z</time>
      </trkpt>
      <trkpt lat="45.36383" lon="4.51984">
        <ele>1218.424805</ele>
        <time>2011-03-05 15:59:57Z</time>
      </trkpt>
      <trkpt lat="45.36387" lon="4.51979">
        <ele>1217.988892</ele>
        <time>2011-03-05 16:00:01Z</time>
      </trkpt>
      <trkpt lat="45.36391" lon="4.51973">
        <ele>1217.624268</ele>
        <time>2011-03-05 16:00:05Z</time>
      </trkpt>
      <trkpt lat="45.36395" lon="4.51968">
        <ele>1217.313843</ele>
        <time>2011-03-05 16:00:09Z</time>
      </trkpt>
      <trkpt lat="45.36398" lon="4.51961">
        <ele>1217.048218</ele>
        <time>2011-03-05 16:00:13Z</time>
      </trkpt>
      <trkpt lat="45.364" lon="4.51954">
        <ele>1216.685669</ele>
        <time>2011-03-05 16:00:17Z</time>
      </trkpt>
      <trkpt lat="45.36403" lon="4.51948">
        <ele>1216.181885</ele>
        <time>2011-03-05 16:00:21Z</time>
      </trkpt>
      <trkpt lat="45.36404" lon="4.51942">
        <ele>1215.761353</ele>
        <time>2011-03-05 16:00:25Z</time>
      </trkpt>
      <trkpt lat="45.36406" lon="4.51936">
        <ele>1215.303467</ele>
        <time>2011-03-05 16:00:29Z</time>
      </trkpt>
      <trkpt lat="45.36405" lon="4.51931">
        <ele>1214.716309</ele>
        <time>2011-03-05 16:00:33Z</time>
      </trkpt>
      <trkpt lat="45.36403" lon="4.51923">
        <ele>1213.912598</ele>
        <time>2011-03-05 16:00:37Z</time>
      </trkpt>
      <trkpt lat="45.36403" lon="4.51915">
        <ele>1212.844849</ele>
        <time>2011-03-05 16:00:41Z</time>
      </trkpt>
      <trkpt lat="45.36403" lon="4.51908">
        <ele>1211.79126</ele>
        <time>2011-03-05 16:00:45Z</time>
      </trkpt>
      <trkpt lat="45.36403" lon="4.519">
        <ele>1210.928223</ele>
        <time>2011-03-05 16:00:49Z</time>
      </trkpt>
      <trkpt lat="45.36404" lon="4.51892">
        <ele>1210.196289</ele>
        <time>2011-03-05 16:00:53Z</time>
      </trkpt>
      <trkpt lat="45.36404" lon="4.51882">
        <ele>1209.579102</ele>
        <time>2011-03-05 16:00:57Z</time>
      </trkpt>
      <trkpt lat="45.36407" lon="4.51875">
        <ele>1208.910034</ele>
        <time>2011-03-05 16:01:01Z</time>
      </trkpt>
      <trkpt lat="45.3641" lon="4.51868">
        <ele>1208.095947</ele>
        <time>2011-03-05 16:01:05Z</time>
      </trkpt>
      <trkpt lat="45.36414" lon="4.51861">
        <ele>1207.197021</ele>
        <time>2011-03-05 16:01:09Z</time>
      </trkpt>
      <trkpt lat="45.36416" lon="4.51855">
        <ele>1206.370728</ele>
        <time>2011-03-05 16:01:13Z</time>
      </trkpt>
      <trkpt lat="45.36419" lon="4.51848">
        <ele>1205.481934</ele>
        <time>2011-03-05 16:01:17Z</time>
      </trkpt>
      <trkpt lat="45.36422" lon="4.51842">
        <ele>1204.688599</ele>
        <time>2011-03-05 16:01:21Z</time>
      </trkpt>
      <trkpt lat="45.36425" lon="4.51836">
        <ele>1204.023926</ele>
        <time>2011-03-05 16:01:25Z</time>
      </trkpt>
      <trkpt lat="45.36429" lon="4.51831">
        <ele>1203.332153</ele>
        <time>2011-03-05 16:01:29Z</time>
      </trkpt>
      <trkpt lat="45.36432" lon="4.51826">
        <ele>1202.599609</ele>
        <time>2011-03-05 16:01:33Z</time>
      </trkpt>
      <trkpt lat="45.36436" lon="4.5182">
        <ele>1201.639404</ele>
        <time>2011-03-05 16:01:37Z</time>
      </trkpt>
      <trkpt lat="45.3644" lon="4.51814">
        <ele>1200.782349</ele>
        <time>2011-03-05 16:01:41Z</time>
      </trkpt>
      <trkpt lat="45.36444" lon="4.51808">
        <ele>1199.95813</ele>
        <time>2011-03-05 16:01:45Z</time>
      </trkpt>
      <trkpt lat="45.36448" lon="4.51804">
        <ele>1199.093994</ele>
        <time>2011-03-05 16:01:49Z</time>
      </trkpt>
      <trkpt lat="45.36451" lon="4.51798">
        <ele>1198.324829</ele>
        <time>2011-03-05 16:01:53Z</time>
      </trkpt>
      <trkpt lat="45.36454" lon="4.51791">
        <ele>1197.709106</ele>
        <time>2011-03-05 16:01:57Z</time>
      </trkpt>
      <trkpt lat="45.36457" lon="4.51785">
        <ele>1197.199097</ele>
        <time>2011-03-05 16:02:01Z</time>
      </trkpt>
      <trkpt lat="45.36461" lon="4.5178">
        <ele>1196.771851</ele>
        <time>2011-03-05 16:02:05Z</time>
      </trkpt>
      <trkpt lat="45.36465" lon="4.51775">
        <ele>1196.383789</ele>
        <time>2011-03-05 16:02:09Z</time>
      </trkpt>
      <trkpt lat="45.3647" lon="4.51771">
        <ele>1195.947144</ele>
        <time>2011-03-05 16:02:13Z</time>
      </trkpt>
      <trkpt lat="45.36475" lon="4.51767">
        <ele>1195.529541</ele>
        <time>2011-03-05 16:02:17Z</time>
      </trkpt>
      <trkpt lat="45.36479" lon="4.51762">
        <ele>1195.18689</ele>
        <time>2011-03-05 16:02:21Z</time>
      </trkpt>
      <trkpt lat="45.36483" lon="4.51758">
        <ele>1194.81543</ele>
        <time>2011-03-05 16:02:25Z</time>
      </trkpt>
      <trkpt lat="45.36488" lon="4.51753">
        <ele>1194.294556</ele>
        <time>2011-03-05 16:02:29Z</time>
      </trkpt>
      <trkpt lat="45.36491" lon="4.51749">
        <ele>1193.748291</ele>
        <time>2011-03-05 16:02:33Z</time>
      </trkpt>
      <trkpt lat="45.36496" lon="4.51745">
        <ele>1193.234863</ele>
        <time>2011-03-05 16:02:37Z</time>
      </trkpt>
      <trkpt lat="45.36501" lon="4.51742">
        <ele>1192.726562</ele>
        <time>2011-03-05 16:02:41Z</time>
      </trkpt>
      <trkpt lat="45.36506" lon="4.51738">
        <ele>1192.314575</ele>
        <time>2011-03-05 16:02:45Z</time>
      </trkpt>
      <trkpt lat="45.36511" lon="4.51733">
        <ele>1191.918701</ele>
        <time>2011-03-05 16:02:49Z</time>
      </trkpt>
      <trkpt lat="45.36515" lon="4.51729">
        <ele>1191.585205</ele>
        <time>2011-03-05 16:02:53Z</time>
      </trkpt>
      <trkpt lat="45.36519" lon="4.51723">
        <ele>1191.283447</ele>
        <time>2011-03-05 16:02:57Z</time>
      </trkpt>
      <trkpt lat="45.36522" lon="4.51718">
        <ele>1190.999634</ele>
        <time>2011-03-05 16:03:01Z</time>
      </trkpt>
      <trkpt lat="45.36527" lon="4.51714">
        <ele>1190.689819</ele>
        <time>2011-03-05 16:03:05Z</time>
      </trkpt>
      <trkpt lat="45.3653" lon="4.51709">
        <ele>1190.35376</ele>
        <time>2011-03-05 16:03:09Z</time>
      </trkpt>
      <trkpt lat="45.36533" lon="4.51704">
        <ele>1190.010132</ele>
        <time>2011-03-05 16:03:13Z</time>
      </trkpt>
      <trkpt lat="45.36537" lon="4.51699">
        <ele>1189.576416</ele>
        <time>2011-03-05 16:03:17Z</time>
      </trkpt>
      <trkpt lat="45.36541" lon="4.51694">
        <ele>1189.170776</ele>
        <time>2011-03-05 16:03:21Z</time>
      </trkpt>
      <trkpt lat="45.36545" lon="4.51689">
        <ele>1188.845459</ele>
        <time>2011-03-05 16:03:25Z</time>
      </trkpt>
      <trkpt lat="45.3655" lon="4.51685">
        <ele>1188.53125</ele>
        <time>2011-03-05 16:03:29Z</time>
      </trkpt>
      <trkpt lat="45.36555" lon="4.51681">
        <ele>1188.234985</ele>
        <time>2011-03-05 16:03:33Z</time>
      </trkpt>
      <trkpt lat="45.36559" lon="4.51677">
        <ele>1187.917847</ele>
        <time>2011-03-05 16:03:37Z</time>
      </trkpt>
      <trkpt lat="45.36563" lon="4.51673">
        <ele>1187.563965</ele>
        <time>2011-03-05 16:03:41Z</time>
      </trkpt>
      <trkpt lat="45.36568" lon="4.5167">
        <ele>1187.172485</ele>
        <time>2011-03-05 16:03:45Z</time>
      </trkpt>
      <trkpt lat="45.36572" lon="4.51666">
        <ele>1186.814575</ele>
        <time>2011-03-05 16:03:49Z</time>
      </trkpt>
      <trkpt lat="45.36576" lon="4.51662">
        <ele>1186.47168</ele>
        <time>2011-03-05 16:03:53Z</time>
      </trkpt>
      <trkpt lat="45.3658" lon="4.51659">
        <ele>1186.107544</ele>
        <time>2011-03-05 16:03:57Z</time>
      </trkpt>
      <trkpt lat="45.36585" lon="4.51657">
        <ele>1185.617676</ele>
        <time>2011-03-05 16:04:01Z</time>
      </trkpt>
      <trkpt lat="45.3659" lon="4.51655">
        <ele>1185.075806</ele>
        <time>2011-03-05 16:04:05Z</time>
      </trkpt>
      <trkpt lat="45.36595" lon="4.51656">
        <ele>1184.538696</ele>
        <time>2011-03-05 16:04:09Z</time>
      </trkpt>
      <trkpt lat="45.366" lon="4.51656">
        <ele>1184.012695</ele>
        <time>2011-03-05 16:04:13Z</time>
      </trkpt>
      <trkpt lat="45.36604" lon="4.51657">
        <ele>1183.446533</ele>
        <time>2011-03-05 16:04:17Z</time>
      </trkpt>
      <trkpt lat="45.36609" lon="4.51656">
        <ele>1182.897339</ele>
        <time>2011-03-05 16:04:21Z</time>
      </trkpt>
      <trkpt lat="45.36614" lon="4.51657">
        <ele>1182.566284</ele>
        <time>2011-03-05 16:04:25Z</time>
      </trkpt>
      <trkpt lat="45.36614" lon="4.51657">
        <ele>1182.551025</ele>
        <time>2011-03-05 16:04:29Z</time>
      </trkpt>
      <trkpt lat="45.36622" lon="4.51659">
        <ele>1182.412598</ele>
        <time>2011-03-05 16:04:33Z</time>
      </trkpt>
      <trkpt lat="45.36629" lon="4.51657">
        <ele>1182.256592</ele>
        <time>2011-03-05 16:04:37Z</time>
      </trkpt>
      <trkpt lat="45.36636" lon="4.51656">
        <ele>1182.050171</ele>
        <time>2011-03-05 16:04:41Z</time>
      </trkpt>
      <trkpt lat="45.36642" lon="4.51656">
        <ele>1181.871338</ele>
        <time>2011-03-05 16:04:45Z</time>
      </trkpt>
      <trkpt lat="45.36648" lon="4.51655">
        <ele>1181.692627</ele>
        <time>2011-03-05 16:04:49Z</time>
      </trkpt>
      <trkpt lat="45.36653" lon="4.51655">
        <ele>1181.489746</ele>
        <time>2011-03-05 16:04:53Z</time>
      </trkpt>
      <trkpt lat="45.36654" lon="4.51655">
        <ele>1181.27478</ele>
        <time>2011-03-05 16:04:57Z</time>
      </trkpt>
      <trkpt lat="45.36661" lon="4.51655">
        <ele>1181.003662</ele>
        <time>2011-03-05 16:05:01Z</time>
      </trkpt>
      <trkpt lat="45.36666" lon="4.51654">
        <ele>1180.636719</ele>
        <time>2011-03-05 16:05:05Z</time>
      </trkpt>
      <trkpt lat="45.36671" lon="4.51653">
        <ele>1180.252197</ele>
        <time>2011-03-05 16:05:09Z</time>
      </trkpt>
      <trkpt lat="45.36675" lon="4.51652">
        <ele>1179.93103</ele>
        <time>2011-03-05 16:05:13Z</time>
      </trkpt>
      <trkpt lat="45.36678" lon="4.51651">
        <ele>1179.668945</ele>
        <time>2011-03-05 16:05:17Z</time>
      </trkpt>
      <trkpt lat="45.36681" lon="4.51651">
        <ele>1179.449341</ele>
        <time>2011-03-05 16:05:21Z</time>
      </trkpt>
      <trkpt lat="45.36686" lon="4.51653">
        <ele>1179.33252</ele>
        <time>2011-03-05 16:05:25Z</time>
      </trkpt>
      <trkpt lat="45.36691" lon="4.51653">
        <ele>1179.263916</ele>
        <time>2011-03-05 16:05:29Z</time>
      </trkpt>
      <trkpt lat="45.36696" lon="4.51653">
        <ele>1179.201294</ele>
        <time>2011-03-05 16:05:33Z</time>
      </trkpt>
      <trkpt lat="45.36704" lon="4.51653">
        <ele>1179.112427</ele>
        <time>2011-03-05 16:05:37Z</time>
      </trkpt>
      <trkpt lat="45.36711" lon="4.51653">
        <ele>1178.899048</ele>
        <time>2011-03-05 16:05:41Z</time>
      </trkpt>
      <trkpt lat="45.36718" lon="4.51651">
        <ele>1178.661743</ele>
        <time>2011-03-05 16:05:45Z</time>
      </trkpt>
      <trkpt lat="45.3672" lon="4.51651">
        <ele>1178.552734</ele>
        <time>2011-03-05 16:05:49Z</time>
      </trkpt>
      <trkpt lat="45.36725" lon="4.51652">
        <ele>1178.347778</ele>
        <time>2011-03-05 16:05:53Z</time>
      </trkpt>
      <trkpt lat="45.3673" lon="4.51652">
        <ele>1177.928223</ele>
        <time>2011-03-05 16:05:57Z</time>
      </trkpt>
      <trkpt lat="45.36735" lon="4.51654">
        <ele>1177.643799</ele>
        <time>2011-03-05 16:06:01Z</time>
      </trkpt>
      <trkpt lat="45.36741" lon="4.51656">
        <ele>1177.462646</ele>
        <time>2011-03-05 16:06:05Z</time>
      </trkpt>
      <trkpt lat="45.36747" lon="4.51656">
        <ele>1177.268311</ele>
        <time>2011-03-05 16:06:09Z</time>
      </trkpt>
      <trkpt lat="45.3675" lon="4.51656">
        <ele>1177.185181</ele>
        <time>2011-03-05 16:06:13Z</time>
      </trkpt>
      <trkpt lat="45.36755" lon="4.51655">
        <ele>1177.169556</ele>
        <time>2011-03-05 16:06:17Z</time>
      </trkpt>
      <trkpt lat="45.3676" lon="4.51652">
        <ele>1177.142578</ele>
        <time>2011-03-05 16:06:21Z</time>
      </trkpt>
      <trkpt lat="45.36767" lon="4.51651">
        <ele>1177.161133</ele>
        <time>2011-03-05 16:06:25Z</time>
      </trkpt>
      <trkpt lat="45.36774" lon="4.51652">
        <ele>1177.204956</ele>
        <time>2011-03-05 16:06:29Z</time>
      </trkpt>
      <trkpt lat="45.36779" lon="4.51652">
        <ele>1177.253174</ele>
        <time>2011-03-05 16:06:33Z</time>
      </trkpt>
      <trkpt lat="45.36783" lon="4.51651">
        <ele>1177.267944</ele>
        <time>2011-03-05 16:06:37Z</time>
      </trkpt>
      <trkpt lat="45.36787" lon="4.5165">
        <ele>1177.293091</ele>
        <time>2011-03-05 16:06:41Z</time>
      </trkpt>
      <trkpt lat="45.36794" lon="4.51649">
        <ele>1177.483887</ele>
        <time>2011-03-05 16:06:45Z</time>
      </trkpt>
      <trkpt lat="45.368" lon="4.51649">
        <ele>1177.763428</ele>
        <time>2011-03-05 16:06:49Z</time>
      </trkpt>
      <trkpt lat="45.36804" lon="4.51647">
        <ele>1178.007202</ele>
        <time>2011-03-05 16:06:53Z</time>
      </trkpt>
      <trkpt lat="45.36808" lon="4.51647">
        <ele>1178.14624</ele>
        <time>2011-03-05 16:06:57Z</time>
      </trkpt>
      <trkpt lat="45.36814" lon="4.5165">
        <ele>1178.154541</ele>
        <time>2011-03-05 16:07:01Z</time>
      </trkpt>
      <trkpt lat="45.36819" lon="4.51652">
        <ele>1178.059082</ele>
        <time>2011-03-05 16:07:05Z</time>
      </trkpt>
      <trkpt lat="45.36823" lon="4.51655">
        <ele>1177.963013</ele>
        <time>2011-03-05 16:07:09Z</time>
      </trkpt>
      <trkpt lat="45.36828" lon="4.51657">
        <ele>1177.863037</ele>
        <time>2011-03-05 16:07:13Z</time>
      </trkpt>
      <trkpt lat="45.36832" lon="4.51661">
        <ele>1177.672729</ele>
        <time>2011-03-05 16:07:17Z</time>
      </trkpt>
      <trkpt lat="45.36837" lon="4.51668">
        <ele>1177.435303</ele>
        <time>2011-03-05 16:07:21Z</time>
      </trkpt>
      <trkpt lat="45.3684" lon="4.51672">
        <ele>1177.304932</ele>
        <time>2011-03-05 16:07:25Z</time>
      </trkpt>
      <trkpt lat="45.36842" lon="4.51677">
        <ele>1177.239746</ele>
        <time>2011-03-05 16:07:29Z</time>
      </trkpt>
      <trkpt lat="45.36842" lon="4.51682">
        <ele>1177.247559</ele>
        <time>2011-03-05 16:07:33Z</time>
      </trkpt>
      <trkpt lat="45.36841" lon="4.51687">
        <ele>1177.290161</ele>
        <time>2011-03-05 16:07:37Z</time>
      </trkpt>
      <trkpt lat="45.3684" lon="4.51693">
        <ele>1177.386841</ele>
        <time>2011-03-05 16:07:41Z</time>
      </trkpt>
      <trkpt lat="45.3684" lon="4.51696">
        <ele>1177.473389</ele>
        <time>2011-03-05 16:07:45Z</time>
      </trkpt>
      <trkpt lat="45.36841" lon="4.51697">
        <ele>1177.515381</ele>
        <time>2011-03-05 16:07:49Z</time>
      </trkpt>
      <trkpt lat="45.36837" lon="4.51706">
        <ele>1177.558594</ele>
        <time>2011-03-05 16:07:53Z</time>
      </trkpt>
      <trkpt lat="45.36834" lon="4.51714">
        <ele>1177.621704</ele>
        <time>2011-03-05 16:07:57Z</time>
      </trkpt>
      <trkpt lat="45.36828" lon="4.51724">
        <ele>1177.715454</ele>
        <time>2011-03-05 16:08:01Z</time>
      </trkpt>
      <trkpt lat="45.36821" lon="4.51733">
        <ele>1177.829224</ele>
        <time>2011-03-05 16:08:05Z</time>
      </trkpt>
      <trkpt lat="45.36818" lon="4.51741">
        <ele>1177.932861</ele>
        <time>2011-03-05 16:08:09Z</time>
      </trkpt>
      <trkpt lat="45.36813" lon="4.51752">
        <ele>1178.037354</ele>
        <time>2011-03-05 16:08:13Z</time>
      </trkpt>
      <trkpt lat="45.36809" lon="4.51762">
        <ele>1178.183716</ele>
        <time>2011-03-05 16:08:17Z</time>
      </trkpt>
      <trkpt lat="45.36805" lon="4.5177">
        <ele>1178.331421</ele>
        <time>2011-03-05 16:08:21Z</time>
      </trkpt>
      <trkpt lat="45.36801" lon="4.51778">
        <ele>1178.509521</ele>
        <time>2011-03-05 16:08:25Z</time>
      </trkpt>
      <trkpt lat="45.36795" lon="4.51787">
        <ele>1178.684082</ele>
        <time>2011-03-05 16:08:29Z</time>
      </trkpt>
      <trkpt lat="45.3679" lon="4.51796">
        <ele>1178.904541</ele>
        <time>2011-03-05 16:08:33Z</time>
      </trkpt>
      <trkpt lat="45.36787" lon="4.51803">
        <ele>1179.153931</ele>
        <time>2011-03-05 16:08:37Z</time>
      </trkpt>
      <trkpt lat="45.36785" lon="4.5181">
        <ele>1179.437622</ele>
        <time>2011-03-05 16:08:41Z</time>
      </trkpt>
      <trkpt lat="45.36783" lon="4.51817">
        <ele>1179.735229</ele>
        <time>2011-03-05 16:08:45Z</time>
      </trkpt>
      <trkpt lat="45.36781" lon="4.51825">
        <ele>1180.031372</ele>
        <time>2011-03-05 16:08:49Z</time>
      </trkpt>
      <trkpt lat="45.36778" lon="4.51833">
        <ele>1180.307495</ele>
        <time>2011-03-05 16:08:53Z</time>
      </trkpt>
      <trkpt lat="45.36776" lon="4.51842">
        <ele>1180.59436</ele>
        <time>2011-03-05 16:08:57Z</time>
      </trkpt>
      <trkpt lat="45.36775" lon="4.51849">
        <ele>1180.899658</ele>
        <time>2011-03-05 16:09:01Z</time>
      </trkpt>
      <trkpt lat="45.36772" lon="4.51856">
        <ele>1181.211792</ele>
        <time>2011-03-05 16:09:05Z</time>
      </trkpt>
      <trkpt lat="45.3677" lon="4.51862">
        <ele>1181.497559</ele>
        <time>2011-03-05 16:09:09Z</time>
      </trkpt>
      <trkpt lat="45.36768" lon="4.51865">
        <ele>1181.835693</ele>
        <time>2011-03-05 16:09:13Z</time>
      </trkpt>
      <trkpt lat="45.36768" lon="4.51866">
        <ele>1182.016357</ele>
        <time>2011-03-05 16:09:17Z</time>
      </trkpt>
    </trkseg>
  </trk>
</gpx>